ECMWFFLT2_925_thetae_000.txt.gz
Theta_e
324 323 322 324 322 320 323 322 317 321 328 326 315 313 316 315 314 315 316 319 324 326 332 338 338 338 337 337 337 335 339 348 351 351 353 355 355 355 356 356 356 355 355 357 357 356 356 356 357 358 358 361 361 361 363 367 367 365 363 366 367 366 367
323 323 323 324 323 324 322 317 319 326 329 328 320 314 315 316 315 315 314 316 318 317 322 333 336 334 334 335 336 336 336 344 350 352 353 355 355 355 357 357 357 356 356 358 358 354 354 355 356 358 359 362 364 364 364 366 366 366 364 366 368 368 368
322 325 323 320 322 326 324 322 327 326 319 318 319 315 315 316 316 315 314 315 316 314 318 328 333 334 335 335 335 335 334 341 349 350 351 355 354 354 357 357 357 357 355 357 357 352 352 354 356 358 361 363 364 365 365 362 363 365 364 364 368 369 369
322 323 320 315 317 323 324 325 329 327 321 318 318 317 316 315 315 315 314 314 314 318 325 330 334 336 336 335 336 335 333 339 348 351 351 354 355 355 355 355 357 358 355 354 354 351 350 352 356 359 360 361 361 363 364 362 361 364 365 364 367 370 369
319 317 318 317 317 320 320 318 319 320 321 322 320 319 317 315 315 315 315 313 313 323 335 335 335 337 336 335 336 336 335 335 340 348 351 354 355 357 355 355 356 356 355 353 351 352 351 351 356 358 357 358 358 358 362 362 362 364 365 365 367 369 369
313 315 321 322 321 323 321 318 317 319 320 319 317 317 316 316 315 314 315 312 314 326 337 335 335 336 334 334 334 334 336 335 334 343 351 354 356 357 357 356 354 354 355 354 351 352 352 351 356 358 356 356 357 357 359 361 362 362 363 364 367 370 369
317 320 324 323 322 323 323 323 323 324 323 317 312 313 315 315 314 315 314 312 316 331 339 335 334 335 333 333 336 334 334 335 334 339 349 355 359 359 357 354 354 354 355 356 354 355 355 354 356 358 358 357 357 357 359 361 363 363 360 362 367 370 369
322 323 323 323 323 323 320 321 324 324 322 321 319 319 319 316 313 314 315 312 317 331 341 339 336 336 333 333 335 335 335 339 339 345 354 358 360 361 358 354 356 354 352 357 359 359 360 360 358 360 360 359 358 359 359 361 363 363 361 360 364 370 370
318 319 320 319 320 321 318 319 323 324 325 325 324 322 322 318 314 315 316 312 317 331 341 339 337 336 333 334 334 334 339 344 343 350 361 361 360 362 359 357 357 355 354 360 364 364 365 364 362 361 362 362 361 361 362 362 362 364 363 360 361 367 369
316 315 315 315 316 319 320 321 321 323 323 323 321 318 316 315 316 316 315 312 319 332 337 335 335 334 332 334 335 333 338 346 347 355 364 364 363 363 362 360 358 358 361 365 367 368 369 366 364 363 364 364 363 364 364 364 362 364 364 362 361 364 367
316 316 318 322 323 318 316 318 319 321 323 323 322 315 312 316 317 315 319 321 319 326 335 336 333 333 333 333 334 333 335 344 352 361 367 364 363 362 361 361 361 363 367 368 369 371 370 368 366 365 366 364 365 366 365 364 364 365 365 364 363 363 366
322 323 325 327 326 320 317 318 317 319 322 321 319 313 315 321 316 312 324 331 321 322 334 335 333 335 335 333 333 333 334 336 343 359 366 361 360 362 362 362 364 366 369 370 372 371 371 369 368 368 368 366 366 367 367 366 365 365 366 366 366 367 367
325 327 326 326 326 323 323 322 319 320 321 320 317 315 319 323 316 314 326 333 324 326 333 333 334 335 333 333 334 332 334 334 335 355 366 361 358 359 361 363 366 368 370 372 372 371 371 370 369 369 368 368 368 368 367 367 365 365 366 367 369 368 368
325 327 327 328 325 323 322 323 323 322 322 321 320 320 322 323 320 321 327 330 329 332 333 332 333 334 332 333 333 331 334 334 335 354 364 360 357 358 359 362 365 367 368 370 372 372 372 371 371 370 370 370 369 368 368 368 367 366 366 368 369 368 367
324 328 329 328 326 323 320 320 324 324 322 322 321 321 323 322 321 323 324 324 327 331 333 333 334 334 333 332 332 333 336 334 335 350 360 358 357 358 358 361 364 366 367 369 371 372 372 373 372 371 371 371 370 368 367 368 368 367 366 369 370 368 366
321 326 327 326 326 324 319 317 321 322 320 320 320 322 324 322 320 322 320 318 323 329 333 332 332 333 333 333 333 332 334 337 340 351 359 361 360 360 359 361 363 364 364 367 370 370 369 372 373 372 372 372 370 369 368 368 369 368 367 369 368 368 367
321 325 326 324 323 319 316 317 321 323 322 322 322 323 326 325 324 322 318 318 325 330 331 330 330 331 330 330 332 334 340 350 357 358 359 359 361 363 362 362 363 362 362 365 368 369 369 371 372 371 372 372 371 370 369 369 368 368 369 368 367 368 366
321 324 325 324 320 316 317 323 325 326 324 323 323 322 324 327 327 325 325 327 331 330 329 330 330 331 334 338 343 347 350 354 355 353 354 356 359 361 361 361 361 361 361 363 365 367 368 368 368 369 370 371 371 370 369 369 368 368 369 368 367 367 363
322 324 325 323 320 319 324 328 328 326 325 325 326 325 326 326 326 328 330 330 331 331 331 332 334 341 349 351 352 352 349 349 349 348 350 355 357 358 360 361 360 360 359 360 363 365 364 365 366 367 368 369 369 368 368 369 368 368 369 368 367 365 362
325 324 323 322 323 326 327 331 330 327 327 327 323 322 325 326 326 327 328 328 330 331 330 335 342 347 348 348 349 348 346 346 347 344 344 350 353 353 357 359 360 361 359 360 362 362 362 363 364 365 365 365 366 366 367 369 369 369 369 367 366 363 359
326 323 321 322 324 325 327 331 334 333 332 333 329 322 323 327 328 327 328 329 329 327 329 339 344 343 341 341 342 344 343 344 345 343 343 348 351 352 354 357 360 361 358 359 359 359 360 361 361 360 360 360 361 362 365 368 369 369 369 367 364 361 358
327 325 324 327 325 322 326 333 339 338 335 339 341 330 325 328 329 327 328 331 329 329 336 343 343 341 339 336 337 344 346 345 344 343 343 347 350 353 355 357 359 358 356 356 357 358 359 358 356 356 357 358 361 363 366 368 368 368 368 366 362 359 358
326 325 326 328 325 326 335 340 339 337 333 338 342 328 321 328 333 331 330 331 330 334 341 344 344 340 334 331 338 348 349 347 346 345 345 346 348 353 356 355 355 356 356 356 358 358 359 358 357 359 360 362 365 366 366 367 367 367 366 364 361 359 356
325 326 326 326 326 331 341 340 335 335 335 339 335 322 320 332 341 338 336 335 336 342 344 343 342 339 335 337 346 348 347 350 351 349 348 349 350 352 355 356 358 360 361 360 358 358 360 362 364 364 364 365 367 367 366 366 365 365 363 361 360 358 355
324 325 325 325 328 335 340 336 333 336 337 334 327 322 330 345 347 343 343 340 341 345 345 341 343 346 347 349 349 348 349 352 353 351 351 353 354 354 357 358 359 360 359 356 354 358 364 366 366 366 367 367 367 366 365 363 362 361 361 360 358 356 354
323 325 325 325 329 336 337 334 334 335 333 330 330 334 345 349 345 344 344 341 342 346 345 345 349 351 350 350 350 351 351 353 354 353 351 352 354 355 358 359 357 354 354 355 356 361 366 367 366 367 367 368 367 365 363 360 359 360 360 359 357 355 353
326 327 329 329 332 336 335 334 338 338 336 336 339 344 347 345 345 347 345 344 346 347 347 349 349 348 348 350 351 351 351 350 351 351 350 350 350 350 351 351 349 349 355 359 361 362 364 363 364 365 366 368 367 364 362 360 359 359 359 358 357 355 353
327 326 330 334 336 336 334 335 340 341 339 340 341 343 344 343 345 346 346 347 347 346 346 346 345 344 345 347 348 347 346 345 345 345 345 345 344 343 342 342 341 348 359 364 363 360 360 361 362 363 365 367 367 366 365 362 359 359 359 358 356 354 351
332 330 334 337 336 335 333 334 337 337 336 337 338 340 341 341 340 341 343 344 343 344 344 344 343 344 345 344 344 344 343 344 345 345 344 342 340 340 343 343 341 343 354 360 358 356 357 358 361 363 363 364 365 366 363 359 358 359 358 356 354 352 350
336 334 336 337 336 335 333 332 332 332 333 335 337 339 340 339 339 341 343 342 342 343 344 344 343 344 346 346 347 346 346 347 348 349 350 349 346 344 346 350 347 341 344 349 351 353 354 353 355 358 360 362 363 361 357 356 357 357 356 355 352 350 349
334 334 335 336 336 335 334 332 331 332 332 333 335 337 339 339 339 341 343 344 344 345 346 347 346 345 345 347 348 349 350 350 350 352 353 352 351 350 351 353 351 344 343 345 348 351 352 350 350 351 354 357 358 356 355 356 355 354 354 353 351 349 348
335 337 337 334 332 333 333 332 332 333 331 332 333 335 336 336 336 336 339 340 341 342 343 346 346 345 344 344 345 347 348 349 351 351 352 352 353 353 352 353 353 347 344 345 348 351 353 352 351 351 352 354 354 354 354 354 353 352 351 350 349 348 347
338 339 336 332 331 332 332 331 331 331 330 330 330 331 331 331 332 332 332 333 334 335 336 338 339 340 340 339 340 341 343 346 349 349 350 351 352 353 352 353 353 350 348 347 348 350 352 351 352 353 353 353 352 353 353 352 351 350 349 348 349 348 347
337 337 336 334 336 336 334 331 330 330 329 329 329 330 330 329 329 330 329 329 329 330 330 331 332 333 334 333 332 332 334 338 341 344 346 347 348 350 351 351 351 352 351 349 349 350 351 351 351 351 351 351 351 351 351 351 350 349 348 349 349 347 347
335 335 335 336 339 339 334 331 330 329 328 328 328 329 330 329 328 328 328 328 329 329 328 328 329 330 330 330 328 327 328 330 334 337 339 342 343 345 347 349 351 352 351 351 350 351 350 350 350 350 350 349 349 349 350 350 350 349 348 348 348 347 346
335 334 333 332 335 335 332 330 329 328 328 328 328 328 329 329 328 328 328 328 328 328 328 328 328 330 329 328 328 327 327 327 329 328 329 333 338 340 341 344 348 350 351 351 350 350 350 350 349 349 349 348 348 348 348 348 349 348 347 346 345 344 344
333 333 331 330 330 330 329 329 328 328 328 328 327 327 328 328 327 327 327 327 326 326 326 326 326 328 328 327 327 329 328 327 327 326 324 326 330 335 338 340 342 345 347 348 348 348 350 350 349 349 349 349 348 347 346 346 347 346 346 345 345 344 344

ECMWFFLT2_925_thetae_003.txt.gz
Theta_e
327 324 323 326 322 318 321 321 317 320 329 326 314 312 315 314 314 316 314 315 321 327 332 335 337 338 337 338 337 336 337 338 339 339 340 348 351 349 349 353 355 356 356 358 359 358 357 357 357 357 357 356 356 358 361 361 362 363 365 364 364 364 363
326 325 324 325 324 323 321 316 318 326 330 328 319 314 315 315 314 316 313 313 316 316 321 332 339 337 336 339 338 336 338 337 338 339 338 344 350 350 350 353 357 357 356 356 359 358 357 357 357 357 358 357 357 359 360 361 362 364 365 365 365 364 364
326 328 325 321 323 326 323 321 326 325 317 316 317 314 314 315 315 315 313 313 314 313 317 329 336 337 337 339 338 337 337 336 338 338 339 341 344 348 350 353 357 359 356 356 358 357 356 356 356 357 358 358 359 360 359 360 361 363 364 364 364 364 364
326 326 322 315 317 323 324 324 328 326 319 316 316 315 315 314 314 315 314 313 314 318 326 332 336 339 339 338 339 339 337 337 337 337 339 340 344 350 352 353 357 359 356 355 357 356 356 355 355 358 359 358 359 360 359 359 361 363 364 363 363 363 364
322 319 320 318 318 320 319 317 317 320 321 320 319 317 314 314 314 314 315 314 313 323 335 337 338 340 337 336 338 338 337 337 337 338 338 339 346 352 352 353 356 359 357 356 356 356 355 355 357 359 358 356 356 358 359 358 360 364 364 362 362 363 363
315 317 325 326 324 323 321 316 315 317 319 317 315 315 315 315 313 312 315 313 314 327 338 337 337 338 336 336 336 336 337 335 337 339 337 340 348 351 351 352 354 358 358 356 355 355 354 355 357 357 355 353 354 356 358 356 357 361 360 359 361 362 363
319 323 327 326 323 325 325 322 321 323 322 316 311 312 314 314 313 314 314 312 317 332 340 337 337 338 336 336 336 336 335 336 338 339 335 341 349 351 350 349 350 356 359 357 357 356 355 354 354 354 353 353 353 355 357 355 355 357 356 355 358 362 364
323 325 326 326 326 326 322 322 325 323 321 321 319 319 319 314 312 314 314 311 317 332 341 338 337 338 335 335 337 337 336 337 336 337 343 352 354 353 352 349 351 355 356 358 360 359 356 354 353 354 353 352 352 353 353 353 353 354 353 351 353 358 364
317 318 320 320 322 322 320 321 325 324 323 324 324 323 322 317 314 314 315 312 317 331 341 338 336 337 336 336 335 336 337 338 335 338 349 357 356 355 358 357 356 356 359 365 368 365 361 355 352 354 353 352 352 351 351 350 351 352 351 350 350 354 362
314 313 313 314 316 319 320 321 324 325 325 323 320 317 315 315 316 316 314 313 320 334 342 337 336 338 336 336 335 335 335 337 337 339 347 354 356 356 361 363 361 362 367 372 374 371 364 354 350 354 354 352 350 350 350 349 350 351 351 352 351 352 360
316 315 318 322 322 317 315 317 320 322 324 325 321 314 311 315 316 314 318 321 320 327 337 337 336 337 337 337 335 335 336 337 338 342 346 351 355 359 364 365 365 370 374 374 375 373 365 354 351 353 354 353 350 351 351 349 349 351 353 354 351 349 357
323 325 326 328 326 319 316 317 318 320 323 324 320 313 315 321 315 310 324 332 321 323 335 339 337 336 337 337 335 334 337 336 336 343 348 348 352 360 368 368 367 371 373 374 374 371 364 357 353 353 354 355 353 351 352 351 350 352 354 354 352 349 355
327 330 328 328 327 324 323 321 319 320 321 320 317 316 321 324 315 312 326 333 325 326 335 335 336 338 335 335 336 335 335 336 336 340 344 346 352 361 368 369 369 370 370 373 373 370 365 361 357 355 356 358 358 354 354 354 353 353 353 354 354 353 354
325 328 328 330 327 324 324 323 323 323 323 321 320 320 323 324 321 322 329 331 330 332 334 333 335 336 334 335 336 335 335 337 338 337 337 339 349 357 360 364 368 368 368 370 371 371 371 367 363 362 361 361 361 358 357 357 357 354 355 357 359 357 354
321 326 329 328 327 324 321 322 326 325 324 324 321 321 323 322 321 325 327 326 328 332 334 335 335 336 336 336 336 336 337 337 336 336 335 334 339 343 344 353 364 370 370 370 371 374 373 371 370 368 366 364 362 362 362 362 361 358 357 362 365 363 359
317 325 327 326 326 325 319 318 323 324 322 322 322 323 325 321 320 323 320 318 323 332 334 333 334 336 335 335 335 337 338 338 337 336 335 337 337 337 342 353 365 371 371 371 374 373 372 373 371 369 368 368 366 365 365 364 364 360 360 364 365 364 367
318 324 327 325 324 321 317 318 322 325 325 324 325 326 327 326 324 320 317 318 325 332 332 331 333 334 334 335 337 337 339 342 341 337 337 338 335 336 350 357 362 367 368 370 374 375 373 371 372 370 371 371 368 368 367 367 366 363 364 367 367 368 371
319 324 326 325 322 318 320 325 328 329 327 326 325 325 327 329 328 324 324 327 329 330 329 329 332 334 335 337 337 337 341 344 342 339 339 337 333 339 352 353 353 363 369 370 373 376 375 371 370 372 372 372 371 370 368 369 368 367 367 370 372 372 370
321 324 326 323 320 322 327 331 332 329 329 329 328 328 328 327 328 328 328 328 329 329 330 330 331 333 333 336 337 336 337 338 338 337 337 339 342 349 354 353 355 364 369 370 371 375 375 371 371 373 373 374 373 369 368 370 371 370 372 373 374 371 369
324 324 324 323 325 329 331 333 332 328 331 330 327 327 330 329 328 328 328 328 330 330 330 330 331 331 331 332 334 335 337 337 336 334 333 338 346 351 354 358 362 367 368 366 368 372 372 370 371 372 373 373 370 366 368 372 372 373 373 373 373 371 368
327 322 320 323 325 325 328 333 335 334 334 334 330 328 333 336 334 331 328 329 329 328 329 330 331 332 331 331 332 335 338 339 340 338 336 338 341 344 350 356 362 367 367 366 369 373 372 370 371 373 372 371 369 368 371 374 374 374 374 373 373 372 369
327 322 319 323 322 320 325 334 339 339 335 336 337 332 331 335 335 332 330 329 330 330 329 329 332 333 331 332 335 337 337 336 336 340 340 338 335 340 347 352 359 366 367 367 369 370 371 370 371 373 372 371 372 372 374 375 376 375 373 372 372 371 369
325 323 321 322 321 324 334 340 339 336 334 337 338 328 325 331 333 331 329 329 328 329 330 330 331 332 331 333 336 337 334 331 334 340 342 338 336 342 348 353 359 365 365 365 367 369 370 370 371 372 372 372 373 373 375 376 375 374 372 371 370 368 366
323 323 322 322 323 331 342 342 335 334 336 337 333 323 323 336 343 341 340 338 333 329 330 332 331 330 332 332 333 335 334 334 339 345 345 342 340 343 347 352 360 364 364 366 368 368 368 368 369 369 370 371 373 373 375 374 373 373 372 369 367 365 362
321 322 322 322 324 333 341 338 334 335 335 333 327 324 333 346 348 345 346 345 343 337 330 330 332 333 333 333 336 343 345 345 349 349 346 345 346 347 350 357 361 364 365 366 365 365 367 367 367 368 369 371 373 373 374 374 373 372 370 367 365 362 360
321 321 321 320 323 334 340 336 334 335 333 329 329 335 344 346 344 344 344 342 344 343 335 330 332 332 332 333 337 343 346 351 354 353 349 348 349 349 355 360 362 362 362 362 362 362 363 364 366 367 370 372 373 373 372 371 371 369 367 366 364 362 360
322 320 319 318 323 335 339 334 335 337 335 334 339 344 344 341 342 347 348 346 346 342 335 332 333 333 333 338 340 342 348 354 355 352 352 351 351 356 360 360 360 361 362 363 366 366 365 366 367 369 371 372 371 370 369 367 367 368 367 365 363 360 359
322 316 318 323 330 336 337 335 338 340 339 340 342 342 342 343 344 346 349 351 349 342 338 336 337 338 338 341 346 348 351 355 354 355 357 357 357 359 360 359 359 361 362 365 366 362 359 357 356 360 365 367 365 364 366 366 365 365 365 363 361 359 357
328 324 327 335 338 337 336 337 338 339 339 339 338 340 343 346 345 345 350 351 348 345 347 345 346 351 351 347 348 350 351 353 356 356 357 356 355 355 356 360 363 363 364 366 365 362 361 358 356 357 361 363 364 364 365 365 364 364 362 361 359 357 355
338 339 339 339 338 336 335 335 336 336 336 337 338 341 344 345 345 346 348 350 349 348 350 349 350 353 353 348 347 347 347 348 350 351 351 350 349 351 353 355 358 360 361 363 363 364 365 364 364 365 364 365 366 367 366 366 365 363 360 358 357 355 354
337 340 343 341 338 338 337 335 336 335 335 337 339 341 343 344 343 344 344 344 348 349 349 350 351 350 351 353 352 352 351 350 350 351 352 350 348 348 349 349 350 352 353 354 354 355 356 356 360 364 366 368 367 366 365 364 362 360 358 355 355 355 355
336 339 342 339 337 337 337 335 336 336 335 335 337 338 339 340 341 341 341 340 341 345 343 344 345 345 346 349 352 352 352 352 352 354 355 355 352 349 347 348 349 349 351 353 354 356 356 354 355 358 362 363 363 363 362 360 359 358 356 355 354 354 354
340 340 339 336 335 336 334 333 333 334 334 334 334 335 335 335 335 336 335 336 339 340 337 335 336 337 338 341 343 345 347 349 352 353 354 356 355 352 349 348 350 352 354 356 357 359 359 359 358 359 360 360 360 360 359 358 357 356 354 353 353 352 351
339 339 337 336 336 336 333 331 332 333 332 331 332 333 333 332 332 332 331 332 334 334 332 332 333 334 334 335 335 336 338 342 347 349 349 350 352 353 351 349 350 353 356 356 357 358 358 359 359 359 359 358 358 357 356 355 355 354 353 352 351 350 349
338 336 335 335 335 335 333 331 331 331 330 329 329 330 331 330 330 330 330 331 331 330 330 330 332 333 333 333 332 331 331 334 338 342 345 347 348 351 352 351 352 353 353 354 356 356 355 356 357 357 357 356 355 355 355 354 354 353 352 351 350 349 348
337 335 334 333 333 332 331 329 329 329 328 327 327 326 327 327 328 328 328 329 329 329 328 328 329 330 331 330 330 331 330 330 332 335 339 341 343 346 349 351 352 353 352 353 354 354 354 355 354 354 354 354 353 354 354 353 352 352 352 351 350 350 348
335 334 332 331 331 330 329 328 327 326 325 325 325 324 324 325 326 326 326 326 326 326 326 326 326 327 328 328 328 329 329 329 330 330 332 334 337 340 343 346 348 350 351 352 352 352 353 353 352 351 351 352 352 353 353 353 352 352 352 351 349 349 348

ECMWFFLT2_925_thetae_006.txt.gz
Theta_e
329 327 325 327 323 318 321 320 315 318 326 324 313 311 313 313 312 315 314 315 321 327 332 336 339 339 340 342 342 340 344 347 347 346 345 347 353 355 353 355 356 355 356 358 358 358 358 359 359 359 359 360 361 361 364 366 367 367 367 366 364 363 362
328 328 325 327 326 324 320 314 316 324 326 324 318 313 314 313 312 314 313 313 316 317 322 334 339 338 339 341 341 341 343 346 345 344 346 352 355 354 352 355 357 357 357 359 360 358 357 357 357 358 359 360 360 361 364 366 367 368 367 366 365 363 363
327 330 326 323 324 327 323 319 325 323 314 314 315 314 314 312 312 314 313 313 315 313 318 329 334 336 339 340 342 342 340 344 345 341 349 354 352 350 352 353 357 358 356 357 357 356 356 356 356 358 360 360 360 361 363 365 366 367 367 365 365 364 364
328 327 323 317 318 324 325 323 326 324 316 314 314 314 314 311 312 315 313 312 314 319 326 332 335 341 341 340 346 345 339 341 342 342 351 354 351 352 352 351 355 357 353 353 354 354 357 358 356 358 359 359 358 359 361 362 364 366 366 366 364 364 364
324 320 321 320 319 321 320 317 317 318 319 319 317 315 313 312 314 314 314 313 313 324 337 337 339 344 341 340 346 347 341 339 340 341 348 352 352 353 353 349 352 354 353 353 353 353 358 359 357 357 358 358 357 357 359 360 362 365 366 366 365 364 364
316 318 326 328 325 324 322 317 315 316 316 315 313 313 313 313 313 313 314 313 314 327 339 339 339 341 339 339 341 343 342 338 341 341 343 352 356 354 353 350 348 351 354 353 353 355 359 360 358 357 357 357 357 357 358 358 361 364 364 365 365 365 364
321 326 330 328 326 328 326 323 322 321 320 314 309 310 313 312 312 313 314 312 317 332 344 341 340 344 339 338 341 343 339 339 342 341 339 350 355 352 349 344 344 351 356 356 356 358 359 359 359 359 358 357 357 357 357 358 362 363 363 364 364 365 365
326 328 330 329 329 329 325 323 325 323 321 319 317 317 317 313 311 312 312 312 317 332 349 346 343 345 340 337 342 342 339 341 341 339 348 356 355 353 348 346 352 356 358 363 364 362 362 361 360 360 359 358 358 357 357 358 360 361 361 363 364 365 365
319 321 322 323 324 325 324 324 326 325 323 324 322 321 320 315 312 312 313 312 316 330 350 350 341 340 338 336 338 337 340 344 340 345 360 366 362 361 357 357 360 359 360 367 370 369 366 362 360 360 359 359 358 356 356 357 358 359 361 361 362 364 364
315 315 314 315 318 321 323 324 325 326 325 323 318 315 313 313 315 317 314 313 319 334 347 345 339 338 340 342 339 337 342 344 349 362 366 364 365 364 361 364 363 361 363 368 370 370 367 361 361 360 359 359 358 358 358 358 358 358 360 361 361 363 363
316 316 319 323 324 320 317 320 323 324 325 325 321 313 309 312 316 316 318 322 323 331 338 341 340 338 340 343 340 340 347 349 358 370 369 364 365 364 362 366 367 367 370 369 368 368 364 360 361 361 360 359 360 358 359 358 357 356 359 362 362 361 362
322 325 328 330 327 320 317 318 320 322 324 324 320 312 313 319 315 310 324 336 326 326 337 341 343 345 345 345 342 340 348 352 350 360 367 364 363 364 367 368 369 372 372 370 369 367 364 362 361 361 361 360 358 357 357 357 357 356 357 359 359 359 360
326 330 329 330 328 325 324 323 321 321 324 322 318 316 320 323 316 312 328 343 332 330 337 336 340 346 343 341 341 338 344 347 346 353 361 358 355 360 368 371 372 372 370 371 370 369 368 365 361 360 360 359 357 356 356 356 356 355 356 356 356 357 359
324 327 328 330 329 326 323 324 325 324 324 323 321 322 324 325 322 321 330 339 337 335 335 334 337 342 339 338 342 340 339 343 350 353 353 347 344 351 365 375 378 378 378 379 381 380 376 369 361 359 358 357 356 356 355 355 354 353 355 354 354 355 358
321 326 328 328 327 327 323 323 326 325 324 323 322 322 324 323 324 325 327 330 333 334 335 336 337 341 343 343 343 343 342 343 347 346 342 341 339 346 362 372 374 380 385 387 389 388 381 371 362 357 357 358 356 355 354 353 352 352 353 354 354 354 354
316 324 327 325 326 326 320 319 324 324 322 321 322 323 324 322 322 324 322 319 325 333 335 334 336 339 342 342 343 345 347 346 344 341 341 345 347 353 364 370 373 378 381 383 385 384 377 370 362 356 356 357 356 354 352 352 351 351 354 356 355 354 354
316 323 325 324 324 320 316 319 325 327 326 325 325 326 326 326 324 322 318 319 329 338 337 335 335 335 337 340 340 341 347 351 350 347 344 343 346 353 361 367 372 374 371 372 377 378 372 369 364 358 356 357 356 355 353 351 350 351 357 359 356 354 355
315 321 324 323 320 315 318 326 329 330 329 328 326 325 327 328 327 325 324 327 333 336 334 334 337 339 341 345 344 340 344 352 354 352 350 345 343 348 354 358 362 369 373 372 372 372 370 367 365 360 357 357 358 356 354 353 351 351 356 360 358 357 356
315 320 323 319 316 318 326 331 333 330 329 329 329 329 329 329 329 330 329 330 332 333 332 332 337 343 343 342 346 344 339 342 349 349 349 350 349 349 355 361 365 374 381 377 373 372 368 364 365 364 360 358 358 358 357 356 354 352 355 361 362 359 357
319 319 318 317 319 326 332 334 332 331 332 331 328 326 328 329 329 331 335 337 336 336 335 330 332 337 336 333 340 342 336 336 338 337 338 342 344 344 351 364 376 382 380 375 373 373 369 367 367 366 363 360 359 359 358 358 360 356 357 366 368 365 366
321 317 315 319 323 326 329 332 334 335 335 335 330 326 330 334 332 333 338 340 339 340 341 339 333 332 332 332 334 332 331 333 333 333 334 334 338 341 342 354 372 379 374 370 372 372 373 372 369 367 367 364 363 363 360 362 365 362 364 373 373 372 375
322 319 318 322 321 321 326 332 335 336 335 337 338 332 333 337 335 334 337 338 340 344 344 342 342 337 333 335 335 332 330 331 330 331 332 332 335 340 339 345 363 372 372 369 368 370 374 373 368 369 370 367 368 368 364 366 369 368 374 379 376 375 376
322 320 319 320 319 323 333 337 337 336 334 336 338 329 328 336 340 341 342 342 343 344 342 343 347 346 339 334 333 332 331 331 330 330 332 333 333 337 338 340 352 365 368 366 364 365 370 372 370 371 371 369 371 371 369 370 372 372 378 380 377 375 375
325 323 321 321 322 330 341 339 335 336 335 337 334 322 325 341 348 344 345 347 346 347 346 346 346 348 347 343 336 332 330 331 333 333 337 340 337 336 339 334 340 360 369 369 368 364 365 370 372 372 371 373 375 374 372 374 374 374 378 377 375 373 372
325 326 324 322 325 337 344 339 334 337 337 333 327 323 333 348 348 344 346 346 347 349 350 349 348 348 348 342 337 336 330 330 337 341 344 348 345 340 338 333 345 366 374 373 369 365 366 371 373 373 375 377 377 376 376 376 374 373 377 376 373 371 369
322 324 325 323 325 336 342 338 336 337 333 328 328 335 346 348 344 344 347 348 351 354 354 354 355 354 350 344 338 336 333 337 349 351 348 347 346 345 345 347 357 368 371 371 369 367 370 374 373 374 377 378 378 378 378 378 376 374 375 375 372 370 368
322 322 323 322 325 333 339 339 338 336 334 335 341 346 346 344 344 347 350 352 352 351 351 353 354 355 356 357 351 343 339 342 349 352 350 348 347 347 349 354 363 368 368 369 369 369 371 373 374 375 378 379 379 379 378 377 374 372 372 371 368 366 365
322 318 321 326 331 334 337 340 340 339 340 343 346 345 345 347 349 350 352 352 349 347 349 350 350 351 354 356 357 355 353 352 352 353 351 347 346 345 344 349 358 366 371 373 371 368 369 371 372 374 377 379 378 377 376 373 370 369 367 366 364 363 362
328 327 332 337 340 338 337 340 341 340 340 341 341 344 348 351 350 348 349 349 347 347 347 347 348 351 352 353 354 356 357 357 358 361 360 356 355 356 355 354 356 361 370 375 373 370 372 373 374 375 376 375 375 374 373 370 368 367 366 364 363 362 360
340 343 343 339 339 339 336 337 338 338 339 341 342 345 347 346 344 343 343 345 346 346 345 346 349 350 350 352 354 353 353 354 354 357 358 356 356 358 357 354 355 358 364 366 367 369 372 372 373 374 372 372 373 372 370 368 367 366 365 363 362 361 359
344 347 347 341 340 342 339 336 336 336 338 340 342 344 342 341 340 339 338 339 340 340 340 343 345 344 344 348 351 351 352 352 351 352 352 352 354 355 352 351 353 356 358 360 361 363 364 365 366 367 368 370 370 368 366 365 364 363 361 360 359 358 357
343 345 345 341 340 341 339 337 337 337 337 338 338 338 338 337 336 336 335 336 335 335 337 339 340 340 340 342 344 346 348 350 353 353 352 353 355 352 348 348 350 351 352 355 357 357 357 359 360 360 363 367 367 365 366 364 362 360 358 357 357 356 355
344 346 343 340 340 340 338 336 336 336 336 336 335 334 334 333 333 333 332 332 333 334 336 337 339 339 339 340 341 341 342 346 351 353 352 352 352 351 349 350 353 354 354 356 357 357 356 359 362 363 365 367 366 365 364 361 359 357 356 355 355 355 354
345 346 343 341 342 340 337 335 333 332 332 332 332 332 332 331 332 331 330 330 330 330 331 334 338 340 340 341 341 341 341 343 345 347 349 349 349 349 350 350 352 353 353 354 356 357 358 360 364 365 366 366 365 362 360 358 357 356 355 355 355 354 353
341 341 341 341 341 338 335 333 331 329 328 328 329 329 329 329 329 329 328 328 328 327 327 328 333 337 339 340 341 341 340 340 340 343 347 350 351 351 351 353 355 356 357 357 359 359 359 360 361 361 360 360 360 360 358 357 355 355 355 354 353 353 353
339 339 340 339 337 334 333 331 329 328 327 327 328 327 327 327 327 327 327 326 327 328 328 328 328 330 332 334 336 338 339 339 339 339 342 345 348 350 350 353 356 358 358 358 358 358 359 358 358 357 355 355 356 358 357 355 354 354 354 353 353 352 351
338 339 337 334 333 332 331 330 329 328 327 328 329 328 328 327 327 328 328 327 327 328 329 328 327 328 330 331 332 333 335 336 335 335 337 339 343 346 348 351 353 355 356 356 356 356 356 356 356 355 354 354 356 356 356 355 354 354 353 352 351 350 350

ECMWFFLT2_925_thetae_009.txt.gz
Theta_e
328 328 327 328 324 319 321 319 314 318 325 324 315 314 316 315 316 317 314 316 325 331 336 342 342 342 342 343 345 344 346 348 347 348 350 350 351 351 353 356 356 357 358 356 354 355 355 357 357 357 356 357 358 361 363 363 364 365 364 363 363 363 363
327 327 327 329 327 324 320 314 316 323 326 325 319 314 315 316 316 316 313 314 319 319 325 338 343 343 342 342 344 344 345 348 348 347 349 352 352 352 353 356 357 357 359 357 355 354 355 356 357 356 356 356 357 360 363 364 364 365 365 364 364 363 363
326 328 326 324 326 328 323 319 323 323 316 316 317 314 315 316 316 315 314 315 317 317 324 333 336 342 344 343 343 344 345 348 348 346 349 350 351 352 354 355 355 355 356 355 355 354 354 354 356 356 356 356 358 360 362 364 364 365 365 364 364 363 362
327 327 323 317 319 326 326 324 325 323 318 316 316 315 314 315 316 316 316 315 316 324 336 341 340 343 343 343 345 344 343 347 348 347 348 349 349 351 353 352 354 354 354 354 353 353 354 355 355 356 356 356 358 359 362 363 364 365 365 364 364 364 362
325 320 322 320 319 322 320 318 317 317 319 319 318 316 313 313 315 318 319 315 316 333 348 347 348 348 343 343 346 345 342 344 347 347 347 347 347 350 352 351 352 352 352 351 352 352 354 354 357 357 357 357 358 359 361 363 364 365 365 365 364 364 363
317 320 327 328 326 325 322 317 316 316 317 315 313 314 313 312 312 315 318 315 320 340 345 342 347 348 345 345 345 345 343 343 345 346 345 346 348 351 352 352 351 351 352 351 350 352 353 353 357 358 358 358 358 359 361 362 365 365 365 365 365 364 363
321 327 330 328 326 327 326 323 322 322 320 314 310 312 315 313 311 314 315 313 325 348 345 343 347 346 346 347 347 346 345 341 343 344 344 346 350 353 352 351 351 351 352 352 350 353 353 352 356 358 358 359 359 359 361 362 363 365 365 365 365 364 364
326 329 330 329 329 328 324 323 324 323 321 317 315 319 323 317 312 315 315 312 323 342 344 348 353 354 350 345 345 346 344 344 343 343 347 350 352 354 352 351 351 351 352 354 354 356 355 353 355 357 358 359 359 358 360 362 363 364 365 365 365 364 364
320 322 325 324 324 324 323 324 325 324 324 323 319 321 323 318 313 316 316 313 322 341 346 347 354 357 351 346 344 343 341 345 344 344 351 354 352 353 353 350 350 352 355 357 359 358 356 354 355 357 357 358 358 358 358 360 362 363 364 365 364 364 363
315 315 317 318 318 321 323 325 326 325 324 322 318 315 315 317 319 318 314 315 327 346 342 334 339 345 347 350 350 344 342 347 348 349 352 354 353 352 352 352 351 354 359 359 359 359 355 354 356 356 356 357 357 357 358 358 360 362 363 364 364 364 364
317 317 321 328 327 320 317 321 324 324 325 324 320 313 310 317 323 320 320 323 326 337 343 337 335 337 343 353 357 358 361 363 365 363 355 352 353 351 352 355 355 357 361 360 361 360 356 355 357 357 355 357 357 357 357 357 358 360 361 363 364 364 363
324 329 331 334 331 322 318 320 321 324 327 325 320 314 313 318 316 315 330 338 324 326 341 343 341 345 349 352 357 366 376 374 369 365 357 351 351 353 356 358 359 361 363 361 362 361 358 356 357 358 357 356 357 357 356 357 357 358 360 362 364 364 363
326 330 330 331 331 328 325 324 322 324 326 323 319 317 320 324 317 313 329 344 335 332 336 337 346 361 360 349 347 357 370 374 367 360 358 354 352 356 361 361 362 364 364 365 365 363 361 358 357 359 358 357 357 357 357 357 356 357 360 361 362 364 364
324 327 328 330 328 327 325 325 326 326 325 324 322 322 324 326 325 324 328 341 350 350 340 334 346 365 365 355 347 344 354 365 368 362 357 354 353 356 359 360 361 363 365 366 366 366 365 361 358 359 359 357 358 357 356 357 356 357 360 361 362 363 364
321 324 327 327 325 325 323 323 327 326 325 325 322 324 327 324 327 332 329 333 344 353 351 344 347 356 356 352 349 345 348 358 365 363 356 354 354 355 358 361 360 362 364 365 365 367 366 361 358 358 359 358 358 358 357 356 356 356 358 360 361 362 363
321 324 325 324 325 324 319 319 325 324 322 323 322 324 327 324 325 330 327 323 330 344 352 346 344 350 352 356 359 356 353 356 359 360 357 355 356 355 358 363 361 360 363 363 363 365 362 359 358 358 359 358 358 358 358 357 356 357 357 359 360 361 362
321 324 325 323 321 318 315 318 325 327 326 326 326 326 328 328 326 325 326 331 340 351 357 349 344 346 347 356 365 359 357 361 360 360 357 354 357 358 358 361 360 357 357 359 361 361 358 357 357 358 359 358 358 358 358 357 357 356 357 358 359 360 361
319 325 326 324 319 314 317 324 328 330 331 329 327 327 328 330 328 325 330 340 345 345 349 350 349 349 345 350 357 355 356 361 363 362 359 354 356 359 360 361 360 358 358 359 359 357 356 357 357 357 358 358 358 358 358 357 358 357 357 357 358 361 361
322 327 326 322 318 319 325 332 333 330 330 331 332 333 333 331 333 333 331 333 338 342 345 346 348 355 358 359 361 357 349 345 348 349 354 358 359 359 361 364 363 363 365 366 365 361 357 358 358 358 358 358 358 358 357 357 356 356 357 356 357 359 359
323 325 323 321 324 330 334 337 334 333 336 336 330 330 336 338 339 342 343 344 349 352 350 347 347 348 351 354 361 363 353 346 343 340 343 355 359 357 360 366 369 370 370 369 370 369 364 362 361 358 357 357 358 357 356 355 355 355 355 355 355 356 357
323 320 320 322 324 327 332 335 336 339 342 344 342 337 341 347 345 345 353 355 355 352 348 351 354 352 353 357 357 352 345 343 345 341 339 347 353 352 355 360 361 363 365 365 365 368 369 367 364 359 357 356 356 356 355 354 354 353 353 353 355 355 355
330 322 319 322 321 320 328 336 339 339 338 345 356 350 345 351 351 348 354 357 356 356 354 354 357 359 364 366 358 346 341 340 338 337 335 332 336 342 347 353 356 356 361 365 364 365 368 368 365 362 358 356 355 355 355 353 353 352 352 353 355 355 355
335 326 319 320 318 322 338 347 339 334 337 342 346 341 340 354 357 351 353 358 358 360 359 357 362 370 371 366 358 351 348 345 338 338 341 337 334 336 336 337 346 354 358 362 363 364 364 365 365 364 360 356 355 354 354 353 353 352 351 353 355 356 355
332 330 325 320 320 333 350 348 335 334 341 344 339 332 337 356 359 352 355 359 359 361 362 361 366 374 374 368 362 356 353 351 346 346 352 354 351 350 348 342 342 349 358 364 366 366 364 363 364 364 362 359 355 354 355 353 353 353 352 352 355 356 356
328 330 330 326 329 348 355 342 337 340 341 341 336 334 347 359 356 354 356 355 357 359 360 364 367 366 364 362 361 357 355 356 355 353 355 357 353 352 355 356 354 355 361 366 368 367 366 365 364 364 364 362 359 356 355 354 354 354 353 352 354 358 359
328 327 334 333 334 348 351 341 342 344 343 343 340 345 357 358 352 354 353 352 356 357 356 361 363 359 356 356 356 357 356 357 358 357 358 362 361 356 355 358 360 363 366 366 365 367 368 367 367 367 366 365 363 360 358 357 355 355 355 355 359 363 365
334 330 336 340 341 345 344 345 354 358 355 354 354 354 355 352 351 354 351 350 354 355 354 357 356 354 356 355 354 356 355 354 356 355 356 360 365 367 368 365 360 363 369 368 364 363 365 365 367 369 368 368 366 364 363 361 358 359 362 364 366 368 368
341 336 336 340 342 345 342 345 356 359 356 356 356 353 351 350 350 350 349 349 350 351 351 351 349 350 353 352 351 353 353 352 353 353 353 353 352 354 360 360 355 357 364 363 355 353 357 359 361 362 364 367 368 367 367 365 364 368 371 371 371 370 368
342 341 340 340 341 343 345 345 350 351 349 349 348 346 346 347 346 346 346 344 345 346 345 344 345 347 347 347 347 347 348 350 351 351 351 350 349 347 348 350 351 352 355 354 349 348 352 356 357 359 358 357 359 365 369 371 371 371 369 367 366 365 364
339 338 341 343 341 340 342 344 345 346 344 343 342 341 341 341 341 341 341 341 342 342 341 341 343 343 342 343 343 343 345 347 349 350 350 349 349 348 347 347 348 347 347 350 350 349 349 351 354 357 356 352 350 353 359 363 363 359 355 353 353 354 355
340 340 343 344 342 339 340 344 343 342 340 339 339 340 340 339 338 338 338 340 340 340 339 340 340 339 340 341 341 342 344 345 346 348 350 350 350 350 348 347 347 345 346 352 354 349 346 349 352 353 352 351 349 348 350 353 354 352 350 349 349 350 352
341 343 345 343 341 340 339 341 341 339 338 336 336 336 336 335 334 333 333 335 336 337 338 338 338 338 338 338 339 340 340 342 343 345 347 350 350 349 347 347 348 347 347 351 352 348 346 349 352 351 349 349 348 348 348 347 347 348 348 348 349 349 350
340 343 345 344 344 344 340 338 337 336 336 334 333 332 331 330 330 329 329 330 331 332 334 335 336 337 338 338 339 339 338 339 340 341 346 350 348 346 346 345 346 348 348 348 350 349 348 349 351 352 349 346 346 347 348 347 348 347 346 348 351 351 352
341 343 342 341 343 345 341 336 334 333 332 331 330 330 329 328 329 329 329 330 329 329 330 331 333 336 338 338 338 339 340 341 340 340 345 350 349 347 347 346 345 346 348 348 349 349 348 348 351 352 348 343 343 345 344 345 347 348 349 351 354 354 355
338 339 338 337 340 342 340 336 334 332 330 330 329 329 328 328 329 329 330 330 330 329 329 329 330 332 335 336 337 338 339 340 341 340 342 347 350 348 347 348 348 347 346 348 350 350 348 349 350 352 349 344 343 344 343 343 346 349 351 352 353 354 354
334 334 335 337 339 339 337 334 333 333 332 332 331 330 330 329 329 330 329 329 329 329 329 329 329 331 332 333 335 337 338 339 341 340 338 341 345 346 345 346 348 347 346 346 346 347 348 349 350 353 352 350 349 349 348 348 350 352 352 352 352 353 352
333 334 334 336 338 337 335 335 334 333 333 333 333 332 332 331 330 330 329 329 329 329 330 331 330 330 331 332 333 335 337 338 338 337 336 337 339 342 343 344 345 346 347 346 344 345 346 348 351 354 354 353 352 353 353 353 352 352 352 352 352 351 350

ECMWFFLT2_925_thetae_012.txt.gz
Theta_e
326 325 326 325 321 319 321 318 313 318 328 322 317 320 320 315 315 319 318 321 333 336 336 342 342 343 344 345 346 344 345 347 346 346 346 345 346 346 347 349 351 353 353 351 351 351 352 353 352 353 353 353 354 355 356 356 356 357 357 358 358 358 358
325 325 326 326 324 326 321 313 315 323 326 322 319 315 314 315 316 318 315 314 320 321 329 346 346 343 345 345 346 346 345 347 346 347 346 345 347 347 347 349 349 352 353 352 352 351 352 353 353 354 354 354 355 355 356 356 357 357 357 358 358 358 358
326 328 325 322 325 325 322 320 322 323 317 314 317 315 314 315 314 316 316 317 317 317 327 344 341 343 348 344 345 347 345 347 346 344 346 346 346 347 348 349 348 349 352 352 352 352 352 354 354 354 354 355 355 355 356 357 357 358 358 358 358 358 359
325 327 323 318 319 323 325 323 323 326 319 313 314 316 316 317 316 316 316 316 320 327 339 344 338 343 346 341 345 347 344 346 345 344 346 346 346 347 347 348 348 348 349 350 351 352 352 354 354 354 354 354 356 356 357 358 358 358 358 359 359 359 359
323 320 322 320 319 321 321 318 317 318 318 317 317 316 315 318 321 323 319 314 322 343 356 349 342 341 341 341 343 344 344 345 344 344 345 345 346 347 347 348 348 348 348 349 350 351 352 353 354 355 354 355 356 356 358 358 359 359 359 359 360 359 359
316 319 326 326 325 325 321 318 317 316 316 317 312 312 315 315 318 325 323 314 320 342 349 345 346 343 340 340 340 341 343 343 344 344 344 346 347 347 347 348 348 348 349 348 349 351 351 353 354 355 355 355 355 357 358 359 359 360 360 360 360 360 360
319 324 328 326 324 327 325 324 323 322 321 316 310 314 321 316 314 323 322 313 320 342 350 346 346 345 340 339 339 340 341 340 343 344 342 345 347 346 347 347 347 349 349 349 350 350 351 352 354 355 355 355 355 356 358 359 360 360 361 361 361 361 361
322 325 327 327 327 326 324 323 326 324 321 318 319 331 333 319 313 318 317 312 318 340 357 346 343 347 343 340 339 339 340 340 342 344 344 345 346 347 347 346 348 349 349 351 353 353 353 351 353 355 355 355 355 356 358 359 360 361 361 362 361 361 361
318 319 320 320 323 323 322 324 326 324 324 321 322 331 329 318 315 317 315 311 320 348 359 339 337 342 340 346 347 340 339 340 341 344 345 346 346 347 348 347 349 350 350 353 355 356 354 351 353 354 354 355 355 355 358 359 360 361 361 362 362 362 361
315 314 315 319 322 321 321 324 324 323 325 320 317 317 314 315 321 319 314 316 329 353 351 334 333 334 334 349 352 346 343 339 341 346 345 346 347 346 348 349 350 351 353 354 355 356 354 351 353 354 353 355 355 355 357 358 360 362 362 362 362 362 362
316 314 319 333 334 320 316 321 321 322 325 321 320 316 310 318 324 316 320 332 330 333 339 336 333 329 329 335 342 356 360 345 344 348 346 346 347 347 348 348 350 353 354 355 355 354 353 351 352 354 354 355 355 355 356 357 359 361 362 363 363 362 363
321 322 325 332 332 321 316 320 319 320 324 321 318 314 314 326 320 309 326 345 327 325 344 344 335 334 335 338 350 373 379 365 360 357 350 349 346 345 348 348 350 355 355 355 355 354 353 351 350 354 355 354 355 355 355 357 359 360 361 362 363 363 363
324 325 326 326 328 326 324 323 320 320 323 320 317 316 320 328 317 309 331 351 333 333 347 342 339 341 341 350 363 372 376 380 380 365 353 351 347 345 348 349 350 353 353 354 355 353 353 351 350 352 354 355 355 355 355 356 358 360 361 362 362 363 363
325 323 326 326 324 325 324 324 324 322 322 321 319 320 324 326 321 320 340 352 344 345 348 340 340 341 343 352 358 362 372 379 383 376 361 351 348 347 347 349 351 351 353 354 354 354 355 353 351 351 353 355 356 355 356 356 358 359 361 362 363 362 363
325 323 325 326 324 324 322 323 326 324 323 323 320 322 324 324 323 325 334 338 338 348 359 354 344 348 356 353 352 365 378 373 375 379 366 352 351 352 350 350 350 350 352 355 354 355 357 354 351 351 352 354 355 356 356 356 357 359 360 361 362 362 362
326 324 323 324 324 324 319 320 325 324 321 321 321 323 325 323 324 326 325 325 328 341 356 356 342 347 358 355 353 364 370 365 367 369 361 354 355 357 358 357 356 354 355 356 356 356 354 352 352 352 353 354 354 355 356 356 357 357 359 361 361 362 362
328 326 324 322 320 319 315 317 324 326 325 325 323 325 328 328 331 329 322 326 339 345 347 348 342 338 349 358 360 359 359 364 367 364 358 356 355 358 361 361 360 357 355 356 357 355 352 351 352 353 354 354 354 355 355 356 356 356 358 360 360 361 362
327 326 326 324 317 313 316 323 328 327 327 328 324 325 329 327 327 331 328 334 349 350 341 343 343 338 342 352 354 350 351 357 362 360 357 354 354 355 357 358 357 355 354 355 355 353 351 351 352 354 355 354 355 355 355 356 356 355 356 357 359 360 361
329 328 327 322 316 316 324 332 332 329 328 331 333 337 344 341 338 345 350 346 348 350 345 345 349 345 341 345 351 351 349 348 349 352 352 352 353 353 354 356 356 354 356 357 356 353 351 351 353 354 355 355 355 355 355 355 355 355 356 356 357 359 359
331 330 326 323 323 327 335 335 329 331 332 330 337 343 350 353 352 354 358 355 354 355 350 349 352 346 342 348 355 355 354 351 343 340 344 347 350 351 353 355 356 356 356 354 353 353 351 352 354 353 355 356 355 356 356 355 355 355 355 356 357 358 359
333 329 326 328 326 328 335 337 333 337 337 331 338 345 349 355 356 353 352 357 360 357 354 355 351 342 347 365 364 355 356 356 346 338 337 339 346 352 353 352 352 350 348 348 350 351 350 352 354 353 354 356 356 356 356 356 356 355 354 355 356 357 358
336 331 330 330 323 322 331 337 338 341 342 341 345 352 355 358 358 356 358 363 364 363 367 371 360 350 359 375 369 359 357 355 351 347 342 339 344 350 351 351 351 347 345 346 347 348 350 351 352 354 355 355 356 357 356 356 356 355 355 355 355 356 357
336 333 332 328 323 328 337 340 341 339 338 343 350 354 356 361 360 358 360 364 366 367 372 379 378 375 377 373 366 362 358 354 354 357 356 350 347 347 347 349 351 348 346 347 346 346 349 350 352 354 354 355 356 356 356 357 356 355 355 355 355 356 356
336 335 335 332 330 337 342 339 339 338 338 341 343 342 349 361 361 358 359 363 364 361 361 371 380 384 382 373 365 359 355 355 356 357 360 359 355 353 351 351 353 349 347 351 354 352 351 351 352 353 353 354 355 355 355 356 355 355 356 355 355 356 355
338 336 339 341 339 341 341 338 339 341 340 334 332 336 352 362 359 356 357 358 359 357 358 367 371 368 366 363 358 353 353 358 360 354 353 354 353 352 351 353 356 354 349 350 355 356 356 357 357 355 355 354 354 354 356 355 355 356 356 356 356 356 355
340 337 341 345 344 341 339 336 339 342 336 332 337 348 360 359 355 357 357 355 357 357 357 361 361 357 354 353 352 351 351 355 356 351 349 353 355 352 349 350 353 353 353 354 355 358 359 360 361 361 359 356 354 353 354 353 354 355 355 355 355 355 355
342 338 340 346 347 343 338 337 343 348 343 343 349 355 356 352 352 355 354 354 355 354 353 354 352 350 349 348 348 349 349 350 351 349 348 352 354 351 348 348 348 350 353 354 351 354 359 360 362 363 362 360 358 357 357 355 354 354 354 354 355 354 354
343 340 340 343 343 341 337 337 342 345 345 348 351 351 350 350 349 348 350 351 349 348 349 349 347 346 347 346 346 347 347 348 348 349 348 348 349 348 347 346 345 346 350 352 351 354 359 360 361 362 362 360 357 357 360 360 356 355 354 352 352 352 352
342 341 341 343 343 341 338 337 339 340 340 343 345 344 346 346 344 344 346 346 344 344 344 344 344 345 345 344 344 344 344 345 345 347 348 347 347 348 346 345 344 345 347 349 350 352 355 358 360 361 361 359 353 351 358 363 361 358 356 354 354 355 355
340 339 340 341 341 339 336 336 337 337 336 337 338 340 341 341 341 341 341 341 341 341 340 340 343 343 341 342 342 341 342 343 343 345 346 346 345 346 346 346 345 344 345 347 350 351 351 350 353 357 360 360 358 356 359 363 363 361 359 358 359 359 360
339 340 340 341 340 337 335 335 336 335 334 333 332 335 337 337 337 337 337 337 338 336 337 339 339 339 339 340 340 340 340 342 343 345 347 346 345 344 345 346 346 345 346 348 350 351 349 349 349 350 354 356 357 357 357 359 358 357 357 359 360 360 361
339 341 339 338 340 337 332 333 335 335 335 332 329 330 332 332 332 332 332 333 334 334 335 336 336 337 338 338 338 339 339 340 342 345 347 347 345 343 343 345 346 346 347 349 351 350 348 348 348 349 350 352 353 354 356 357 357 357 356 356 357 357 357
342 344 338 337 342 341 334 332 334 335 335 333 328 328 329 329 329 329 329 330 331 332 333 334 335 336 337 337 338 337 337 339 341 343 346 346 345 344 344 345 346 346 347 348 350 350 349 347 348 348 349 350 352 353 354 355 356 356 354 353 353 352 352
344 343 337 336 342 342 336 334 334 334 335 335 332 329 329 329 328 328 328 329 329 330 331 332 334 335 336 337 336 336 337 339 340 341 344 344 343 343 344 345 345 346 348 348 348 348 348 347 347 347 347 347 349 350 350 352 353 352 350 350 351 350 349
343 339 335 335 339 339 336 335 335 335 335 336 335 332 330 329 328 328 328 329 330 330 330 330 332 334 336 335 335 335 336 337 338 338 338 340 342 343 343 344 345 345 346 348 348 348 348 347 345 346 346 347 347 347 347 349 350 350 349 349 349 348 347
339 336 335 336 338 338 336 335 335 336 336 336 336 334 332 329 328 327 329 330 331 331 331 330 330 332 334 334 334 335 336 337 337 336 335 336 339 341 341 342 343 344 344 345 345 346 346 346 345 345 344 345 345 346 346 345 346 347 347 348 348 348 346
335 335 334 334 336 336 335 334 334 335 335 336 336 335 334 331 329 329 329 331 331 331 330 331 330 329 331 333 334 335 336 336 335 335 335 335 337 339 341 342 342 343 344 343 343 342 341 343 346 346 344 343 342 344 345 344 343 345 346 347 347 347 345

ECMWFFLT2_925_thetae_015.txt.gz
Theta_e
325 323 324 324 321 320 320 317 314 317 325 322 314 317 322 318 316 319 319 323 329 331 335 339 337 339 343 342 343 343 342 345 344 343 341 340 342 344 346 349 349 349 348 347 347 347 348 349 348 350 350 351 352 352 353 354 353 354 354 354 354 354 355
323 322 324 324 322 323 320 314 315 322 324 321 317 313 313 313 314 318 318 317 318 320 330 343 343 341 343 343 344 343 343 344 345 345 343 340 341 343 345 348 348 349 349 348 347 347 348 348 349 349 350 350 352 352 353 353 353 354 354 354 355 354 355
323 324 322 320 323 323 320 318 321 322 317 314 316 315 313 313 313 316 319 320 318 318 327 339 338 341 346 344 344 344 342 344 344 343 344 342 341 341 342 346 348 349 349 348 347 347 347 348 348 349 349 350 351 351 352 353 353 354 354 354 355 355 354
321 324 321 316 318 322 322 322 321 323 320 314 314 317 316 315 314 315 318 318 315 321 334 341 339 345 347 342 345 346 342 343 343 342 343 343 342 342 341 343 346 347 348 347 347 347 347 348 349 349 349 350 351 351 352 352 353 354 354 354 355 355 355
320 319 321 318 318 320 318 317 315 316 319 317 316 317 316 317 316 317 317 313 315 332 346 344 343 349 348 345 345 345 342 343 342 342 343 342 342 343 341 342 343 345 346 347 347 347 348 348 348 349 350 350 350 351 352 352 353 353 354 355 355 356 356
315 318 324 324 323 323 320 318 315 314 316 316 314 313 315 316 316 320 320 311 316 338 344 338 345 351 348 346 345 344 344 342 342 342 341 343 343 343 343 342 342 343 345 347 347 347 348 348 349 349 350 350 350 351 352 352 353 354 354 354 355 355 356
318 322 326 324 323 325 324 322 320 320 319 316 311 310 315 316 315 321 322 313 318 338 341 336 344 348 344 343 342 344 344 341 343 343 341 343 343 343 343 342 342 343 344 345 346 347 348 348 348 349 350 351 351 351 352 352 353 354 354 354 355 355 356
321 323 325 325 325 325 323 322 323 321 320 318 316 318 322 318 313 317 319 312 317 338 345 338 341 349 345 339 338 341 342 341 342 343 342 344 343 343 344 343 343 344 343 345 348 349 349 348 348 350 350 351 351 351 352 353 353 354 354 355 355 355 356
317 319 321 320 321 322 321 323 324 321 322 321 320 325 324 317 314 317 316 311 319 347 356 342 339 344 341 340 340 340 341 342 342 342 344 345 345 344 344 343 345 345 345 347 349 351 350 348 349 350 351 351 352 352 353 353 353 354 354 355 355 356 356
317 317 319 321 324 323 320 324 324 322 324 321 317 318 316 315 319 318 313 315 328 352 353 338 337 339 336 340 344 340 340 341 341 342 343 345 346 345 345 345 345 346 348 349 349 351 350 348 349 350 351 352 352 352 353 353 354 354 354 355 355 356 356
325 323 324 328 330 323 316 319 322 321 324 322 319 315 311 320 326 316 319 331 331 331 337 338 339 338 334 337 342 343 345 342 341 342 343 344 345 344 344 345 345 346 350 351 350 350 349 348 349 350 351 352 352 353 353 353 354 355 355 356 356 356 357
327 325 325 325 325 321 316 319 320 320 324 322 319 314 315 328 323 311 328 349 328 323 343 348 341 340 340 337 335 338 343 344 341 340 342 344 344 344 344 344 346 348 350 351 351 350 348 347 348 350 351 352 352 353 353 354 355 356 356 356 357 357 358
321 321 323 323 324 324 321 320 320 320 324 321 317 317 323 330 318 311 332 347 328 331 352 349 345 347 340 334 334 338 345 351 349 343 341 343 342 343 344 344 346 349 349 350 351 350 350 348 348 349 351 352 353 353 353 354 355 356 357 357 357 358 358
321 320 322 324 324 324 321 321 322 322 323 321 320 321 324 327 320 319 337 342 331 335 343 341 345 346 337 334 340 348 354 362 364 353 342 342 341 341 343 344 346 348 348 350 351 350 352 350 349 349 350 352 353 352 353 354 354 356 357 358 358 358 358
322 320 322 323 322 324 323 321 322 322 323 322 321 321 324 325 322 323 336 338 334 336 340 339 338 338 336 335 342 350 352 364 378 367 347 341 341 342 343 343 345 347 348 349 351 352 353 351 349 349 350 352 353 352 353 353 354 356 357 358 359 359 359
321 320 322 321 321 325 324 321 322 321 320 320 320 322 324 323 322 324 326 325 329 337 339 336 338 341 340 340 349 358 358 364 377 373 355 344 341 342 344 344 345 347 348 349 351 351 351 349 349 349 350 351 352 352 353 353 354 356 357 358 359 359 360
323 320 319 320 323 326 322 320 323 322 321 323 321 323 327 326 324 323 319 320 327 334 334 333 337 340 338 343 352 358 361 367 374 372 361 350 345 344 344 345 345 345 346 347 350 350 348 347 348 349 350 351 352 353 353 353 354 355 357 358 358 359 360
322 319 318 323 329 327 323 324 327 325 324 325 321 321 324 324 324 324 322 324 328 329 330 331 333 335 338 345 351 351 351 358 369 373 367 358 354 351 348 348 346 345 347 347 347 347 346 346 348 349 350 351 352 353 353 353 354 355 356 358 358 359 359
321 320 322 331 337 334 328 328 330 327 323 323 329 339 346 343 343 339 331 329 331 331 331 334 344 355 353 350 356 358 354 354 359 361 364 367 363 358 356 354 348 346 348 349 349 347 345 346 348 348 349 351 351 352 353 353 353 354 356 357 357 358 359
321 323 327 334 337 334 329 329 334 339 340 333 330 339 351 359 363 358 342 341 350 348 341 345 357 365 360 356 360 361 358 357 357 351 350 354 354 353 359 362 359 355 349 346 347 347 345 346 348 348 349 350 350 352 353 353 354 354 355 356 357 358 358
322 324 328 332 331 329 334 339 340 341 345 343 334 330 341 359 363 360 353 356 366 357 346 349 354 354 355 359 359 356 356 357 358 354 349 345 345 348 355 360 356 350 345 344 345 345 346 347 348 348 349 349 350 351 352 353 354 354 354 355 356 357 358
325 327 331 335 333 333 338 340 338 336 337 340 338 334 341 359 361 358 359 359 359 351 341 344 350 351 355 362 361 358 356 355 355 356 353 349 348 349 354 361 358 347 342 344 345 345 347 348 347 348 349 349 350 351 351 352 353 353 354 354 355 356 357
329 333 337 338 336 339 342 338 336 336 335 339 340 332 336 354 362 361 364 363 360 354 341 339 346 351 357 369 372 364 357 355 353 352 352 350 349 348 349 356 360 354 347 343 345 347 347 348 348 349 349 350 351 351 351 352 353 353 354 354 354 355 356
333 336 338 338 337 342 343 337 335 336 336 339 334 325 334 356 363 360 364 366 364 362 353 348 355 360 358 366 368 357 352 353 350 348 350 349 348 349 347 347 352 351 348 347 347 346 345 346 349 349 349 351 351 351 352 352 352 353 353 353 354 354 355
338 337 338 338 338 341 340 335 335 337 338 334 325 327 342 359 362 358 359 360 362 365 364 363 366 364 357 355 354 349 349 351 348 346 348 346 345 347 346 345 349 349 348 350 349 347 346 347 347 347 350 351 351 352 353 352 352 353 353 354 354 354 354
338 339 340 338 337 338 337 335 336 338 340 335 332 339 349 355 356 357 355 355 357 359 360 360 357 353 350 349 348 347 347 348 348 348 347 346 347 348 346 346 347 347 348 350 352 353 354 353 350 348 349 351 351 352 353 352 353 354 353 354 354 353 354
336 338 339 337 339 339 336 336 340 342 343 342 340 345 352 352 352 352 351 352 353 351 351 351 348 347 348 346 345 345 344 344 346 346 346 347 348 349 349 348 345 345 349 350 350 353 356 357 357 353 350 351 351 351 352 353 354 354 354 354 354 354 354
339 339 338 338 341 340 336 337 341 340 338 336 336 342 349 349 348 347 348 348 347 346 347 347 345 345 346 345 344 345 344 342 343 344 344 345 346 346 347 347 344 344 347 348 349 352 354 356 359 358 354 352 351 350 352 353 353 354 354 354 354 354 354
339 340 341 342 342 338 335 337 338 336 333 331 330 335 339 341 341 342 344 344 343 342 343 343 343 344 343 342 343 343 343 343 343 343 343 343 344 345 345 344 344 344 345 348 349 350 352 353 355 356 357 356 353 352 353 353 354 355 353 354 354 354 354
338 339 342 342 340 336 335 335 335 335 334 331 330 331 332 333 334 335 337 340 340 339 339 340 341 341 339 339 340 340 342 343 343 343 344 344 344 344 345 345 345 344 345 348 348 348 350 352 353 354 355 355 355 356 356 356 355 355 354 353 353 353 354
337 339 340 339 337 334 334 334 335 335 334 333 332 333 333 332 331 331 332 335 335 335 336 337 338 337 337 338 339 339 340 342 343 344 345 345 345 345 345 346 345 345 346 348 348 347 347 348 349 351 353 353 354 357 358 359 358 356 354 354 353 352 353
338 338 338 338 336 333 333 336 336 335 335 334 332 333 333 333 332 331 331 331 332 333 334 334 335 335 336 336 338 338 339 340 341 341 342 344 344 344 344 345 346 346 347 348 348 347 346 346 346 347 348 350 352 354 356 357 357 357 356 354 353 353 353
338 338 335 335 336 334 332 335 336 336 336 335 332 332 332 331 331 332 331 330 330 332 333 333 333 335 335 336 336 337 337 337 338 339 341 342 342 342 343 345 346 347 348 348 348 348 346 346 346 346 346 347 348 350 352 354 354 354 355 354 354 354 354
338 338 336 336 338 337 334 334 336 335 334 333 332 332 333 332 331 331 330 329 329 330 331 332 333 334 335 335 335 336 337 337 338 338 340 341 341 340 342 343 344 346 347 347 347 347 346 345 345 346 346 346 347 348 349 350 351 352 352 353 353 353 353
338 337 336 336 339 338 335 334 335 335 334 333 333 333 333 332 331 330 329 329 330 330 330 330 332 334 334 334 335 336 336 336 337 337 337 340 341 341 341 342 343 344 345 345 345 344 344 345 345 345 345 345 345 346 347 348 349 350 351 351 352 352 352
336 333 333 335 337 338 336 334 335 335 335 334 333 332 333 333 332 330 329 329 330 330 330 330 331 332 334 333 334 335 336 337 337 336 335 336 338 339 340 341 342 343 344 343 342 342 344 346 345 344 344 345 345 346 346 347 347 348 349 350 350 350 348
332 332 332 333 335 336 335 334 333 334 334 334 333 332 332 333 332 331 330 330 330 330 331 332 331 331 333 334 334 335 335 335 334 333 333 334 335 337 339 339 340 342 343 342 342 343 344 346 347 346 343 343 344 345 345 345 345 346 347 348 347 346 344

ECMWFFLT2_925_thetae_018.txt.gz
Theta_e
323 323 324 322 322 322 319 318 316 318 322 319 315 317 320 316 314 319 322 323 328 327 331 339 336 332 336 339 341 340 339 341 340 341 343 342 343 344 345 347 347 348 347 346 346 346 346 347 346 346 347 348 350 350 350 350 350 350 350 350 351 350 351
321 320 325 323 322 324 319 315 317 320 322 321 317 314 314 314 314 318 320 320 320 319 327 343 341 336 337 339 341 342 340 342 341 341 341 340 341 343 344 346 347 347 348 346 346 346 346 347 347 347 347 348 349 350 350 350 350 350 350 350 351 351 351
322 320 322 321 321 322 320 320 322 321 319 317 316 315 315 316 316 317 321 324 321 317 325 338 338 337 341 339 340 343 341 342 341 340 341 340 340 341 342 344 346 346 347 346 345 345 346 347 347 347 347 347 348 349 350 351 351 351 351 351 351 351 352
320 321 320 317 317 321 320 321 321 322 320 316 316 318 318 318 317 318 321 321 316 319 332 339 338 342 342 338 340 342 340 341 342 340 341 341 340 340 340 341 344 345 345 345 345 345 345 346 347 347 347 347 348 349 350 350 351 351 351 351 351 351 352
317 318 319 318 318 319 318 317 316 316 318 317 316 317 317 317 317 318 320 314 313 327 341 339 340 346 343 339 341 341 339 339 340 340 341 341 341 340 339 340 341 343 344 344 345 345 346 345 346 347 347 348 348 348 350 350 351 351 351 351 352 352 352
315 318 322 320 321 321 319 318 316 315 316 316 315 315 316 315 316 321 321 310 313 334 342 335 341 347 343 340 338 338 340 338 339 341 340 342 343 340 339 339 339 342 343 345 344 344 345 345 346 347 347 347 348 348 349 350 351 351 352 352 352 352 352
318 322 324 320 321 322 321 320 320 319 319 316 313 314 316 315 316 322 322 313 318 339 342 336 343 349 345 343 339 338 339 336 338 341 339 340 343 341 340 338 337 341 343 344 344 344 345 345 345 346 347 347 348 348 349 349 350 351 351 352 352 352 353
324 322 324 324 323 322 319 321 322 319 319 318 315 319 322 319 315 317 319 314 316 337 348 339 337 343 341 339 338 339 340 338 338 340 340 342 343 343 342 340 339 340 341 344 347 347 346 345 346 346 346 347 347 348 348 349 350 350 351 352 352 352 353
318 317 321 320 321 323 320 321 322 320 320 320 317 320 323 318 315 317 317 312 317 346 362 343 335 338 338 334 333 334 339 340 339 342 344 345 345 344 344 343 343 342 342 346 349 349 347 344 345 346 346 347 347 347 348 348 349 350 350 351 352 352 353
319 320 323 320 322 326 323 322 323 321 320 319 316 317 316 316 320 319 314 317 331 354 355 339 336 338 337 338 334 332 336 338 340 345 348 347 347 347 347 347 345 344 344 346 348 350 347 345 346 346 345 347 347 347 349 348 349 350 350 351 352 352 353
326 325 326 323 323 325 323 323 326 324 321 319 318 315 312 319 325 318 315 322 330 334 335 337 341 339 338 341 337 334 339 341 341 345 347 347 346 346 346 345 345 346 347 347 348 348 347 344 345 346 346 346 347 348 348 349 349 350 350 351 351 352 352
323 321 321 320 320 322 323 323 325 324 322 321 317 313 316 326 323 313 321 331 323 323 337 342 341 342 342 344 341 338 340 342 341 341 342 344 346 345 346 346 347 350 349 348 348 347 345 344 344 346 346 346 347 348 348 348 349 349 350 351 351 352 352
318 317 318 318 319 322 322 322 323 323 323 321 316 315 321 328 318 312 326 336 325 327 342 342 343 348 346 344 343 338 338 341 342 343 345 345 343 342 345 347 349 349 349 349 349 347 345 345 345 345 346 346 347 348 348 349 349 350 350 351 351 352 352
319 317 318 319 320 320 320 320 321 322 323 322 318 319 323 324 321 321 330 336 331 331 337 340 345 346 339 341 344 339 342 351 354 355 352 346 341 339 340 345 346 346 347 347 348 348 348 346 346 345 346 347 347 348 348 349 349 350 350 351 352 352 353
319 318 319 319 318 318 318 319 321 322 323 324 321 320 322 322 322 324 327 330 332 335 338 342 345 339 329 332 340 341 344 350 357 365 364 355 348 342 337 339 342 344 345 346 347 349 350 347 345 345 346 347 348 348 349 349 349 350 350 351 352 352 353
320 319 318 317 316 318 319 320 324 325 325 326 324 321 323 323 322 324 322 321 326 335 338 337 338 337 333 335 339 339 341 345 351 362 370 373 367 353 341 339 343 345 345 346 347 349 347 344 343 344 346 347 348 348 349 349 350 351 351 351 352 352 353
324 321 316 316 319 321 322 321 324 326 325 326 324 323 325 324 322 323 320 318 326 336 336 333 334 335 332 333 333 335 346 361 363 359 362 368 367 356 346 344 347 347 343 343 345 345 344 343 342 344 346 346 348 349 349 350 350 351 351 352 352 353 354
327 322 316 320 325 326 323 322 324 329 333 331 326 323 325 326 325 324 323 326 330 332 332 333 330 329 335 348 350 347 353 366 372 365 359 358 358 354 351 351 350 348 344 343 344 342 341 342 342 344 346 346 348 349 349 350 351 351 352 352 353 354 354
325 325 322 326 330 326 321 321 326 334 338 336 336 333 324 322 324 323 325 330 330 330 333 329 327 342 362 370 366 357 353 356 365 368 362 356 355 354 353 353 354 354 351 347 346 342 339 341 343 344 345 346 347 348 349 350 351 351 352 353 353 354 355
324 327 327 327 327 322 321 327 333 337 340 340 345 349 335 329 335 332 325 328 332 334 330 325 340 367 370 363 358 357 357 355 356 362 361 354 351 352 351 352 356 357 351 344 343 341 339 341 344 344 345 346 347 348 350 350 351 351 352 353 354 355 355
323 326 326 326 326 326 332 340 339 338 340 339 343 350 345 340 349 349 335 327 332 337 331 334 355 366 360 354 352 351 356 356 352 355 356 351 349 351 349 349 351 349 343 337 337 339 339 342 344 344 346 346 347 349 349 350 351 351 352 353 354 354 355
322 324 324 327 330 333 338 341 336 334 338 336 337 344 344 342 348 352 350 344 340 341 344 349 354 352 348 353 351 349 355 355 350 351 351 347 349 349 346 348 350 347 345 341 338 340 342 343 343 344 346 347 347 349 350 350 351 351 352 353 354 355 356
321 322 323 327 329 333 340 340 334 333 338 337 336 340 343 343 344 346 353 356 347 342 349 354 350 343 342 352 354 354 355 351 347 349 348 346 347 347 345 348 350 348 347 344 341 342 343 343 344 344 346 347 348 349 350 351 351 351 352 353 353 354 355
321 322 324 327 329 334 340 339 335 336 338 337 337 338 340 342 341 342 349 353 347 342 343 346 345 341 341 348 355 352 349 347 345 345 346 346 347 347 345 347 348 348 347 345 345 345 343 343 345 345 346 347 348 349 350 351 351 352 351 352 353 353 354
320 322 324 328 332 337 340 338 336 338 339 336 336 338 338 338 340 342 346 350 349 346 342 341 346 353 353 353 352 346 345 346 345 343 344 344 345 345 345 346 348 349 348 348 349 349 347 345 345 346 347 347 347 348 349 350 351 352 352 352 352 352 353
321 326 327 328 333 336 339 340 337 336 340 342 338 335 335 336 338 340 342 344 346 349 350 349 352 353 348 345 346 344 344 345 344 344 345 344 343 344 344 344 346 348 349 349 349 349 351 350 347 346 347 347 348 348 348 349 350 351 351 352 352 352 353
324 330 330 330 332 332 335 342 343 340 342 343 338 334 333 334 334 335 338 341 341 345 349 348 347 347 345 343 344 343 342 343 344 344 344 344 345 344 344 344 345 346 348 348 348 347 349 351 351 349 348 347 348 348 348 350 349 349 350 351 351 352 352
327 331 331 332 334 334 335 343 347 342 338 337 335 333 334 333 332 332 334 336 336 338 342 344 342 342 342 341 342 342 342 343 344 344 344 344 345 344 344 344 344 344 346 347 347 346 346 347 350 351 350 350 349 348 349 350 349 350 351 350 351 352 352
327 331 334 335 336 336 336 339 340 337 334 335 334 332 332 332 332 331 332 332 332 332 336 340 340 339 340 340 341 342 342 343 343 344 345 344 345 345 344 344 344 345 346 345 345 345 345 345 346 347 349 350 348 348 350 352 351 351 351 351 351 352 352
324 328 334 336 336 336 336 336 336 335 334 334 333 331 330 331 330 330 331 332 331 331 332 336 338 337 337 339 340 341 343 344 343 344 345 345 345 345 345 345 345 345 345 345 345 345 345 345 345 345 346 346 346 347 350 352 353 353 352 352 352 352 352
324 328 335 338 336 336 336 335 336 337 335 333 333 332 332 332 332 331 331 331 332 332 332 333 335 335 335 336 338 339 340 342 343 344 345 345 345 346 346 346 346 346 346 346 346 345 345 345 345 345 345 345 345 347 348 350 352 353 353 352 351 351 352
323 326 331 335 335 335 338 339 340 341 338 334 332 332 332 332 332 332 331 331 332 333 332 332 334 335 335 335 335 335 337 339 341 342 343 344 344 344 345 346 347 347 347 346 346 346 346 345 345 345 345 345 345 346 348 348 350 352 353 352 352 351 351
319 319 324 332 334 334 336 338 341 342 338 333 332 332 332 331 331 332 332 332 332 333 332 332 334 336 336 336 335 334 335 337 339 341 342 343 342 342 343 344 346 347 347 346 346 345 344 344 344 344 344 345 345 346 347 348 349 350 350 350 351 351 351
317 319 324 332 336 335 334 335 337 337 335 333 333 333 333 332 331 332 332 333 333 334 333 332 333 335 336 335 334 334 335 336 338 339 340 342 342 341 342 343 344 345 345 345 344 343 343 344 344 344 343 343 344 345 346 347 348 349 349 349 349 348 348
320 321 323 327 333 336 335 333 334 335 335 335 334 333 332 332 331 331 333 334 334 334 333 332 332 334 336 335 334 334 335 335 335 336 338 340 341 341 341 342 343 343 343 343 343 343 343 343 344 343 343 342 343 343 345 346 346 347 348 348 347 345 345
320 321 322 324 330 334 334 332 333 333 334 335 334 332 332 333 331 331 334 334 333 332 333 333 332 332 334 335 333 333 334 333 333 335 336 338 339 340 341 342 342 343 343 343 344 343 343 344 344 343 343 343 343 342 343 345 345 345 345 345 345 344 344
319 320 322 324 328 331 332 332 333 332 332 333 334 332 333 333 332 332 333 333 332 331 331 333 332 331 332 334 333 332 333 333 332 333 334 335 337 339 340 340 341 341 342 343 343 343 343 343 343 343 343 344 344 343 343 344 345 345 345 345 344 343 342

ECMWFFLT2_925_thetae_021.txt.gz
Theta_e
322 322 322 322 321 319 319 318 316 318 322 319 312 313 316 314 312 314 315 314 318 321 325 329 331 330 331 333 336 338 339 342 343 344 345 346 347 348 348 349 350 350 351 353 353 352 352 352 352 352 352 353 354 354 354 353 353 354 354 353 353 353 353
321 322 322 321 321 321 318 316 317 320 322 321 316 314 315 313 312 314 313 311 313 314 318 328 333 331 331 331 332 335 339 341 341 342 343 345 346 347 349 350 350 350 350 351 352 351 351 351 351 352 352 353 353 353 354 354 354 354 354 353 353 353 353
320 321 322 320 320 322 320 319 321 320 316 316 317 315 314 313 313 313 313 313 312 311 315 324 331 332 333 333 334 335 337 340 341 340 342 344 345 346 348 349 350 349 349 350 351 351 350 351 351 351 352 351 352 352 353 353 353 354 353 353 353 353 353
320 321 320 317 317 319 320 320 321 321 317 316 318 316 314 313 313 313 314 313 312 314 319 322 327 334 336 336 338 338 336 338 341 340 341 342 343 345 346 346 348 348 347 349 351 350 350 350 351 351 351 350 351 352 352 353 353 353 354 353 353 353 353
318 318 319 319 319 318 317 317 316 317 317 317 318 316 313 313 313 313 314 312 310 318 328 325 325 334 337 340 342 341 339 337 339 342 342 343 343 343 345 344 345 347 346 348 350 350 349 349 350 350 350 350 350 351 352 352 353 354 354 353 354 354 353
314 317 321 322 323 322 320 317 316 316 316 316 315 316 315 312 312 314 314 311 311 321 331 329 326 331 334 338 340 340 339 337 339 341 341 344 346 343 343 343 343 345 346 347 348 349 350 349 350 349 349 350 350 350 351 352 352 353 353 353 354 354 353
317 319 321 321 321 323 322 320 321 321 319 316 312 314 315 313 313 314 313 312 315 325 336 333 330 333 331 335 339 338 337 336 338 341 340 342 346 345 342 340 341 344 345 347 349 350 351 350 350 350 349 349 350 350 350 351 352 352 352 353 353 354 354
321 320 322 321 320 321 320 320 322 320 320 319 316 318 320 315 313 314 314 313 315 326 341 338 333 335 331 332 336 336 337 338 337 339 340 343 347 347 344 340 341 342 344 347 350 351 353 351 350 350 350 349 350 349 350 350 351 352 352 353 354 354 354
319 318 319 318 318 319 320 322 323 321 321 321 319 323 324 317 313 314 314 313 315 329 344 339 333 334 332 331 333 332 335 338 337 337 340 344 348 348 346 344 344 342 343 349 352 353 353 352 350 350 350 350 349 350 350 350 350 352 352 353 354 354 354
319 319 319 317 318 320 321 323 324 323 323 320 317 319 317 316 318 317 313 313 318 329 339 336 333 334 334 336 334 331 332 334 335 339 341 343 347 349 349 349 348 346 348 351 353 354 354 352 351 351 350 351 350 349 350 350 350 351 352 353 354 354 354
322 322 323 320 319 320 320 321 323 323 324 325 321 316 314 319 321 317 317 319 319 323 332 340 339 335 336 341 340 336 337 336 335 340 342 343 344 346 348 349 349 351 354 354 354 354 353 350 351 351 350 350 349 350 351 350 350 351 352 353 354 354 354
319 318 319 318 318 319 320 320 321 322 323 325 323 317 319 327 320 313 321 329 322 321 330 340 345 344 343 347 347 343 344 342 336 338 342 341 340 343 345 347 350 353 355 355 355 354 352 351 351 350 350 350 350 351 351 350 350 351 352 354 355 355 355
315 314 315 316 317 319 320 320 320 321 322 322 322 321 325 328 319 314 325 335 328 325 326 328 338 347 345 344 345 340 338 339 338 338 341 339 336 339 344 348 350 352 354 355 356 354 351 351 351 350 350 351 351 351 351 351 350 350 352 354 355 356 356
315 314 314 316 317 318 318 318 319 319 319 320 321 322 324 325 323 322 326 332 331 329 327 325 328 338 341 339 338 334 334 340 346 344 341 339 336 336 340 347 350 351 352 353 355 355 353 352 352 351 350 351 351 350 351 351 351 351 353 354 354 354 355
315 314 314 316 316 316 317 317 318 318 319 320 320 322 323 324 325 326 325 325 327 329 330 329 331 338 340 337 336 339 340 343 346 346 343 343 344 341 340 343 345 346 350 351 352 354 354 353 352 351 351 351 350 350 350 351 351 351 352 353 353 353 356
315 314 314 314 314 315 316 317 319 319 319 320 321 323 325 325 325 326 324 322 324 328 330 330 332 335 335 334 336 341 345 341 340 344 348 353 358 356 350 345 342 342 344 347 350 350 348 350 351 350 351 351 350 350 350 350 351 351 352 352 352 353 356
314 313 313 313 314 316 317 317 320 322 323 324 325 324 325 326 325 324 323 322 325 331 332 329 330 331 331 334 336 340 345 345 342 342 345 348 351 351 349 346 343 342 340 341 345 347 346 347 349 348 349 350 350 350 350 351 351 351 352 353 353 354 356
314 313 313 314 316 318 319 318 321 326 329 331 333 332 331 330 327 324 325 326 329 332 332 330 332 331 332 338 341 341 344 348 348 346 347 348 347 345 345 345 343 344 344 342 342 345 346 346 346 346 347 349 351 351 351 352 351 351 353 352 353 355 355
312 313 315 316 319 320 319 320 325 330 333 336 338 339 339 336 333 331 329 326 327 330 332 334 334 332 336 347 351 348 346 348 352 352 353 355 351 348 350 351 349 349 349 346 343 344 344 343 344 346 347 348 349 350 351 352 351 351 352 352 353 355 355
312 313 314 317 320 318 315 321 331 335 335 337 338 338 338 338 339 340 339 335 333 332 330 329 332 336 340 348 352 351 350 351 352 351 352 353 351 351 353 353 353 354 353 350 347 345 343 343 344 345 346 346 348 349 349 351 353 353 353 354 355 355 356
312 312 312 315 317 315 314 323 334 334 335 338 339 337 338 341 342 343 345 346 346 345 340 332 330 335 338 340 346 350 350 351 350 351 351 351 350 351 351 351 353 355 355 355 353 347 344 342 343 344 345 346 347 349 349 351 353 354 355 357 356 356 356
312 312 311 314 315 314 319 329 333 332 333 337 338 338 339 341 340 340 343 346 347 349 350 343 335 335 336 334 337 347 349 349 349 349 348 348 348 349 349 350 353 355 355 356 353 348 344 343 344 345 346 346 348 351 352 352 354 356 357 357 357 357 357
313 312 311 312 312 316 327 335 333 331 333 336 337 336 336 339 339 338 341 344 345 346 349 347 341 335 331 329 333 345 350 349 348 347 348 348 347 349 351 351 353 355 355 355 352 347 345 346 347 347 348 349 351 353 354 354 356 357 357 356 357 357 358
314 315 313 312 312 317 327 333 332 332 336 338 336 333 334 338 337 337 339 342 343 344 346 346 344 339 334 337 345 350 348 347 346 346 347 347 347 349 352 352 353 355 356 356 353 350 351 352 350 349 350 351 352 355 355 355 355 355 356 357 358 358 358
313 314 314 314 315 317 322 327 332 336 337 335 333 332 336 338 337 336 338 340 341 342 343 345 346 344 345 346 347 347 345 345 345 344 344 345 346 347 349 352 354 355 356 356 356 354 355 354 351 351 352 353 355 356 356 356 355 355 356 356 356 357 358
313 314 315 315 316 320 326 329 332 333 330 328 331 335 337 336 336 337 337 338 339 339 339 344 346 345 343 343 344 345 344 343 344 343 342 343 345 346 348 350 353 355 354 353 353 353 353 353 352 351 353 355 357 357 357 358 357 356 356 355 354 355 357
314 314 315 316 318 324 331 333 333 331 329 331 336 338 337 335 336 336 336 337 338 336 337 342 344 343 342 342 342 342 342 342 343 342 343 343 344 345 347 349 352 353 352 351 351 351 350 351 352 353 354 356 358 358 359 358 355 354 356 355 354 355 356
316 315 315 318 323 326 327 330 335 336 334 335 336 336 336 336 335 334 334 335 335 334 336 339 341 341 341 341 341 342 342 342 342 342 343 344 344 344 346 348 350 351 350 349 349 349 349 350 351 353 356 358 358 357 357 354 351 352 355 355 355 356 355
317 317 317 318 321 322 321 325 332 335 334 334 334 334 335 335 333 333 333 333 333 334 336 338 339 340 341 340 341 343 343 343 343 344 344 344 345 345 346 347 347 348 348 349 348 348 349 349 349 351 353 354 354 353 353 354 353 353 353 354 356 357 357
315 316 317 317 318 319 320 324 330 333 333 333 333 333 333 333 331 331 332 333 332 333 335 338 339 339 340 341 341 341 342 343 343 344 345 345 346 346 346 346 347 347 347 348 348 348 348 348 348 349 349 350 351 351 352 354 355 355 354 354 356 357 358
314 315 317 318 320 321 322 324 327 331 332 332 332 333 333 332 331 331 331 332 333 333 335 337 339 339 339 340 341 341 342 343 343 343 344 345 346 347 347 347 347 348 348 348 348 348 347 347 347 347 348 348 349 350 351 353 355 356 356 356 357 357 357
313 314 315 316 318 317 317 318 323 328 331 332 332 333 332 331 331 331 331 332 333 333 333 335 338 339 339 338 339 340 341 342 342 343 343 344 345 347 347 347 348 348 348 348 347 347 347 347 347 347 347 348 348 349 351 352 354 354 355 356 357 357 357
313 313 314 315 316 316 316 318 321 326 331 333 332 332 332 331 331 331 331 331 332 332 333 333 335 337 337 336 337 338 339 339 341 341 342 343 345 346 347 348 348 348 347 347 346 346 345 345 346 346 346 347 348 349 350 351 353 354 354 354 356 356 356
313 313 314 316 319 321 324 324 323 325 330 332 332 332 333 332 331 332 332 332 331 332 332 332 333 334 335 334 335 337 338 338 339 340 341 342 344 345 346 347 347 347 346 345 345 344 344 344 344 345 346 346 346 347 348 350 352 354 354 354 355 354 355
313 313 314 315 317 319 320 320 320 322 327 331 333 333 333 332 331 332 332 332 332 333 332 331 332 332 333 333 333 335 336 336 337 339 340 341 343 344 345 346 347 347 345 345 345 345 345 344 344 344 344 345 345 346 347 348 349 351 352 352 352 351 351
312 311 312 313 314 315 316 317 319 321 324 329 332 332 331 331 331 332 332 332 332 332 332 332 331 331 332 331 332 334 335 335 336 338 340 341 342 343 344 344 345 345 345 346 346 347 347 346 346 345 344 344 345 346 346 347 348 348 349 350 349 349 348
312 312 312 312 314 315 315 316 318 319 321 326 331 332 331 332 332 332 332 332 331 331 332 332 331 331 330 330 331 334 336 336 336 337 339 340 340 341 342 342 343 344 345 345 346 347 347 347 346 345 345 345 346 347 347 348 348 348 348 349 349 348 347

ECMWFFLT2_925_thetae_024.txt.gz
Theta_e
324 323 322 324 322 319 321 319 316 318 323 320 313 312 314 313 312 313 313 314 318 321 326 329 329 330 331 331 331 332 333 335 336 339 345 347 349 351 353 355 357 357 358 360 361 361 361 361 361 362 361 361 362 361 362 363 364 364 363 363 362 360 360
323 323 323 324 324 323 320 316 317 322 323 322 316 313 313 313 312 312 310 311 313 313 318 326 329 328 329 331 330 331 334 336 338 341 346 348 349 351 353 355 357 357 356 359 362 361 360 361 361 361 362 362 362 362 362 363 363 363 363 363 362 361 361
322 325 323 320 322 325 322 320 323 322 316 315 315 314 313 312 311 311 309 310 311 310 315 324 329 328 329 330 331 332 332 334 337 340 344 348 349 350 353 354 356 357 355 357 361 360 359 360 361 361 362 362 362 362 362 362 363 363 362 362 362 361 362
323 323 321 316 318 323 323 323 325 323 318 315 315 314 313 311 311 312 310 309 310 314 321 325 329 331 331 330 331 332 331 332 335 337 339 344 348 350 351 352 354 356 354 356 359 359 358 359 360 361 361 361 361 361 361 361 362 362 362 362 362 362 361
321 319 320 318 319 320 319 318 318 318 319 318 318 315 313 311 311 312 312 310 310 318 327 327 327 331 330 331 332 331 331 331 332 335 336 340 347 350 351 351 352 354 353 354 357 358 357 357 359 360 360 360 360 360 360 360 361 362 361 361 361 362 361
315 318 323 324 324 323 321 318 317 317 317 316 315 315 314 312 311 310 312 310 311 320 329 328 327 328 328 330 330 330 333 332 332 334 334 338 347 350 350 350 350 352 353 354 355 357 356 356 357 358 358 359 359 359 360 360 360 360 360 360 360 361 361
319 323 325 324 324 326 324 322 322 323 320 315 312 312 314 313 312 311 311 310 314 325 330 327 327 328 326 328 329 330 331 331 332 333 332 338 348 351 350 347 348 350 352 355 355 356 356 356 355 356 357 357 357 358 359 358 358 358 358 359 360 361 361
322 323 325 325 325 325 323 322 324 323 321 319 317 316 317 315 311 311 311 310 315 325 331 329 328 328 327 328 329 329 330 330 332 333 335 344 352 353 349 346 347 348 349 353 356 356 357 357 356 356 356 356 356 356 357 357 357 357 357 358 359 361 361
319 319 320 321 322 323 322 323 325 324 324 323 321 320 319 316 313 312 312 309 314 327 335 334 331 329 328 328 328 329 331 332 331 334 341 350 354 353 351 348 347 346 348 355 357 358 360 359 356 356 356 355 355 355 356 356 356 356 357 357 358 360 360
317 316 316 316 318 320 321 324 324 324 324 322 320 316 314 314 316 315 312 310 316 328 335 332 330 329 329 330 330 330 330 332 336 342 347 351 353 354 353 351 350 348 350 354 358 360 361 358 357 356 356 356 355 354 355 355 355 355 356 357 357 359 359
320 320 321 322 323 319 316 319 323 324 325 324 321 315 312 315 317 314 315 317 317 324 330 329 329 330 330 330 331 329 331 335 340 345 349 350 351 353 352 352 352 353 354 354 358 361 360 357 356 356 356 356 355 355 355 354 354 355 356 356 357 358 359
322 322 323 323 324 321 317 318 320 322 324 324 320 315 315 320 316 312 319 324 318 321 328 330 330 331 330 331 330 329 333 338 337 340 344 343 343 349 351 353 356 357 357 357 359 360 359 357 356 356 356 355 355 355 355 354 354 354 355 356 357 357 358
320 320 320 320 323 323 322 322 321 322 324 323 320 318 321 324 318 315 323 327 323 325 329 329 330 330 330 329 329 328 330 333 333 335 339 336 332 338 347 355 359 359 359 360 359 358 358 356 355 355 354 355 355 355 355 355 354 354 355 356 357 358 359
319 319 319 320 321 321 322 323 323 324 324 323 322 323 324 325 323 324 329 329 328 330 330 329 329 329 328 328 329 329 329 330 331 331 332 331 330 329 336 351 361 361 361 362 360 360 359 357 355 354 354 355 355 354 355 355 354 354 354 356 358 358 359
319 318 318 319 320 320 319 320 322 323 323 323 323 324 325 325 325 327 328 326 328 331 331 330 330 330 329 329 329 329 329 330 330 330 329 329 331 330 330 344 356 360 361 362 362 361 360 359 358 355 355 356 355 355 354 355 355 354 354 356 358 358 359
317 317 318 318 318 318 317 317 320 321 320 321 321 323 325 324 323 325 323 321 325 329 329 328 329 329 329 328 328 328 330 329 329 330 330 330 333 332 332 343 354 356 356 359 362 359 357 358 358 356 356 356 355 354 354 354 354 354 354 355 358 359 360
317 316 317 316 316 317 316 318 321 322 322 323 323 324 326 326 325 324 321 322 327 330 330 329 330 330 328 329 329 328 331 332 332 332 331 331 333 331 332 343 354 353 349 351 355 356 354 354 355 355 356 356 355 354 354 354 355 355 353 355 358 360 362
317 316 316 316 317 317 319 322 324 323 323 323 322 322 324 326 326 326 325 327 330 330 330 330 331 331 330 331 331 330 332 334 336 335 333 333 335 335 335 338 343 348 351 352 351 353 354 351 351 352 353 355 355 354 354 354 354 355 355 355 358 362 363
317 316 317 318 318 319 321 326 328 325 325 326 327 329 331 329 328 329 328 329 330 330 331 331 331 331 331 331 331 331 333 334 336 336 335 335 335 337 340 343 346 354 361 359 355 354 353 350 349 350 352 353 353 354 354 354 354 355 356 356 358 362 363
316 316 317 319 320 320 321 325 328 328 330 332 329 328 329 331 334 336 335 335 335 335 335 336 337 336 335 333 333 333 334 334 335 335 334 333 335 340 348 353 359 364 365 362 359 359 357 352 350 349 350 351 352 353 353 353 354 356 358 357 358 361 364
317 316 316 317 318 318 319 324 328 330 331 333 331 326 328 336 340 341 343 343 342 341 342 344 346 346 343 339 334 331 329 330 333 335 336 338 344 350 354 357 361 364 364 364 364 363 361 357 351 349 348 349 350 351 352 354 355 356 358 359 360 361 364
316 316 316 317 317 317 319 323 328 331 331 333 335 329 330 341 343 340 344 347 346 347 347 348 350 350 344 338 334 336 340 338 337 342 345 347 349 352 355 357 361 362 364 365 364 364 364 359 353 349 349 348 350 351 352 354 356 358 359 360 362 363 365
314 316 316 317 317 318 322 326 329 329 327 331 334 326 326 340 345 340 343 346 345 348 349 348 350 350 342 334 337 347 352 350 350 352 352 352 352 354 358 359 360 362 364 364 363 361 360 358 354 350 349 349 350 352 352 353 356 358 360 359 361 362 363
315 316 316 316 315 318 325 328 328 329 328 331 332 325 326 340 344 340 343 345 344 346 347 347 350 350 346 343 346 348 348 348 349 352 353 354 354 355 358 358 359 361 363 364 363 360 359 360 357 353 351 350 351 353 353 353 354 357 359 359 359 360 361
313 314 315 316 315 318 323 323 324 328 326 324 324 325 332 341 341 339 342 343 343 345 345 345 348 349 348 348 347 346 345 347 350 350 350 352 354 354 357 358 359 361 362 363 362 361 362 362 359 355 354 352 353 356 356 356 355 356 358 360 359 360 361
313 314 314 314 315 317 321 320 319 322 320 319 325 333 339 341 340 341 342 342 343 344 343 343 344 343 342 343 343 343 344 346 350 349 348 351 353 354 356 357 358 360 361 361 360 360 360 360 357 356 357 356 357 358 358 358 356 354 356 359 360 362 363
314 314 314 314 315 319 323 322 322 323 323 327 335 339 338 338 340 342 342 343 343 343 341 341 341 340 341 342 342 343 344 345 347 348 349 350 351 352 354 355 356 358 359 358 359 359 359 360 359 356 356 358 360 360 361 363 360 357 357 360 362 364 365
315 315 315 316 318 320 322 322 324 327 329 333 337 338 337 337 339 340 342 343 341 340 340 341 340 340 342 342 342 343 344 344 345 347 347 349 349 351 352 353 353 355 356 357 357 357 358 360 363 361 360 362 365 365 367 367 363 361 361 363 364 365 365
317 316 316 317 319 319 319 320 323 326 327 328 331 334 337 338 337 338 341 341 339 339 339 340 341 342 342 342 342 343 344 344 345 347 348 348 349 350 352 352 353 354 355 356 356 356 356 357 359 362 364 365 367 366 365 364 363 362 361 362 364 364 363
315 316 316 317 317 318 318 318 321 322 322 322 325 330 334 337 337 338 339 339 339 339 338 339 342 343 342 343 344 344 345 346 346 347 348 349 350 351 351 352 353 354 355 355 355 355 355 355 355 357 358 360 361 361 361 362 364 363 361 361 362 363 362
314 315 316 316 317 318 318 318 319 320 319 320 324 329 333 335 336 336 338 339 340 339 339 339 341 342 343 344 345 345 346 347 347 347 348 348 349 351 351 352 352 353 354 355 354 354 354 354 355 355 356 357 357 358 360 361 363 364 363 362 363 364 364
313 314 314 314 315 316 316 316 316 316 317 319 322 327 330 332 334 335 336 339 340 339 339 338 339 341 342 341 343 345 344 344 346 347 348 348 349 351 351 351 351 352 352 352 353 352 352 353 353 354 355 356 357 358 359 361 361 363 363 363 363 364 364
312 313 313 314 315 315 315 316 317 317 319 321 323 325 327 329 332 335 335 337 338 339 338 338 338 339 339 339 340 343 343 342 344 346 347 347 349 350 350 350 349 349 349 350 350 351 350 351 352 352 352 353 354 356 357 358 360 361 361 363 364 363 362
311 312 313 315 315 316 316 317 318 318 318 319 320 323 325 327 330 334 336 336 338 338 338 337 338 338 338 338 339 341 341 341 343 345 346 347 349 350 349 348 348 348 348 348 349 349 349 349 349 350 350 350 351 352 353 355 357 358 360 361 362 362 362
312 313 314 314 315 315 315 316 316 316 317 317 318 321 324 325 326 331 334 336 338 339 337 337 338 338 338 339 340 340 341 341 341 343 345 345 347 348 348 348 348 348 348 348 348 348 347 347 347 348 348 349 349 350 351 353 354 356 357 359 359 359 358
312 312 312 313 313 314 314 314 315 315 316 317 318 319 321 322 324 328 332 334 336 339 338 337 338 340 340 340 341 341 340 340 341 343 343 343 345 346 347 348 349 349 349 350 349 348 348 348 348 348 348 349 350 350 350 351 352 354 356 356 354 354 353
312 312 312 313 313 313 313 313 314 314 315 317 317 318 320 322 323 327 331 333 334 336 338 337 338 340 341 341 341 341 340 340 342 343 342 342 342 343 345 346 347 348 348 349 349 349 348 348 348 348 348 348 349 349 349 350 351 352 353 352 350 350 351

ECMWFFLT2_925_thetae_027.txt.gz
Theta_e
328 326 326 327 324 321 323 321 316 319 325 321 312 311 313 312 311 312 312 312 317 322 328 331 332 332 332 333 333 334 337 339 339 341 346 343 341 344 347 350 357 359 360 363 364 363 363 364 363 363 362 363 364 365 368 370 370 370 368 368 366 365 364
326 326 325 326 326 326 322 315 318 323 326 323 317 313 314 314 313 313 311 311 314 314 318 328 333 333 332 333 332 333 337 338 336 337 342 342 338 341 345 349 357 359 358 362 364 364 363 363 365 364 364 364 365 366 368 370 370 370 369 368 366 365 365
325 328 325 322 324 327 324 321 324 323 316 314 315 313 313 314 313 313 311 311 312 312 316 325 330 331 332 332 332 334 335 335 335 335 338 342 342 343 343 348 356 360 358 360 364 364 362 364 364 364 365 365 365 366 367 369 369 369 369 367 366 365 365
325 325 323 316 318 324 326 325 326 323 317 314 314 314 314 312 313 312 311 310 311 315 323 328 331 333 332 332 333 334 333 334 336 334 336 339 341 343 343 343 350 358 358 359 363 363 362 364 365 364 365 365 365 366 366 367 369 369 368 367 367 366 365
322 320 321 319 318 321 321 319 319 319 318 318 317 315 314 312 312 312 312 310 310 319 329 331 333 335 332 333 333 333 333 333 334 336 337 338 340 341 342 341 347 356 359 358 362 363 362 362 364 364 364 364 363 364 365 366 367 368 368 367 367 367 366
316 318 324 326 323 324 322 319 319 318 318 316 314 314 313 312 311 310 312 310 311 323 331 331 331 333 332 333 333 333 335 333 335 338 338 339 343 342 342 344 347 354 358 358 360 363 362 361 364 364 363 364 363 364 364 364 365 366 365 366 367 368 366
320 324 327 325 324 327 325 323 324 325 322 315 310 310 312 311 311 311 311 309 314 327 334 330 331 332 331 332 333 333 333 333 335 337 337 340 343 342 343 343 344 348 354 358 360 362 363 361 363 364 364 363 364 363 364 363 363 364 363 364 366 367 367
324 326 327 327 326 325 324 323 325 326 324 321 318 317 317 314 311 310 311 309 316 328 332 329 330 330 330 330 333 331 332 334 335 335 337 340 343 344 342 343 345 347 351 359 361 361 365 363 361 363 363 364 363 363 363 362 362 363 363 362 364 367 367
318 319 321 321 323 323 322 323 325 326 326 326 324 322 321 316 312 311 311 309 315 327 335 331 329 328 328 330 330 330 332 334 333 335 340 348 350 349 345 346 349 347 353 363 365 367 369 365 361 362 363 362 362 363 363 363 362 362 361 360 362 366 367
314 315 316 316 318 321 323 324 325 325 326 325 322 317 315 314 315 315 311 309 317 332 335 332 331 330 330 330 330 330 332 333 337 340 343 347 352 353 350 348 350 352 357 366 369 370 369 363 359 361 363 362 361 363 362 362 360 361 361 361 361 364 366
317 319 322 325 324 320 317 320 323 324 325 326 323 315 312 314 315 314 316 317 320 327 333 333 330 329 332 332 331 331 333 335 340 341 342 343 349 353 353 352 353 356 361 363 366 368 365 362 360 360 361 361 361 362 362 361 360 360 361 361 360 362 365
326 330 329 328 327 321 317 320 321 323 326 325 322 315 315 320 315 311 321 327 320 323 331 333 330 332 333 333 332 335 336 336 335 336 336 340 347 351 352 354 357 359 360 362 365 365 362 361 361 359 359 359 360 361 361 360 359 360 361 361 360 363 364
329 333 327 327 327 326 325 324 321 323 324 323 319 318 323 325 316 314 325 330 325 328 332 331 332 334 333 332 333 333 333 334 333 335 335 335 339 345 351 356 359 360 362 363 363 364 363 361 361 360 359 359 359 359 360 359 359 359 359 361 361 363 364
328 329 327 327 326 325 326 326 324 325 325 324 322 323 326 327 322 324 330 329 327 332 332 330 333 333 331 332 332 331 332 332 332 334 334 332 331 336 345 355 361 360 361 364 366 366 366 363 361 360 359 359 358 359 359 358 358 358 357 360 361 362 363
323 326 327 327 325 324 323 323 327 326 325 325 324 324 326 325 323 328 332 329 329 332 333 333 334 334 334 333 332 333 332 332 332 332 331 332 333 334 336 345 357 362 361 363 366 369 368 368 363 361 360 359 358 357 358 357 358 357 357 358 361 361 362
320 323 324 324 324 325 321 320 325 326 322 322 324 326 326 325 324 325 326 325 329 334 334 334 334 333 334 333 333 332 332 330 332 332 331 333 334 335 334 336 344 355 358 361 366 366 363 364 363 360 360 360 359 357 357 356 358 357 356 357 360 361 363
319 321 323 322 321 321 317 319 324 326 326 326 326 327 329 328 328 326 323 326 334 336 335 333 334 332 331 332 332 332 333 333 334 334 334 334 333 334 337 336 335 341 348 354 361 358 356 358 360 359 359 358 359 358 357 356 357 356 356 356 359 362 363
318 319 321 321 319 317 320 324 326 327 327 327 326 326 328 329 329 328 328 332 333 334 333 332 332 332 332 335 334 333 334 334 335 335 334 336 336 336 336 335 336 341 344 347 353 353 351 347 349 352 356 357 358 356 357 356 356 357 356 357 358 362 364
317 318 319 318 317 318 323 326 327 326 327 327 327 327 328 327 327 328 328 330 331 333 333 333 333 334 334 334 334 334 333 333 334 334 335 337 337 336 335 341 350 356 356 354 353 354 352 349 346 347 349 353 356 357 357 356 356 358 359 358 359 362 365
319 318 317 318 320 323 324 327 328 327 328 327 325 324 325 327 328 328 328 328 329 331 331 332 335 335 336 337 339 338 335 333 331 330 331 332 332 334 337 345 354 359 360 358 356 357 357 353 348 346 346 349 353 356 357 356 356 359 361 360 361 362 365
320 317 316 318 321 322 325 327 329 329 329 328 326 322 325 328 328 329 331 333 333 334 335 334 337 340 342 342 339 334 330 330 332 333 334 334 334 340 346 350 355 359 361 362 361 361 362 358 352 349 346 345 349 353 356 356 357 358 359 361 362 362 365
319 317 316 318 318 319 322 325 327 329 328 328 330 326 326 331 331 330 335 338 339 339 337 336 341 346 344 337 333 336 341 342 344 348 350 347 348 352 354 354 357 359 362 366 365 364 364 361 357 356 352 348 349 354 356 356 358 358 360 361 361 362 363
317 317 316 318 316 318 324 326 327 329 329 331 333 327 325 333 336 335 336 337 337 337 338 342 348 347 338 329 333 346 350 349 349 353 355 353 352 354 354 353 357 361 364 367 366 363 361 360 360 360 359 356 353 353 356 357 358 359 360 361 361 360 363
318 317 317 317 317 320 327 327 326 328 329 331 330 323 325 337 341 338 337 337 338 342 345 347 348 344 335 332 340 349 348 345 349 353 355 354 351 352 352 356 360 360 362 365 367 365 365 367 365 363 361 358 355 356 357 357 357 360 359 359 361 362 362
316 316 316 316 318 322 326 328 328 329 327 327 326 325 332 344 342 339 340 340 340 343 345 346 346 345 342 341 344 345 344 345 348 349 350 352 353 351 354 359 361 360 360 365 366 364 365 368 366 364 363 360 357 356 358 357 357 358 360 360 362 363 363
315 316 316 315 318 322 325 325 326 325 324 327 330 334 339 342 340 339 339 339 341 344 345 346 346 344 343 343 343 344 345 346 348 347 348 350 352 352 355 359 360 360 362 365 365 363 365 365 364 363 362 361 359 359 359 359 358 357 360 362 363 364 366
314 315 316 316 319 324 324 322 325 328 328 330 334 336 336 336 337 338 338 339 341 344 344 344 344 343 343 344 344 345 346 347 348 348 348 350 352 353 356 358 358 359 360 363 363 363 362 365 367 367 363 361 362 361 359 361 359 357 359 362 364 366 366
314 313 315 319 321 323 323 323 325 328 330 330 330 331 333 336 337 339 340 340 340 342 343 343 343 343 344 345 345 346 346 346 347 348 349 351 352 353 355 357 356 356 360 362 362 362 362 363 367 369 368 363 363 364 366 367 365 362 360 361 364 365 365
317 316 318 320 321 321 321 322 323 324 325 325 325 327 332 335 336 337 339 340 340 342 342 342 342 343 344 343 344 345 345 344 346 347 349 350 351 352 355 356 355 356 358 359 359 360 361 361 363 367 369 368 368 370 371 370 369 367 364 363 367 367 367
318 318 318 319 320 321 321 321 321 321 321 322 323 325 327 330 332 334 336 338 340 342 341 342 342 343 343 344 344 344 345 346 347 347 348 350 351 352 354 355 355 357 357 357 357 358 358 358 360 362 363 365 367 368 367 367 369 368 367 367 369 369 370
316 317 318 319 320 320 320 319 319 320 320 321 322 323 325 328 330 331 334 335 338 340 342 343 343 343 344 345 345 346 347 347 347 348 349 350 351 352 353 355 355 356 357 358 357 358 357 358 359 359 360 361 362 362 363 365 367 368 367 367 367 367 368
315 316 317 317 317 318 317 317 318 319 319 321 323 323 324 325 327 329 332 333 334 337 340 343 342 343 343 344 345 345 346 347 347 348 349 350 351 352 353 353 354 355 357 357 356 357 357 357 357 358 359 360 360 362 363 364 365 367 367 366 367 368 368
314 314 315 315 315 316 316 316 317 318 319 322 322 322 322 323 323 326 329 330 332 333 337 341 342 343 344 344 343 344 345 346 346 348 349 350 351 352 353 352 352 352 353 354 355 355 356 356 355 356 357 358 359 361 362 363 365 365 365 365 366 367 367
313 313 314 315 315 315 316 316 317 318 319 320 321 321 322 323 323 323 324 327 328 329 332 337 341 343 344 344 343 344 345 345 345 346 349 351 352 353 351 350 351 350 351 352 353 352 352 353 353 354 355 355 356 356 358 361 364 364 366 366 366 366 366
313 313 314 315 315 316 316 317 317 318 318 318 319 320 321 321 322 322 323 325 328 328 329 333 338 343 344 343 344 344 345 345 345 346 347 349 352 352 351 350 351 351 350 351 351 350 350 351 350 351 352 352 353 354 355 357 359 361 362 363 364 364 366
313 313 314 314 314 315 315 316 316 317 317 318 318 319 319 320 320 321 321 323 326 328 329 331 336 341 343 342 343 344 344 344 346 346 346 347 349 350 351 351 352 352 352 351 351 351 351 351 351 351 351 350 350 351 352 353 355 357 357 358 358 359 360
313 313 314 314 314 314 315 315 316 316 316 317 317 318 318 319 320 320 321 322 325 328 329 330 335 340 342 342 343 345 344 345 345 346 346 347 348 349 350 350 351 352 352 351 351 350 350 350 350 350 350 349 349 349 350 352 353 354 354 354 355 356 356

ECMWFFLT2_925_thetae_030.txt.gz
Theta_e
330 328 328 330 326 320 322 320 315 317 325 322 312 310 312 310 309 311 310 311 315 320 325 330 331 332 332 333 334 335 338 344 347 349 346 340 344 351 352 352 355 356 358 358 358 359 360 363 362 362 362 362 363 364 365 366 365 365 363 363 363 363 363
329 328 327 330 328 326 322 315 317 323 325 323 317 312 312 311 310 311 310 309 312 312 316 327 331 331 332 333 333 333 336 340 344 348 348 344 341 346 352 355 355 355 354 355 358 358 359 364 364 363 364 363 363 364 365 366 367 367 365 363 363 363 363
327 331 328 326 327 330 326 321 324 323 315 314 315 312 312 313 312 312 311 310 311 310 314 323 329 330 332 333 334 334 334 336 341 345 347 347 343 343 352 354 353 354 354 356 360 359 360 365 364 363 363 363 363 365 366 367 367 368 367 365 365 365 364
328 329 326 319 321 327 328 327 327 324 317 315 314 314 314 313 313 314 313 311 311 315 323 327 330 333 333 333 336 336 333 334 338 343 347 347 344 345 351 351 351 351 350 352 359 361 362 363 365 364 362 361 363 365 367 368 369 369 368 367 365 366 366
324 322 324 322 321 323 322 321 320 320 320 319 318 316 313 313 314 314 314 312 311 321 333 333 333 335 333 334 337 336 335 334 337 344 348 347 343 346 350 350 350 350 350 353 357 362 360 360 364 364 362 362 362 364 368 369 370 370 369 368 366 366 367
316 319 327 329 327 326 323 320 319 319 318 316 314 314 313 312 312 312 314 311 312 324 335 335 334 335 333 334 335 335 335 333 336 341 345 347 347 346 347 346 345 349 353 353 353 357 357 356 362 364 362 363 362 364 368 369 370 370 369 369 367 367 368
321 326 329 328 327 328 327 325 326 326 322 315 310 310 312 311 311 312 312 310 315 329 337 334 334 336 333 333 335 336 334 333 338 338 340 348 348 344 343 343 343 347 350 351 352 355 354 354 360 364 364 363 363 365 367 367 369 370 369 369 368 367 367
329 327 328 328 329 328 325 324 327 327 323 320 317 316 316 313 310 311 311 310 316 330 339 334 333 336 333 333 334 334 335 334 337 337 339 348 350 348 346 346 349 351 351 355 357 357 356 358 363 366 364 364 363 364 365 366 368 369 369 369 368 367 367
322 320 321 323 324 325 324 324 327 327 326 326 323 321 320 315 311 312 311 309 315 329 340 334 331 333 332 333 332 333 335 334 337 344 351 354 354 352 350 351 355 355 355 360 363 361 362 364 365 366 365 365 364 363 365 366 367 368 369 368 368 367 367
317 314 314 316 319 322 323 324 326 325 327 326 321 317 315 313 315 315 311 309 317 332 338 333 331 331 332 335 333 332 335 336 344 357 362 361 359 356 355 356 358 357 359 363 364 367 369 367 365 366 365 365 365 363 365 365 365 367 367 367 368 367 368
319 318 321 325 325 321 318 320 322 324 326 327 323 316 312 315 318 314 316 319 320 327 334 334 330 329 333 334 333 336 342 341 346 356 361 361 359 359 358 360 363 365 367 369 369 370 371 366 363 365 366 365 365 365 364 364 364 364 365 366 366 366 368
326 332 333 332 330 322 318 319 320 323 325 326 322 315 316 324 317 311 326 336 323 323 333 334 331 333 336 335 333 340 344 340 342 351 354 353 352 355 359 364 370 371 371 378 380 374 370 366 363 364 364 365 366 366 365 364 363 363 364 365 365 366 368
328 334 332 333 333 328 325 324 321 323 324 323 320 318 323 329 319 315 332 338 326 327 333 331 333 336 335 334 336 338 338 338 343 347 346 344 343 347 356 364 371 371 371 382 387 379 371 367 364 363 363 364 366 366 364 365 363 362 363 364 364 365 367
326 330 331 332 331 328 327 327 324 324 325 323 322 324 327 329 325 326 334 334 329 332 332 329 333 336 334 336 338 335 335 338 343 343 340 339 339 342 351 358 366 372 376 383 388 385 379 371 366 364 362 364 366 365 364 364 364 363 362 363 364 363 365
323 327 331 331 331 329 325 325 327 326 325 324 323 325 327 327 326 328 333 333 332 333 335 335 337 338 337 337 337 336 336 337 338 336 334 337 339 343 351 358 363 369 375 379 384 386 382 375 369 364 363 363 364 363 363 363 363 363 362 364 364 363 364
320 325 328 327 328 329 322 322 327 325 323 323 323 325 327 326 325 326 326 325 330 336 339 337 336 338 336 336 335 335 336 335 334 334 334 337 341 343 352 362 368 367 367 373 377 376 372 370 367 364 365 362 361 361 361 362 362 362 362 363 365 364 364
320 324 326 326 325 323 319 321 326 327 328 327 325 326 328 329 328 325 322 326 335 342 339 336 336 336 335 336 335 335 340 343 339 335 334 336 336 337 344 356 362 360 359 366 370 367 364 364 363 362 362 362 361 361 359 360 361 361 360 361 364 366 365
320 322 324 324 321 318 321 327 330 330 331 329 327 326 328 329 330 328 329 335 341 340 337 336 337 336 336 339 339 338 342 345 340 336 336 336 337 339 338 339 348 358 365 368 366 362 360 361 359 359 358 359 361 360 358 359 360 360 360 360 362 365 366
320 321 322 321 319 321 326 329 331 330 329 330 330 331 329 329 329 330 334 336 338 338 337 335 337 337 336 337 337 337 337 338 339 337 335 335 336 337 339 345 357 367 371 366 361 357 354 353 353 353 356 358 359 358 358 359 359 359 360 359 360 365 367
321 320 320 321 323 326 328 331 331 329 330 330 328 327 329 331 331 331 334 335 337 337 335 334 336 337 336 336 338 339 336 335 334 330 330 339 343 343 350 361 368 370 365 359 360 360 358 354 350 347 349 352 356 357 357 357 358 360 362 361 360 364 368
321 318 317 320 322 322 325 329 329 329 330 330 327 324 326 330 331 332 334 334 332 332 331 334 337 336 337 341 340 338 335 336 340 340 343 351 355 353 355 360 365 368 366 365 365 364 361 358 354 350 348 347 349 354 356 356 358 359 362 364 363 363 367
321 319 318 320 319 318 322 325 330 332 328 329 332 325 324 334 334 329 330 334 335 336 333 334 339 343 345 345 342 342 344 345 350 354 353 354 354 352 354 359 363 366 365 363 362 361 360 357 356 355 354 353 353 357 358 357 358 359 362 365 364 364 367
319 319 319 320 317 319 325 329 330 328 326 332 332 322 325 342 347 337 334 336 338 340 338 337 342 346 345 344 345 348 348 348 351 353 352 354 354 352 355 360 361 360 360 361 362 364 364 367 366 362 360 359 360 362 362 359 359 361 361 363 364 365 367
319 319 319 319 320 323 328 330 328 327 329 332 326 320 328 344 347 340 340 340 338 342 344 344 346 347 346 346 347 348 346 346 350 350 349 351 352 352 354 358 358 358 360 364 367 366 366 369 369 366 365 366 364 364 364 362 360 361 362 361 362 363 366
317 319 318 318 323 327 326 327 331 331 328 325 324 326 336 345 342 341 343 342 342 346 346 346 347 347 346 345 345 346 346 347 348 348 349 351 352 352 352 355 359 359 360 364 366 365 365 366 367 367 367 366 365 365 364 363 361 360 360 361 361 362 363
316 319 317 317 325 329 325 326 332 331 332 335 333 336 341 341 339 343 343 342 345 346 345 346 347 345 343 343 345 346 346 347 348 348 349 351 353 354 352 355 359 358 358 363 364 362 363 364 366 370 371 368 366 365 365 364 362 359 360 362 362 363 363
315 317 317 320 328 330 326 328 333 332 335 337 336 336 337 337 338 341 341 342 344 344 343 344 343 342 343 344 346 346 346 347 348 348 351 352 353 354 353 355 358 357 358 362 363 362 364 364 363 368 373 373 367 363 364 364 361 358 360 364 363 364 365
315 317 319 322 326 326 324 326 329 329 330 331 329 331 333 335 335 336 339 341 341 341 343 343 341 342 344 344 344 345 346 347 347 349 350 351 352 353 353 355 356 356 358 362 362 361 363 363 363 367 372 373 367 366 370 371 367 363 361 363 365 366 366
318 318 320 321 322 323 322 323 323 324 324 324 324 327 330 331 332 334 337 338 338 339 341 342 342 343 343 343 343 345 345 346 348 349 349 350 352 353 353 355 357 356 358 360 359 359 360 361 362 365 368 371 372 373 373 372 372 371 367 364 367 368 367
319 318 320 321 321 322 322 320 320 322 322 322 323 326 328 329 329 330 332 334 336 337 339 341 343 343 343 343 344 344 345 346 347 348 349 350 352 352 353 355 356 355 357 359 357 357 359 359 361 362 364 367 369 369 369 369 371 372 370 368 369 368 368
317 318 319 320 320 321 321 319 319 320 321 321 323 325 326 326 326 326 328 330 331 334 336 338 340 342 343 344 345 345 345 346 347 348 348 350 352 353 354 355 355 355 358 358 357 357 358 359 360 361 362 363 364 365 366 367 368 370 371 370 370 371 371
316 317 319 318 317 318 319 318 318 318 319 321 323 323 323 323 324 325 326 326 327 329 332 334 336 338 341 343 345 345 344 345 347 348 348 351 353 353 354 354 354 355 356 357 357 357 358 358 358 359 361 362 362 363 364 365 365 367 369 368 369 369 369
316 316 316 316 316 316 317 317 317 318 319 321 322 322 321 322 323 323 324 324 325 326 328 331 334 336 338 341 344 345 344 345 347 347 349 351 352 353 353 354 353 353 354 355 356 356 356 356 357 357 358 359 359 361 363 364 365 366 366 367 367 367 367
315 315 316 316 317 316 316 317 317 318 319 320 320 321 321 321 322 322 322 323 324 324 325 327 330 334 337 339 341 344 346 347 347 347 348 351 353 353 353 351 351 351 352 353 354 353 354 356 356 357 357 357 358 359 361 364 366 366 366 366 367 367 367
314 315 315 317 317 316 317 317 317 317 318 318 319 320 320 321 321 321 322 322 324 325 324 324 327 331 334 335 338 342 345 347 347 347 348 350 352 353 352 351 352 351 350 351 352 351 353 355 355 355 355 354 354 356 358 361 363 364 366 368 369 369 368
313 313 314 316 316 316 316 316 317 317 316 317 318 319 319 320 320 320 320 321 322 324 323 324 326 329 331 332 335 339 343 346 348 348 348 349 351 352 352 353 354 352 352 352 351 351 353 353 352 352 352 351 351 353 355 357 358 358 360 363 364 365 365
314 314 314 315 315 315 316 316 316 317 316 317 318 318 319 319 319 319 319 320 322 322 323 323 325 327 329 330 333 338 341 345 347 348 348 349 350 350 351 353 354 354 353 353 352 352 352 352 351 351 350 349 350 352 353 355 355 355 357 360 359 358 360

ECMWFFLT2_925_thetae_033.txt.gz
Theta_e
329 327 327 329 326 322 324 322 317 320 325 323 317 315 315 314 315 316 313 311 316 322 326 330 331 332 331 333 337 338 344 350 349 349 351 351 352 353 354 355 358 358 356 354 354 354 358 359 359 359 358 358 358 358 358 358 358 358 358 358 358 358 358
328 328 328 329 329 326 322 317 319 325 325 324 321 317 316 316 315 315 312 311 313 312 317 327 330 330 330 332 333 336 341 346 348 350 351 351 351 352 353 355 356 358 357 355 354 354 357 359 359 359 359 358 358 358 359 358 358 358 359 358 358 358 358
327 329 328 325 327 330 325 321 325 324 316 315 317 315 316 317 315 314 312 312 313 311 314 322 327 329 330 331 333 333 339 344 346 348 351 351 351 352 352 353 354 356 357 356 354 354 356 358 359 359 359 359 359 359 359 359 359 359 359 359 359 359 359
327 328 326 320 321 328 329 326 326 324 318 316 317 315 315 317 317 316 314 312 313 317 322 324 326 330 330 332 335 333 337 345 346 346 349 351 351 352 352 352 352 354 355 355 354 355 355 356 358 359 360 360 360 361 361 360 360 359 359 360 360 359 359
323 322 324 322 322 324 324 321 319 318 319 319 320 317 314 315 318 319 318 316 317 328 333 327 328 332 331 333 340 335 334 345 349 344 345 350 352 352 352 352 352 352 352 354 354 355 355 356 358 359 360 361 361 361 362 362 361 360 360 360 360 360 360
316 319 328 329 328 327 325 322 318 317 317 316 315 316 315 312 314 318 320 318 322 338 337 329 329 332 331 333 341 341 337 342 349 347 343 348 351 351 351 352 352 352 352 352 353 354 356 357 360 360 360 361 361 361 362 363 362 362 361 361 360 361 361
321 325 330 329 328 330 329 326 326 323 320 315 312 315 317 313 312 316 316 315 327 348 343 333 332 333 332 333 339 343 337 336 347 348 342 346 349 350 351 350 351 352 352 351 352 354 355 356 359 361 361 362 362 362 362 363 364 363 362 362 361 361 361
327 328 330 330 330 330 326 325 328 326 322 320 319 323 324 317 312 314 313 313 327 350 348 337 334 334 335 334 337 342 337 336 347 348 342 343 348 351 350 350 351 352 351 352 353 355 354 355 356 360 362 362 362 362 362 362 363 363 363 363 362 361 361
322 325 326 325 326 327 325 327 328 327 327 325 322 326 326 319 314 315 314 314 326 351 355 342 337 336 335 335 337 339 336 338 346 347 344 344 348 352 351 350 353 352 352 355 356 357 356 355 356 359 362 363 362 362 363 363 363 363 364 364 363 362 361
321 323 323 320 321 325 325 326 327 327 328 324 321 320 319 320 321 317 315 316 326 346 353 343 340 339 337 336 338 339 342 349 351 347 346 345 347 352 353 351 352 351 353 357 359 360 359 356 357 359 361 363 362 361 362 363 365 365 365 365 364 363 362
329 330 334 332 325 322 320 322 324 326 327 326 324 318 316 326 327 318 323 329 326 332 341 342 340 340 342 345 348 351 359 366 361 349 347 346 345 350 352 350 352 354 356 358 359 362 360 357 356 358 361 362 362 362 361 362 366 367 366 367 366 365 363
332 334 338 337 329 322 319 321 322 323 326 326 322 316 322 338 327 316 333 344 328 329 342 345 344 344 348 350 352 354 359 366 363 352 347 347 346 349 351 349 353 356 357 359 360 360 357 355 355 355 359 362 362 362 362 361 365 367 368 368 368 367 365
330 332 333 333 332 329 325 324 323 322 324 323 320 319 330 344 328 322 342 348 334 336 342 343 344 343 344 346 346 348 351 356 357 351 347 348 348 350 350 351 355 357 357 360 361 359 357 354 354 355 358 362 363 362 363 363 364 366 368 369 368 368 366
329 332 334 333 331 330 329 327 326 326 324 323 323 323 331 340 335 338 353 351 342 338 337 339 341 339 339 342 342 346 348 350 353 350 347 351 353 354 353 354 357 357 359 361 360 361 359 355 355 358 361 363 364 363 363 363 364 365 366 368 368 368 367
332 334 335 334 331 329 327 327 330 331 327 324 323 324 328 334 334 338 349 346 340 337 337 339 339 338 339 340 342 346 347 345 346 348 349 351 352 353 355 358 359 359 362 365 362 362 363 359 359 362 364 364 364 364 364 364 363 364 365 367 368 368 368
336 337 332 330 329 328 325 325 329 330 327 324 322 324 327 331 333 335 336 334 335 339 339 338 339 340 340 340 341 342 341 340 341 344 349 356 361 362 365 370 371 368 370 373 370 365 362 362 362 362 363 365 365 365 365 365 364 363 363 365 366 367 367
333 330 327 327 326 325 325 327 330 331 331 330 325 324 328 334 337 338 335 335 342 344 340 337 340 340 341 345 344 342 343 345 344 342 345 356 368 373 377 380 377 374 375 380 378 370 364 364 364 363 363 364 365 365 364 365 365 364 363 363 364 365 366
326 323 327 331 327 324 328 332 333 333 332 332 328 327 329 328 332 339 343 346 347 343 341 343 342 339 342 345 342 343 347 346 346 350 352 353 357 364 369 373 374 376 381 381 374 367 365 366 365 363 363 363 364 364 365 364 364 364 364 363 363 365 365
324 326 333 333 327 327 332 333 334 333 331 330 332 338 343 342 340 341 341 344 345 343 344 346 343 341 342 343 343 348 352 349 349 356 361 361 361 365 369 372 374 377 380 380 372 364 362 362 361 362 363 363 363 363 362 364 363 363 363 363 363 365 364
327 332 334 331 328 331 334 333 333 332 334 334 335 340 344 345 345 346 342 341 343 342 341 342 343 343 343 346 351 355 357 356 356 356 358 362 366 368 369 371 374 373 370 370 368 361 356 355 354 355 358 359 361 362 361 361 362 361 363 363 362 364 365
327 328 327 325 326 331 334 333 332 330 332 335 336 341 343 344 346 348 347 342 338 338 339 341 343 344 347 353 354 353 354 355 355 356 356 358 364 365 363 363 365 363 361 361 362 358 356 357 357 356 357 357 358 359 360 360 360 361 361 362 362 363 365
324 328 329 326 325 330 331 329 329 330 330 331 336 344 343 343 344 347 349 347 343 342 343 345 346 350 355 359 356 351 351 352 351 353 353 353 358 359 357 357 358 359 361 363 364 365 365 365 366 365 364 362 361 361 361 359 358 359 361 362 361 362 364
322 329 334 329 326 331 331 328 328 331 332 333 336 346 344 343 343 346 348 348 348 348 348 349 351 353 357 360 357 351 350 350 350 353 354 353 354 354 353 357 359 360 364 365 365 366 364 363 366 367 367 365 364 365 365 363 359 357 358 360 362 362 364
322 326 329 328 329 331 328 325 328 331 332 333 340 349 346 342 340 343 346 346 348 348 349 349 350 353 356 358 355 350 349 350 351 352 355 356 355 352 353 357 359 359 363 364 363 363 361 362 365 367 369 369 367 365 365 365 364 361 358 359 360 360 362
319 323 325 326 330 329 325 325 329 329 332 340 349 350 346 340 339 342 342 343 345 345 346 348 350 351 351 350 349 348 348 350 351 351 352 354 353 352 354 357 357 357 360 361 361 360 362 363 363 363 367 371 372 369 364 363 364 362 360 360 359 359 361
317 321 322 325 331 329 324 326 328 327 337 347 347 344 340 334 337 341 339 340 343 343 345 347 347 347 345 345 347 347 347 349 351 351 351 352 353 353 354 356 355 356 359 361 360 362 363 362 360 362 365 369 372 372 368 367 366 363 362 363 360 359 362
318 320 322 330 335 329 321 325 329 329 337 343 341 337 334 331 333 336 337 338 340 341 343 345 345 345 345 345 346 346 346 348 349 349 350 352 353 353 354 355 355 356 359 361 359 360 361 360 360 362 364 368 372 372 370 372 370 365 363 365 362 360 362
321 324 327 333 335 326 320 325 328 326 330 336 337 334 332 330 329 331 333 334 334 338 341 342 343 344 344 345 347 346 346 347 348 349 350 351 351 352 352 355 355 354 357 359 358 357 358 359 360 361 363 368 372 372 370 371 371 367 365 368 367 364 363
323 325 325 327 327 324 321 324 326 325 324 325 329 331 330 328 328 329 331 330 331 334 337 338 340 341 342 344 346 346 346 347 348 349 350 350 351 352 352 354 354 354 356 358 357 357 358 359 360 361 363 365 367 368 368 368 370 369 368 370 371 367 364
321 322 322 323 323 322 320 320 324 328 327 324 326 329 328 328 327 327 328 330 330 331 334 336 339 340 340 342 343 345 348 349 349 350 350 350 350 351 353 355 354 354 356 356 357 358 358 357 358 359 361 362 363 365 366 366 368 368 369 372 373 370 367
318 319 321 321 319 319 320 320 322 325 327 327 327 328 329 330 329 326 327 329 330 330 331 333 335 337 339 340 341 343 346 349 352 353 352 351 349 350 353 355 353 353 355 356 357 358 356 355 356 357 359 361 362 362 363 364 366 367 369 371 372 372 370
318 318 319 318 318 320 322 322 321 322 324 327 327 325 326 329 328 325 324 326 328 329 329 329 330 333 337 339 340 340 342 345 351 354 353 351 350 350 352 353 353 352 353 355 357 356 355 355 356 356 357 358 360 361 363 363 365 366 367 368 370 371 371
316 317 317 318 319 319 319 319 320 320 321 324 324 323 323 324 325 325 324 324 326 328 328 328 329 331 335 338 338 339 340 342 346 351 351 349 349 350 352 353 352 351 351 353 354 353 352 353 353 355 356 357 358 361 362 363 365 366 366 366 368 369 369
316 317 317 318 317 316 316 317 318 318 319 321 322 323 324 323 324 327 326 324 324 326 327 327 328 331 334 336 336 337 339 341 344 347 348 348 348 349 351 352 352 350 350 352 352 350 351 352 353 354 355 356 357 358 359 361 364 365 365 366 368 368 368
316 317 316 316 316 316 316 316 317 318 319 319 320 322 325 324 324 327 327 325 324 326 326 326 327 330 333 333 333 334 337 338 340 343 345 347 348 348 350 352 354 351 350 351 351 351 351 352 352 353 354 354 354 355 356 357 359 361 364 368 368 367 366
315 315 315 315 316 316 316 316 316 317 318 319 319 320 322 324 323 324 325 324 324 326 328 327 326 327 329 330 330 333 337 338 339 341 343 346 348 348 349 352 354 353 352 352 351 351 351 350 350 350 350 350 352 353 353 354 356 359 362 364 364 363 363
313 313 314 314 314 315 315 315 316 317 318 319 319 319 321 323 323 322 323 324 325 326 328 328 325 323 325 327 328 332 335 337 339 341 342 344 346 348 348 350 353 353 353 351 350 349 349 349 349 348 348 348 351 352 351 351 354 357 359 360 360 359 360

ECMWFFLT2_925_thetae_036.txt.gz
Theta_e
326 327 327 325 325 323 325 324 319 323 330 326 318 318 320 317 316 318 317 317 320 323 329 332 328 332 336 335 345 349 347 349 350 351 352 352 353 355 354 355 355 354 354 352 352 352 352 352 352 352 352 352 353 352 352 353 353 352 353 353 354 354 353
325 326 327 325 327 329 324 319 320 326 326 324 323 321 319 316 316 320 317 313 314 315 321 332 330 328 331 334 342 350 349 349 351 351 353 353 354 355 354 355 355 354 354 352 351 352 353 353 353 353 353 353 353 353 352 353 353 353 353 353 354 353 353
326 326 326 323 325 328 326 324 326 326 320 317 320 321 318 316 315 318 317 314 316 315 318 328 327 326 329 329 338 351 352 350 352 352 353 354 354 356 355 355 354 354 354 352 352 352 353 353 353 354 354 354 354 353 353 353 354 353 353 353 354 354 353
326 326 324 318 320 325 326 326 327 328 322 317 318 319 320 319 317 317 316 316 318 322 324 325 325 328 329 325 334 350 353 351 353 352 353 355 355 356 355 354 355 354 353 353 351 353 353 354 354 355 355 354 354 354 355 354 354 354 354 354 354 355 354
322 323 323 321 320 322 323 320 321 322 320 320 320 317 319 323 324 320 316 315 319 326 327 326 327 327 326 325 333 346 353 352 352 354 353 353 355 356 355 354 355 354 353 353 352 352 353 353 355 355 355 356 355 355 355 355 355 354 355 355 354 355 355
319 320 325 327 325 324 324 320 319 320 319 318 316 316 316 317 323 328 324 318 323 334 332 327 326 325 325 325 327 339 352 353 351 354 352 352 355 354 355 354 354 354 353 353 352 352 353 354 355 355 355 356 356 356 356 355 356 355 355 356 355 355 355
321 324 326 326 327 327 328 324 324 325 323 316 312 315 317 311 316 327 324 317 325 344 344 330 326 326 325 326 325 335 349 352 350 352 350 352 353 353 353 353 353 354 354 353 352 352 353 355 356 356 356 357 356 356 357 356 357 356 355 356 355 355 356
324 326 326 326 328 327 325 324 326 324 322 320 317 323 325 317 313 317 317 313 320 344 355 337 330 329 325 326 325 332 347 351 349 350 349 352 352 351 353 352 353 355 354 354 354 352 353 354 356 357 356 357 357 357 357 357 357 357 356 357 357 356 356
323 321 325 324 324 325 323 326 327 323 325 325 321 327 327 318 313 316 318 314 320 347 364 344 336 334 326 326 326 331 345 349 347 349 349 351 352 351 352 351 352 354 355 356 356 353 353 353 355 357 356 358 358 357 358 357 357 357 356 357 356 357 357
328 324 329 326 323 324 324 326 327 324 325 322 319 322 320 316 318 319 316 315 324 349 358 340 337 332 324 329 330 332 343 347 345 348 349 350 351 351 353 352 352 353 355 357 357 354 353 353 354 356 356 358 358 357 358 359 358 359 358 357 358 357 357
329 328 332 331 328 325 321 321 324 325 325 322 323 322 319 324 328 320 319 322 324 337 350 347 343 335 329 335 336 336 344 345 345 348 348 350 350 350 352 351 352 354 354 356 358 355 353 352 354 355 355 357 358 358 359 359 360 360 358 359 358 358 358
322 322 323 325 329 328 323 321 322 324 325 324 320 317 322 335 328 317 328 337 323 328 350 355 349 349 351 355 350 341 342 345 345 346 348 350 349 350 352 351 353 355 354 355 356 355 353 353 354 355 356 357 357 358 360 359 360 360 360 360 359 359 359
315 316 320 324 330 331 328 325 323 324 325 324 318 317 328 339 326 318 336 345 329 333 350 351 346 350 353 360 360 348 343 345 345 344 348 350 348 349 349 350 352 353 353 354 355 355 354 352 353 355 357 358 358 359 359 360 360 361 361 361 361 360 360
315 319 325 329 332 331 328 326 326 326 326 324 322 323 332 338 332 333 345 345 338 339 345 342 343 344 343 348 356 350 345 347 345 343 345 348 347 348 349 350 351 352 353 354 353 355 354 352 352 354 356 359 360 359 360 360 361 361 361 362 361 361 361
318 325 332 334 332 329 327 328 329 327 326 326 323 324 330 333 334 344 348 341 336 338 338 337 340 341 340 342 347 352 349 347 346 344 343 345 347 347 347 348 350 351 352 354 354 356 355 353 352 353 355 358 360 360 360 360 361 362 362 362 362 362 361
318 324 329 330 329 329 329 329 332 331 326 324 323 327 334 334 334 340 339 332 332 335 335 337 338 338 339 341 343 350 351 348 347 343 342 344 347 347 348 350 351 352 352 353 356 356 355 353 353 353 354 357 358 360 361 360 361 362 363 364 363 363 363
319 320 323 326 330 334 331 328 332 338 341 342 343 346 349 346 342 337 332 333 339 340 339 346 351 349 350 351 350 353 357 357 355 352 349 350 351 350 351 350 351 351 351 352 354 354 354 354 354 354 355 356 358 359 360 361 360 361 363 365 365 364 364
316 317 322 327 331 335 333 329 330 336 344 349 349 349 348 348 348 345 341 341 342 343 349 358 361 359 359 359 357 359 364 366 367 367 368 366 366 364 363 363 364 366 365 361 355 351 353 355 353 354 355 356 359 359 360 361 360 360 363 363 366 365 365
316 323 332 336 336 336 333 327 327 330 335 341 346 347 345 344 348 350 351 349 342 345 356 359 357 357 356 356 357 358 361 365 367 366 366 366 367 368 369 372 376 377 378 372 360 353 353 354 355 355 356 357 358 359 360 361 361 361 362 362 364 366 366
320 327 336 339 341 339 331 327 327 327 329 333 342 349 345 341 345 347 351 356 350 348 354 355 353 356 354 353 355 354 355 359 360 359 360 360 361 362 364 368 370 371 370 366 360 357 356 358 358 357 358 359 360 360 360 362 362 361 362 362 363 364 365
324 325 331 338 344 343 333 328 327 326 327 330 337 349 347 339 340 344 346 354 354 348 349 352 352 353 355 356 357 353 352 354 354 355 357 357 359 362 362 363 365 363 363 362 361 361 363 365 365 363 360 360 360 362 362 362 363 363 362 362 362 363 364
322 324 332 341 347 345 334 326 324 324 326 326 329 344 348 339 337 340 343 348 350 348 350 353 353 354 358 360 357 353 352 352 352 353 355 355 358 360 360 361 360 360 360 361 362 362 363 363 364 366 366 363 361 362 361 361 362 362 362 363 362 362 362
317 323 331 336 339 338 330 324 324 324 326 325 328 344 350 340 334 338 341 344 347 348 349 351 353 357 360 360 357 352 351 351 351 353 354 355 357 356 357 359 359 358 360 361 360 361 360 359 360 362 366 366 365 366 364 363 361 361 361 361 362 362 362
317 323 330 333 333 330 325 325 325 323 324 327 336 349 350 340 334 333 336 341 344 345 348 350 351 354 357 356 353 349 349 349 349 351 353 354 356 355 355 357 357 357 359 360 360 359 358 358 359 359 361 365 367 368 368 366 364 361 361 361 361 362 363
318 319 323 329 330 326 324 325 325 323 327 335 344 347 345 339 336 331 330 336 340 342 346 348 349 350 350 349 348 347 347 348 348 349 350 351 353 354 355 356 356 357 358 358 359 358 358 359 359 359 361 365 368 371 369 368 367 364 363 363 362 361 360
319 319 321 329 331 326 322 324 324 324 332 341 342 340 337 335 335 330 327 331 334 337 341 344 345 346 344 344 346 346 346 348 348 348 349 350 351 352 353 355 355 355 356 356 356 358 358 359 360 361 364 366 369 371 369 369 370 368 365 364 363 361 360
323 325 327 329 330 325 322 325 327 327 333 339 339 336 333 332 332 329 327 328 329 332 336 338 340 342 341 343 345 345 346 347 347 347 348 349 350 352 352 354 354 354 355 355 355 357 357 357 360 360 361 364 366 366 366 367 368 368 367 364 363 363 361
325 327 327 328 329 327 324 326 328 327 329 334 336 333 330 331 331 329 327 327 326 327 331 334 336 338 338 339 341 343 345 346 346 347 347 347 349 350 351 353 353 353 353 355 356 356 356 355 356 358 359 361 362 363 363 365 366 367 368 366 364 364 363
323 324 324 322 324 328 328 328 328 327 326 328 330 329 327 329 331 330 329 328 326 324 326 329 333 335 335 336 337 339 341 343 345 347 346 347 348 349 349 351 353 352 353 355 355 355 354 354 355 356 356 358 359 361 361 363 364 366 367 368 369 368 364
320 320 320 316 316 322 326 325 325 324 325 327 329 329 329 328 328 328 328 329 328 325 325 326 329 332 332 333 334 336 338 340 342 344 346 346 346 346 348 350 352 352 352 353 354 353 353 352 353 354 355 356 357 358 360 361 363 364 366 368 371 372 367
317 318 319 316 315 317 319 319 319 321 323 324 325 327 330 331 328 326 326 327 327 327 327 326 328 330 331 331 332 333 335 338 340 343 345 346 345 345 347 349 351 351 350 351 352 351 351 351 352 352 354 354 354 356 359 362 362 363 364 366 369 371 368
315 317 318 315 314 315 315 317 318 319 318 319 319 321 325 328 327 325 325 326 326 327 328 328 328 329 330 331 331 331 334 337 339 341 344 345 345 345 346 348 351 351 349 350 351 350 349 350 351 352 353 354 355 357 359 361 362 363 364 364 367 371 369
314 316 316 314 314 315 315 315 316 316 316 316 318 319 321 323 325 325 324 324 326 326 326 328 329 328 329 331 331 330 332 336 339 341 342 341 342 345 346 347 350 351 350 349 351 349 348 350 350 351 353 354 354 355 357 359 362 364 364 364 366 369 370
314 314 314 313 314 315 314 313 313 314 314 315 316 318 320 323 325 324 322 322 324 325 326 326 328 329 329 329 330 330 332 335 339 340 340 338 339 343 345 346 349 351 351 350 350 350 349 349 349 350 351 352 353 353 354 357 360 362 364 365 366 367 369
312 311 311 312 312 312 311 311 311 312 312 313 315 317 319 321 324 324 321 319 320 324 326 326 327 329 330 328 328 331 332 332 333 337 339 338 338 342 344 344 348 351 351 350 350 349 348 348 349 349 350 350 350 352 355 357 359 362 364 365 366 365 367
310 309 309 310 310 310 310 310 310 310 311 312 314 315 317 321 323 324 323 320 319 324 330 328 323 324 328 326 326 331 333 328 328 336 340 338 338 342 343 343 347 350 351 350 349 348 348 347 347 348 349 349 349 352 356 358 359 360 362 362 362 363 365
308 308 308 308 308 308 309 309 309 309 310 311 312 314 317 321 323 324 325 325 322 324 329 329 323 321 324 324 324 329 330 326 328 337 340 337 337 340 342 342 346 350 350 348 347 347 347 346 346 347 347 348 349 351 354 356 358 358 358 357 358 359 361

ECMWFFLT2_925_thetae_039.txt.gz
Theta_e
329 331 330 328 328 328 328 328 325 326 328 324 320 322 323 317 317 321 317 318 323 323 327 331 328 332 337 340 344 344 345 347 347 348 347 347 350 351 351 352 353 353 352 349 349 349 349 350 349 350 351 352 352 353 353 353 353 353 354 354 355 354 354
327 327 331 328 327 329 327 323 324 327 327 326 322 320 320 317 317 322 320 316 315 315 325 335 331 328 334 336 340 343 344 346 346 347 348 347 349 351 351 352 353 353 352 349 349 349 349 349 349 350 351 351 352 352 352 353 353 354 354 354 354 354 355
324 325 328 327 327 328 327 325 327 327 322 321 321 320 320 319 318 320 320 319 317 315 323 332 327 325 330 334 340 342 341 345 345 345 347 347 348 350 351 352 352 352 352 350 349 349 349 349 349 350 351 350 352 352 352 353 353 353 353 354 354 354 354
321 323 325 321 322 326 327 326 328 328 324 320 321 321 319 319 321 320 316 316 319 322 326 328 326 329 328 330 340 344 339 342 344 344 346 348 348 350 351 351 353 353 352 351 349 349 349 349 349 350 350 351 351 351 352 352 353 353 353 353 354 353 354
320 323 324 323 323 323 323 322 321 323 323 321 321 320 319 322 325 324 317 313 319 330 334 329 329 333 327 328 340 345 340 340 343 344 345 347 348 349 350 351 352 352 352 351 349 350 350 350 350 350 350 350 351 351 351 351 352 353 352 352 353 353 354
323 323 323 324 325 323 322 321 320 321 321 320 319 319 321 320 322 326 321 313 318 331 331 326 328 332 327 326 336 343 344 341 341 344 345 346 348 349 350 351 351 351 352 351 350 350 350 350 350 350 350 351 350 351 351 351 352 352 352 352 352 353 353
320 320 321 321 322 325 325 323 323 325 323 319 316 318 320 317 318 325 323 314 318 331 335 329 325 328 326 324 330 339 344 344 342 344 344 345 348 348 349 350 350 352 352 351 350 350 350 351 351 350 350 351 350 351 351 351 351 352 352 352 352 353 353
320 321 322 322 323 325 323 323 324 325 324 321 320 325 326 319 316 318 319 315 317 331 347 340 328 328 327 323 326 333 340 344 344 344 345 346 347 348 350 350 351 352 352 351 351 351 350 350 351 351 351 351 351 351 352 351 351 352 352 352 352 352 352
326 319 320 324 327 326 322 324 324 322 327 324 324 329 326 318 316 316 317 316 317 330 350 345 335 336 332 325 326 329 337 342 345 345 346 348 349 349 350 351 352 353 352 354 354 352 351 350 352 352 351 351 352 352 352 352 352 352 352 352 352 352 352
328 322 324 327 327 324 320 323 325 323 326 322 322 323 318 318 321 317 315 316 318 328 339 334 332 337 338 333 327 327 335 341 344 347 347 349 351 351 352 353 354 354 353 355 354 352 350 350 351 352 352 352 353 352 352 353 352 352 352 353 352 352 352
321 321 322 320 319 317 317 320 320 322 325 322 325 323 317 322 326 318 319 322 318 322 328 326 329 337 344 340 329 327 337 341 344 348 348 351 351 351 353 353 353 356 355 355 355 353 350 350 351 352 353 353 353 353 353 353 354 353 353 353 353 353 353
315 316 316 315 316 316 316 317 317 321 326 323 321 319 320 328 323 316 329 335 320 319 327 326 327 335 347 344 330 328 338 343 346 348 350 352 353 352 353 354 355 356 356 356 355 354 351 350 351 352 353 353 354 354 354 354 354 354 353 354 353 354 354
314 314 315 314 316 316 315 317 319 323 326 324 319 318 326 332 320 316 334 343 325 321 326 330 331 336 343 345 334 330 337 344 347 348 351 351 351 352 353 354 356 356 356 356 355 354 352 350 352 353 353 353 354 355 355 355 354 355 354 354 354 354 354
315 314 315 315 317 318 320 323 325 327 328 325 320 321 330 333 325 327 339 340 333 332 334 337 339 338 339 345 342 334 337 347 347 348 351 351 349 352 352 353 355 355 356 356 355 355 354 350 351 353 353 355 354 354 355 356 355 356 355 355 355 355 355
315 314 315 315 317 320 325 328 331 337 339 327 316 327 336 330 329 336 336 334 342 346 340 339 345 349 356 365 362 346 338 344 349 347 348 350 349 351 350 352 353 353 355 355 355 356 354 351 350 352 353 354 354 355 355 356 356 356 356 356 356 356 356
315 315 315 316 317 321 329 330 329 337 346 339 334 346 349 342 344 344 331 329 341 345 342 350 358 363 371 376 378 373 354 343 346 347 348 350 350 350 349 351 352 353 353 355 356 355 352 351 351 352 353 354 354 355 356 356 357 357 357 357 357 356 357
316 315 313 317 323 332 339 333 327 333 344 345 344 347 346 346 353 348 331 332 346 351 354 363 364 362 364 364 368 378 372 352 344 345 346 347 348 349 349 350 352 351 351 352 354 353 351 351 351 351 352 353 355 355 356 357 356 358 358 358 357 357 357
316 314 316 325 336 343 340 330 323 328 336 341 343 344 341 341 347 349 343 345 353 357 358 362 361 358 360 359 357 362 369 368 363 360 356 351 349 348 350 350 350 350 350 351 351 350 350 352 351 352 352 353 354 355 355 357 357 357 359 358 359 359 358
316 315 324 339 345 340 332 325 323 324 327 330 336 342 339 337 340 345 348 351 352 354 357 358 359 358 355 355 355 355 358 364 370 373 371 365 361 357 355 355 355 354 356 354 351 349 350 351 351 352 353 353 355 356 355 357 357 357 358 359 359 360 359
319 317 326 340 342 334 329 325 322 323 324 325 333 343 341 334 335 339 344 348 348 348 352 353 356 359 355 354 355 353 354 359 362 366 369 368 367 366 364 364 363 358 355 353 350 349 349 351 352 351 352 353 354 355 357 357 358 358 359 359 359 360 360
322 317 319 330 338 337 331 325 321 320 323 324 330 341 343 333 332 335 339 344 347 347 349 351 354 359 358 358 356 351 350 355 357 360 362 361 364 364 363 363 363 358 354 352 353 353 352 353 353 351 352 353 353 355 356 357 359 359 359 360 361 361 361
323 318 319 329 341 342 331 322 319 318 321 322 323 336 343 334 330 332 335 339 345 348 350 351 356 360 361 361 357 350 348 350 352 356 357 357 360 361 360 361 359 357 358 359 358 359 360 360 359 355 353 353 354 355 355 356 359 358 359 360 360 362 362
318 317 321 329 336 335 325 320 318 319 322 321 324 338 345 336 330 332 333 334 339 345 348 349 352 358 364 362 354 348 348 349 350 353 355 355 357 358 358 359 358 357 358 358 358 360 361 362 364 362 357 355 355 356 356 357 358 359 359 359 359 361 363
317 318 322 327 329 327 322 319 320 321 322 324 332 345 345 334 330 333 332 330 332 338 345 346 348 354 359 357 351 346 346 347 347 351 353 354 356 356 356 356 356 356 358 357 358 359 358 361 365 365 362 362 362 362 360 359 359 358 359 359 359 360 361
320 320 322 326 326 322 320 320 321 323 326 332 338 341 336 331 331 332 331 329 328 331 338 342 344 347 347 345 345 344 344 345 347 348 349 351 353 354 354 355 355 355 356 355 356 356 358 362 364 365 366 367 366 366 366 364 364 363 362 362 360 360 360
323 323 324 327 326 321 319 322 324 325 330 336 336 333 330 329 330 329 328 328 326 326 331 335 336 337 336 337 339 341 342 345 346 346 347 349 351 352 354 355 354 353 353 353 353 354 356 359 361 364 365 364 363 364 363 363 365 366 366 366 364 363 362
322 324 325 326 325 321 321 323 325 326 329 331 331 330 329 328 328 327 325 325 324 323 325 328 329 330 329 331 335 337 339 342 343 345 346 347 349 350 352 353 353 352 352 351 351 352 353 355 358 360 362 361 360 360 359 360 363 364 366 367 367 367 366
319 321 322 321 321 322 322 322 322 322 323 323 324 328 328 327 327 326 323 322 322 322 323 324 326 326 327 328 330 334 336 339 341 343 344 345 347 348 349 351 352 351 350 349 349 350 351 353 355 356 357 357 357 357 358 360 362 363 365 365 366 367 368
318 320 320 319 320 322 322 321 320 319 318 318 319 322 325 326 327 325 323 321 321 320 322 323 323 324 325 325 326 330 333 335 338 340 341 343 344 346 348 349 350 350 349 349 348 348 350 352 353 354 355 355 355 356 359 360 361 362 363 364 366 367 368
317 320 320 317 317 318 319 320 320 318 317 317 317 318 320 322 326 326 323 321 319 320 322 323 323 323 322 322 323 326 329 332 336 338 338 340 341 343 346 348 348 348 348 348 347 347 349 351 353 354 354 355 355 357 359 361 361 361 361 362 365 366 368
316 320 320 316 314 315 317 319 319 318 317 316 317 317 316 318 322 325 324 321 319 319 321 324 325 323 321 322 323 325 327 330 333 336 338 338 339 341 343 346 348 348 347 347 347 347 347 349 352 354 354 355 355 356 358 360 360 361 362 362 363 365 367
315 317 316 313 310 312 318 320 319 318 316 314 315 315 315 315 318 321 322 321 320 319 320 323 325 324 323 323 324 325 327 328 330 334 338 337 337 340 342 345 348 347 346 346 346 346 346 348 350 352 353 354 355 355 356 358 359 361 362 363 364 365 367
312 313 312 311 310 312 316 318 317 316 314 313 313 313 313 314 315 318 320 320 320 319 321 323 325 325 323 324 325 325 326 327 327 332 336 336 335 338 341 343 347 348 347 346 346 346 345 347 348 350 352 353 354 355 355 356 357 360 362 362 364 365 366
312 312 310 309 310 312 313 312 312 311 311 312 312 312 313 313 314 316 319 320 319 319 321 324 326 326 324 326 326 326 327 328 327 329 334 334 334 337 340 342 346 348 347 346 345 345 345 347 348 349 351 353 355 355 355 356 357 360 363 364 364 365 366
310 309 308 308 309 309 309 309 309 309 309 310 311 311 312 313 313 314 318 320 321 321 321 322 323 323 324 326 327 329 329 326 324 327 333 334 334 336 338 340 344 347 347 346 345 345 346 347 347 348 350 353 355 356 357 358 359 361 363 363 363 363 365
307 307 307 307 307 308 308 307 307 307 308 309 309 310 312 313 313 314 317 321 322 322 321 320 319 321 322 323 325 330 331 325 323 329 335 334 334 336 338 339 343 346 346 346 345 345 346 346 346 347 349 351 354 356 357 358 359 360 361 360 360 360 362
307 306 306 306 306 307 307 307 307 308 308 308 309 310 311 313 314 315 318 321 322 320 320 320 319 318 320 320 322 326 326 322 324 332 335 333 333 335 336 337 341 345 346 346 345 345 345 345 345 346 348 350 352 354 355 356 357 358 357 357 356 356 358

ECMWFFLT2_925_thetae_042.txt.gz
Theta_e
319 323 326 325 326 326 327 327 326 327 331 328 325 327 326 320 321 323 320 321 324 324 329 330 327 330 330 332 337 340 342 345 345 346 347 346 347 348 349 350 350 349 348 347 347 347 347 348 349 349 349 350 351 351 352 351 352 352 352 352 353 353 353
319 318 323 326 327 329 328 324 325 328 330 329 326 324 323 321 323 326 323 319 318 318 325 333 332 331 332 332 335 339 342 345 346 347 346 346 346 347 348 349 350 350 349 348 347 347 347 348 349 349 349 350 351 351 351 352 351 352 352 352 352 353 353
320 317 321 326 327 329 328 327 327 329 328 326 324 324 325 325 325 326 323 320 319 318 323 330 330 332 334 333 335 340 341 344 346 345 346 346 345 347 347 349 349 349 350 348 347 347 347 347 348 348 349 350 351 351 351 352 352 352 352 352 353 352 353
319 319 320 324 326 327 328 328 329 332 330 325 324 325 325 326 327 326 320 318 321 324 328 329 328 332 334 333 336 338 340 344 344 343 345 345 345 347 347 347 349 349 349 348 347 347 348 347 348 348 349 350 350 352 351 351 351 352 352 352 352 352 353
319 322 322 323 325 326 326 324 325 328 327 325 326 324 322 324 328 327 321 318 324 333 335 331 331 333 332 335 338 338 338 341 344 344 345 345 345 346 346 347 348 348 348 348 347 347 348 347 348 349 348 350 350 351 352 351 352 352 352 352 353 353 353
321 322 320 321 322 322 322 322 324 326 324 323 326 325 321 320 324 328 325 319 325 336 333 328 328 329 327 331 335 336 337 339 342 343 344 346 346 345 346 347 347 348 348 348 348 348 347 347 348 348 348 349 350 351 352 352 352 352 352 352 352 353 353
318 317 316 316 317 318 320 322 323 326 326 322 322 325 324 319 321 327 325 319 324 337 336 329 327 327 323 325 331 335 336 336 340 342 342 344 345 344 346 345 345 348 348 348 349 348 348 348 348 348 349 349 350 350 350 351 352 352 352 352 352 353 353
318 317 317 316 316 318 320 322 321 321 323 321 322 328 328 322 319 321 323 319 322 333 337 328 325 327 323 321 325 332 336 336 337 340 342 344 345 345 346 346 347 348 348 349 350 348 348 348 348 348 349 349 349 350 351 351 352 352 352 352 352 352 353
324 320 320 322 324 320 317 319 318 317 321 322 324 328 325 321 319 320 322 320 320 332 340 330 326 328 326 325 325 327 333 337 337 338 340 343 345 345 346 346 347 349 350 352 352 350 348 348 348 348 348 349 349 350 350 350 351 352 352 352 352 352 352
327 323 325 325 324 318 314 316 316 316 318 318 320 322 318 320 324 320 320 319 319 330 339 333 332 333 331 335 334 329 328 331 336 341 341 341 345 346 346 347 348 350 352 354 353 351 349 348 349 348 348 349 349 349 350 350 350 351 351 352 352 352 352
322 321 320 317 316 315 315 316 315 316 316 316 320 321 318 324 328 321 322 323 320 327 333 331 334 337 335 340 341 338 332 327 330 338 341 342 342 345 347 347 349 353 353 354 354 352 349 348 348 348 349 349 349 350 350 350 350 350 351 351 351 351 352
315 315 315 313 314 315 315 316 316 316 317 316 320 321 320 326 325 318 325 331 321 321 329 331 332 332 335 341 342 340 337 331 326 330 339 343 341 343 347 348 350 354 354 354 355 352 349 349 349 349 349 349 349 350 349 349 350 350 351 351 351 351 352
314 313 314 313 314 314 314 316 316 317 318 319 321 322 323 327 323 317 330 340 327 322 335 341 339 336 334 334 333 333 331 329 326 326 332 340 341 342 345 349 351 353 354 355 354 353 351 349 349 349 349 349 349 349 349 350 350 351 350 351 351 351 351
314 313 314 314 314 315 315 317 319 321 326 329 328 325 325 325 321 322 336 343 331 330 341 347 350 348 344 340 341 343 339 330 327 328 329 335 342 343 345 348 350 351 353 354 353 354 353 349 349 350 350 350 350 350 350 350 350 350 351 351 351 351 351
316 314 314 314 315 315 316 322 327 328 334 341 336 331 335 335 329 328 331 330 331 338 344 351 356 355 355 353 352 356 353 341 334 332 333 338 344 345 345 348 350 351 353 354 354 355 354 350 350 350 350 350 351 350 351 351 350 351 350 351 351 351 351
319 318 316 315 315 318 323 328 329 327 334 345 342 337 341 344 343 340 330 326 339 348 351 357 357 354 357 358 356 358 358 351 346 340 339 344 346 346 348 348 351 352 351 353 354 353 351 350 349 350 350 351 351 351 351 351 351 351 351 351 351 351 352
322 319 314 315 320 329 334 331 326 325 330 338 340 339 337 337 342 347 341 339 346 350 351 357 360 356 356 357 355 355 357 358 354 347 344 348 347 346 349 350 351 352 351 352 353 351 349 349 349 350 350 351 351 351 352 352 352 352 352 352 351 352 352
320 317 314 320 330 336 335 328 322 323 327 329 334 337 335 333 336 341 342 343 345 347 350 354 357 357 356 355 353 352 354 357 357 355 348 348 348 347 350 350 350 352 351 352 350 349 349 349 349 350 351 352 352 352 353 352 353 353 353 353 353 353 352
318 317 320 332 339 334 329 323 319 322 324 324 328 334 333 329 332 334 335 338 340 344 349 350 350 355 355 353 353 351 350 353 356 359 359 354 351 352 352 351 351 353 354 354 351 349 349 350 350 351 351 352 352 352 353 353 354 354 354 354 353 354 353
318 319 324 335 339 332 327 325 321 321 322 322 326 335 334 327 328 331 332 334 335 340 347 348 350 354 354 352 353 349 347 350 353 358 364 362 355 354 353 353 355 354 353 352 350 350 349 349 350 350 351 352 352 353 354 354 354 354 354 355 354 354 355
319 319 322 329 334 332 329 327 321 318 320 320 323 334 336 327 325 328 331 333 331 335 343 347 353 358 356 354 353 349 346 348 350 354 359 360 359 357 353 351 350 348 347 348 349 350 350 350 350 350 351 352 352 353 353 354 355 355 355 356 356 355 355
318 319 323 329 337 336 330 324 319 316 320 320 320 329 335 330 326 326 329 330 329 330 337 342 351 359 359 356 355 349 346 347 348 351 355 356 358 359 356 351 346 345 347 349 350 350 349 350 350 350 351 352 353 353 354 354 355 356 356 356 356 356 356
315 318 323 330 335 333 324 319 317 318 321 321 323 332 336 330 326 326 327 327 325 326 331 335 343 354 359 357 353 348 346 347 347 349 352 353 355 356 355 354 351 349 349 350 350 351 350 349 350 350 351 352 353 353 354 355 355 356 356 356 356 357 357
315 317 322 326 328 325 319 317 318 319 320 322 329 339 337 329 326 326 325 324 323 323 326 330 335 344 349 350 347 345 345 345 345 347 350 352 354 354 354 355 355 354 354 353 353 353 352 351 350 351 351 352 353 354 355 355 356 356 356 357 356 358 357
318 319 320 323 325 321 318 319 319 319 322 327 333 336 331 326 326 326 324 323 322 322 324 326 329 334 338 340 341 341 340 341 343 345 346 349 351 353 353 354 355 356 356 357 357 357 357 355 351 350 351 352 353 355 354 355 356 356 357 357 357 357 358
321 322 322 325 325 319 317 319 319 319 325 330 330 327 325 323 324 324 324 323 321 321 322 324 326 329 330 332 334 334 335 338 340 340 343 346 348 350 351 352 352 353 354 355 356 358 360 360 355 351 352 354 355 356 355 355 357 357 357 357 357 358 359
321 323 324 326 324 318 317 318 318 319 321 322 320 320 319 319 319 320 323 323 321 320 321 323 326 327 325 326 328 327 330 335 337 338 341 343 345 347 349 349 349 349 350 351 352 355 358 361 359 356 357 358 358 358 358 359 360 360 359 359 358 358 358
318 321 321 321 319 316 316 318 318 317 317 316 315 316 315 315 315 317 319 321 321 320 319 322 326 326 323 323 323 323 326 330 334 337 338 340 343 345 347 348 348 347 347 348 349 351 354 358 359 359 359 360 358 358 360 362 363 363 363 362 362 361 359
315 319 319 317 315 315 316 317 317 315 314 313 313 314 314 313 314 316 316 317 319 320 319 320 324 325 323 321 320 321 324 327 331 335 336 338 340 343 344 347 347 346 347 348 348 349 352 354 357 359 359 359 358 357 359 361 362 363 364 364 365 366 364
313 317 317 314 312 312 313 315 317 315 312 311 312 313 314 313 313 315 315 315 317 319 319 320 322 323 323 323 320 319 321 324 328 332 334 335 338 341 343 346 346 345 347 347 348 348 350 352 355 357 358 359 358 358 358 359 360 361 362 362 363 365 365
314 318 316 311 310 310 311 314 316 315 313 312 311 312 313 313 313 314 314 314 316 318 319 320 321 320 320 322 321 318 319 323 326 329 332 334 335 338 341 344 346 345 345 346 346 346 347 349 352 355 357 357 358 358 358 358 358 359 359 360 362 363 364
313 314 311 308 309 312 314 315 316 315 313 312 311 311 311 312 312 312 313 314 315 317 318 320 321 318 317 320 322 319 319 322 325 328 332 333 333 336 339 343 345 345 344 344 345 344 345 348 350 353 355 355 356 357 357 358 359 360 360 359 362 363 365
311 311 309 308 310 313 315 314 313 312 312 311 311 310 310 310 310 311 313 313 314 315 317 319 320 319 317 318 321 320 319 320 323 326 331 333 332 334 337 340 344 345 344 343 344 343 344 347 351 353 354 355 356 357 357 359 360 361 361 362 363 364 364
310 310 308 308 309 311 311 310 309 310 310 310 310 310 309 309 310 311 312 312 313 314 317 319 320 320 318 317 319 321 321 320 320 324 330 332 332 332 335 339 342 345 344 343 344 343 344 348 352 353 354 356 357 358 359 360 361 361 362 363 363 364 366
310 309 308 307 308 308 308 308 308 309 310 310 309 309 310 310 310 311 312 312 312 314 317 319 318 318 318 317 317 320 322 321 318 321 328 332 332 332 334 337 340 342 343 343 343 343 344 348 351 353 354 355 357 357 358 358 359 360 362 362 362 363 366
309 308 307 307 308 308 307 307 307 307 309 310 310 310 310 310 310 311 312 312 312 313 316 318 317 316 318 317 316 320 323 320 318 320 326 330 332 332 333 335 337 339 342 343 342 342 345 348 351 352 353 354 355 356 356 356 357 358 360 360 360 361 364
309 308 308 308 308 308 307 307 307 307 308 309 310 311 311 312 312 312 312 312 312 313 316 318 316 315 316 317 316 318 320 319 319 321 324 327 330 331 332 334 337 338 341 343 343 343 344 347 349 350 351 352 353 354 354 355 356 357 356 356 357 360 364

ECMWFFLT2_925_thetae_045.txt.gz
Theta_e
317 318 319 322 322 321 323 324 321 323 326 325 320 319 321 320 319 320 318 317 320 322 325 327 326 328 329 330 331 330 334 339 343 345 347 348 349 349 350 349 349 350 350 350 350 350 351 352 352 352 353 354 354 354 354 354 354 354 353 353 353 352 352
318 317 318 320 321 323 323 321 322 326 328 327 322 320 321 321 320 321 317 316 317 316 320 326 328 328 329 330 331 330 332 337 340 342 345 348 348 348 350 350 350 350 350 350 350 350 350 351 352 353 353 354 354 354 354 354 354 354 354 354 354 354 353
318 318 319 320 321 323 323 322 325 326 323 323 323 322 323 322 321 321 318 316 315 314 317 323 326 328 329 329 331 332 332 334 338 338 343 347 348 348 350 350 351 350 349 350 350 349 349 350 351 353 353 353 353 354 354 354 354 354 354 354 354 355 354
318 318 319 319 320 323 324 324 326 325 322 322 323 323 322 322 322 322 320 317 315 317 321 323 326 328 328 330 333 333 332 334 336 338 341 345 347 349 349 349 350 350 348 350 351 349 349 349 351 352 352 353 353 353 354 354 354 354 354 354 355 355 355
317 319 320 320 320 322 322 322 322 322 322 323 324 323 320 320 322 322 322 319 316 320 328 326 327 329 329 331 334 335 334 333 335 338 341 344 347 348 349 348 349 349 348 349 350 349 349 349 350 351 351 352 352 353 353 354 354 355 355 354 355 356 355
318 319 320 320 319 319 319 320 321 322 322 322 322 322 321 319 320 320 322 320 318 323 330 328 326 329 330 331 334 335 335 333 335 340 341 344 347 347 348 348 348 348 348 349 350 350 349 349 350 351 351 351 352 352 353 354 354 354 355 354 355 356 355
318 318 318 318 317 317 317 318 320 323 322 321 319 321 321 319 319 320 320 319 321 327 333 330 327 329 329 330 333 334 334 334 336 339 341 344 347 347 346 346 346 348 349 350 351 351 350 350 350 350 351 351 351 352 353 353 354 354 354 354 355 356 356
317 317 317 317 316 317 317 318 319 320 320 320 319 321 323 321 319 319 320 320 321 328 337 335 330 329 327 326 330 332 334 336 337 339 341 345 348 348 346 346 347 348 349 350 352 351 352 351 351 350 351 351 351 352 353 353 353 354 354 354 355 356 356
319 319 319 319 318 318 318 318 318 317 318 320 320 321 324 322 320 320 322 321 321 330 342 340 332 329 326 323 324 325 328 332 334 337 340 345 350 350 347 347 348 348 350 353 354 354 354 352 351 351 351 352 352 352 353 352 353 354 354 354 355 355 356
321 322 322 320 319 319 318 317 317 317 318 319 320 322 321 320 321 321 320 320 322 330 338 336 332 330 328 329 327 325 325 328 331 334 339 343 348 352 350 349 349 350 352 355 356 357 355 352 351 352 351 352 352 352 353 353 353 354 354 354 355 355 355
321 321 319 316 315 317 317 317 317 317 318 318 321 322 320 321 322 320 321 323 322 325 331 332 332 332 331 332 331 329 329 330 330 334 338 341 345 349 350 349 350 354 356 357 358 358 355 352 351 352 352 352 351 353 353 353 353 354 354 355 355 355 355
317 316 316 314 314 315 316 316 317 317 318 319 322 323 322 324 322 317 325 332 323 322 331 338 340 343 343 340 336 335 336 336 336 337 336 336 338 344 348 350 352 355 357 359 358 356 354 352 352 351 352 351 351 353 353 353 354 354 354 355 355 355 355
314 314 314 313 314 314 315 316 316 317 318 321 326 327 325 327 326 321 329 336 329 331 344 347 349 354 353 351 349 347 347 349 351 350 344 337 334 337 343 349 353 355 356 357 358 356 354 353 353 352 351 352 352 353 353 353 353 354 355 355 356 356 356
314 314 314 314 314 314 315 315 316 317 322 327 332 333 332 331 329 325 330 333 333 343 353 352 352 355 353 353 354 353 355 356 357 357 353 344 336 334 338 345 351 353 354 356 358 358 356 354 353 352 352 352 353 353 353 353 353 354 355 356 356 356 356
315 315 314 315 314 315 315 316 318 322 329 336 338 337 337 337 334 331 331 329 331 344 351 352 353 353 353 354 354 354 355 355 355 357 356 352 343 335 334 340 347 351 352 355 358 358 357 356 354 353 353 353 352 352 352 353 353 353 355 356 356 355 356
316 316 315 315 315 315 316 316 322 330 335 338 339 336 336 338 339 339 333 328 335 344 347 351 355 354 354 354 354 354 354 352 354 355 356 357 352 342 335 335 344 350 350 354 357 355 354 355 354 353 354 353 352 352 352 353 353 353 355 355 355 355 356
317 316 315 315 316 319 321 319 324 332 334 335 335 333 331 332 336 340 337 335 339 341 341 348 355 354 355 357 354 354 354 353 353 354 355 357 357 350 339 335 339 346 348 350 354 353 353 354 353 353 353 353 352 352 352 353 352 353 354 354 355 355 356
317 316 315 317 321 326 327 324 325 331 331 331 333 331 327 327 329 332 334 334 334 334 336 343 351 353 355 357 354 352 353 352 353 353 354 356 357 353 344 335 336 343 348 351 353 354 354 354 353 353 353 353 353 352 353 353 353 353 353 354 355 356 356
316 315 316 322 327 328 325 323 324 327 327 327 330 329 325 324 325 326 328 329 329 329 331 335 342 349 353 354 351 349 348 349 351 353 354 355 357 356 348 339 340 347 352 353 353 355 355 353 353 353 353 353 353 353 353 354 353 354 354 355 356 356 356
315 315 318 325 328 327 325 323 322 324 325 327 331 332 326 322 323 325 325 326 326 326 328 330 336 344 350 353 351 346 342 343 346 350 353 354 355 355 351 344 347 351 351 352 353 354 353 353 353 354 353 353 353 353 353 353 354 355 355 356 356 356 356
315 316 318 320 324 327 327 324 321 321 323 325 328 333 330 323 321 323 324 324 323 324 326 328 331 340 349 353 350 343 337 336 340 345 351 353 353 354 350 346 351 354 352 352 353 353 353 353 353 353 353 353 353 353 353 353 355 355 355 356 356 356 356
315 317 317 319 326 331 326 322 319 319 320 321 323 330 332 325 321 322 323 323 322 322 325 326 329 341 354 355 348 339 331 330 335 342 347 350 352 353 351 349 352 354 353 353 353 353 353 353 353 353 353 353 354 354 354 355 355 355 356 356 357 357 356
315 316 317 320 327 328 322 318 318 318 319 320 323 332 334 326 321 320 321 321 321 321 323 324 327 338 347 345 338 331 326 327 333 341 346 348 351 354 354 352 351 353 355 353 353 354 353 353 353 354 353 355 355 356 356 355 356 356 356 357 357 357 357
314 316 317 319 323 322 317 316 318 317 318 320 329 340 336 323 318 319 318 319 319 319 321 323 325 329 332 331 329 325 323 327 334 341 345 347 348 353 356 357 355 355 356 356 353 353 353 354 354 354 355 356 357 358 358 357 357 357 357 357 358 357 357
314 317 317 319 322 319 315 315 316 316 320 327 335 336 326 318 316 317 317 317 317 316 319 321 323 325 325 325 325 323 323 329 335 339 342 346 349 352 355 357 359 357 356 355 353 353 355 355 354 355 356 356 358 360 359 357 357 357 358 358 359 359 359
316 318 318 322 323 317 312 314 316 317 323 330 327 321 316 315 316 315 315 316 315 315 317 319 321 323 323 322 323 322 323 328 333 336 339 343 347 351 353 355 357 359 359 358 355 355 355 355 355 356 356 358 360 361 359 358 358 358 359 360 360 360 360
319 320 321 324 323 316 312 314 316 317 320 321 316 314 314 314 313 313 314 315 314 314 315 317 320 321 321 320 321 322 322 324 327 331 336 340 343 348 351 353 355 358 360 361 361 358 355 353 354 355 356 360 361 361 360 360 359 359 360 360 359 360 360
318 320 320 319 317 314 313 314 315 315 314 313 312 313 313 312 312 313 314 313 313 314 314 315 318 320 320 319 320 321 320 320 322 326 331 336 340 344 349 352 353 356 358 360 362 361 358 356 356 355 358 361 362 362 362 360 359 359 359 358 359 360 361
314 316 315 313 313 313 313 314 315 313 312 311 311 311 311 311 311 313 313 312 312 313 313 314 317 320 320 319 319 319 320 320 321 322 327 333 338 341 346 350 351 354 357 358 360 360 361 361 360 358 360 363 363 364 362 358 357 359 358 358 359 361 362
313 314 312 310 311 312 312 314 314 313 312 312 311 311 311 311 311 311 312 312 312 312 313 315 316 318 320 320 319 318 318 319 319 320 324 331 336 338 343 348 349 352 356 357 358 359 360 361 362 362 363 363 364 363 360 357 358 358 358 360 361 362 363
313 313 312 310 310 312 313 314 313 312 311 312 311 311 311 310 311 311 311 311 312 313 313 314 315 316 318 319 318 317 317 318 319 319 322 328 334 336 340 345 348 350 352 354 356 357 357 358 360 361 362 362 361 360 359 359 359 359 359 361 361 362 362
311 311 311 309 309 311 313 312 310 310 310 311 311 311 310 310 310 311 311 311 312 312 313 313 314 315 317 318 317 317 318 318 318 319 321 327 332 334 337 342 346 348 350 352 353 354 354 355 357 358 359 359 359 360 361 361 361 362 364 365 366 366 365
311 310 310 309 310 311 311 310 309 309 309 310 311 310 310 310 310 310 311 311 311 312 313 313 314 315 317 317 316 316 318 319 318 319 321 326 329 331 335 340 344 346 349 351 352 353 353 354 356 357 357 357 358 360 360 360 361 362 363 365 366 367 368
311 311 310 309 310 311 309 308 308 308 308 309 310 310 310 310 310 311 311 311 311 312 313 313 314 315 316 317 315 316 318 319 319 319 322 325 326 328 332 337 341 344 347 349 351 353 353 353 354 355 356 357 358 359 360 360 359 359 360 362 364 365 367
311 310 309 309 310 310 308 308 308 308 308 309 310 310 311 310 310 311 312 312 312 312 312 313 314 314 315 316 315 315 317 319 320 320 321 322 323 326 330 335 338 341 344 346 349 350 351 352 353 353 354 355 356 357 359 360 360 359 360 363 365 366 367
309 308 308 308 309 309 309 308 308 308 308 309 310 311 312 311 311 311 312 312 312 312 312 313 313 314 315 316 315 315 317 319 321 321 320 319 320 323 327 333 337 339 341 344 346 347 349 350 352 352 352 353 354 355 356 359 360 361 362 364 366 367 367
308 307 307 307 307 308 308 307 307 307 308 308 309 310 311 312 312 312 313 313 314 313 313 313 313 314 316 317 316 316 316 318 319 320 318 316 318 320 324 329 334 337 340 342 343 345 348 350 350 351 351 351 352 354 354 356 358 359 361 364 365 366 367

ECMWFFLT2_925_thetae_048.txt.gz
Theta_e
320 322 322 323 322 319 321 320 316 318 322 320 316 315 316 315 316 318 316 316 320 322 327 328 328 328 328 330 331 330 332 334 337 340 342 344 346 348 350 353 354 354 357 359 358 358 358 359 358 359 358 358 360 359 360 361 362 362 360 360 359 359 358
321 321 323 323 323 322 320 318 318 321 323 322 318 316 316 317 317 318 314 315 316 316 320 327 327 327 327 329 329 330 330 331 334 336 339 343 345 346 349 352 355 354 354 357 359 358 357 358 358 358 358 359 359 360 361 361 361 361 361 360 360 359 359
320 321 322 321 323 324 322 321 324 322 317 318 318 317 318 318 317 317 314 314 314 313 317 324 326 327 326 327 327 329 329 330 331 332 337 342 343 345 349 351 354 354 353 356 357 357 357 357 358 358 359 359 359 360 360 361 361 361 360 360 359 359 359
320 320 320 318 319 322 323 324 326 324 319 318 318 318 319 318 318 317 316 314 313 316 322 325 328 329 327 328 329 328 328 329 330 330 332 339 341 343 346 349 352 353 353 355 357 357 355 357 357 358 358 358 358 359 360 360 360 360 360 360 359 359 359
318 318 319 319 319 320 321 320 321 322 321 321 320 319 318 318 317 317 318 316 314 321 328 328 328 330 328 330 329 328 329 329 330 331 333 337 341 342 341 345 349 351 352 354 356 355 355 355 357 358 357 358 357 358 359 359 360 359 360 359 359 359 359
316 317 319 320 321 321 322 320 319 320 320 319 319 319 318 316 316 316 318 316 316 323 330 328 327 329 327 328 328 328 330 329 330 331 333 337 339 340 341 341 345 348 352 354 355 355 355 355 356 356 356 357 357 357 358 358 358 359 358 358 359 360 359
316 318 320 321 321 322 322 321 322 324 322 318 316 316 317 316 316 317 317 315 319 327 331 328 328 330 328 328 329 328 329 329 330 330 333 336 339 341 342 339 341 347 352 355 355 355 355 354 356 356 356 356 356 357 357 358 358 357 357 358 359 359 360
317 318 319 319 321 321 321 321 323 324 324 321 321 320 319 318 316 317 318 316 319 327 332 330 330 329 328 329 330 329 329 329 330 332 333 335 341 346 345 341 342 348 352 355 356 356 356 355 355 356 356 356 356 356 357 357 357 356 357 358 358 360 360
319 317 317 318 320 320 319 321 324 325 325 325 324 323 323 321 317 317 318 316 318 328 334 331 330 331 329 330 329 329 331 330 330 334 335 337 344 349 347 344 346 348 352 356 357 357 358 356 355 356 356 356 356 356 356 356 356 356 356 357 358 359 360
319 318 319 318 319 320 320 321 323 324 324 325 323 321 321 320 320 319 318 316 320 330 336 333 332 329 327 329 331 329 329 330 332 336 340 342 347 353 352 350 350 351 354 357 358 359 359 356 355 356 356 357 356 356 356 356 356 356 356 357 358 358 360
320 321 323 321 319 320 320 320 321 322 324 324 324 322 319 320 321 320 321 321 321 327 334 333 332 332 335 339 341 340 341 340 339 340 340 341 342 349 352 351 352 353 357 359 359 360 359 356 355 355 357 356 355 355 356 355 355 356 357 358 357 359 360
317 318 320 318 318 319 319 319 319 320 322 323 323 321 322 325 323 319 325 327 322 324 332 337 341 347 351 352 353 352 352 351 350 350 348 343 338 341 347 350 352 354 357 360 359 359 358 356 355 355 356 355 355 356 355 356 356 356 356 358 358 359 360
314 314 316 316 316 317 318 318 318 319 321 321 321 322 324 326 324 321 327 330 327 327 334 343 349 354 354 354 356 355 355 355 355 356 355 349 343 341 343 348 353 355 356 360 362 360 358 357 356 355 356 356 355 355 356 355 356 356 357 358 358 359 360
313 312 314 315 315 316 317 318 318 318 319 320 321 324 326 326 326 327 330 331 330 336 343 346 350 352 350 352 355 355 356 356 357 356 356 354 353 351 349 347 350 353 357 361 363 363 361 358 356 356 356 356 355 356 356 356 356 356 357 358 358 359 361
313 313 313 314 315 316 317 318 319 318 319 320 321 324 327 326 326 327 330 328 328 339 345 344 347 349 350 353 354 354 355 355 356 357 356 356 357 358 358 356 353 352 353 358 363 363 361 359 358 356 356 356 356 356 357 356 356 356 357 359 359 360 361
312 312 314 316 315 316 318 317 318 318 318 320 323 328 332 330 329 330 329 325 328 338 341 342 344 348 349 351 354 354 354 353 354 355 355 356 358 358 359 361 361 357 352 352 359 360 359 358 357 355 357 357 356 356 356 356 356 356 357 359 359 361 361
312 312 314 316 316 318 318 318 319 319 318 323 331 335 335 334 335 334 330 328 333 337 337 339 344 345 348 353 354 353 352 351 351 350 350 352 353 356 358 359 360 360 355 348 352 358 358 357 356 356 357 357 357 356 356 356 356 356 358 359 360 362 361
312 313 315 317 318 319 320 321 321 318 319 330 336 335 332 332 334 334 333 333 334 333 333 336 340 342 345 351 353 349 346 345 344 343 344 346 348 351 354 356 357 359 358 351 348 355 358 356 355 356 357 357 357 356 357 357 357 357 358 359 361 362 362
312 313 316 320 321 321 322 326 326 322 322 330 333 331 330 331 330 331 332 332 330 329 330 332 336 338 340 348 350 344 338 337 337 338 340 341 343 346 351 356 357 358 360 353 347 349 357 356 354 355 356 356 357 357 357 357 357 357 359 361 362 363 363
312 313 316 320 323 324 327 329 327 328 330 331 331 332 330 328 328 329 329 328 327 326 327 330 334 336 339 347 348 338 332 333 333 333 335 336 338 343 348 354 357 359 360 355 346 345 353 355 354 355 356 356 357 356 357 357 358 358 359 361 363 363 364
313 313 316 319 321 324 329 328 325 325 328 328 330 334 330 325 324 325 326 326 323 322 325 328 332 335 340 350 348 335 328 328 328 328 330 331 334 341 349 353 357 359 358 354 347 345 350 354 354 354 356 356 356 355 356 357 358 358 359 362 363 363 364
313 314 316 319 321 323 325 325 320 318 321 322 325 331 331 324 321 322 323 323 321 320 323 327 330 338 347 353 346 331 324 324 325 325 327 328 334 343 351 355 358 359 356 352 348 348 353 354 352 354 356 356 355 356 355 357 358 359 360 361 363 363 364
313 315 316 318 321 323 323 321 317 316 318 319 322 332 334 324 319 320 320 320 319 318 321 325 329 340 349 348 336 325 321 321 321 323 325 327 334 347 355 355 357 359 358 353 348 350 354 354 352 354 355 355 355 357 356 357 358 360 361 361 362 363 363
312 314 316 317 320 322 320 317 316 315 316 318 326 337 335 322 318 319 318 318 317 316 319 322 326 331 336 333 325 320 319 319 319 322 324 325 334 348 355 354 356 359 359 355 352 352 354 353 353 355 355 355 357 358 358 358 359 360 360 361 362 363 363
311 314 315 315 318 320 317 315 316 315 317 325 333 334 326 319 318 318 316 316 315 315 317 319 321 322 323 322 320 319 318 319 319 322 323 326 335 348 354 355 356 359 359 356 353 353 353 354 355 356 356 357 358 359 359 358 359 360 360 361 361 362 362
312 314 315 317 319 318 314 314 315 315 321 329 329 321 317 316 317 316 315 315 314 314 315 316 317 317 317 318 318 318 318 318 318 320 322 325 334 344 351 355 357 359 360 357 353 353 354 355 355 356 356 358 360 360 359 360 359 358 360 361 362 362 362
314 314 316 318 320 317 313 313 315 316 319 321 317 315 315 316 315 314 315 314 313 313 314 314 315 315 316 317 317 317 318 317 317 320 321 323 330 338 346 354 357 358 361 361 356 353 355 356 355 355 358 360 362 362 361 361 360 359 359 361 362 363 363
316 316 317 317 316 313 312 313 314 315 314 314 313 314 315 315 314 314 314 313 313 313 313 313 314 315 316 316 316 317 318 317 317 320 320 322 328 334 341 351 356 357 361 364 363 357 355 357 357 357 360 362 363 363 363 362 360 360 361 363 364 365 364
314 315 314 313 312 312 312 313 314 313 313 313 313 313 313 314 314 313 312 313 313 312 313 313 314 314 316 315 315 317 318 316 318 320 320 323 327 329 335 346 353 357 359 361 362 362 359 358 359 358 361 365 366 365 364 364 361 361 363 365 366 366 365
312 313 313 311 311 311 312 313 313 312 312 312 312 312 312 313 313 312 313 312 312 313 313 313 314 314 315 315 315 317 318 317 317 319 321 323 325 327 331 340 348 356 360 359 361 364 363 361 360 360 362 365 366 366 366 364 362 364 366 367 368 367 367
313 313 313 311 310 311 312 312 312 311 312 312 312 311 311 312 313 313 313 312 312 313 313 314 314 314 315 315 315 316 317 318 317 319 320 322 323 324 328 336 344 352 358 360 362 363 364 363 363 363 364 366 366 369 368 366 365 367 369 370 369 368 368
313 312 311 310 310 311 312 312 310 310 311 311 312 311 310 311 312 313 313 312 313 313 313 314 314 314 315 315 314 314 316 317 317 318 321 322 321 322 326 333 342 349 354 359 361 362 362 363 364 366 368 368 369 370 369 367 368 369 370 370 369 369 368
312 311 310 309 310 311 312 310 309 310 310 310 311 311 310 311 312 313 313 313 313 313 313 314 314 315 316 315 314 314 316 317 317 318 320 321 320 321 324 331 339 345 350 354 358 360 361 362 363 364 366 367 367 369 368 368 369 370 369 369 369 368 368
310 310 310 309 310 311 310 309 309 309 309 309 310 310 310 310 312 313 313 313 313 314 314 314 314 315 315 315 315 315 316 316 316 317 319 320 320 319 322 327 334 343 347 349 353 357 359 360 362 362 364 364 365 366 367 368 369 370 370 369 368 368 367
309 309 309 309 309 310 309 309 309 309 308 308 309 309 309 310 311 312 313 313 314 314 315 315 315 315 315 316 315 315 315 316 316 316 318 320 320 319 321 325 331 339 344 347 350 354 356 357 358 359 361 362 362 364 366 368 369 369 370 369 369 368 368
308 308 308 308 309 309 310 309 308 308 309 309 308 308 309 309 310 312 312 313 314 314 315 316 315 315 316 316 316 316 316 317 316 316 318 320 320 319 321 324 329 336 342 345 348 351 353 354 355 355 356 358 359 361 363 364 366 368 369 369 368 368 368
308 308 308 308 308 308 309 308 307 308 308 309 308 308 309 309 311 312 312 313 314 315 315 315 316 316 316 317 317 317 317 317 317 317 318 320 320 320 320 323 327 333 339 344 346 349 350 351 353 353 353 354 355 357 359 361 363 366 367 367 366 366 368

ECMWFFLT2_925_thetae_051.txt.gz
Theta_e
321 321 321 323 321 318 321 320 316 319 323 321 314 313 315 313 314 315 313 313 318 321 325 329 330 329 330 331 333 336 338 337 339 342 346 345 346 347 352 353 353 354 356 360 362 361 361 362 361 360 360 360 360 361 363 365 366 366 365 365 364 362 362
321 321 321 323 322 321 318 315 318 322 323 322 317 314 314 315 315 316 313 312 314 315 319 327 331 329 329 331 331 334 337 338 337 341 345 347 346 345 350 353 354 355 355 359 363 361 362 362 362 361 361 361 362 362 363 365 366 367 366 365 364 363 363
319 321 321 320 322 324 321 319 323 322 316 315 316 314 314 315 316 316 314 313 313 313 317 324 329 330 329 330 330 332 334 336 338 338 342 346 345 346 349 350 354 356 354 357 363 362 361 363 363 362 362 361 361 362 363 365 366 367 366 364 364 364 362
318 318 318 315 317 322 322 321 323 323 317 315 314 315 315 314 315 316 315 313 314 317 325 329 330 332 330 329 330 330 331 333 336 336 338 342 343 345 347 348 353 355 354 355 361 362 361 362 363 362 362 362 362 362 363 365 366 366 366 364 364 364 363
315 315 316 316 317 319 320 317 317 319 320 320 317 315 314 314 316 316 316 314 312 321 331 332 332 333 330 331 330 330 330 330 333 333 335 337 339 343 347 347 349 352 352 353 356 360 360 361 362 362 362 362 362 362 363 364 366 366 365 364 363 364 363
312 314 318 318 319 320 320 317 316 317 319 319 316 315 314 314 314 315 316 314 314 324 333 330 330 331 330 331 329 329 330 329 331 333 332 334 338 340 344 347 348 349 352 353 355 357 358 360 361 362 361 362 362 362 363 364 364 365 365 363 364 364 363
314 317 319 319 318 319 321 321 321 322 321 318 314 313 313 313 313 315 315 314 317 328 334 330 331 332 329 331 330 330 330 329 330 332 331 333 335 339 342 344 346 347 348 353 355 355 357 358 361 361 361 361 362 362 362 363 364 364 364 362 363 364 363
317 317 319 319 319 319 320 320 323 323 322 319 319 319 317 315 313 314 315 314 318 329 335 331 331 331 330 331 330 329 329 330 330 330 332 333 335 338 341 342 346 347 347 351 357 356 358 359 360 361 361 361 362 362 361 362 364 363 362 362 362 364 363
316 316 316 317 318 318 318 320 322 323 323 323 322 322 321 317 314 315 317 314 317 328 335 333 331 331 330 330 331 329 330 331 330 331 332 334 337 338 340 342 345 345 347 353 358 360 361 360 360 361 361 361 361 361 361 362 362 363 362 360 360 363 362
316 315 315 316 317 318 320 321 320 322 324 323 319 317 317 317 316 319 319 315 318 330 336 333 331 331 330 331 329 330 332 332 333 338 339 335 337 341 342 344 345 345 351 356 363 366 363 359 358 361 360 361 361 361 360 361 361 361 361 359 360 363 363
317 316 318 320 321 321 321 321 321 323 323 324 322 317 314 316 318 318 322 321 320 327 333 332 333 333 331 330 332 336 338 336 337 343 342 336 337 340 342 342 344 351 359 363 364 366 362 358 358 359 360 360 360 361 360 360 360 361 360 360 359 361 362
316 316 318 318 319 319 319 319 321 322 323 324 323 318 317 320 318 316 324 327 322 325 334 339 342 342 339 340 340 342 345 344 343 345 343 339 338 341 344 346 349 354 359 364 365 362 361 359 358 358 360 360 359 361 360 360 360 359 359 359 359 361 362
313 314 314 314 315 316 317 318 319 320 322 322 321 321 321 324 320 318 326 329 324 329 340 344 347 348 345 346 346 346 347 348 349 349 346 341 342 341 344 349 352 354 356 363 365 363 361 361 358 357 358 359 359 359 360 360 359 360 360 359 358 361 362
311 311 312 313 313 313 315 317 318 319 321 321 321 323 324 325 324 324 328 330 328 336 342 343 345 345 342 344 347 348 351 351 352 351 350 351 351 347 348 352 353 352 354 359 364 365 365 361 359 357 359 359 360 360 360 361 359 358 359 360 359 361 362
311 311 311 312 312 313 313 315 317 319 319 321 321 322 324 324 324 326 329 327 329 340 345 343 343 343 342 343 346 349 352 352 351 351 350 353 354 353 355 358 358 358 355 355 361 366 366 363 359 358 358 359 359 359 359 360 359 359 360 360 360 361 363
312 312 312 312 312 313 313 313 316 317 318 320 322 322 323 324 323 324 325 323 328 340 343 341 341 342 342 344 348 351 352 349 350 349 348 350 351 352 355 356 359 361 357 355 358 361 363 362 360 357 358 359 358 359 360 360 359 359 360 360 361 361 363
311 312 311 311 312 314 314 313 315 317 318 320 321 322 323 324 324 324 323 325 333 342 341 341 342 342 342 345 349 350 349 349 349 348 347 348 347 348 350 351 354 358 358 358 359 359 361 362 360 358 357 358 360 358 358 359 359 358 359 361 362 362 364
311 312 312 312 314 316 316 313 314 318 319 321 320 321 324 324 325 327 328 331 338 339 338 339 341 342 341 344 345 345 344 344 344 344 344 344 344 345 347 348 350 353 357 360 363 363 363 360 360 358 357 358 360 358 358 359 359 359 360 361 363 364 364
311 311 312 313 315 316 316 316 322 323 324 325 323 322 322 324 326 329 332 335 336 336 335 335 338 340 340 341 344 341 337 338 339 339 339 340 340 342 343 345 347 350 354 359 363 363 362 360 358 359 357 357 359 358 358 359 359 360 361 362 363 364 364
312 312 312 313 316 317 317 322 326 325 327 328 328 328 326 327 330 332 333 335 335 333 332 332 334 337 337 341 343 336 332 334 333 334 335 336 337 338 341 342 345 348 353 358 361 362 362 360 358 356 356 356 357 358 358 359 359 359 361 362 363 364 365
312 312 311 313 314 315 319 326 326 323 323 324 326 331 334 330 330 331 331 333 332 331 331 331 333 335 337 341 342 333 329 330 329 330 331 332 333 335 337 339 342 346 352 358 360 361 363 360 355 354 357 357 356 358 357 358 361 360 360 362 364 365 366
312 312 312 313 314 315 321 325 324 321 321 321 321 328 334 331 327 327 328 330 330 330 330 331 333 336 336 338 339 331 326 327 326 327 328 328 330 333 335 337 340 345 353 358 359 360 362 360 353 353 357 357 356 358 358 359 361 360 361 362 364 366 367
311 312 313 314 314 318 322 324 321 319 321 320 321 329 334 331 326 325 325 326 326 327 327 330 335 339 338 338 336 327 323 324 325 325 325 326 329 331 333 335 339 344 351 356 359 359 361 359 353 351 356 357 356 358 359 358 360 361 361 362 365 366 368
312 313 314 314 316 320 322 320 318 318 319 320 325 333 333 325 323 322 322 322 323 323 324 328 333 337 336 335 330 323 321 323 324 325 324 324 326 329 331 333 337 341 348 355 360 360 361 359 352 350 356 358 357 359 359 359 360 361 362 363 365 367 368
312 312 313 313 316 320 319 318 317 318 318 323 329 330 323 319 320 320 319 320 319 320 322 326 329 330 328 326 324 321 320 321 322 324 324 324 326 328 329 332 334 338 345 355 360 361 359 358 352 352 356 357 358 361 360 359 361 361 362 363 366 368 368
312 312 312 312 316 318 316 316 317 317 321 326 325 319 315 317 319 318 318 318 318 318 320 322 323 323 322 322 321 319 319 320 321 321 321 323 325 327 328 330 331 335 342 352 360 360 358 355 353 354 356 359 361 361 360 360 362 360 362 365 366 369 368
314 313 313 315 317 316 315 316 317 317 319 320 316 313 314 316 317 317 317 317 317 316 317 318 319 320 320 319 319 318 318 319 319 319 321 321 322 325 327 328 328 332 339 349 359 363 359 356 354 355 356 360 363 362 361 361 361 361 364 365 366 369 369
316 315 315 316 315 314 314 316 317 316 315 314 313 313 314 314 314 316 317 316 316 315 316 316 317 318 319 318 318 318 318 317 317 318 319 320 321 323 325 325 326 330 338 348 359 364 362 358 355 354 357 362 363 362 361 362 361 361 364 366 367 369 369
315 315 315 315 313 312 313 314 314 314 313 312 312 313 313 313 313 314 314 315 316 315 315 316 317 317 319 318 317 317 317 316 316 318 319 319 320 322 323 324 325 329 336 347 358 364 363 360 355 356 359 361 363 364 362 362 363 362 365 367 367 369 368
314 314 314 313 312 311 312 313 313 312 312 312 312 313 313 312 312 313 313 314 315 315 315 316 317 317 318 318 318 317 316 315 316 317 319 319 320 321 323 324 325 328 334 346 360 364 364 361 355 357 360 360 363 365 364 364 364 364 365 367 368 369 369
313 314 314 312 311 311 312 313 312 311 311 311 311 312 312 312 311 312 313 313 314 316 316 316 317 317 317 318 319 318 316 316 316 317 318 319 319 321 322 324 325 328 332 345 361 365 364 363 358 357 359 361 365 366 365 365 364 364 367 369 370 370 369
313 313 312 310 310 311 313 312 311 311 311 311 311 311 311 311 311 312 312 313 314 315 315 316 316 316 317 318 319 318 317 317 316 317 318 319 320 320 322 324 326 327 331 342 358 365 365 366 367 364 363 364 366 367 367 366 365 367 370 370 370 370 370
311 311 311 310 310 312 312 311 310 311 311 310 310 310 310 311 311 311 312 313 314 315 316 316 316 316 318 318 318 319 318 317 317 318 318 319 319 320 322 324 325 326 330 339 354 363 363 364 367 370 370 368 367 368 368 366 366 369 371 371 372 371 370
310 310 310 310 310 311 310 309 310 310 310 310 310 310 310 311 311 311 312 313 313 314 316 316 316 317 318 318 318 319 319 319 319 318 319 319 319 320 322 323 324 326 328 336 352 362 362 363 365 366 368 369 369 368 367 366 369 371 372 372 372 371 370
310 309 309 309 310 310 309 309 309 310 309 309 309 309 310 310 310 311 312 312 313 314 315 317 317 317 318 318 319 319 320 321 320 319 319 320 319 320 321 323 325 325 326 334 350 359 359 362 364 363 364 366 366 365 366 367 368 370 371 370 370 370 369
309 308 308 309 309 309 309 309 309 309 309 309 309 309 310 310 310 311 311 311 312 313 314 316 318 317 318 318 319 319 319 321 321 320 320 320 319 319 321 323 325 325 325 333 348 355 354 356 360 360 361 363 363 365 366 367 367 369 370 369 368 368 368
308 307 307 308 308 309 309 308 308 308 309 309 309 309 309 309 310 311 311 311 312 313 314 315 317 318 318 319 319 319 320 321 321 321 321 320 319 319 319 322 325 324 324 333 346 352 351 352 354 355 357 359 360 363 365 367 368 368 368 367 365 365 366

ECMWFFLT2_925_thetae_054.txt.gz
Theta_e
320 321 322 323 320 318 321 320 315 318 323 320 313 312 313 313 313 315 313 313 318 321 325 328 328 329 329 329 330 334 336 340 352 355 353 352 354 352 350 354 357 357 360 361 359 358 358 358 357 356 355 356 357 358 362 363 362 361 357 356 357 354 350
320 320 322 322 322 321 319 316 318 322 324 321 317 313 313 314 314 315 313 312 314 313 318 326 330 328 329 331 328 332 335 335 347 355 354 353 354 353 352 354 356 356 358 359 358 357 358 357 358 359 356 357 357 359 362 364 364 363 361 359 358 356 352
320 322 321 319 321 323 320 318 322 321 316 316 316 314 314 314 314 314 313 313 314 312 315 324 329 329 330 330 330 329 333 335 340 352 357 355 352 352 354 354 356 357 358 360 359 359 359 359 360 359 358 358 358 358 361 364 366 365 364 361 361 358 354
318 319 318 315 316 322 322 321 324 321 317 315 315 315 314 313 314 315 313 313 312 316 323 328 330 331 331 330 333 331 331 336 338 342 351 352 350 354 355 354 356 357 357 358 359 359 359 360 360 359 359 358 357 358 360 365 366 366 365 364 362 361 359
316 315 316 315 315 317 318 317 317 318 319 318 317 316 314 312 314 314 315 314 312 320 331 333 332 334 331 331 334 332 330 333 337 338 340 344 352 357 355 353 355 354 353 356 357 359 359 358 360 360 358 357 357 357 360 364 366 367 366 364 363 362 362
311 313 317 318 318 318 318 316 316 317 318 316 315 315 314 313 312 313 315 313 314 324 334 333 332 333 332 333 333 333 331 330 335 336 337 341 351 355 355 354 354 352 353 356 358 359 358 356 360 361 358 357 357 357 360 363 366 366 365 365 364 363 362
312 315 318 318 319 319 320 318 319 321 319 314 312 313 314 313 312 312 313 312 317 329 336 334 333 334 332 333 333 333 331 331 334 334 335 342 347 353 354 353 351 353 353 356 358 359 356 356 360 360 357 356 356 356 359 362 366 366 366 366 364 364 364
315 316 317 317 319 319 317 318 319 320 319 318 316 317 318 315 312 312 312 311 316 329 336 334 334 333 331 331 333 332 333 331 332 333 335 342 345 348 353 351 352 355 356 358 358 358 356 356 358 360 359 356 357 357 359 361 364 367 366 366 365 365 365
316 316 315 314 315 317 317 317 319 319 320 321 319 319 321 319 316 314 314 311 315 327 337 334 332 333 332 333 332 331 333 331 332 332 333 340 346 346 346 351 355 356 356 359 359 358 357 355 357 359 359 358 357 358 359 360 364 367 367 366 366 366 365
317 315 315 314 314 317 319 319 320 321 320 320 318 317 316 317 318 317 316 314 317 327 337 336 337 335 330 332 332 331 333 333 336 342 341 343 349 347 344 350 356 357 357 357 360 361 359 355 355 357 359 359 357 358 358 358 363 366 366 366 365 366 365
317 316 317 318 317 318 319 320 321 322 322 322 321 319 316 318 320 319 321 322 320 326 338 342 346 345 334 334 336 338 343 341 342 351 353 346 345 347 347 349 356 360 360 359 361 362 359 356 355 357 360 360 358 358 357 358 361 365 367 365 365 365 365
316 316 317 317 317 317 317 318 319 319 321 322 321 320 320 323 323 320 326 329 321 323 337 345 346 349 347 348 349 348 350 349 349 355 356 351 344 343 347 351 359 364 362 361 364 362 358 355 355 357 358 359 359 359 359 361 362 364 366 366 364 365 365
312 313 313 313 313 314 314 316 317 317 318 319 319 321 322 323 323 321 326 330 325 327 339 346 347 349 349 352 353 352 353 351 351 352 354 353 350 349 353 360 365 366 362 365 366 362 358 356 355 357 358 359 361 360 362 363 362 363 366 364 364 365 365
311 311 311 312 312 312 312 314 316 316 317 317 318 320 322 323 323 323 326 327 326 333 344 344 346 346 345 350 350 350 352 351 349 349 349 349 350 350 353 356 360 363 364 366 368 366 362 358 356 357 359 361 362 363 363 364 362 363 365 365 364 364 365
312 311 311 312 312 313 311 312 314 314 315 316 316 318 320 322 322 324 326 324 326 340 346 341 343 345 344 348 350 350 351 350 348 347 347 348 348 348 350 351 353 359 361 363 366 367 367 364 360 358 360 363 362 361 362 363 363 363 363 364 364 363 365
312 312 311 312 312 312 310 311 312 313 314 315 316 318 320 321 322 323 323 321 328 342 345 341 344 345 344 348 351 350 349 347 345 345 345 346 347 346 349 350 351 354 355 359 363 363 362 362 363 362 362 362 360 360 361 361 362 362 362 364 364 364 364
313 311 311 312 312 313 312 312 312 313 314 314 315 317 319 321 322 322 321 323 332 341 342 340 343 343 344 348 348 347 346 345 344 343 343 343 343 345 347 348 349 350 350 354 358 360 361 359 357 357 357 359 359 360 360 361 362 361 361 362 363 362 364
314 312 311 313 314 314 314 313 314 316 317 318 319 319 319 320 322 323 324 326 330 335 339 339 339 340 343 344 344 343 342 341 341 341 340 340 340 342 343 344 345 347 348 350 352 356 360 361 358 357 355 354 357 359 358 359 361 361 361 362 363 363 364
314 312 313 315 315 315 313 314 321 323 322 323 325 325 322 322 323 325 328 328 327 331 336 338 337 337 339 340 339 338 336 335 337 337 337 337 337 339 340 341 342 343 345 347 349 352 357 360 360 359 356 352 355 358 357 357 360 362 362 363 363 363 365
314 314 315 316 316 314 311 317 323 325 325 326 328 327 324 324 327 329 330 331 331 332 333 333 334 335 336 337 335 331 330 331 331 333 333 334 334 335 337 338 339 341 343 344 347 349 352 357 360 360 358 354 352 355 357 357 358 360 362 364 364 364 365
315 314 313 315 315 313 316 322 324 324 324 326 327 329 328 326 326 327 328 328 330 331 330 331 331 331 334 338 335 328 327 328 328 330 330 330 331 333 334 336 337 339 340 342 344 346 349 354 358 359 359 354 349 352 355 355 355 359 361 365 366 364 366
313 313 313 314 314 315 320 323 323 322 322 323 325 328 329 325 322 324 325 326 326 326 326 326 329 331 334 339 335 328 325 325 326 327 327 328 329 330 332 335 336 337 338 340 342 345 347 352 356 359 361 356 349 351 355 354 356 356 359 364 367 366 366
313 313 314 314 314 318 322 323 321 319 321 322 323 328 329 324 320 321 322 323 323 323 323 324 328 334 338 338 333 326 324 324 324 325 326 327 328 329 330 332 333 334 336 338 340 343 346 350 354 359 361 359 353 352 356 355 356 355 357 363 367 367 366
314 314 314 312 315 320 321 320 319 318 319 321 324 330 329 321 318 320 321 321 322 321 321 323 326 331 333 331 328 324 323 323 323 324 324 325 326 328 328 329 330 331 334 335 338 341 344 347 352 357 362 362 357 356 357 356 356 356 358 362 365 367 366
314 314 314 312 316 319 318 318 318 319 318 320 324 327 324 318 318 319 319 320 321 320 321 322 323 324 324 323 323 323 322 322 322 322 323 324 325 326 326 327 328 329 331 333 336 339 341 345 349 355 361 365 361 359 358 358 357 357 360 361 363 366 367
314 314 313 313 316 317 316 316 317 318 319 321 321 319 317 316 317 318 317 318 319 319 319 320 320 320 319 320 321 321 321 321 321 321 322 323 324 324 325 326 326 327 329 331 334 336 339 343 348 353 359 364 361 361 361 360 358 358 360 362 362 366 367
315 313 313 315 317 316 315 316 318 318 319 319 317 316 315 316 316 316 316 316 317 316 317 317 318 318 318 319 320 320 320 320 320 319 320 321 322 323 323 324 325 325 327 329 332 334 336 341 346 351 359 364 362 362 365 362 359 359 361 363 364 367 368
316 315 315 316 316 315 314 315 317 317 317 316 315 315 315 315 315 315 315 315 315 315 315 316 317 317 318 319 320 320 320 320 319 319 319 320 321 322 322 323 323 324 326 328 330 332 335 340 345 352 362 367 364 366 367 362 359 362 362 363 366 369 369
315 315 316 316 315 314 313 314 315 315 315 314 314 314 315 314 315 315 315 314 314 314 315 316 316 317 318 318 319 319 320 320 320 319 319 319 320 321 321 321 322 323 325 327 329 331 335 339 344 353 365 369 368 370 368 362 360 363 363 365 367 370 371
314 314 314 314 314 313 313 314 314 314 313 313 313 313 313 313 313 314 314 314 314 314 315 316 316 317 318 318 318 318 319 320 320 320 320 319 319 320 320 321 322 323 324 326 328 330 334 337 341 353 367 372 369 369 368 363 361 363 365 368 369 371 371
313 314 314 313 312 312 312 313 312 312 312 312 312 312 313 312 313 313 313 313 313 314 315 316 316 317 317 318 319 319 320 320 320 320 320 320 320 320 321 322 322 322 323 325 328 330 332 335 340 351 367 374 370 368 367 364 362 365 368 369 370 371 372
313 313 312 311 311 311 312 311 310 311 311 311 311 312 311 311 312 312 312 313 313 314 314 315 316 316 317 318 319 319 319 321 321 320 320 321 321 321 321 322 321 321 323 325 327 329 331 334 339 351 367 376 372 367 366 365 364 367 370 370 371 372 372
312 312 311 310 311 311 311 310 309 310 310 310 311 311 311 311 311 311 312 313 313 313 314 315 315 316 317 317 319 319 319 320 320 321 321 321 321 321 322 321 321 321 322 324 326 328 330 334 342 357 367 371 371 368 366 365 365 370 371 371 370 373 373
311 311 311 310 311 311 310 309 309 310 310 310 310 311 310 311 311 311 311 312 312 313 314 314 315 316 317 317 318 319 319 320 321 322 322 321 321 322 322 321 320 321 322 324 326 328 330 335 348 362 365 364 365 367 366 365 366 370 372 373 371 371 371
310 309 309 309 311 310 309 309 309 309 309 310 310 310 311 310 310 311 311 311 312 312 313 315 315 315 315 317 318 318 319 319 321 322 322 321 321 322 322 321 320 320 321 324 326 327 330 339 351 359 360 359 359 360 362 361 361 362 364 367 371 372 370
308 308 308 308 309 310 309 309 309 309 309 310 309 310 310 310 310 310 310 311 311 312 313 314 315 315 315 317 318 318 319 319 321 322 321 321 321 322 322 321 320 320 321 323 325 327 332 342 351 353 355 355 353 353 356 357 356 357 354 354 361 368 370
307 307 308 308 308 308 309 309 309 309 309 310 309 309 310 310 310 311 310 310 312 312 313 314 314 315 316 317 318 319 319 320 320 321 321 322 322 322 321 320 319 320 321 322 325 329 336 344 349 351 353 354 353 355 357 354 353 356 354 350 350 357 364

ECMWFFLT2_925_thetae_057.txt.gz
Theta_e
319 319 320 322 321 319 322 321 318 319 323 320 315 316 317 314 315 318 316 316 321 323 329 329 326 329 326 324 335 350 355 353 354 356 355 354 355 354 355 355 355 355 353 352 352 352 353 355 355 354 354 355 355 355 356 354 353 352 352 353 354 351 348
317 317 318 321 322 321 318 316 319 324 326 321 318 316 317 317 318 317 314 315 318 317 322 328 327 327 327 326 328 344 355 354 354 356 355 354 355 354 354 355 355 354 353 353 354 354 354 355 356 355 354 355 355 355 356 355 354 353 351 351 353 352 350
316 316 317 320 321 323 321 319 321 324 320 318 319 317 315 317 318 317 315 316 315 316 321 324 326 326 328 330 326 337 354 356 354 354 355 354 354 353 353 355 355 356 354 355 354 355 355 356 356 355 354 354 355 355 356 356 355 354 352 350 351 352 351
313 316 317 315 317 321 322 321 321 322 320 318 319 318 316 317 318 318 318 317 316 321 327 326 328 330 329 333 330 331 347 356 355 353 353 354 352 353 355 355 356 357 356 355 356 355 357 356 357 356 355 355 355 355 357 357 356 356 354 352 351 351 351
313 314 316 315 315 317 318 317 317 317 319 319 319 318 315 316 317 317 318 318 317 325 332 331 332 335 328 331 337 333 335 349 354 352 352 353 352 354 356 356 356 356 357 357 357 357 357 356 356 356 355 355 355 356 357 358 357 357 356 353 352 351 351
314 313 314 315 315 315 316 315 315 316 316 317 317 319 318 315 316 316 318 318 317 326 333 333 337 343 337 327 339 342 333 343 352 353 351 353 354 355 354 354 356 356 357 357 357 356 356 356 357 357 356 355 355 356 357 358 359 358 357 356 354 353 352
315 315 316 316 316 317 316 316 317 317 317 314 314 318 321 318 315 316 318 316 317 326 333 335 342 351 346 333 333 340 334 341 352 353 352 354 354 353 353 352 353 355 356 357 358 356 356 355 356 356 356 355 355 356 357 359 361 359 359 358 356 354 353
316 316 316 316 316 315 315 316 317 318 317 316 316 319 321 318 316 318 320 318 319 326 337 342 348 351 350 346 341 339 335 338 347 350 352 355 355 354 353 352 353 354 355 358 357 356 356 355 356 357 357 356 356 356 357 359 361 361 361 360 358 357 355
321 318 319 322 321 317 316 317 319 320 320 321 322 321 322 322 320 320 322 321 322 329 337 343 350 351 351 353 351 347 346 344 347 349 350 353 355 355 353 353 355 356 356 359 358 357 357 357 358 358 358 358 357 356 357 359 361 362 363 362 361 359 358
322 321 323 324 321 318 317 317 318 319 319 320 321 321 322 326 327 325 324 324 326 329 330 337 349 351 351 354 352 349 349 348 349 351 352 354 354 355 354 354 356 358 358 358 358 358 357 357 359 359 359 358 358 357 357 358 361 363 364 364 363 362 360
319 318 319 319 317 316 316 315 314 315 316 318 320 322 323 327 328 325 327 330 328 326 328 338 349 351 350 352 352 351 349 347 348 349 351 353 353 355 356 355 355 357 356 358 359 358 357 357 359 359 359 359 357 357 357 357 359 362 363 364 364 364 363
315 314 314 313 313 314 313 313 312 313 315 317 317 320 322 324 326 326 331 334 327 322 330 343 348 347 350 353 352 350 348 345 345 347 348 349 351 352 355 357 360 359 357 357 360 358 357 358 358 360 360 358 358 358 357 357 357 360 362 364 364 365 364
312 312 312 312 312 312 312 312 312 312 314 313 314 317 319 321 323 324 328 330 326 326 337 346 346 345 348 351 351 347 345 344 343 344 345 347 348 349 349 352 358 362 362 362 362 359 355 356 357 359 359 359 357 357 357 357 358 357 360 363 364 365 364
312 312 312 312 312 312 311 311 312 312 313 312 313 316 317 319 320 320 323 325 326 335 345 345 344 345 347 349 348 343 341 342 342 342 343 343 345 346 346 347 349 352 357 362 367 367 361 356 356 357 358 358 358 358 357 357 357 358 359 361 364 365 365
314 313 312 312 312 312 311 311 312 312 313 313 313 314 317 318 319 319 322 324 328 341 350 348 345 346 347 347 344 340 339 339 340 339 340 340 341 342 342 343 344 345 348 351 359 364 361 357 358 358 357 358 357 358 358 357 358 358 359 361 363 365 365
315 313 312 312 312 312 312 312 312 311 311 312 312 314 316 318 319 320 319 323 333 343 348 347 344 342 344 344 341 339 336 335 336 337 336 337 338 339 339 340 341 342 343 345 348 354 357 357 357 358 358 359 358 357 357 357 358 359 358 360 362 364 365
316 313 313 313 313 314 314 312 312 313 314 314 314 314 316 317 318 319 319 325 334 338 340 341 340 340 342 339 338 338 336 333 333 333 333 333 334 335 336 338 339 340 341 343 344 347 351 352 353 355 356 357 358 358 358 358 358 357 357 358 360 363 365
317 314 314 315 316 316 315 313 317 322 322 324 324 322 322 324 324 324 326 329 331 333 334 336 336 338 338 333 332 334 334 332 330 330 331 330 330 331 332 334 336 336 338 341 341 342 344 346 349 354 354 355 356 357 357 357 358 357 357 356 356 360 364
316 315 316 318 317 316 314 314 322 326 324 325 327 326 325 326 327 328 329 329 328 329 330 329 330 333 333 329 327 329 330 329 328 328 328 329 328 329 329 331 333 334 335 336 337 339 340 342 345 349 353 355 355 353 353 355 356 356 358 358 357 358 362
316 316 317 318 319 316 312 317 324 325 324 325 328 329 328 324 324 325 326 326 326 325 325 325 326 329 330 330 327 325 326 326 326 325 326 326 326 327 328 329 330 331 332 333 334 337 338 340 342 345 348 352 354 356 354 353 354 355 356 357 358 358 360
316 315 316 317 317 314 316 323 326 324 324 325 327 330 328 322 321 323 324 324 324 323 323 324 324 327 332 334 328 323 323 324 324 324 323 323 324 325 326 327 328 328 329 330 332 334 336 337 340 343 346 347 350 355 356 354 353 355 356 356 356 357 360
315 315 317 317 315 316 320 324 324 321 322 323 323 327 329 322 319 321 322 322 323 322 322 323 323 329 341 341 329 322 322 322 323 324 323 321 322 324 325 325 326 326 327 328 329 332 334 336 338 340 342 343 346 351 356 357 355 354 355 357 357 358 361
316 315 317 315 315 318 322 322 320 318 320 322 322 325 327 322 317 319 320 320 321 321 321 322 323 329 340 338 326 320 321 321 322 324 323 322 321 322 323 324 324 324 325 327 327 329 331 333 335 337 338 341 344 348 353 358 358 355 355 357 357 359 361
317 317 316 315 317 321 320 318 318 317 318 322 323 325 326 320 316 318 319 318 319 319 320 321 322 325 328 326 322 319 320 321 322 324 323 322 320 320 321 322 323 323 324 325 326 327 329 331 332 334 336 339 343 346 350 354 358 358 356 356 357 359 361
317 317 316 316 318 320 318 316 317 317 318 322 324 324 323 318 316 317 318 317 318 318 318 319 320 321 320 320 320 319 319 321 323 324 323 322 320 319 320 321 322 322 323 324 325 326 327 328 330 332 334 337 341 345 348 351 355 359 359 356 356 358 363
317 317 315 316 318 318 316 317 318 318 321 323 323 321 318 317 316 317 317 317 317 317 317 317 317 318 317 318 318 318 319 321 322 323 324 323 321 320 319 320 320 321 323 324 324 325 326 327 328 331 333 335 339 342 346 350 354 358 361 360 356 356 361
317 317 316 316 318 317 315 315 317 318 320 321 320 317 317 317 317 316 316 316 316 316 316 316 315 316 316 317 318 318 319 320 321 322 323 323 322 320 319 319 320 321 323 323 323 323 324 326 328 329 331 334 336 340 344 347 351 357 363 364 359 354 358
317 318 317 317 317 316 315 315 317 318 318 318 317 316 316 316 316 316 316 316 315 315 315 315 315 315 316 317 317 318 318 319 320 322 323 322 322 321 320 319 320 321 322 322 322 323 324 325 327 328 330 333 335 338 341 344 349 358 366 367 361 355 357
316 316 316 316 317 316 314 315 317 317 316 316 315 314 314 314 315 315 315 314 314 314 314 314 314 315 316 316 317 318 318 318 319 322 323 322 321 321 321 320 320 322 322 322 322 322 323 324 326 327 329 332 334 337 340 343 349 358 367 370 362 355 357
315 314 315 315 315 313 312 313 315 314 313 313 312 312 313 313 313 313 313 313 313 313 313 313 314 314 315 316 317 317 317 318 319 321 322 322 322 322 321 320 321 322 322 322 322 323 323 324 326 327 329 331 333 335 339 344 351 361 369 372 364 356 359
313 314 315 314 312 311 311 312 312 311 311 311 311 311 312 312 312 313 313 313 312 312 313 313 313 314 314 315 316 317 317 319 320 321 321 322 322 322 321 321 321 322 322 322 322 322 323 324 326 327 328 331 334 337 342 350 358 363 368 370 365 360 362
312 314 313 311 310 310 312 311 310 310 310 310 310 311 311 311 312 312 312 312 312 312 312 312 312 313 313 314 316 317 317 318 320 320 320 321 322 322 321 321 322 322 322 321 321 322 323 324 325 326 329 332 338 343 350 356 360 360 365 369 365 362 364
311 312 312 310 310 310 311 310 310 310 310 309 309 310 310 310 311 311 311 311 311 311 311 311 312 312 312 314 315 316 317 318 319 320 320 320 321 322 321 321 322 322 321 321 322 322 323 324 325 327 330 335 341 348 354 357 356 358 364 368 365 364 366
311 312 311 311 311 311 311 309 309 309 309 309 310 310 310 310 310 310 311 311 311 311 311 311 311 312 312 313 314 316 316 317 317 319 320 320 321 321 321 321 322 320 320 320 321 322 323 325 327 329 333 337 344 351 355 355 355 356 362 368 366 365 368
311 310 310 311 311 311 310 309 309 310 309 309 309 310 310 310 310 310 310 310 310 311 310 310 311 311 312 312 314 315 316 316 316 318 319 320 321 321 322 322 321 320 319 320 321 322 324 326 328 331 334 338 343 350 354 355 355 355 359 364 368 368 369
310 309 309 309 310 310 309 309 309 310 309 309 309 308 309 309 309 309 309 310 310 310 310 310 310 311 312 312 313 314 315 315 316 318 319 320 321 321 322 322 320 319 319 320 320 322 325 327 328 330 333 337 341 346 351 353 354 354 355 359 364 365 366
310 310 309 309 309 310 310 309 309 309 309 309 308 308 308 309 309 309 309 309 310 310 309 309 310 310 311 312 313 314 315 315 317 318 320 321 321 322 323 321 319 317 318 318 320 323 326 327 326 328 331 335 337 340 345 350 353 354 354 355 358 359 359

ECMWFFLT2_925_thetae_060.txt.gz
Theta_e
314 313 313 314 318 321 323 321 318 322 327 325 319 320 325 319 315 322 321 319 328 330 331 336 329 325 328 336 346 350 347 354 357 357 358 356 354 354 352 352 352 351 349 348 349 349 350 351 351 351 351 350 349 348 348 349 350 351 351 352 352 350 350
315 314 314 316 316 318 320 316 318 326 326 325 325 320 320 321 321 325 321 318 324 324 324 336 336 326 326 331 339 347 349 352 356 357 356 355 355 353 353 353 351 351 349 348 349 350 350 351 351 352 352 351 351 349 349 350 350 350 352 351 351 351 349
315 314 316 319 317 316 317 315 317 323 320 320 325 320 318 321 320 321 322 321 321 320 325 341 346 341 343 343 339 342 350 352 355 356 355 355 355 354 354 354 352 351 350 348 349 350 350 351 351 352 353 352 352 350 350 350 350 350 351 352 352 351 350
314 315 316 316 315 314 315 316 316 320 319 317 321 322 321 323 321 321 324 323 321 326 338 348 352 353 354 352 346 341 343 352 355 354 355 355 354 355 354 353 354 352 350 350 349 349 351 351 351 352 353 353 353 353 352 350 351 350 351 352 352 352 350
316 316 315 315 314 314 314 314 314 316 318 318 319 320 321 322 324 324 322 321 323 334 348 351 352 353 352 353 350 343 341 349 354 354 354 353 353 354 353 353 353 352 351 351 349 350 351 351 352 353 353 354 353 354 353 351 351 351 350 351 352 352 351
315 316 315 314 315 315 314 314 315 316 318 318 316 319 321 321 322 323 322 320 322 330 340 347 349 350 350 350 348 346 345 347 351 353 353 354 353 353 353 352 353 353 353 351 350 350 350 352 353 353 353 354 354 354 354 353 352 351 351 351 352 352 352
315 314 315 315 316 317 315 315 316 315 316 317 316 319 323 320 320 326 326 321 322 326 332 343 348 347 349 347 344 346 346 347 352 352 352 352 353 352 352 353 352 353 352 351 352 351 349 351 353 353 353 353 354 355 355 354 353 353 351 351 350 352 352
316 313 316 317 316 316 317 315 314 314 313 314 316 319 321 323 325 328 328 323 323 326 330 339 345 346 348 346 343 343 344 345 348 352 355 353 351 352 352 351 353 353 352 352 352 351 351 352 352 353 353 353 353 354 354 354 354 353 353 351 351 351 351
316 317 323 324 318 314 314 315 313 314 313 313 317 320 324 329 329 325 325 328 327 325 328 340 345 345 346 344 341 341 340 341 343 346 353 355 353 354 353 352 352 353 353 355 353 352 352 352 353 354 354 353 353 353 354 355 355 354 353 353 351 351 350
318 322 325 324 318 314 313 313 312 313 313 311 315 319 325 332 329 323 324 329 326 321 328 343 345 345 346 344 340 339 339 338 339 341 344 349 351 353 354 354 355 355 355 356 354 353 353 353 353 354 354 353 353 353 354 355 355 355 355 353 353 351 350
320 320 319 317 315 313 312 312 311 312 312 312 314 317 321 326 324 324 328 329 321 318 327 344 347 346 347 346 341 338 338 336 336 337 339 341 343 345 346 347 351 357 360 359 358 354 353 354 354 354 355 354 354 354 353 354 355 356 355 355 354 353 351
317 316 315 314 313 312 311 311 311 311 312 313 314 315 317 318 319 325 335 332 319 317 330 344 347 347 347 347 343 338 336 334 333 333 334 335 336 339 340 340 343 347 351 356 361 357 354 354 353 354 355 354 354 354 353 354 355 356 356 356 355 355 353
314 313 313 313 313 312 311 312 312 311 312 312 313 314 313 315 317 321 329 329 320 323 338 343 344 345 344 344 343 338 333 333 331 331 331 332 332 333 335 336 339 340 340 344 349 351 353 354 354 355 354 355 355 355 354 354 355 356 357 357 357 356 355
313 312 313 313 312 312 311 311 312 311 311 311 312 313 312 313 316 317 321 325 325 332 342 343 340 340 338 339 341 338 333 332 331 330 330 329 329 331 331 332 334 335 336 337 339 341 344 345 349 354 356 356 356 355 354 354 355 357 358 358 358 358 357
315 313 313 313 312 313 313 313 313 311 312 312 311 312 312 315 318 316 319 328 334 336 338 339 337 335 333 334 336 336 334 331 330 329 329 329 328 328 328 329 330 331 331 332 334 337 339 340 343 346 350 354 357 356 355 355 355 357 359 360 360 360 359
317 314 314 313 313 314 313 312 313 312 312 313 312 313 318 322 323 323 328 337 340 335 332 333 333 331 330 331 332 333 332 331 330 328 328 329 327 326 326 328 328 327 327 329 331 333 335 338 340 341 343 349 354 356 356 356 355 357 359 361 362 361 361
318 315 315 315 314 316 316 314 316 318 319 320 320 322 325 326 328 333 337 336 332 329 327 327 328 329 330 330 328 329 331 331 330 327 326 326 325 325 325 327 328 327 326 327 329 330 333 336 338 339 342 346 350 353 356 357 355 356 357 359 361 362 362
318 316 316 317 318 318 317 316 322 326 325 325 326 326 326 325 326 329 330 327 325 325 324 324 325 328 329 327 325 326 328 329 329 327 324 325 324 323 323 324 327 327 326 326 328 328 330 333 335 338 341 342 344 347 351 355 357 357 356 357 358 359 361
318 318 318 319 319 317 313 315 325 327 324 325 327 326 323 322 323 324 324 324 323 323 322 322 323 325 326 324 322 322 324 325 327 327 325 324 323 321 321 322 324 325 325 325 326 327 329 330 332 335 337 338 339 342 346 350 354 358 357 356 357 357 359
318 318 318 318 319 316 312 315 324 326 324 324 327 327 324 321 321 322 322 322 321 320 320 320 320 322 324 323 321 319 320 322 324 325 325 324 323 320 319 320 322 322 323 323 324 326 327 327 330 332 333 334 336 339 342 345 349 354 356 356 357 357 357
316 317 318 317 316 314 313 318 323 323 322 322 325 328 326 320 318 320 321 320 320 319 319 319 319 320 324 328 325 318 318 320 321 324 325 324 323 322 320 320 320 321 321 322 324 325 325 326 328 329 330 331 333 335 338 342 346 351 354 356 356 356 357
316 316 317 317 315 315 319 323 323 318 317 318 321 327 327 320 316 319 320 319 319 319 318 318 318 320 327 334 329 319 316 318 319 322 325 324 322 322 321 320 320 320 320 322 323 324 324 325 326 327 328 331 332 333 337 340 343 347 351 354 355 356 356
316 315 316 316 314 316 322 325 321 316 316 319 321 325 326 321 316 317 318 318 318 318 318 318 318 321 328 330 324 317 316 318 317 319 323 324 322 322 321 320 320 319 320 321 322 322 323 324 324 325 327 329 331 333 335 338 340 343 348 352 354 355 355
317 316 316 315 314 317 320 321 318 316 318 322 323 325 324 320 317 316 317 318 318 319 318 317 318 320 322 321 318 316 316 316 317 319 320 322 322 322 321 321 320 320 320 321 322 322 322 323 324 325 326 328 330 332 333 335 337 340 344 348 351 354 355
316 316 316 316 317 318 317 316 316 316 319 323 324 323 320 318 316 317 317 317 318 318 318 318 318 318 318 316 316 315 315 315 317 318 318 319 321 322 322 321 321 320 320 321 322 321 321 322 323 324 325 327 328 330 332 333 335 337 341 343 346 350 354
317 317 316 316 318 316 313 314 316 317 319 322 321 318 318 317 317 317 317 316 317 317 316 316 316 316 315 314 314 314 314 315 316 316 317 318 319 321 322 322 321 321 320 320 321 322 321 322 323 324 325 326 328 329 330 332 334 335 337 339 342 346 350
317 317 317 317 318 316 313 314 317 318 319 320 318 317 317 317 317 317 316 315 316 316 315 314 314 314 314 313 314 314 314 314 315 316 317 317 318 320 322 322 321 321 321 320 321 322 321 322 323 324 324 325 327 328 330 332 334 335 336 338 341 345 349
316 317 318 317 317 316 314 314 317 318 318 317 316 315 315 315 315 315 314 314 315 315 314 313 313 313 313 313 313 313 313 314 315 315 316 317 318 319 321 321 321 321 321 321 321 321 321 321 322 324 325 326 327 328 330 332 333 334 336 338 341 345 349
316 317 317 317 317 317 315 315 316 316 315 315 313 313 313 313 313 313 313 313 314 314 313 313 313 313 313 313 313 313 313 313 314 314 315 316 317 319 320 320 321 321 321 321 321 320 320 321 322 324 325 326 327 328 330 332 334 335 338 340 342 347 353
314 314 314 315 316 316 314 313 314 314 313 313 312 312 312 312 311 312 312 312 313 313 313 313 312 312 313 312 312 312 312 312 313 314 315 316 316 318 319 319 320 321 321 321 321 320 320 320 322 324 325 326 327 328 330 333 336 339 341 343 347 352 357
312 312 314 315 314 313 311 311 312 312 311 312 311 311 311 310 310 311 311 312 312 312 312 312 312 312 312 312 312 312 311 312 313 313 314 316 316 317 317 318 320 321 321 321 321 320 319 320 321 323 325 326 327 328 331 334 338 342 345 348 352 355 356
312 312 314 314 312 310 311 311 310 310 311 311 310 310 310 309 310 310 310 310 312 312 311 312 311 311 311 311 311 311 311 312 312 312 313 315 315 315 316 317 319 321 321 321 321 319 319 319 321 323 325 325 326 327 330 334 338 342 346 351 354 355 354
312 312 312 312 311 311 312 312 310 309 310 310 310 310 310 309 309 310 309 309 310 310 310 311 310 310 310 310 311 311 311 311 311 311 312 313 314 315 315 316 318 320 321 321 320 319 319 319 321 324 325 325 324 326 329 333 336 338 343 349 354 354 353
312 313 314 313 311 311 312 311 310 310 310 310 310 310 310 309 309 309 309 309 308 308 309 309 310 310 310 310 310 310 310 310 310 311 312 313 314 314 315 316 317 320 321 321 319 318 318 319 321 324 325 323 323 326 328 331 333 334 337 344 351 353 354
313 313 314 315 313 311 310 310 310 311 311 311 311 310 310 309 308 308 308 308 308 308 308 308 309 310 310 309 310 310 310 310 310 310 312 312 313 314 315 315 317 320 321 320 318 317 318 319 322 324 324 323 323 325 327 329 331 332 334 340 348 353 353
313 312 314 314 313 311 310 310 312 312 310 311 311 310 309 308 307 307 307 308 308 308 308 308 309 309 309 309 309 309 309 310 310 311 312 312 313 314 315 317 319 321 321 320 317 316 317 320 323 324 323 322 323 325 326 329 331 331 333 339 347 352 353
312 314 314 313 312 312 311 310 311 310 308 309 310 309 308 308 307 307 307 307 307 308 308 308 308 308 309 309 309 309 310 310 311 311 312 313 315 316 317 318 320 321 321 319 316 316 317 321 323 323 322 322 323 324 326 329 330 332 335 340 347 352 353

ECMWFFLT2_925_thetae_063.txt.gz
Theta_e
314 314 315 315 315 318 322 320 318 316 318 326 324 320 328 329 319 321 321 321 331 333 335 348 350 348 350 347 345 345 344 347 353 357 357 354 355 354 352 352 351 351 350 348 348 349 349 348 347 345 344 344 345 347 348 348 348 349 350 350 350 349 349
316 313 314 316 313 316 320 315 315 318 316 324 327 320 326 328 321 321 324 328 340 343 344 349 351 350 349 345 345 344 343 344 348 354 356 355 355 353 353 352 351 351 349 348 349 349 349 349 348 346 344 344 344 346 348 348 348 349 350 350 350 350 349
315 314 314 317 314 313 317 315 316 320 319 321 325 322 321 321 322 321 320 332 343 341 341 347 350 351 349 344 343 343 343 342 343 348 353 357 356 354 354 353 351 352 350 348 349 348 349 349 349 348 346 344 345 345 347 348 348 348 349 350 350 350 349
314 316 315 315 315 315 316 315 315 317 320 319 318 321 322 321 325 323 319 331 339 333 334 344 351 351 346 343 342 341 341 340 341 343 348 355 356 354 354 353 352 351 350 349 348 348 349 349 349 348 347 346 345 345 346 348 348 348 349 350 350 350 349
315 316 315 314 314 315 314 314 313 313 317 319 317 318 319 320 326 327 328 333 334 330 328 336 348 349 343 341 341 339 338 337 338 340 343 351 355 355 354 353 352 350 349 350 348 348 348 348 349 350 348 347 346 345 345 347 348 348 348 349 350 350 349
315 316 315 313 315 314 312 313 313 312 314 317 321 321 320 322 323 324 331 332 330 331 324 328 345 347 340 340 338 337 336 334 335 337 338 346 353 355 355 352 352 351 350 350 348 349 348 348 350 349 349 349 347 346 346 346 347 348 348 349 349 350 349
314 314 314 313 314 313 312 312 311 312 312 313 320 324 323 324 323 326 332 330 331 335 325 328 346 344 338 339 336 335 335 332 333 334 334 339 345 351 353 352 352 351 350 349 348 348 349 348 349 350 350 350 349 349 348 346 347 347 348 349 349 350 350
316 313 315 315 313 311 313 313 310 311 311 310 314 319 322 327 326 327 332 328 330 335 325 330 346 344 340 338 334 334 333 332 332 332 332 334 336 341 345 349 353 351 350 350 348 348 349 348 349 349 350 351 350 350 349 348 348 347 348 349 349 350 350
318 318 325 323 315 312 313 312 311 311 311 311 313 316 326 333 326 321 328 330 331 328 324 335 344 343 343 339 333 333 332 331 331 330 330 331 331 333 335 338 342 345 347 350 349 348 348 348 350 350 350 350 351 351 350 350 350 349 348 349 349 350 350
320 320 325 322 316 314 314 312 311 311 311 312 313 316 326 333 324 319 326 331 328 321 325 339 343 341 343 341 334 332 331 330 330 329 329 329 328 330 330 330 333 334 337 340 343 347 348 348 349 349 350 351 351 351 352 351 350 350 349 349 349 349 350
320 319 318 318 316 314 314 312 312 312 312 313 314 316 321 323 319 321 328 326 320 319 331 342 340 337 340 340 335 333 331 330 328 328 328 327 327 327 327 328 328 329 331 332 334 338 343 347 349 349 351 350 351 352 352 352 352 351 351 350 349 350 350
317 317 316 315 315 313 312 312 312 311 313 314 313 314 317 317 316 324 333 326 319 324 334 339 337 335 336 336 334 332 330 328 327 326 327 326 326 326 326 326 326 327 329 329 331 333 336 340 344 347 350 351 351 352 352 352 353 352 352 351 350 351 350
313 313 314 313 313 312 311 311 311 311 312 312 312 313 315 315 315 320 325 321 323 329 333 333 333 332 331 331 331 329 327 326 325 325 325 324 324 325 325 325 326 326 327 327 328 330 332 334 337 340 345 350 352 352 352 352 353 353 354 352 351 351 350
314 314 314 313 313 312 312 312 312 312 312 312 312 312 313 314 316 318 317 319 327 329 327 328 330 330 328 327 328 327 326 325 324 324 324 324 323 323 323 324 325 324 325 326 327 329 329 331 333 335 339 343 349 352 352 352 353 353 354 353 353 352 351
316 315 314 313 312 314 313 313 313 312 312 313 312 312 313 314 317 320 319 324 333 329 323 325 327 327 327 325 326 327 326 325 324 324 324 323 322 322 322 323 323 323 324 325 326 328 329 329 330 332 335 338 341 346 351 353 352 352 354 354 353 353 353
318 316 315 314 313 313 312 313 315 315 315 317 316 318 321 321 323 326 325 331 336 328 322 324 324 324 326 324 324 325 325 326 325 323 323 323 322 322 321 321 322 322 322 324 325 326 328 328 329 330 332 334 335 338 344 349 353 353 354 355 355 354 353
320 317 317 316 313 312 313 315 318 322 323 323 325 328 330 327 327 330 329 329 329 324 322 324 323 323 324 323 322 323 324 326 326 324 323 322 321 321 321 321 323 322 322 323 324 325 327 327 328 329 330 331 332 333 337 343 350 353 354 355 354 354 354
321 320 319 318 315 315 318 317 320 326 327 327 330 333 330 326 324 327 327 324 323 322 322 322 322 322 323 321 320 320 320 323 326 325 325 323 322 322 321 321 321 322 322 323 323 324 325 326 327 328 329 329 330 331 334 338 345 351 355 356 355 356 355
320 322 321 320 319 318 316 314 320 325 325 326 330 330 326 323 322 325 325 322 320 320 320 320 319 321 321 320 318 317 317 318 321 324 325 324 323 322 322 321 320 320 320 322 322 323 324 324 325 326 327 327 328 330 333 336 340 345 351 355 356 357 357
318 320 319 319 319 316 312 313 319 323 325 325 326 325 325 323 321 323 324 322 320 319 318 318 318 317 318 319 317 316 316 316 317 320 323 325 325 324 323 322 321 320 320 320 321 323 323 323 323 325 325 325 327 329 332 335 337 340 345 351 354 357 358
317 318 318 317 316 315 315 318 321 322 323 323 322 324 326 322 318 319 321 320 320 319 318 318 317 316 319 321 320 316 314 315 315 316 320 322 323 323 323 323 322 321 320 320 320 321 322 322 322 323 323 324 326 328 331 334 335 336 340 344 348 352 355
317 316 317 318 317 317 319 321 320 319 318 317 319 323 325 321 317 318 318 319 319 318 318 318 316 317 323 328 325 317 314 314 314 314 316 318 319 320 322 323 323 321 321 321 320 321 321 321 321 322 322 323 325 327 330 332 333 334 337 339 342 346 350
317 316 317 318 317 318 320 321 319 317 316 316 318 322 325 320 316 316 317 318 318 317 318 318 318 320 326 328 324 316 313 313 313 314 315 315 316 317 318 321 322 322 322 322 321 321 321 321 321 321 322 323 324 327 330 331 331 334 335 336 338 340 343
317 316 317 316 315 316 318 318 317 315 315 316 319 323 323 319 315 316 317 318 317 316 317 318 318 320 322 321 318 314 313 313 313 313 314 314 315 316 316 317 320 322 322 322 321 321 320 320 321 321 321 323 324 326 328 330 331 333 333 335 336 337 339
316 317 317 315 316 318 317 316 317 315 316 318 320 321 319 315 315 316 316 317 317 315 315 316 317 318 318 317 315 313 312 312 312 313 313 313 314 315 315 316 318 321 322 322 321 321 321 321 320 320 321 322 323 325 327 328 330 331 332 334 335 335 338
315 317 317 316 317 318 316 316 317 316 317 319 319 317 315 314 316 317 316 316 315 314 314 314 315 316 315 314 313 312 312 313 312 312 312 313 313 313 314 315 316 319 320 321 321 321 321 321 321 320 320 321 323 325 326 327 329 330 331 333 335 336 338
316 315 315 316 318 316 313 315 317 317 318 319 316 314 314 315 315 315 315 314 313 313 313 312 313 313 313 313 313 312 312 312 312 311 312 312 312 313 313 314 315 317 318 319 320 321 321 321 321 320 319 321 323 324 326 327 327 328 330 334 336 338 340
316 315 316 318 319 316 314 315 317 318 318 316 314 313 313 313 313 313 312 312 311 312 311 311 311 311 312 312 312 312 312 312 311 311 311 311 311 312 313 313 315 316 317 317 318 320 321 321 321 320 319 320 322 324 325 326 326 327 330 334 337 339 341
316 316 318 318 318 317 316 316 317 317 316 315 313 311 311 311 311 311 310 310 310 310 310 310 310 310 311 312 312 311 311 311 310 310 310 310 310 311 311 313 314 315 315 316 316 318 320 320 321 320 319 319 321 323 324 325 325 327 330 334 338 341 342
313 314 314 313 313 315 315 315 315 315 315 314 312 311 311 311 310 310 309 309 309 310 310 310 310 310 310 310 310 310 310 310 309 309 309 309 310 310 311 312 312 313 314 315 316 317 319 320 321 320 319 319 320 322 324 325 325 326 330 334 337 340 342
312 314 316 315 315 316 315 314 313 313 314 314 312 311 311 310 309 309 309 309 309 309 310 310 309 309 309 309 310 310 309 309 309 308 309 309 309 310 310 310 311 312 313 314 315 316 318 319 320 320 319 318 319 321 323 324 324 325 329 333 336 337 339
312 313 315 314 314 314 313 312 312 312 313 313 312 311 311 310 309 308 308 308 309 309 309 309 309 308 308 308 309 309 309 309 309 308 308 309 309 309 309 309 311 312 313 314 315 315 317 319 320 320 319 318 318 320 323 324 323 325 328 331 334 336 337
312 312 312 311 311 311 312 312 312 312 312 312 312 312 311 310 309 309 307 307 307 307 307 307 307 307 308 307 308 308 308 308 308 308 308 308 308 309 309 309 310 311 312 313 314 315 317 318 320 320 319 317 318 320 322 323 323 324 327 330 332 334 336
313 313 312 312 312 312 313 312 312 312 311 311 312 312 311 310 310 309 308 307 306 306 306 306 307 307 307 307 307 308 308 308 308 308 308 308 308 308 308 309 310 310 311 313 314 315 317 319 320 320 319 317 318 320 322 323 323 324 327 329 332 334 336
314 313 313 313 313 312 312 311 311 311 311 311 311 311 311 310 309 308 308 307 307 306 306 305 306 306 307 307 307 307 307 307 308 308 308 307 307 308 308 309 310 310 311 313 314 316 318 319 320 320 318 317 318 320 321 322 323 324 326 329 331 333 335
312 312 314 314 312 312 312 312 313 312 309 310 312 311 310 309 307 306 307 307 306 306 306 306 306 306 306 307 307 307 307 307 307 307 307 307 308 308 309 310 311 312 313 314 316 317 318 319 320 319 317 317 319 321 321 321 323 325 327 329 332 333 335
312 314 316 314 312 313 311 310 311 310 307 308 311 311 309 309 307 306 307 307 306 306 306 306 305 306 306 306 306 306 306 307 307 308 308 309 309 310 311 311 312 313 314 315 316 317 318 319 319 318 317 318 320 320 320 321 323 325 327 330 333 336 338

ECMWFFLT2_925_thetae_066.txt.gz
Theta_e
313 312 314 314 313 316 319 318 321 317 319 331 326 321 329 327 317 316 322 332 340 339 333 336 342 340 338 338 337 336 336 335 336 337 339 343 347 351 350 349 350 349 350 349 349 348 347 346 345 344 344 344 344 345 346 348 348 348 349 349 349 349 349
316 312 313 316 312 315 319 316 319 317 316 326 326 321 328 327 318 319 332 341 339 335 332 333 342 344 339 338 337 335 336 335 335 335 335 336 339 346 351 350 349 349 348 349 349 349 347 347 346 344 344 344 344 345 346 347 348 348 348 348 349 349 349
316 313 315 320 316 314 316 315 317 318 319 322 321 321 322 320 321 325 330 337 336 333 329 329 342 346 339 338 337 335 335 334 334 334 333 334 335 341 349 351 350 350 349 349 349 349 349 347 347 346 344 343 344 345 346 347 347 348 348 348 349 349 349
313 315 316 318 317 315 315 315 314 316 321 320 316 322 322 318 327 331 329 335 336 331 325 328 343 345 338 338 337 334 334 333 333 333 331 333 333 335 344 350 351 349 348 349 349 349 349 348 348 346 345 344 343 344 346 346 347 347 348 348 348 349 348
314 316 315 312 312 314 313 313 313 312 316 319 316 319 321 321 329 333 335 337 330 324 323 331 343 343 337 337 335 333 333 330 331 331 330 331 331 330 335 344 351 351 348 349 349 349 349 348 348 347 345 344 343 344 345 346 346 347 347 348 348 349 348
314 314 313 312 311 311 310 311 312 310 313 321 323 319 319 325 328 330 336 335 323 319 327 335 344 342 336 335 333 332 332 329 329 329 328 329 330 329 330 334 342 347 349 349 348 349 348 348 349 348 346 345 343 344 345 345 347 346 347 348 348 349 349
314 312 312 313 312 311 311 310 310 310 311 318 327 325 321 327 328 328 335 333 322 321 331 338 343 341 337 334 332 331 330 329 328 327 327 327 327 328 328 328 331 336 342 346 347 348 348 347 349 348 347 345 344 344 344 345 346 347 347 348 347 348 349
321 317 313 314 312 311 313 311 310 311 309 310 319 323 325 329 326 326 337 335 321 321 332 337 337 337 336 333 331 330 328 328 328 326 326 326 326 326 326 327 329 330 333 336 339 344 347 347 348 348 348 347 345 345 344 344 345 346 347 347 347 348 349
321 321 319 318 316 313 313 313 310 310 311 311 314 319 327 333 324 322 337 338 322 321 331 334 332 333 332 330 329 328 326 327 327 325 325 325 325 325 325 326 327 328 329 331 332 335 339 343 347 348 348 347 346 346 345 344 345 346 347 347 347 348 348
326 325 322 319 319 315 314 314 311 310 312 311 314 319 326 332 325 322 331 331 322 324 331 332 330 329 329 328 327 326 325 325 325 325 325 324 324 325 324 325 325 326 328 329 330 331 332 335 339 344 348 348 348 347 346 345 345 345 347 346 347 348 348
326 323 317 316 318 315 314 314 312 312 313 312 317 320 321 324 323 322 325 321 319 329 333 331 329 328 327 327 326 325 325 324 323 324 324 324 323 323 323 323 324 325 326 327 328 329 330 331 333 336 341 345 348 348 347 347 346 345 346 346 347 347 347
317 317 315 315 317 314 312 313 312 313 314 314 317 317 316 321 322 323 325 322 323 330 331 329 328 327 326 326 325 325 324 324 323 323 323 323 322 322 322 322 322 323 324 325 327 328 328 329 330 332 334 337 342 347 348 349 348 346 347 346 346 347 347
314 315 314 314 315 313 311 313 313 313 314 315 315 315 315 319 322 324 324 323 328 330 327 327 327 326 325 325 325 324 323 324 323 322 322 322 322 322 321 321 321 322 322 323 325 327 327 328 329 330 331 332 335 339 343 347 349 348 348 347 346 347 347
313 314 314 313 314 314 314 315 314 314 315 315 314 314 315 315 318 322 319 321 330 328 323 324 325 324 324 323 323 323 323 323 323 322 322 322 321 322 321 321 321 321 322 323 324 325 326 327 328 328 329 330 331 332 336 341 345 348 350 349 348 347 347
313 314 315 314 314 314 314 315 315 314 313 313 312 311 313 313 316 319 316 323 332 327 321 323 323 322 322 321 321 322 322 323 323 322 323 322 321 321 321 321 321 320 321 322 322 323 325 326 326 327 328 329 329 330 331 335 340 344 347 350 350 349 348
314 313 316 316 315 314 314 318 320 318 316 317 317 318 319 318 320 322 321 325 331 326 321 323 321 320 321 319 318 320 320 321 321 321 322 322 322 321 321 321 321 320 320 321 321 322 323 325 325 325 326 327 327 328 329 332 336 340 344 348 350 350 349
318 314 317 318 315 313 316 320 323 323 323 323 323 324 326 325 325 328 327 326 326 323 321 323 321 320 320 318 317 317 317 319 319 319 320 320 320 321 321 321 321 321 320 321 321 322 322 324 324 323 325 325 326 327 328 330 333 336 339 345 349 352 351
319 318 319 319 316 315 315 316 318 321 322 324 323 324 327 326 325 328 327 324 322 321 321 323 321 320 320 319 317 316 316 316 317 317 318 318 318 319 319 319 321 322 322 322 321 321 322 323 323 322 323 324 324 326 327 329 332 333 336 340 346 351 353
318 320 323 321 317 316 313 312 315 317 319 322 323 325 328 325 323 325 325 323 321 320 320 320 319 318 318 318 316 315 314 315 315 316 317 317 317 317 317 317 319 321 322 322 321 321 322 322 321 322 322 322 323 324 326 328 331 332 334 337 341 348 353
316 319 321 317 314 314 314 315 316 318 321 323 322 324 327 324 321 324 324 321 320 319 318 317 317 316 316 316 316 314 313 314 313 314 316 316 316 316 316 316 317 318 320 321 322 322 321 321 321 321 321 321 321 323 325 328 330 331 332 335 337 341 348
316 317 317 317 315 316 318 320 319 318 320 320 320 323 325 320 318 320 321 320 319 318 317 316 315 315 316 319 319 315 312 313 312 312 314 315 315 315 315 316 316 317 318 320 322 322 322 321 321 321 321 320 321 322 325 327 328 329 331 333 335 337 340
318 317 318 320 322 323 321 319 319 318 316 316 319 323 324 319 315 316 318 318 318 317 317 316 315 315 320 325 325 317 312 311 311 311 312 312 312 313 314 315 315 315 316 319 321 322 321 321 321 321 321 320 320 322 324 326 327 328 330 332 333 334 336
319 317 319 322 322 323 321 320 320 317 315 315 317 319 321 318 314 314 317 318 316 317 317 316 315 316 319 322 322 316 312 311 311 311 311 311 311 312 312 313 313 314 315 317 318 319 320 320 320 320 321 320 320 322 324 324 326 328 329 331 331 331 333
318 317 319 319 316 318 319 320 320 317 315 316 318 320 320 317 313 313 316 317 316 315 316 315 315 317 317 317 315 313 311 311 311 310 311 311 311 311 311 311 312 313 314 315 316 317 318 318 319 320 321 320 320 321 322 323 325 327 328 328 328 329 331
317 317 318 316 315 318 321 320 319 317 315 317 319 319 318 315 314 314 314 316 315 313 313 314 314 315 315 314 312 311 310 310 310 310 310 310 311 311 310 311 311 312 312 313 314 316 316 316 317 318 320 321 320 320 321 322 323 325 326 326 326 327 330
316 317 317 315 315 318 319 318 318 316 316 319 319 316 312 313 315 315 314 314 313 312 312 312 312 312 312 311 310 310 310 310 310 309 309 310 310 310 310 310 310 310 311 312 313 314 314 315 316 317 319 320 320 320 320 321 321 322 324 325 326 327 329
314 315 314 315 318 317 315 316 316 316 318 319 316 313 312 313 315 315 313 312 312 311 311 310 310 310 310 309 310 309 309 309 309 309 309 309 309 310 309 309 310 310 311 311 312 312 313 314 314 316 318 320 320 320 320 320 320 320 322 324 325 326 328
315 315 313 315 319 317 315 318 321 320 320 318 314 314 314 313 314 314 313 312 311 311 310 310 310 309 309 309 309 309 309 309 308 308 309 309 309 309 309 309 309 310 310 310 310 311 311 312 313 314 316 319 320 321 320 320 319 319 321 323 325 325 327
316 316 316 316 317 316 315 318 321 320 319 316 314 314 314 312 313 313 311 311 311 310 309 309 309 308 309 309 309 309 308 308 308 308 308 308 308 308 308 308 309 309 310 310 310 310 310 311 313 314 315 317 320 321 320 320 319 318 320 322 324 325 327
314 314 313 312 313 315 314 314 315 315 316 316 315 314 313 313 313 312 310 310 310 310 310 309 308 308 308 308 307 307 307 307 307 308 308 308 308 308 308 308 308 308 309 309 309 310 310 311 312 313 314 316 318 319 320 320 319 318 319 322 324 325 327
312 314 315 312 312 313 312 313 313 312 313 314 314 313 313 312 312 311 310 309 309 309 309 310 309 308 307 307 307 307 306 306 306 306 307 307 307 307 308 308 308 308 308 308 309 309 310 310 311 313 314 315 316 318 319 320 319 319 320 323 324 325 326
312 315 316 313 312 312 312 313 313 312 311 312 312 312 312 311 310 309 307 307 308 308 308 309 308 307 306 306 306 306 305 306 306 306 306 307 307 307 307 307 308 308 308 308 308 309 310 310 310 312 313 314 316 317 319 320 319 319 321 323 324 325 326
313 313 312 310 310 311 312 311 310 310 309 309 310 311 310 310 310 309 307 306 306 307 307 307 307 306 306 305 305 305 305 305 305 306 306 306 307 307 307 307 307 308 307 308 308 308 309 310 310 312 313 314 316 318 319 319 318 319 321 323 324 325 326
314 313 313 312 312 314 315 313 312 312 310 309 309 310 310 310 311 310 309 307 306 305 305 305 305 306 306 305 305 305 305 305 305 306 306 306 307 307 307 307 307 307 307 307 307 308 309 310 311 312 314 315 317 318 319 319 318 319 321 322 323 324 326
315 313 313 313 312 314 315 313 314 315 312 310 310 310 310 310 309 308 309 309 307 306 305 305 305 305 305 305 305 305 305 305 305 305 305 306 306 306 306 306 306 307 307 307 307 308 309 310 312 313 314 316 317 318 318 318 318 319 320 321 322 324 325
312 311 312 312 311 313 313 313 315 313 308 308 311 311 310 309 306 305 306 308 307 307 306 305 305 305 304 305 305 305 305 305 305 305 305 305 306 306 306 306 307 307 307 308 309 310 311 312 312 313 314 315 316 317 318 318 318 319 320 321 322 324 325
311 312 313 311 311 313 312 310 311 309 304 306 311 311 309 308 306 305 306 306 305 305 305 304 304 304 304 305 304 304 304 304 304 305 306 306 307 307 308 308 308 308 308 309 310 310 311 311 312 312 314 315 316 317 318 319 319 319 320 321 322 324 325

ECMWFFLT2_925_thetae_069.txt.gz
Theta_e
312 313 312 312 313 316 318 317 316 316 318 320 317 316 317 315 313 316 323 330 335 335 334 337 339 338 336 335 335 335 335 336 336 336 337 336 336 337 340 345 349 352 354 353 352 352 351 351 350 349 350 350 350 350 351 351 351 351 350 350 351 350 350
313 312 312 313 312 314 316 316 316 317 317 319 319 317 317 314 314 321 328 328 328 330 334 337 341 340 336 336 335 334 334 334 335 335 335 335 335 336 337 340 346 350 353 353 353 352 351 350 350 349 350 349 349 349 350 351 352 352 351 351 351 351 351
312 312 312 314 313 313 314 314 315 316 316 318 319 318 317 314 317 326 330 325 324 328 334 339 342 341 337 335 335 334 333 332 332 333 333 333 334 334 336 338 343 349 351 353 353 352 352 350 349 350 349 348 349 348 350 351 352 351 351 351 352 351 351
312 313 314 313 313 314 313 313 314 315 316 317 317 317 316 314 321 327 328 326 325 329 338 343 343 341 337 335 334 333 331 331 330 330 330 331 332 333 334 335 340 346 350 352 352 352 352 350 350 350 349 349 348 348 350 350 351 351 351 351 352 352 351
313 313 313 311 312 313 313 314 314 314 315 316 316 317 316 316 321 325 326 327 326 331 341 345 343 340 335 333 333 332 331 329 328 328 328 329 330 331 332 334 336 342 347 350 350 352 352 351 350 349 348 348 347 347 348 350 351 352 352 351 352 352 352
313 312 311 311 311 311 312 313 312 312 313 315 315 316 316 317 321 322 324 325 327 332 339 341 340 336 333 331 330 330 329 329 328 327 327 327 328 328 330 331 332 336 341 344 345 349 351 351 351 349 348 347 347 347 347 349 350 351 351 351 352 352 351
312 311 311 311 310 311 311 312 312 311 312 315 316 317 318 318 320 321 322 324 329 334 335 335 335 333 330 329 329 329 328 327 327 327 326 326 326 326 327 329 331 334 337 338 339 342 345 349 351 350 349 347 347 348 347 347 349 349 350 351 352 352 351
312 311 311 311 311 311 312 311 312 312 312 312 314 318 320 319 319 321 322 324 329 333 332 331 331 329 328 328 327 327 327 326 326 326 325 325 325 325 325 326 329 332 333 335 336 337 339 341 346 349 350 348 346 346 346 346 347 347 348 349 351 351 352
314 314 313 312 312 312 312 312 311 312 313 312 313 317 321 320 319 320 321 323 328 332 331 330 329 329 328 327 326 326 326 326 325 325 325 325 324 324 324 324 326 328 329 332 333 334 335 337 338 342 347 350 347 345 344 345 346 346 346 348 349 350 351
314 316 315 314 314 313 311 311 311 311 312 312 314 318 320 319 319 320 321 323 329 332 331 329 329 329 328 327 326 326 326 325 325 325 324 324 324 324 323 323 324 325 327 329 330 331 332 333 334 336 340 345 347 346 346 346 346 346 345 346 348 349 351
315 316 315 313 313 313 312 311 310 311 312 312 315 317 318 318 318 319 321 326 331 332 331 330 329 328 328 327 326 325 325 325 324 325 324 324 323 323 323 323 323 324 325 326 327 328 329 329 331 333 335 338 341 345 346 347 347 346 346 347 347 349 349
313 313 312 311 312 311 311 310 310 310 311 312 314 315 316 317 318 318 320 328 332 330 329 330 329 328 327 326 326 325 325 324 324 324 324 324 322 322 323 323 323 323 324 325 325 326 327 327 328 330 332 333 335 338 341 343 346 347 347 346 347 349 350
311 311 311 311 311 311 310 310 310 310 311 312 313 314 313 315 318 317 318 325 331 329 327 328 328 327 325 325 324 324 323 323 323 323 323 323 322 322 322 322 323 322 323 324 325 324 325 326 326 327 328 330 331 333 335 338 342 344 346 347 348 349 350
311 311 311 310 311 311 311 310 310 310 310 311 311 312 312 313 315 314 316 325 329 326 326 326 326 324 323 322 322 322 321 321 321 321 321 320 321 321 320 321 322 322 323 324 324 324 325 325 325 325 326 327 328 331 333 335 337 341 344 347 349 349 349
311 311 311 311 311 311 312 313 314 312 312 313 313 313 313 313 314 314 318 327 328 324 324 325 323 322 322 321 321 320 319 318 318 318 318 318 319 319 319 319 319 320 322 324 323 323 324 324 324 324 325 325 326 328 330 333 335 338 341 344 348 350 350
312 312 311 311 312 312 315 320 320 318 318 319 319 321 320 318 319 317 317 324 327 324 323 323 322 322 321 321 320 319 318 317 316 316 316 316 317 317 317 318 318 318 319 322 323 323 323 324 324 324 324 324 325 325 327 330 333 337 339 341 345 349 351
312 312 312 313 312 311 315 320 319 317 316 317 319 322 321 322 324 322 320 323 325 323 322 322 322 321 321 320 319 318 318 317 316 315 314 314 314 315 316 317 317 317 318 319 320 322 324 323 323 323 323 324 324 324 325 328 331 334 337 340 343 347 351
313 312 313 313 310 309 313 315 314 314 314 313 315 317 318 321 324 324 323 324 322 321 321 321 321 320 320 319 317 316 316 316 315 315 314 314 313 314 314 315 316 317 317 317 318 320 323 324 323 322 322 323 323 323 324 326 330 331 334 338 342 344 348
313 313 314 310 308 311 313 311 313 316 315 314 316 317 319 321 322 322 323 321 320 320 319 319 318 318 317 317 317 315 314 314 314 314 314 313 313 313 313 314 315 316 316 316 316 319 321 322 322 322 322 322 323 323 324 326 327 329 331 336 340 342 343
313 312 311 310 310 312 312 312 315 317 317 317 317 318 320 321 321 322 321 319 318 318 317 316 316 315 316 317 317 315 313 313 313 313 313 313 313 313 313 314 315 315 315 315 315 317 319 320 321 321 321 322 322 323 324 325 325 327 330 334 336 338 339
313 313 312 313 312 312 314 316 317 317 317 318 317 317 319 319 318 320 320 318 317 316 316 316 315 314 316 319 318 315 313 312 312 312 313 313 313 313 313 314 314 314 313 314 314 316 317 317 319 320 320 321 322 323 324 324 324 326 329 332 333 333 334
314 313 313 312 310 311 315 317 317 316 316 317 317 317 318 317 315 316 318 317 317 316 316 315 315 316 318 321 320 316 312 312 312 312 312 313 313 313 313 313 313 313 313 313 314 314 315 315 317 317 318 319 321 323 324 324 324 325 328 329 330 330 331
314 313 312 312 311 312 315 317 317 315 314 316 316 315 317 317 315 314 316 316 315 315 315 315 315 317 318 320 319 314 311 311 311 311 312 312 312 312 312 312 312 312 312 313 313 313 314 314 315 315 316 318 320 322 323 323 323 325 326 327 327 328 329
315 313 312 312 313 313 314 316 315 313 313 316 316 314 317 317 314 314 315 315 314 315 314 314 315 316 317 317 315 312 310 311 311 311 312 312 312 312 312 311 312 312 312 312 312 312 313 313 314 314 315 316 318 321 323 323 323 324 325 325 325 326 327
315 314 314 313 314 314 315 314 314 313 314 315 314 315 318 316 313 314 315 314 313 313 313 313 314 314 313 313 311 310 310 310 311 311 311 311 311 311 311 311 311 311 311 312 312 312 312 313 313 313 313 315 317 319 321 323 323 324 324 323 324 325 327
314 315 315 314 313 314 314 314 314 315 315 315 315 315 315 314 313 313 313 313 312 312 311 312 312 311 310 309 309 309 309 309 310 310 310 310 310 310 310 311 311 311 311 311 311 312 311 312 312 312 312 314 316 318 320 321 323 323 323 323 324 324 326
313 314 314 313 312 313 314 314 314 315 315 315 315 314 312 313 313 312 312 312 311 310 310 310 309 309 308 308 308 308 308 309 309 310 310 310 309 309 310 310 309 310 310 310 311 311 311 311 312 312 312 313 315 317 319 320 321 322 323 323 323 324 326
313 314 314 313 312 314 314 314 314 315 315 314 313 312 312 312 312 311 311 311 310 309 309 308 308 308 308 308 308 308 308 309 309 309 309 309 309 309 309 309 309 310 310 310 311 311 311 311 311 312 312 313 315 317 317 318 320 321 322 323 323 324 325
312 313 313 312 312 312 313 313 314 314 314 312 312 311 311 312 311 311 311 310 310 309 308 308 308 308 309 308 308 307 308 308 309 309 308 309 309 309 309 309 309 309 310 310 311 311 311 311 311 312 312 313 314 315 316 317 318 320 322 322 323 324 325
311 311 312 311 310 311 312 312 312 313 312 311 311 311 311 311 311 310 310 310 309 309 308 308 308 308 309 309 308 307 308 308 309 308 308 308 309 308 308 309 309 309 310 310 310 311 311 311 311 312 312 312 313 314 314 316 317 320 321 322 323 323 325
311 312 313 311 310 311 312 312 312 312 311 311 311 311 311 311 310 310 310 309 309 309 309 309 309 309 309 308 308 308 308 308 309 308 308 308 308 308 308 308 309 309 309 310 310 311 311 311 311 312 312 312 312 313 314 315 316 319 321 322 323 323 325
312 313 313 311 310 310 310 310 311 311 311 312 311 311 311 310 310 310 310 310 309 309 309 308 309 308 308 308 308 308 307 308 309 308 308 308 308 308 308 308 309 309 309 310 310 310 311 311 311 312 312 311 312 313 314 315 316 319 321 322 322 323 324
312 313 312 311 311 310 310 310 310 310 311 312 311 311 310 309 309 310 310 310 310 309 309 309 309 308 308 308 308 307 307 308 308 308 308 308 308 308 308 308 308 308 309 309 310 310 310 311 311 311 311 311 312 313 314 315 317 319 321 321 322 323 323
313 313 313 313 312 312 311 311 311 311 311 311 311 311 310 309 309 310 310 310 310 310 310 309 309 308 308 308 308 308 307 308 308 308 308 308 308 307 307 307 307 308 308 309 309 309 310 310 311 311 312 312 313 314 315 315 317 319 320 320 321 323 323
314 313 314 314 312 312 312 312 311 311 311 310 310 311 310 309 310 310 310 309 309 309 310 310 309 309 308 308 308 308 307 307 307 307 307 307 307 307 307 307 307 307 308 308 309 309 310 311 311 311 312 312 313 314 315 315 316 317 319 320 321 322 323
313 313 313 313 311 311 313 312 311 311 311 311 310 310 310 310 310 310 310 309 309 309 309 310 309 308 308 308 307 307 307 307 306 306 306 307 307 307 307 307 308 308 308 308 309 309 310 311 311 312 312 312 313 313 314 314 315 317 318 319 321 321 322
313 313 313 311 311 311 311 310 309 310 311 310 310 309 310 310 310 310 310 310 310 309 309 309 309 308 307 307 307 307 306 306 306 306 306 306 307 307 307 307 307 308 308 308 309 309 309 310 311 311 312 312 312 313 313 314 315 317 318 319 320 321 321

ECMWFFLT2_925_thetae_072.txt.gz
Theta_e
317 317 316 318 318 318 321 321 317 320 324 321 314 313 314 313 313 314 319 327 332 335 338 341 340 340 339 340 340 339 339 340 341 341 342 342 343 343 345 347 349 353 356 356 355 355 354 355 355 355 354 355 355 357 359 361 361 362 362 362 361 361 361
316 316 316 318 318 319 319 317 319 323 325 323 318 315 315 313 314 316 322 328 328 327 333 340 341 341 340 339 339 338 338 338 337 339 339 339 341 342 343 345 347 351 355 357 356 356 354 354 354 355 355 355 356 356 358 360 360 361 361 361 361 361 361
316 316 317 316 317 320 319 318 322 323 317 316 317 316 315 313 314 317 319 324 326 325 332 340 341 342 341 340 339 337 336 335 335 336 336 337 338 340 342 344 346 350 353 355 356 355 354 354 355 355 355 354 355 357 357 358 359 360 360 360 359 360 361
316 317 317 314 314 318 319 320 323 322 317 316 316 315 315 312 312 318 321 322 327 333 341 344 342 341 341 340 339 336 335 334 333 333 333 334 336 337 340 341 343 348 351 353 355 354 354 355 355 354 354 355 354 355 356 356 357 358 357 357 358 360 360
315 316 315 315 315 316 317 316 316 318 318 319 318 316 316 313 311 318 322 323 330 340 344 343 341 339 338 338 337 335 334 332 331 331 331 331 333 334 337 338 340 344 347 349 351 352 354 354 355 355 354 355 354 354 355 354 355 355 355 355 355 357 358
313 314 315 315 315 315 317 317 315 317 317 317 317 315 316 314 313 316 318 323 335 340 340 339 338 337 336 336 336 334 333 332 331 330 329 330 331 331 333 335 336 340 344 344 346 348 349 351 354 354 354 354 352 353 354 353 354 354 354 354 354 356 358
314 314 314 315 314 315 317 317 318 319 317 316 314 314 315 314 315 317 316 326 339 339 336 337 336 335 335 334 335 334 332 332 331 329 329 329 329 329 330 332 335 338 339 341 341 343 343 346 350 353 354 352 352 353 352 353 353 353 353 354 354 355 357
315 314 315 315 315 315 316 317 317 318 318 318 315 318 320 314 313 316 315 328 340 337 334 336 334 334 335 333 334 335 332 331 330 329 329 329 329 329 328 330 334 335 335 336 338 338 338 340 343 347 352 354 354 355 354 352 352 352 352 353 353 355 356
314 315 315 315 315 316 316 316 317 317 318 320 318 321 323 317 317 318 314 325 339 337 334 336 333 334 335 333 333 333 332 332 330 329 329 329 329 328 327 329 330 331 333 334 334 334 334 335 336 341 347 352 354 353 353 353 351 352 353 352 352 353 354
314 316 317 315 314 315 315 314 316 316 316 319 319 318 317 316 320 322 317 327 337 337 335 336 334 335 334 333 332 331 331 331 330 329 329 328 328 328 328 327 327 328 330 330 331 331 331 332 333 334 339 347 351 351 351 351 349 351 352 351 351 352 352
316 319 319 317 316 315 314 313 313 315 315 319 320 318 317 317 320 324 327 334 337 335 335 336 334 334 333 332 331 330 329 329 328 328 328 327 326 326 326 326 326 327 328 328 329 330 329 330 330 331 333 337 344 348 350 350 349 350 351 351 351 350 351
316 318 316 316 315 314 313 311 312 313 315 320 320 317 320 322 320 323 333 337 334 333 336 335 334 333 333 332 330 329 328 327 326 327 326 326 324 324 324 324 325 325 326 327 328 327 328 328 328 329 330 331 335 340 345 347 348 348 350 350 351 350 351
314 314 313 314 314 313 312 312 312 312 313 317 319 317 320 323 321 325 334 335 332 333 333 333 333 332 330 330 328 326 325 324 324 324 324 324 323 323 323 322 322 323 324 325 327 326 327 327 327 327 328 328 330 333 337 341 343 346 348 349 350 350 351
314 313 312 313 313 312 312 312 311 312 313 314 316 316 318 321 324 329 333 332 331 330 330 331 331 328 327 327 327 325 324 323 323 322 322 321 321 321 322 322 321 321 322 323 324 325 327 326 326 326 326 326 328 330 332 335 339 342 345 348 349 350 350
314 312 312 312 312 312 312 311 310 311 312 312 313 315 316 317 321 327 331 331 329 328 328 329 328 327 327 326 326 327 325 322 321 321 320 320 319 319 320 320 320 320 321 322 321 323 325 326 325 325 325 325 326 328 329 331 334 339 342 346 348 350 351
313 312 312 312 311 311 313 315 314 313 314 315 315 317 319 318 318 324 327 328 327 327 326 327 327 327 327 326 326 326 324 322 321 320 320 319 319 318 319 319 319 319 320 320 320 321 322 324 324 324 324 324 325 326 327 328 331 334 339 344 347 350 352
313 313 312 311 311 311 314 317 318 317 320 321 321 321 323 322 320 321 323 325 328 327 325 326 325 325 326 326 324 323 324 323 322 320 319 318 318 318 318 318 319 319 319 320 319 319 320 322 322 323 323 323 323 325 326 327 329 332 336 342 346 349 351
314 314 313 313 312 313 315 318 318 318 319 321 320 320 322 323 324 323 325 327 327 326 325 325 325 324 325 324 322 321 321 322 320 320 319 317 317 317 317 317 319 319 320 319 318 319 319 319 320 322 322 321 322 324 325 327 328 330 333 339 344 346 348
314 314 315 313 313 315 317 318 317 317 318 319 320 320 320 322 325 325 326 325 325 324 324 323 323 323 322 322 321 320 319 319 319 319 318 318 317 317 317 317 318 319 318 318 319 319 319 319 319 320 320 320 321 323 324 326 328 328 332 336 339 341 343
315 314 312 313 316 317 317 317 316 316 316 317 318 320 320 321 323 323 323 322 323 322 321 321 321 321 320 321 321 319 318 317 317 317 317 317 317 316 317 317 318 318 318 317 317 318 318 318 318 318 318 319 319 321 323 326 327 328 330 333 335 336 338
316 313 311 314 318 317 317 318 319 318 318 318 318 321 322 321 321 321 321 320 320 320 319 320 320 319 319 322 322 319 317 316 316 316 316 316 317 317 317 316 316 316 316 316 316 317 317 317 318 318 318 318 319 320 322 324 326 327 329 331 331 332 334
315 314 313 314 314 315 318 320 319 319 319 319 319 320 323 321 320 320 320 320 319 319 319 319 319 319 319 321 322 320 317 315 316 316 316 316 316 316 316 316 316 316 316 316 316 317 316 316 317 317 317 317 318 319 321 323 325 326 328 329 329 330 331
315 315 315 313 312 317 322 321 319 317 316 317 318 317 319 321 319 318 320 319 318 318 318 319 319 319 319 321 321 318 316 315 315 315 315 315 315 315 315 315 314 315 315 315 316 316 315 316 316 316 317 317 317 318 320 321 323 325 327 328 329 328 329
315 315 314 313 314 320 322 320 317 314 314 318 319 317 318 320 318 317 319 318 317 318 318 318 318 319 319 320 319 316 315 315 315 315 315 315 314 314 314 314 314 314 314 315 315 315 315 315 316 316 316 317 317 318 319 319 321 323 325 327 328 328 328
315 315 314 313 316 320 320 318 316 315 315 317 319 318 320 320 318 317 318 317 316 317 317 317 317 318 318 317 315 314 313 314 314 314 314 313 313 313 312 312 313 313 313 314 314 314 315 315 315 315 315 316 317 318 318 318 320 321 323 326 327 328 328
315 315 315 314 315 318 318 317 317 316 316 316 318 319 319 319 317 317 317 316 316 316 315 315 315 315 314 313 312 312 312 312 312 312 312 312 312 312 311 312 312 312 312 313 313 313 314 314 314 315 315 316 317 318 319 319 319 319 321 323 325 327 329
314 315 315 314 315 317 317 317 317 316 316 318 319 318 317 316 316 316 315 315 315 314 313 313 313 313 312 311 311 311 311 311 312 312 312 312 312 311 311 311 311 311 311 312 313 313 314 314 314 315 315 316 317 318 318 319 319 318 319 321 324 327 328
314 313 314 314 315 317 317 316 316 317 317 318 316 315 315 315 314 314 314 314 314 313 313 313 312 312 312 311 311 311 311 311 312 312 312 312 311 311 311 311 311 310 311 312 312 313 313 314 314 315 316 316 317 318 319 320 319 318 319 320 323 326 327
314 314 316 316 316 316 316 316 316 316 316 315 314 312 313 314 314 313 313 314 314 313 312 312 312 312 312 311 311 311 311 312 312 311 311 311 311 311 310 310 311 311 311 312 312 312 313 313 314 315 316 316 318 318 319 319 318 318 319 320 322 325 326
315 315 315 314 314 315 316 316 316 316 314 313 313 312 312 313 313 313 312 312 313 313 312 312 311 311 312 312 311 311 311 312 312 312 311 311 311 311 311 310 311 311 311 312 312 313 314 314 314 315 315 316 317 317 318 318 318 318 319 320 322 324 326
315 314 314 314 314 314 315 315 315 315 314 314 313 313 313 313 313 313 312 312 312 312 312 311 311 311 311 311 312 311 311 312 312 312 312 312 311 311 311 311 311 312 312 312 313 314 314 315 315 315 315 316 317 317 318 318 317 317 318 320 322 323 325
315 315 316 316 315 314 315 314 314 315 315 315 314 313 313 313 313 313 312 312 312 312 311 311 311 311 311 311 312 311 310 311 312 311 311 311 311 311 311 311 311 312 312 312 313 313 314 315 315 315 316 316 316 316 317 317 317 317 318 319 321 323 324
315 315 316 316 316 315 314 314 314 314 314 315 315 313 312 312 312 312 312 312 312 312 311 312 311 311 310 311 311 310 310 311 311 310 310 310 310 310 310 311 311 311 312 312 312 313 313 313 314 315 315 316 316 316 316 317 317 318 319 320 321 323 323
315 315 315 316 316 315 314 314 314 314 313 313 314 314 313 312 312 312 312 312 312 312 312 312 311 310 310 311 310 310 310 310 310 310 310 310 309 310 310 310 310 310 311 311 312 312 312 313 313 314 315 316 316 316 316 316 317 318 319 320 321 322 323
315 315 316 316 316 315 315 315 314 314 313 313 313 314 314 313 312 312 312 312 312 312 312 311 311 311 310 310 310 310 310 309 309 309 309 309 309 309 309 309 309 310 310 310 311 311 311 312 313 313 314 315 316 316 316 316 317 318 319 320 320 320 321
315 315 315 316 315 315 315 314 314 314 314 313 313 313 313 313 313 313 313 312 312 312 312 311 310 310 310 309 309 309 309 308 308 308 308 308 308 308 309 309 309 310 310 310 310 310 311 311 312 312 313 314 315 316 316 316 317 318 318 319 319 319 320
314 315 315 316 315 315 315 314 314 314 314 314 313 313 313 314 313 313 313 313 312 311 311 310 310 309 309 308 308 308 308 308 308 308 308 308 308 308 309 309 309 310 310 310 310 310 310 311 311 311 312 313 313 314 315 315 316 317 317 318 318 318 319

ECMWFFLT2_925_thetae_075.txt.gz
Theta_e
323 324 323 326 322 319 322 322 318 321 326 323 313 311 313 312 311 311 314 326 335 337 341 343 341 342 342 341 342 342 342 345 345 347 347 347 350 351 349 350 352 356 358 358 357 357 357 357 358 356 356 357 357 358 361 362 362 365 365 364 364 364 362
320 321 321 323 323 321 320 317 320 325 328 325 317 313 313 311 311 311 313 324 331 330 336 342 342 343 342 341 342 341 343 343 343 344 345 345 347 348 349 351 353 355 357 356 356 356 357 357 357 357 357 357 357 358 360 362 363 364 364 364 363 362 364
318 320 320 318 320 323 321 319 323 324 317 316 317 315 314 312 312 311 312 319 326 326 331 339 341 343 342 342 342 341 342 342 341 342 342 343 346 347 349 351 351 353 356 358 358 357 357 357 356 356 357 357 357 358 357 358 361 359 360 363 362 361 363
319 319 317 314 315 320 322 322 324 323 318 315 316 316 316 312 311 313 315 321 327 331 337 341 342 343 343 342 343 341 341 341 340 340 339 340 341 344 346 349 349 351 353 356 359 358 357 357 355 354 354 355 356 355 355 355 355 353 354 359 360 360 361
317 315 316 316 316 317 319 317 318 320 319 319 318 317 316 313 312 313 316 323 332 340 344 344 342 343 342 342 342 341 340 339 339 339 337 337 338 341 343 344 345 347 350 353 357 357 356 357 356 354 353 353 354 353 354 355 355 354 356 359 359 360 361
312 314 319 320 320 319 319 317 317 318 317 316 315 315 315 313 312 312 315 326 337 343 343 342 340 340 340 340 341 339 339 338 338 337 336 336 337 338 339 340 341 344 348 348 352 354 354 355 356 354 353 353 352 352 352 354 356 356 357 358 357 358 361
315 318 321 320 319 322 322 320 321 322 319 315 311 311 314 312 312 312 317 331 341 342 340 341 339 339 339 339 339 339 337 337 337 337 335 335 336 335 336 337 339 343 345 344 345 347 347 348 350 352 354 353 352 352 353 354 356 355 356 357 356 357 359
319 319 320 320 319 321 319 320 323 321 320 319 315 316 318 314 312 311 318 334 343 341 338 340 337 338 339 337 339 338 336 337 336 335 335 335 334 334 333 335 339 342 341 341 342 342 342 343 342 345 350 353 354 353 353 354 354 354 355 355 356 357 357
315 316 317 316 318 319 318 320 323 322 323 324 321 321 321 317 315 311 316 332 341 340 338 339 336 338 338 337 338 337 336 336 335 334 334 333 334 333 333 333 334 337 338 339 340 339 340 340 340 341 344 349 353 353 352 353 352 352 353 353 355 355 355
315 316 316 314 315 317 318 320 321 322 322 322 320 318 317 317 317 316 322 332 339 340 339 339 337 338 337 337 337 336 335 335 333 333 333 332 333 332 332 332 331 332 334 337 337 337 337 337 338 339 340 342 347 350 352 353 351 351 353 354 354 354 355
317 319 319 320 319 316 315 317 318 320 321 322 321 316 314 317 316 319 330 338 338 338 340 339 338 338 336 337 335 335 335 333 332 332 331 330 331 330 330 331 330 330 332 334 335 334 334 335 336 337 338 338 340 344 348 350 352 351 353 354 353 353 355
317 320 320 321 321 317 316 315 316 318 320 322 320 314 318 323 318 321 337 341 334 336 340 339 338 337 336 336 334 333 333 332 331 331 330 330 329 328 329 329 329 330 329 331 332 332 332 333 333 334 335 336 337 339 341 344 348 350 351 352 352 353 354
316 318 317 318 319 318 317 317 316 317 319 321 319 318 324 325 320 326 340 340 335 338 339 337 337 336 334 334 333 331 331 330 329 328 329 329 327 327 327 327 327 327 327 328 329 330 329 330 331 331 331 333 335 335 337 340 342 344 347 350 351 352 352
316 315 315 316 317 316 316 316 316 317 318 320 321 321 325 327 325 331 339 338 337 338 337 336 336 333 332 331 331 331 329 328 328 327 326 326 325 325 325 325 325 326 326 326 327 327 328 328 329 329 329 329 331 332 334 336 338 339 343 347 350 351 352
315 315 314 314 315 315 314 315 316 316 317 318 319 321 324 327 330 333 336 337 338 337 335 335 333 332 332 331 330 331 329 327 326 326 325 324 324 324 324 324 324 324 325 325 325 325 326 325 327 328 327 327 328 330 332 333 335 337 340 345 349 350 351
313 315 314 313 314 313 312 312 314 314 315 316 317 321 323 325 328 331 333 334 336 335 334 333 332 331 332 331 331 330 328 327 326 325 325 324 324 323 323 323 323 323 324 324 324 324 324 323 325 325 325 325 326 327 330 331 333 335 339 343 348 350 351
313 314 314 313 313 311 310 313 315 314 316 318 321 322 323 325 328 329 331 333 334 333 332 331 331 331 331 331 330 329 328 328 326 324 324 323 323 323 322 323 323 323 323 324 323 323 323 323 323 322 322 322 324 325 327 330 332 333 337 341 345 348 349
312 314 315 313 311 310 313 319 320 320 320 322 322 323 324 327 329 328 330 333 333 331 330 331 330 331 330 328 327 326 327 326 325 325 324 322 322 322 321 322 323 323 323 323 322 322 323 322 322 321 320 321 322 323 325 328 331 332 334 338 341 342 343
312 316 316 312 311 315 320 322 322 322 324 324 324 324 326 328 330 330 330 331 330 328 329 329 329 329 328 326 324 324 323 323 324 324 323 322 322 321 321 321 322 322 322 322 321 322 322 322 323 322 320 320 321 321 323 326 328 330 332 335 337 338 339
314 316 314 313 316 320 322 322 321 319 322 324 324 324 325 327 329 330 330 329 328 327 327 327 327 327 326 325 325 323 321 321 321 321 322 322 320 320 321 320 321 322 321 320 320 321 321 322 322 322 322 321 320 320 322 324 326 328 331 333 335 336 335
316 314 312 315 321 323 321 322 321 319 319 322 322 322 323 325 327 328 328 327 326 325 324 325 325 324 324 325 325 322 320 319 319 319 320 320 320 320 320 320 320 320 320 319 319 320 320 320 321 321 321 321 321 321 321 321 322 325 329 331 334 335 334
316 313 313 315 318 318 320 322 321 321 322 321 322 324 325 325 325 325 326 325 324 324 323 322 323 323 324 326 325 322 320 318 318 319 320 320 320 319 319 318 318 318 319 318 318 319 319 319 320 320 320 321 321 321 321 320 320 323 325 328 331 332 332
314 313 314 313 314 318 324 324 321 321 321 320 321 322 323 324 323 323 324 323 323 323 322 322 323 323 324 325 325 322 319 319 318 319 319 319 318 318 318 317 317 317 317 318 318 319 318 319 319 319 319 320 321 321 322 321 319 320 323 325 327 328 331
313 314 313 312 316 323 327 323 319 318 317 318 318 317 319 323 322 321 322 322 322 322 322 322 322 322 324 325 323 320 319 319 318 318 318 317 317 317 316 316 316 316 316 317 317 317 317 318 318 318 319 320 320 322 323 322 321 321 321 322 324 325 328
312 314 312 312 320 326 325 320 318 317 316 318 318 319 321 324 322 320 321 321 320 321 321 321 321 321 323 321 319 318 318 318 317 317 316 315 316 315 314 315 315 315 315 315 316 316 316 317 317 317 318 319 320 322 322 323 322 322 321 321 322 323 325
313 314 313 312 319 324 322 318 318 317 316 318 320 321 323 323 320 320 320 320 320 320 320 320 320 320 318 317 316 316 315 315 316 316 315 315 315 315 315 314 314 314 314 314 315 315 315 315 316 317 317 318 320 321 322 323 323 322 322 322 322 322 323
313 314 313 313 317 322 321 320 319 317 317 320 322 322 322 321 320 320 320 319 319 319 318 318 317 317 316 316 315 315 314 314 315 315 315 315 315 315 314 313 313 314 313 314 314 315 315 315 316 316 317 318 320 321 322 323 323 323 323 323 323 322 323
313 312 314 316 318 320 320 319 319 318 319 322 322 320 319 319 318 318 317 317 317 317 317 316 316 316 316 315 315 315 314 314 315 315 315 316 315 315 314 314 313 313 313 314 314 314 314 315 315 316 317 318 319 321 322 323 323 323 324 323 323 323 323
316 315 317 319 319 320 319 319 319 320 320 320 319 318 317 317 317 316 316 317 317 316 315 315 315 315 315 315 314 314 314 314 315 316 316 315 315 315 315 314 314 314 314 314 314 314 314 315 315 316 317 318 319 320 321 322 322 323 324 323 323 323 323
317 317 319 320 319 318 318 318 319 320 319 317 315 315 316 317 316 316 316 316 317 317 316 315 315 315 315 315 315 314 314 315 316 316 315 315 316 316 315 315 315 315 314 314 314 314 315 315 316 316 317 318 319 320 321 321 322 322 323 324 324 323 323
316 316 317 318 318 317 317 318 318 318 317 316 315 314 315 316 317 316 316 316 316 316 316 316 315 315 315 315 315 315 315 315 316 316 315 315 315 315 315 315 315 315 315 315 316 316 316 316 317 317 317 318 319 320 320 320 320 321 321 322 323 323 323
315 317 317 318 318 317 317 317 318 318 317 317 317 316 315 316 317 317 317 315 315 314 315 315 314 314 314 315 315 315 315 316 316 315 315 315 314 314 314 314 314 314 315 315 316 316 316 316 317 317 317 318 318 319 320 320 320 321 321 321 322 323 323
316 317 317 318 318 318 317 316 317 317 317 317 317 316 315 315 316 316 316 315 315 315 315 315 315 314 314 315 315 314 314 315 315 314 314 314 313 313 313 313 313 314 314 314 315 315 315 316 316 316 317 317 317 318 319 319 320 320 321 321 322 322 323
317 318 318 319 319 319 318 317 316 316 316 316 316 316 316 316 315 315 315 315 315 315 315 315 315 315 314 315 315 314 314 314 313 313 313 312 312 312 312 312 313 313 313 314 314 314 315 315 315 316 316 316 317 317 318 319 319 320 321 321 321 322 323
318 318 319 320 319 319 319 318 317 316 316 316 316 317 317 316 315 316 316 316 315 316 316 315 315 315 314 314 315 315 314 313 312 312 312 311 311 311 311 311 312 312 312 312 313 314 314 314 314 315 315 315 316 316 317 318 318 320 320 321 321 322 322
319 318 318 319 319 319 319 318 317 316 317 316 316 316 316 316 315 316 316 315 316 315 316 315 315 314 314 313 313 314 313 312 311 311 310 310 310 310 310 311 311 311 312 312 312 313 313 313 314 314 314 315 315 315 316 316 317 318 319 320 320 321 321
318 317 317 318 319 318 319 318 317 317 317 316 316 316 316 316 316 315 315 315 316 315 315 314 313 313 313 313 312 312 312 311 311 310 309 310 309 309 309 310 310 311 311 311 311 312 312 313 313 313 313 314 314 314 314 315 315 316 317 317 319 319 320

ECMWFFLT2_925_thetae_078.txt.gz
Theta_e
326 327 327 330 327 324 325 324 318 320 328 323 313 312 313 312 311 312 319 329 336 340 343 345 344 344 344 344 345 346 351 354 353 353 355 354 355 355 355 357 356 357 359 360 359 358 357 358 357 354 354 355 357 360 360 361 360 359 360 362 361 360 359
324 325 327 329 329 327 323 319 321 327 329 325 319 314 313 313 310 313 324 330 331 333 340 344 345 345 344 343 343 344 346 348 349 350 350 352 354 353 354 357 355 356 359 359 359 358 358 358 355 353 352 353 355 357 357 356 355 356 360 362 361 361 361
321 324 325 323 326 329 325 323 325 324 318 316 318 314 313 314 311 314 327 330 327 329 335 340 344 345 344 345 344 343 345 345 346 347 346 349 354 353 354 356 355 356 358 360 361 361 359 357 355 354 353 353 355 357 358 357 356 357 360 362 361 360 361
321 322 320 316 319 325 325 325 324 324 318 316 317 315 315 315 311 316 329 332 329 333 340 344 345 345 343 344 345 344 344 344 344 345 344 346 351 352 354 355 353 355 357 358 360 360 358 357 356 354 352 353 355 357 359 359 358 360 362 362 361 359 361
318 317 318 317 318 321 321 319 318 319 320 320 319 316 314 315 313 316 328 336 337 341 347 348 345 345 343 343 345 345 343 343 342 342 343 344 347 350 350 350 350 351 356 358 358 358 360 359 357 352 352 354 355 354 356 357 358 360 362 363 362 359 360
314 315 319 321 321 321 322 318 317 319 319 317 316 314 313 314 313 314 325 338 341 344 345 345 343 343 343 341 342 343 343 342 342 341 342 342 345 347 346 345 344 346 350 354 355 356 357 359 357 353 353 357 357 355 356 357 358 360 360 360 361 360 360
317 320 321 320 320 323 323 321 323 323 321 316 312 312 313 311 312 318 329 339 344 345 342 344 342 342 341 340 341 342 342 341 340 341 341 341 343 343 343 342 343 344 345 348 351 351 351 355 356 354 355 357 357 356 357 358 359 358 357 358 359 359 360
319 320 321 321 322 322 320 321 323 323 322 321 316 316 318 313 313 320 332 340 345 344 342 343 340 340 340 339 340 340 340 340 339 339 339 339 340 341 341 341 342 343 343 344 346 346 346 349 352 355 356 357 356 355 354 356 356 355 356 356 357 358 358
315 315 318 318 318 320 319 320 323 323 322 325 321 320 322 317 314 320 331 339 343 342 342 343 339 340 340 339 339 339 339 339 339 338 338 337 338 339 339 339 340 339 340 342 343 343 345 345 347 350 353 355 357 355 353 352 353 353 355 354 355 355 355
317 317 317 316 315 316 319 319 321 323 322 323 320 317 317 315 315 322 331 336 341 343 343 341 339 341 341 340 338 337 338 339 338 338 337 335 336 337 337 337 337 337 338 338 339 341 342 342 343 346 347 349 352 353 353 354 353 353 353 353 353 353 352
319 320 321 324 319 315 315 316 319 322 321 324 321 315 315 316 318 327 335 338 339 341 342 341 341 340 340 340 339 337 337 336 335 336 336 336 335 334 334 334 334 335 335 336 336 337 338 339 340 341 343 344 344 346 347 349 351 352 351 351 352 352 352
320 321 321 324 322 317 315 315 318 320 321 324 319 314 318 321 320 328 342 342 336 338 341 341 340 340 340 339 338 336 336 334 334 334 334 335 334 332 333 332 332 333 333 333 334 334 335 336 337 338 339 340 341 341 341 342 344 346 348 349 352 353 352
321 321 320 322 321 320 319 318 317 318 319 320 317 317 323 321 319 329 344 341 337 340 341 340 339 338 338 337 336 334 332 333 333 333 332 331 331 331 331 330 330 330 331 331 331 332 333 333 333 334 335 337 338 338 339 340 341 342 345 347 350 352 351
318 319 319 321 320 319 319 318 319 319 320 320 319 320 322 322 328 338 344 340 340 342 340 340 338 335 335 334 334 333 331 331 331 331 330 329 329 329 329 328 328 328 329 329 329 329 330 330 330 331 331 333 335 336 338 339 339 341 343 345 349 351 351
317 318 318 319 319 318 317 318 319 319 318 318 320 322 321 324 331 339 340 341 343 342 339 338 335 334 334 332 333 334 331 330 329 329 328 328 327 327 327 326 327 326 327 328 327 327 327 326 326 327 329 330 332 333 335 336 337 340 342 345 349 350 350
314 316 317 317 316 317 315 314 318 317 316 318 318 321 323 322 327 335 338 339 342 341 338 337 334 333 333 332 332 332 331 330 329 327 328 327 327 326 326 326 325 324 325 326 326 326 325 324 324 324 326 327 327 330 333 334 335 338 341 346 347 346 347
313 315 317 315 315 314 312 314 318 318 317 318 318 321 325 323 327 335 338 338 340 341 337 335 334 334 333 333 332 330 330 330 328 327 327 326 326 325 325 325 325 324 324 324 325 325 325 325 324 323 324 324 325 328 331 332 333 335 339 343 343 342 343
312 314 315 315 314 312 314 319 323 322 319 319 319 320 325 327 329 336 339 339 340 338 336 335 335 333 333 333 331 329 329 329 328 327 326 325 324 324 324 324 325 325 324 323 324 325 324 325 323 322 323 323 323 325 328 329 330 333 337 339 339 338 339
314 314 315 315 314 315 320 323 325 324 324 322 322 325 327 329 332 337 338 338 337 336 334 334 334 332 331 330 329 329 328 328 327 326 325 324 323 323 323 323 324 324 323 323 323 324 324 324 324 323 323 323 323 323 324 324 327 330 335 338 337 335 334
316 315 314 316 318 320 324 325 323 323 326 325 325 326 327 328 331 335 337 337 336 335 332 332 332 330 329 329 328 327 325 325 326 324 324 323 322 322 322 322 323 323 322 321 322 323 323 324 324 323 323 323 323 323 322 322 324 327 332 336 336 335 333
317 314 313 318 322 321 323 326 325 322 324 325 324 323 325 327 329 332 335 335 333 332 331 332 331 328 328 330 328 325 323 322 323 322 323 322 321 321 321 321 321 322 320 320 321 321 321 322 322 322 322 323 323 324 323 322 322 324 327 329 330 332 334
317 314 313 317 319 318 320 324 325 323 323 325 324 323 324 327 328 329 332 332 331 330 330 330 329 328 329 330 329 325 322 321 320 322 321 321 321 320 319 320 320 319 318 319 320 320 320 321 321 320 321 321 323 324 325 323 322 323 324 325 324 327 330
316 316 315 314 317 320 323 325 324 323 322 324 323 320 321 326 328 328 330 330 329 329 328 328 329 328 328 329 328 324 321 320 321 320 320 320 319 319 318 319 317 317 318 318 319 318 318 319 319 319 320 321 322 324 325 324 323 323 323 324 324 324 325
314 316 314 314 320 326 328 324 321 320 321 321 319 316 318 325 327 326 327 328 327 326 327 326 326 327 327 327 326 323 321 321 321 320 319 319 318 317 317 317 316 316 317 317 317 317 318 318 317 318 319 320 322 323 324 324 324 324 324 324 324 324 324
312 313 312 315 324 329 325 321 320 317 318 317 316 317 322 326 326 325 325 326 325 325 325 325 325 327 325 324 323 320 320 320 319 318 318 317 317 317 317 316 316 315 316 316 316 316 317 317 317 317 319 320 321 323 323 324 325 324 324 325 325 325 325
312 313 311 315 324 328 323 320 320 317 316 317 319 323 326 325 324 324 323 323 323 323 323 323 324 323 322 321 320 319 318 318 317 318 318 317 317 316 316 316 316 316 316 316 316 316 316 316 317 317 318 320 321 322 322 323 324 324 325 326 326 326 326
313 313 312 314 322 326 322 319 320 317 317 321 325 326 325 323 323 323 323 322 322 322 322 322 321 320 319 319 319 317 316 316 317 317 317 318 317 316 316 316 316 316 316 316 317 316 315 316 316 317 318 319 321 322 322 323 324 324 325 326 326 326 325
314 314 315 317 321 324 322 321 321 320 321 324 325 323 323 322 322 322 321 321 321 321 320 321 320 319 319 318 317 316 316 316 317 317 318 318 317 317 317 317 317 317 317 317 317 316 316 317 318 318 318 319 320 322 322 323 323 324 324 324 325 326 326
317 317 320 321 322 322 321 321 322 322 322 323 322 322 322 321 320 321 321 320 319 319 319 318 318 318 318 317 316 316 316 316 317 318 318 317 318 318 317 317 318 317 317 317 317 317 318 318 318 319 319 320 320 321 322 322 323 323 323 323 324 325 326
318 319 321 321 322 322 320 321 322 323 322 320 319 320 320 319 318 318 319 319 318 318 317 317 317 317 317 316 316 316 316 316 317 318 318 318 318 317 317 318 317 317 316 317 317 318 318 318 319 319 319 319 320 321 321 321 321 322 322 323 323 324 324
317 317 319 321 321 321 320 321 322 321 320 319 318 318 318 319 318 317 318 319 319 318 317 316 316 316 316 317 317 316 316 317 317 318 318 317 317 317 317 316 316 316 317 317 317 317 318 318 318 318 318 319 320 320 320 320 320 320 321 323 323 324 324
317 317 318 319 320 320 319 320 320 320 319 317 317 316 317 318 318 318 318 318 318 317 316 316 316 316 315 316 316 316 316 317 318 317 317 317 316 316 316 315 315 315 315 316 316 316 317 317 317 317 318 318 319 319 319 319 319 320 321 322 323 323 324
320 318 319 319 319 320 319 319 319 319 319 318 318 317 316 317 318 318 317 317 316 316 316 316 316 316 315 316 317 316 316 317 316 316 315 316 315 315 314 314 314 314 315 315 315 315 316 316 316 317 317 317 318 318 318 318 318 319 320 321 321 322 323
323 322 322 322 321 320 319 318 319 318 318 319 319 318 317 317 318 318 317 317 316 316 316 316 316 316 316 317 317 316 316 316 315 315 315 314 314 314 314 313 313 314 314 314 314 314 315 315 315 316 316 317 317 317 317 317 317 318 319 319 320 321 322
323 323 322 321 322 322 321 319 319 318 318 318 318 319 319 317 317 317 317 316 317 316 316 316 316 316 316 316 316 316 315 315 315 314 314 313 313 313 313 312 313 312 312 313 313 313 314 314 314 315 315 315 316 316 316 316 316 316 317 318 318 319 319
322 322 321 321 321 322 321 320 319 319 319 318 318 318 319 318 317 317 317 317 317 317 317 316 315 315 315 315 315 314 314 314 314 313 313 312 312 312 311 311 312 312 312 312 312 312 313 313 314 314 314 314 314 315 315 315 315 315 316 316 317 317 318
320 320 320 320 320 320 320 319 319 319 320 319 318 317 318 318 318 317 317 318 317 316 316 316 316 315 314 314 313 313 313 313 313 312 312 312 311 311 311 311 311 311 312 311 312 312 312 312 313 313 313 313 314 314 314 314 315 315 315 316 316 316 317

ECMWFFLT2_925_thetae_081.txt.gz
Theta_e
327 328 326 327 326 324 328 325 321 327 330 327 319 316 317 315 316 327 337 340 343 347 351 352 352 354 355 356 354 355 357 358 359 360 360 361 362 361 361 363 366 360 354 357 358 354 353 353 351 352 353 352 354 357 356 355 356 355 357 358 357 356 357
326 327 326 327 328 328 326 320 322 329 329 327 323 319 319 316 318 332 339 337 339 340 344 349 351 354 355 355 354 354 355 354 354 355 358 359 360 360 361 363 362 359 356 357 358 356 356 354 352 352 354 354 355 358 357 357 357 356 356 359 358 357 357
325 327 327 325 327 330 328 324 327 327 321 321 322 319 320 317 322 341 345 339 341 340 341 344 346 352 357 355 353 352 351 350 349 351 355 356 356 357 359 360 360 359 358 358 357 355 354 353 353 353 354 355 356 358 359 358 359 358 356 359 359 359 359
324 325 324 321 323 329 331 328 328 326 322 322 321 319 320 317 324 346 350 344 347 349 351 353 350 349 353 352 350 348 347 347 346 349 354 354 353 355 358 359 360 359 356 355 353 353 352 352 353 352 353 354 355 357 359 360 360 359 358 360 361 361 360
320 320 321 321 321 325 326 323 321 321 322 323 320 319 318 316 327 343 346 346 349 351 355 360 358 350 347 347 347 346 345 345 344 347 350 350 352 356 358 356 357 357 355 351 349 352 353 352 353 353 352 353 355 356 358 358 360 360 358 359 360 360 361
315 317 322 323 323 324 324 323 321 320 321 319 318 322 320 315 323 335 342 347 351 351 349 353 354 349 344 345 345 345 345 344 344 344 344 346 352 357 353 347 348 352 353 351 349 350 353 354 354 353 353 354 355 357 358 356 357 359 358 359 359 359 359
317 320 323 321 322 324 323 325 326 324 323 318 315 319 321 318 324 334 340 346 352 352 348 350 351 345 343 344 344 344 344 344 343 342 341 343 347 349 344 341 345 347 348 350 350 349 352 353 354 353 353 355 356 357 358 356 357 359 359 360 361 360 359
326 323 323 323 322 322 321 323 324 323 322 320 320 322 324 325 331 339 344 348 353 354 351 350 348 344 343 343 342 342 343 343 341 340 340 342 342 342 340 338 341 342 344 348 349 349 350 351 353 355 356 357 357 357 357 357 359 359 358 358 360 360 358
324 321 323 327 325 321 320 322 323 324 322 321 326 328 330 332 333 337 345 349 352 353 352 349 345 343 343 342 341 341 342 341 339 338 339 340 340 340 338 336 337 339 342 344 346 348 348 349 352 355 356 357 357 356 357 357 358 358 355 354 356 355 354
326 327 327 326 325 322 320 320 321 323 321 321 325 325 328 335 337 338 343 347 349 351 352 352 348 343 341 342 341 340 340 339 338 338 338 338 338 338 336 336 336 337 338 340 342 344 346 347 349 350 350 352 353 354 355 355 355 354 352 351 352 351 349
327 329 331 330 327 321 317 317 319 320 320 323 328 325 328 339 344 342 342 345 347 347 347 349 346 341 342 343 341 340 340 338 337 337 337 336 336 336 335 335 335 336 336 337 337 338 339 341 343 344 345 345 345 346 348 349 350 351 351 352 352 350 350
325 327 327 325 323 319 316 316 317 319 321 322 323 323 327 338 346 346 346 344 343 344 346 345 343 341 342 341 340 340 339 338 337 336 335 334 333 333 333 333 333 333 333 334 335 335 336 336 337 339 340 341 341 341 342 343 345 347 350 351 351 351 351
323 325 324 322 322 320 319 319 318 318 320 319 319 320 323 335 345 347 349 345 342 343 345 344 343 341 340 339 338 337 336 336 337 335 334 333 331 331 331 331 331 331 331 332 332 333 333 333 334 334 336 337 338 338 339 341 343 345 349 351 351 350 351
321 322 322 322 320 319 319 319 319 320 319 318 319 320 324 339 346 347 348 347 344 343 343 344 342 338 337 338 337 335 334 335 335 334 333 332 330 330 328 328 328 328 328 329 329 329 330 331 331 332 333 334 335 335 337 339 342 345 347 349 350 349 349
320 319 321 321 319 319 318 317 319 321 319 319 319 319 328 343 347 346 347 347 345 345 343 341 338 335 334 336 336 335 334 332 331 331 330 329 328 328 327 326 326 326 327 327 326 326 326 327 328 329 330 332 333 333 334 338 342 344 344 345 346 346 346
320 319 319 318 318 319 315 315 320 321 318 318 319 320 329 341 344 344 345 345 345 345 342 338 335 333 333 334 334 334 332 330 329 329 328 328 327 325 325 325 325 325 326 326 325 324 324 324 325 325 327 331 332 331 333 337 340 340 340 341 341 341 342
320 318 317 317 318 319 316 318 322 324 323 321 318 321 331 338 343 345 344 344 344 342 339 337 334 332 333 334 333 332 333 331 329 328 327 327 326 325 325 324 324 324 325 325 325 324 323 323 323 323 325 328 329 328 331 336 337 334 333 336 338 337 338
320 320 321 320 319 317 319 323 324 324 326 324 320 326 335 340 343 345 345 343 341 339 336 336 335 333 332 332 331 330 330 331 330 328 327 326 325 325 324 324 325 325 324 325 325 324 323 323 323 323 324 324 324 324 327 333 336 333 329 330 332 333 335
321 323 323 321 320 321 323 327 326 325 326 327 327 332 338 342 341 343 344 341 338 337 336 335 334 333 331 330 330 329 328 329 329 329 327 326 325 324 324 324 324 324 323 324 325 324 322 322 322 322 323 323 322 322 323 329 335 334 330 329 328 328 329
321 322 320 320 324 328 329 328 327 327 328 329 330 332 336 341 341 340 343 342 339 337 336 334 333 332 331 331 331 328 327 328 327 327 327 326 324 323 323 322 322 321 321 322 324 323 321 320 322 322 322 323 323 322 322 326 330 330 329 330 330 329 329
322 320 319 324 328 328 330 331 329 328 329 329 330 331 334 338 340 339 340 341 339 337 334 333 333 331 331 333 331 327 326 326 324 324 325 324 322 322 321 320 319 319 319 320 322 321 319 318 320 321 322 324 324 323 323 324 325 324 324 326 327 326 327
325 321 321 325 328 327 330 333 329 327 328 328 331 334 333 334 338 338 338 338 337 336 334 333 332 330 331 333 331 324 323 323 322 322 322 320 320 319 318 318 317 318 318 318 319 318 317 317 319 321 323 324 324 323 323 324 324 324 323 324 323 321 322
323 323 321 322 326 331 335 334 328 325 326 328 331 332 329 333 337 337 336 336 336 335 334 334 333 333 335 334 329 323 322 322 320 320 320 318 317 317 316 316 317 317 317 317 317 317 316 317 318 320 322 323 323 323 323 324 325 324 324 324 324 322 321
320 322 320 321 329 335 336 330 323 321 324 326 328 326 326 332 335 334 335 335 333 334 336 337 337 336 337 335 327 322 321 320 319 319 318 317 317 316 316 316 316 316 316 316 316 316 316 317 318 319 321 322 322 322 323 324 324 324 325 325 325 324 323
319 319 316 321 331 333 329 326 324 323 324 324 323 326 332 336 334 331 333 334 330 331 333 334 333 330 329 328 323 320 320 319 318 318 317 316 316 316 316 316 316 316 316 316 316 316 316 317 318 318 320 321 321 322 323 323 324 324 325 325 325 326 325
318 318 316 323 333 332 325 326 326 324 325 324 325 330 335 333 329 328 331 333 329 327 328 329 326 323 322 321 320 319 319 319 318 317 317 317 316 316 317 317 316 317 317 316 316 316 317 318 318 318 319 320 321 323 323 323 323 324 323 324 324 325 325
319 318 316 322 331 329 324 325 325 324 327 331 333 334 332 329 327 326 328 329 326 323 323 323 321 321 320 320 319 319 319 318 318 318 317 317 317 317 318 317 317 317 317 317 317 318 318 318 318 319 319 320 321 322 322 322 323 322 322 323 323 324 324
322 322 320 325 331 329 325 328 328 326 330 334 335 332 329 328 328 326 326 326 324 322 321 321 320 320 320 320 320 320 319 318 318 318 318 318 317 317 318 317 317 317 316 317 317 318 318 318 318 319 319 320 321 321 320 320 321 321 321 322 322 322 323
325 327 327 329 331 328 327 330 331 330 330 331 330 327 327 328 328 327 325 323 322 322 321 320 321 321 321 319 319 319 319 318 318 318 318 318 318 317 317 317 316 316 317 317 317 317 318 318 318 318 318 319 320 320 319 320 320 320 320 321 321 322 323
323 326 329 329 328 328 328 329 331 330 328 328 328 328 328 327 327 328 327 323 322 323 322 321 321 322 322 321 319 319 320 319 318 318 318 317 317 317 316 316 316 316 316 316 316 316 316 316 316 317 317 318 319 319 318 319 319 319 319 320 321 322 322
323 323 327 329 328 329 329 328 329 329 328 327 328 329 328 326 326 328 327 325 324 324 323 323 321 322 324 324 322 321 322 320 318 318 317 317 316 316 315 315 315 315 315 315 315 315 315 315 315 315 316 317 317 317 317 318 318 318 319 320 320 320 321
327 325 326 327 328 327 327 328 328 328 326 326 327 328 327 326 326 325 324 323 323 323 323 323 321 321 323 323 322 322 323 321 318 317 316 316 315 315 314 314 314 314 314 314 314 314 314 314 314 315 315 316 316 316 316 317 317 317 317 318 318 319 319
328 326 326 329 330 327 325 327 328 327 327 327 325 325 324 323 323 323 321 320 320 320 321 322 322 322 322 321 321 323 322 319 317 316 315 315 314 314 314 314 313 313 313 313 313 313 313 314 314 314 314 314 314 315 315 315 316 316 316 316 316 316 317
327 327 326 329 331 330 328 327 325 324 327 327 325 323 323 323 323 323 322 319 318 317 317 318 321 325 324 320 319 320 319 316 315 314 314 314 314 313 313 313 312 312 312 312 312 313 313 313 313 313 313 313 314 314 314 314 314 314 315 315 315 316 316
327 327 327 327 329 330 329 327 324 323 324 325 324 323 324 325 323 322 323 322 321 321 318 316 318 323 322 318 317 317 316 314 314 314 314 313 313 312 312 311 311 311 312 312 312 312 312 312 312 312 312 313 313 313 313 313 313 314 314 315 315 315 315
325 325 326 326 326 327 327 327 328 326 323 323 326 325 325 326 322 319 321 322 321 322 321 317 316 318 317 316 316 316 315 315 314 314 313 312 312 311 311 311 311 312 312 312 311 311 311 311 311 311 311 312 312 312 312 313 313 313 314 314 315 315 315
324 324 325 325 325 326 325 325 328 326 321 322 325 325 324 324 321 319 320 319 318 319 320 318 316 315 315 316 316 315 314 314 313 312 312 312 311 311 311 311 311 312 311 311 310 310 310 310 310 311 311 312 312 312 312 313 313 313 313 314 314 315 315

ECMWFFLT2_925_thetae_084.txt.gz
Theta_e
329 327 329 330 326 328 329 325 325 328 335 337 327 322 322 325 337 343 342 345 349 351 352 356 363 359 356 357 357 357 358 358 358 358 358 358 361 361 358 361 365 355 349 350 351 351 350 348 348 348 349 350 350 351 352 351 351 352 353 352 351 350 350
329 326 329 329 327 332 327 320 326 332 331 333 332 326 320 329 345 346 344 347 346 347 352 355 361 362 359 360 359 358 357 358 360 359 359 360 359 357 355 356 357 353 350 350 350 351 350 348 348 349 349 351 351 351 352 352 352 352 353 353 353 352 352
328 328 326 325 327 331 328 324 329 328 324 325 328 324 320 331 347 349 346 346 344 346 349 352 359 362 360 358 355 353 354 356 359 358 356 355 353 352 352 354 357 355 353 351 350 350 351 350 349 349 349 351 352 352 352 353 352 352 352 354 353 354 353
325 328 326 323 324 329 330 330 330 328 330 329 324 321 324 336 348 351 347 346 348 353 356 357 359 357 355 354 350 348 351 352 354 353 351 351 351 351 352 354 358 357 354 352 352 351 351 351 350 349 350 350 352 354 353 353 353 353 353 354 355 355 354
321 321 326 327 327 328 327 326 324 321 325 326 323 321 324 336 347 349 347 347 349 354 356 356 355 352 352 350 346 346 348 347 347 346 347 348 349 351 353 354 355 355 355 354 353 352 352 351 352 352 352 351 353 355 355 355 355 355 355 356 357 356 355
316 319 325 327 330 330 325 323 324 323 323 323 322 321 322 332 341 342 345 349 348 349 352 351 349 349 349 346 344 345 345 344 344 342 342 342 343 346 350 352 352 353 354 354 353 354 353 353 353 353 353 353 354 356 357 356 357 356 355 356 356 355 354
320 320 324 323 323 325 325 324 325 326 327 324 321 319 323 333 337 339 345 349 350 350 351 351 348 347 346 343 343 343 342 342 342 341 339 339 339 340 342 346 349 351 352 351 353 354 353 354 354 353 354 354 353 354 354 354 355 355 353 352 353 355 355
333 326 327 329 326 323 323 323 323 324 321 323 327 327 333 340 340 343 348 351 351 350 351 350 347 346 345 342 341 341 341 341 340 340 339 337 338 338 337 340 343 347 349 350 352 352 353 354 354 353 354 353 352 352 351 351 353 353 351 352 354 356 356
337 333 332 332 330 326 324 321 322 322 319 324 332 334 343 346 341 343 350 352 351 349 348 347 345 345 345 342 340 339 339 340 339 338 338 337 337 336 335 336 337 340 343 344 347 349 350 352 352 351 352 352 353 353 352 352 353 352 351 353 355 354 354
335 331 328 329 331 328 324 321 320 320 321 324 329 333 343 346 342 344 349 351 351 349 348 347 345 344 344 342 340 338 339 339 338 337 337 336 335 334 334 335 335 336 337 337 340 341 343 346 347 346 346 347 349 350 351 352 352 350 351 354 355 352 353
340 339 339 338 333 324 318 318 318 318 320 326 335 338 340 342 345 349 349 348 349 348 348 348 345 344 344 342 340 338 338 338 336 336 336 335 334 333 333 333 333 334 334 335 336 336 337 339 340 341 342 343 344 346 349 352 350 349 350 353 354 352 351
332 338 340 333 325 319 316 316 318 319 319 325 337 341 339 341 346 350 351 348 347 347 348 348 345 344 344 343 340 338 337 336 335 334 334 333 331 330 331 331 332 332 332 333 333 334 334 334 335 336 338 339 342 344 347 349 349 350 352 352 351 351 350
321 325 327 324 322 320 318 319 319 321 320 319 326 335 343 349 347 347 350 348 346 347 346 345 344 344 343 342 340 338 336 335 334 333 332 331 329 329 329 329 330 330 329 330 331 331 332 332 333 334 334 336 339 342 345 349 350 351 351 351 351 351 350
322 322 321 322 323 319 318 321 324 323 321 321 329 336 344 353 351 347 348 347 347 348 345 343 342 341 341 340 339 338 336 335 333 332 331 329 328 327 326 327 327 328 328 328 329 330 330 330 331 332 334 337 339 341 345 349 351 351 350 350 350 349 350
321 322 320 319 321 319 320 323 324 326 324 323 336 345 345 347 348 346 346 348 348 347 346 345 341 338 339 339 339 339 337 334 333 331 329 328 327 326 325 326 326 325 325 326 327 328 328 328 329 330 333 337 340 341 342 345 347 348 349 349 349 349 350
322 320 319 319 323 322 321 323 323 326 326 320 327 343 347 345 346 345 346 349 347 343 345 347 342 337 337 338 336 336 334 332 330 329 329 328 327 326 326 326 325 324 324 324 324 326 327 327 329 330 331 335 338 338 339 340 341 344 345 346 347 348 348
326 320 319 323 328 325 323 325 323 325 330 328 331 343 347 343 344 345 345 346 344 341 341 342 339 336 336 334 331 331 330 329 328 327 327 326 326 325 326 326 325 324 323 324 323 323 324 326 327 327 328 332 335 334 333 336 338 339 341 343 344 345 346
325 324 327 332 330 324 323 326 326 327 333 338 342 346 345 342 343 344 344 342 342 340 337 336 335 334 332 331 329 328 328 328 328 327 325 325 324 324 324 325 326 325 324 322 322 322 323 323 323 324 326 330 334 331 328 330 331 331 333 336 337 339 342
323 329 334 331 324 323 327 328 328 330 333 338 344 345 343 343 342 340 341 340 338 337 333 331 331 330 328 328 327 327 327 326 327 327 325 324 323 322 323 324 324 325 324 322 322 321 321 322 323 323 324 328 332 331 328 327 328 327 328 329 331 332 334
324 329 332 329 324 326 335 336 331 333 334 337 345 347 342 340 339 337 339 338 335 332 330 328 328 327 325 326 325 325 325 325 325 325 325 324 322 321 322 321 321 323 323 321 320 320 320 322 324 324 322 325 330 331 327 326 328 327 326 325 325 327 329
325 325 331 337 333 328 333 335 331 331 330 331 344 348 341 338 339 336 336 336 334 333 332 332 332 329 326 327 326 323 323 323 323 323 323 322 320 319 319 318 319 321 321 319 318 319 321 323 324 323 322 323 327 327 324 324 324 324 323 321 321 321 323
330 330 332 336 332 328 334 339 334 329 325 329 343 347 338 338 341 337 335 335 335 334 334 335 335 333 332 331 328 323 321 321 321 321 320 319 318 318 317 317 318 318 318 317 318 320 323 323 324 322 321 322 324 324 324 323 324 324 323 323 322 321 320
329 329 327 327 327 329 337 344 338 325 321 330 343 342 335 336 337 335 334 334 334 334 335 336 336 337 337 334 329 324 320 319 319 318 317 316 316 317 316 316 316 316 316 317 318 319 321 322 323 322 320 320 323 324 324 324 324 324 325 325 325 325 322
326 326 323 325 331 333 336 339 333 323 325 332 332 329 329 332 335 336 335 334 333 333 334 335 338 338 335 330 326 322 318 316 316 315 314 315 316 316 316 316 316 316 316 317 317 318 319 320 321 321 320 321 323 323 324 324 324 324 324 324 325 325 324
325 324 317 321 333 337 332 329 325 323 326 328 327 326 329 331 334 336 335 334 333 332 331 334 337 337 331 325 321 318 316 316 315 314 315 316 316 317 316 316 316 316 317 318 318 318 319 319 320 321 321 322 322 323 323 323 322 322 322 323 323 323 323
324 325 319 321 332 335 328 326 330 329 323 321 326 330 330 330 330 331 332 332 332 331 329 328 329 328 323 319 317 317 316 316 315 315 316 317 317 317 317 316 316 317 318 318 318 319 319 319 320 321 322 321 321 322 321 321 321 321 321 322 322 322 322
326 326 320 319 325 328 326 326 330 331 325 326 334 333 326 326 329 329 331 331 329 327 325 322 321 320 318 317 317 317 316 316 315 316 316 317 317 317 317 316 316 317 318 318 318 318 318 318 319 319 320 320 319 319 319 319 320 320 320 320 320 321 321
326 328 327 326 327 330 334 332 327 326 328 334 339 334 325 323 325 326 329 329 325 321 320 319 319 318 317 318 318 317 318 317 316 316 316 316 316 316 316 317 317 317 317 317 317 317 317 317 318 318 319 319 318 318 318 318 319 319 319 320 320 321 321
327 331 333 335 334 333 335 335 332 329 328 330 331 327 323 323 322 322 324 324 321 319 317 317 318 317 317 318 318 317 318 317 316 316 316 316 316 316 316 316 316 316 316 316 316 316 316 316 316 317 317 318 317 317 317 317 318 318 318 319 320 320 320
325 328 328 329 331 331 330 331 332 328 326 328 328 325 324 323 321 320 322 322 320 319 318 317 318 317 318 318 317 318 318 317 315 316 316 315 316 316 315 315 315 316 315 315 315 315 314 314 315 316 316 316 316 316 316 317 318 317 317 318 318 317 318
323 325 327 328 329 329 328 327 328 326 325 329 329 326 325 325 322 321 322 323 322 320 319 319 318 318 318 319 319 318 318 317 315 315 315 315 315 315 314 315 315 315 314 314 314 314 313 314 314 315 315 315 315 315 316 316 316 316 316 316 316 315 316
325 323 327 332 331 328 328 327 326 325 324 326 327 325 324 324 322 320 318 320 322 321 320 320 319 318 318 319 319 319 318 316 315 314 314 314 314 314 314 314 314 314 313 312 312 313 313 313 313 314 314 313 314 314 314 314 314 314 314 314 314 315 315
329 326 328 332 328 325 328 328 326 326 325 324 324 323 322 322 323 321 318 317 317 318 317 317 318 319 318 317 317 319 317 315 314 314 314 314 314 314 314 314 313 312 312 311 312 313 313 313 312 313 313 313 312 313 313 313 313 313 313 314 314 315 315
330 328 328 330 326 326 330 330 326 327 326 325 323 323 322 323 324 323 322 318 315 315 315 314 317 320 319 317 315 316 315 314 313 314 314 313 314 314 313 312 312 311 311 312 312 313 312 312 312 312 311 311 311 311 312 312 313 313 313 313 314 314 314
333 331 331 332 330 329 331 328 325 325 326 326 326 324 323 323 321 319 321 322 320 319 316 313 315 318 317 315 314 314 313 313 313 314 314 313 313 313 312 311 311 311 312 312 311 311 311 310 310 310 310 311 311 311 311 312 312 312 312 313 313 313 313
329 327 331 333 329 328 329 327 326 326 323 323 326 326 325 324 320 316 317 319 320 322 319 315 315 316 314 314 313 312 312 313 314 314 314 312 312 311 311 311 311 311 311 310 310 310 309 310 310 310 310 311 311 311 312 312 312 312 312 312 312 312 312
324 324 329 330 327 329 331 329 327 324 320 319 323 325 324 322 320 317 317 315 315 318 318 316 315 315 314 314 314 313 313 313 313 313 312 311 311 311 311 311 310 310 309 309 309 309 310 310 310 310 310 311 311 311 312 312 311 311 311 311 311 311 311

ECMWFFLT2_925_thetae_087.txt.gz
Theta_e
328 327 328 330 327 324 324 322 323 331 335 333 330 325 326 336 344 344 345 349 355 357 354 357 361 358 358 360 359 359 359 358 359 359 357 356 354 355 356 360 362 356 348 346 344 343 343 343 343 343 345 346 347 348 348 348 349 349 348 349 349 348 348
326 326 327 329 328 330 327 320 325 329 325 330 333 326 331 346 349 346 348 352 353 351 351 357 364 363 359 360 359 359 360 360 359 356 354 354 355 357 358 358 357 355 350 349 347 345 344 344 344 343 344 346 347 347 347 348 349 349 348 349 349 349 349
325 329 327 324 325 331 331 326 327 328 321 323 326 325 333 347 350 350 349 349 349 349 350 356 362 361 359 359 359 359 360 359 357 354 353 355 356 357 357 357 358 355 352 351 349 347 345 344 345 344 344 346 347 347 347 348 348 348 348 349 349 349 350
322 329 329 324 324 325 330 331 327 328 328 326 323 323 334 345 348 351 350 348 349 351 354 358 358 356 356 358 357 357 355 354 353 351 353 355 355 356 356 358 359 356 353 352 350 348 348 347 347 346 346 347 349 348 349 349 349 349 351 351 351 351 351
321 325 327 327 329 326 326 328 324 322 323 323 321 321 331 344 349 349 349 351 352 350 352 358 357 352 353 354 352 349 348 349 349 349 351 353 354 354 354 356 357 356 354 353 351 351 350 350 349 348 349 350 350 350 350 349 350 350 352 353 352 352 352
317 321 325 325 329 329 329 327 321 322 320 320 322 318 323 341 347 343 347 353 353 351 351 353 352 349 349 348 347 346 345 344 345 346 348 350 352 354 354 354 355 356 355 354 353 352 351 351 350 350 351 352 353 352 351 351 350 351 351 351 352 353 353
322 322 324 323 323 324 328 324 321 325 323 323 325 322 325 339 343 342 347 352 352 351 353 352 348 347 346 345 344 344 342 342 342 343 344 344 345 348 351 352 353 353 352 352 353 353 353 353 352 352 352 352 354 354 352 352 352 352 351 350 352 353 353
338 331 327 328 326 324 325 322 322 322 319 321 330 333 339 345 345 347 351 352 352 351 353 351 346 346 344 342 343 343 342 342 342 341 341 340 340 342 344 346 349 349 349 348 350 350 352 354 353 352 350 350 353 354 353 353 353 353 352 352 353 354 353
333 332 330 327 326 327 327 324 322 320 321 326 332 339 350 349 344 346 349 350 352 352 351 348 344 344 343 341 341 341 341 341 340 339 339 338 338 339 339 339 341 344 345 345 345 346 347 351 352 351 350 350 352 352 351 351 353 354 353 353 353 355 355
327 326 326 323 322 326 327 325 321 321 322 325 328 337 348 347 342 344 347 349 352 352 350 348 345 343 342 341 340 339 339 339 338 338 337 336 336 337 338 337 336 338 340 339 339 340 342 346 349 350 350 351 351 351 349 350 352 353 353 353 353 354 355
329 329 333 334 329 323 321 321 324 325 322 327 337 340 342 346 346 347 349 350 351 351 350 348 346 343 342 341 340 339 338 338 336 336 335 334 334 334 335 334 334 335 335 335 336 336 338 341 344 347 348 349 351 350 349 350 351 352 352 352 352 353 355
323 326 331 332 327 321 320 321 325 326 323 333 346 339 334 342 346 347 351 351 350 351 350 348 345 343 341 341 340 339 337 336 335 334 333 331 331 332 332 332 332 333 332 333 334 335 335 337 340 344 346 348 349 349 350 350 350 350 351 351 351 352 351
320 320 320 322 323 322 324 324 324 327 329 337 346 342 342 347 344 345 350 350 349 350 348 346 345 342 340 339 338 336 335 335 333 332 331 329 329 330 331 331 332 332 331 332 333 334 335 337 339 341 343 345 346 348 349 349 348 349 350 349 350 350 348
321 320 319 322 323 323 326 326 324 326 332 343 349 347 349 352 348 347 350 349 350 350 346 344 343 340 338 337 336 335 334 334 333 331 329 328 327 328 329 329 329 329 329 330 331 333 335 337 339 340 342 343 346 348 348 348 348 349 348 348 349 350 349
322 321 320 320 323 325 327 326 325 325 330 340 349 351 351 352 349 348 349 349 350 349 346 343 341 339 338 336 335 335 334 332 331 330 328 326 326 326 326 326 327 327 328 329 329 332 334 336 338 339 340 343 345 347 347 346 347 349 349 349 349 349 350
323 321 320 320 325 327 327 326 325 326 328 329 336 347 351 351 349 347 349 350 349 346 345 343 340 338 337 336 335 334 333 332 330 329 327 326 325 324 324 325 325 326 326 327 328 330 331 334 336 338 339 342 343 344 344 344 344 346 347 348 348 347 348
328 323 322 327 332 330 329 329 324 323 330 335 340 348 349 346 346 348 349 350 346 343 343 342 340 339 338 337 335 333 332 331 329 328 327 326 325 324 324 325 325 324 323 325 327 327 328 331 333 335 337 338 340 340 341 342 342 343 344 345 345 346 347
335 329 328 331 334 331 329 331 327 325 333 342 346 345 344 343 346 348 348 346 343 343 341 340 340 338 337 335 332 330 329 329 329 328 327 325 325 324 324 324 324 322 322 324 325 325 326 329 330 332 333 334 335 335 336 339 340 341 342 342 342 342 342
336 339 338 329 327 329 329 330 328 327 333 339 342 341 338 339 344 346 346 343 341 341 339 336 335 333 330 329 328 327 327 326 327 328 327 326 325 324 324 324 323 323 322 323 323 323 326 329 329 329 330 331 331 330 330 331 333 333 333 333 333 334 334
326 338 341 331 327 328 332 335 331 329 330 334 342 346 339 336 340 344 343 339 335 334 332 329 329 327 326 326 326 325 325 324 324 326 327 326 324 322 323 324 323 322 321 322 323 323 323 326 328 330 331 331 330 330 327 324 324 323 323 323 323 324 326
325 333 335 334 334 331 334 339 332 326 325 324 335 347 341 334 339 340 336 334 331 329 328 327 326 325 325 327 327 324 323 323 323 323 323 322 320 320 320 320 320 320 321 322 323 323 323 324 327 330 330 328 327 327 324 323 323 323 323 323 322 321 321
333 337 333 330 331 331 338 340 331 325 323 318 328 346 345 337 339 338 334 332 330 327 327 326 326 327 329 329 327 323 322 322 321 320 318 317 317 317 317 318 319 320 321 323 322 322 323 323 325 326 326 325 324 324 324 324 324 324 324 324 324 322 321
332 337 333 328 326 329 336 338 331 323 320 318 328 346 348 338 336 336 334 333 332 330 329 328 328 330 333 331 328 324 322 321 318 317 316 315 316 316 316 318 319 319 320 321 321 321 322 322 323 324 323 324 324 323 323 323 322 323 323 323 323 323 322
331 333 329 326 328 330 331 333 329 321 319 321 327 338 340 335 335 336 333 333 336 335 335 337 335 332 331 328 325 322 320 317 315 315 315 315 315 316 317 317 318 318 319 320 320 320 321 322 322 323 323 323 323 322 322 321 321 321 321 321 322 322 322
329 328 319 317 325 330 330 329 326 323 321 320 324 331 332 331 334 337 334 333 335 335 337 341 340 333 328 324 322 320 317 315 315 314 315 315 316 316 317 317 317 318 318 319 320 320 321 321 321 321 322 322 321 321 320 320 320 320 320 320 320 320 321
320 324 321 319 324 328 328 327 328 327 321 319 326 330 327 329 335 337 334 333 333 333 334 336 336 333 329 324 320 318 316 315 316 316 316 317 318 317 318 317 318 318 318 319 320 320 320 321 321 320 321 320 320 320 319 319 319 319 319 319 320 320 320
322 328 325 321 322 326 326 325 327 327 322 324 334 330 323 327 333 333 333 333 332 332 332 330 330 329 326 321 317 316 316 316 316 316 316 316 317 318 318 317 317 318 317 318 318 318 319 320 320 320 320 319 318 318 318 318 318 318 319 319 320 320 320
327 331 329 325 326 329 327 325 327 329 326 330 339 332 321 324 329 330 333 333 329 330 329 324 323 322 320 318 316 315 316 317 315 315 315 316 316 317 317 317 317 317 317 317 317 317 317 318 318 318 318 317 316 316 317 317 317 317 318 318 319 318 318
323 327 330 331 329 328 327 325 327 330 327 328 333 329 323 324 325 327 331 330 326 327 325 320 319 317 316 316 316 316 316 316 315 315 315 315 316 316 317 317 317 317 316 316 315 316 316 316 316 316 316 316 316 316 316 317 317 317 317 316 316 316 316
321 323 326 327 326 329 330 328 325 325 324 326 327 325 324 324 323 324 328 330 329 328 327 326 325 322 319 317 316 316 317 316 315 315 315 315 316 316 316 316 316 316 315 314 314 314 315 315 315 315 315 315 315 315 315 315 316 316 316 315 315 314 314
323 324 325 326 326 327 329 330 327 326 327 327 325 324 323 321 320 321 324 327 327 324 324 327 326 324 324 321 317 316 317 316 315 314 314 315 315 315 315 315 315 315 314 313 313 314 314 315 314 314 314 314 313 313 313 314 314 314 314 314 314 314 314
325 325 326 328 326 323 324 326 327 327 328 328 324 323 322 321 320 319 317 318 320 320 320 322 322 322 324 322 318 316 316 314 313 313 313 314 314 315 315 315 314 313 312 312 313 314 313 314 313 313 313 313 312 312 312 313 313 313 313 313 314 314 313
328 325 325 326 323 321 324 325 324 324 326 327 325 323 321 320 320 320 317 315 315 315 316 317 318 319 320 318 317 317 316 313 312 313 313 313 314 314 314 314 313 312 311 312 313 313 313 313 313 313 312 312 312 311 311 312 312 312 312 313 313 313 313
329 329 327 325 323 326 328 325 323 324 325 328 328 326 325 323 321 321 320 317 315 314 314 315 317 318 318 316 315 316 315 314 312 312 313 313 314 314 314 313 312 311 311 313 313 312 312 311 311 311 311 310 310 311 311 312 312 311 312 312 312 311 311
332 332 333 330 329 331 330 325 325 325 325 329 330 328 328 329 323 318 320 320 319 317 315 313 315 317 316 315 315 314 314 313 313 313 313 313 313 314 313 312 311 311 312 312 312 311 310 310 310 310 310 310 310 311 311 312 311 311 311 311 311 311 310
328 329 334 332 326 325 326 329 332 326 321 325 329 328 329 329 321 316 317 319 317 318 317 314 313 314 314 314 314 313 312 313 313 313 313 313 313 313 312 311 311 312 312 312 311 310 309 309 309 310 310 310 311 311 311 311 311 311 311 310 310 310 310
323 326 333 332 327 328 329 328 328 322 317 320 326 326 325 323 318 316 318 316 314 315 316 314 313 314 314 314 313 313 313 313 313 313 313 313 313 312 312 311 312 312 311 310 309 309 309 309 310 310 310 311 311 311 311 311 310 310 310 310 310 309 310

ECMWFFLT2_925_thetae_090.txt.gz
Theta_e
324 324 323 322 321 319 321 328 334 340 345 346 340 334 335 338 342 345 344 347 356 355 349 354 359 356 356 358 357 357 358 357 357 358 358 357 357 358 361 363 357 345 340 341 341 341 342 343 344 345 346 348 348 349 349 349 349 349 349 349 349 349 349
322 324 323 323 323 324 323 322 327 331 332 336 339 338 340 342 341 342 345 350 354 350 346 354 362 362 361 360 358 358 358 357 357 357 356 357 358 358 359 362 358 349 342 341 341 341 342 342 344 344 345 347 348 348 348 349 349 349 349 348 349 348 348
323 326 325 321 322 325 326 325 325 327 327 328 329 334 342 343 343 348 350 348 350 349 351 357 361 360 362 363 360 359 358 357 357 355 355 356 357 358 359 360 359 353 347 343 342 341 341 342 343 343 344 346 347 347 348 349 349 349 349 349 348 348 347
320 327 327 322 322 324 325 325 323 326 331 330 324 328 340 344 346 352 351 347 350 355 358 361 358 356 360 363 362 361 358 356 356 354 354 356 356 358 360 358 357 355 351 348 346 344 342 342 342 343 343 345 346 346 347 348 348 348 349 349 348 348 347
320 324 326 324 326 325 323 323 320 321 325 325 324 325 334 346 350 350 348 348 353 355 354 357 357 353 355 359 361 360 356 354 354 354 355 355 356 357 358 358 357 355 353 351 350 347 344 343 343 343 342 344 346 346 347 347 348 348 348 348 349 348 348
317 321 325 325 325 326 330 326 322 324 323 322 325 322 327 344 350 346 346 349 352 352 349 351 352 351 352 353 355 356 354 353 353 353 353 354 355 355 356 357 357 355 354 353 352 350 347 346 346 345 344 344 345 346 347 347 347 347 348 348 348 348 348
323 323 324 323 321 322 328 324 321 327 325 325 329 326 328 341 345 345 345 346 348 347 348 350 349 348 348 348 351 352 351 350 349 350 350 350 353 354 353 355 355 354 354 353 352 351 350 349 347 347 347 346 347 347 347 347 347 346 347 347 347 349 349
332 329 328 326 323 323 324 322 322 321 318 325 334 338 343 345 346 348 344 343 349 348 348 349 346 345 345 345 348 349 346 346 346 345 346 346 349 351 351 352 352 351 351 351 351 351 350 350 348 348 350 349 349 349 347 348 348 347 347 346 347 350 350
319 326 331 326 325 328 327 325 324 321 326 336 337 341 352 349 345 346 341 342 350 348 345 346 343 344 344 342 344 345 343 343 342 342 343 343 345 347 347 348 347 346 347 347 349 350 351 350 349 349 351 351 350 349 348 348 348 348 348 347 347 350 351
322 324 327 324 324 328 327 326 326 324 330 339 338 339 345 344 341 344 341 344 351 348 345 346 344 344 343 342 342 341 340 340 339 340 341 341 342 343 342 341 340 340 341 344 346 349 351 351 351 350 350 350 350 350 350 350 350 349 349 348 349 350 350
328 326 331 333 329 326 323 324 326 325 326 337 345 341 337 340 343 345 348 350 351 350 348 346 345 344 343 342 341 340 339 337 336 337 337 337 338 338 338 337 336 337 339 341 343 346 349 350 351 349 349 349 349 349 350 352 351 350 350 350 350 350 350
322 322 328 332 328 324 323 325 326 328 332 340 344 336 332 339 342 343 350 352 350 351 349 345 345 345 344 342 341 339 337 334 334 335 335 335 334 335 335 335 335 336 337 338 338 340 344 347 348 350 349 349 349 350 351 352 352 352 351 351 351 351 351
320 320 320 323 327 325 323 325 324 328 339 348 346 342 341 343 341 343 349 351 350 351 347 345 344 343 342 342 338 336 334 332 332 333 334 334 333 333 333 333 335 336 336 336 336 337 340 343 345 347 348 348 349 350 350 350 350 351 351 351 351 350 350
321 321 319 320 326 327 325 325 323 325 337 348 352 352 350 348 346 347 349 349 350 350 346 343 342 340 339 338 336 334 332 331 331 331 332 333 331 331 331 332 333 334 334 334 335 337 339 340 342 344 346 347 347 348 349 349 349 349 350 350 349 349 349
324 323 324 321 324 328 326 325 323 324 331 340 347 350 351 352 351 346 346 351 351 346 343 342 339 338 337 336 335 334 332 330 330 329 330 330 329 329 328 329 330 330 332 334 335 336 338 339 341 342 344 346 346 347 348 347 348 348 347 348 348 347 348
326 325 327 325 328 331 327 324 324 326 331 334 336 340 345 350 352 348 348 352 350 344 341 340 338 337 337 336 335 334 331 329 328 328 328 328 327 327 327 327 328 329 331 333 333 334 335 337 339 340 341 343 344 345 345 345 346 346 345 346 346 346 348
327 328 330 330 335 336 329 326 324 325 333 339 340 341 342 342 345 348 349 349 346 342 340 340 338 337 336 335 333 332 331 329 327 326 326 326 325 325 325 326 327 328 329 329 328 330 333 335 336 337 339 340 340 341 342 343 343 342 342 344 345 345 346
331 334 336 335 338 336 328 325 324 326 333 341 345 343 338 337 340 343 345 345 343 341 340 339 338 336 335 334 332 330 329 327 327 326 325 325 324 324 323 324 325 325 325 326 327 329 332 333 333 333 336 336 336 337 338 338 338 337 336 337 338 340 342
334 339 338 333 334 333 328 325 325 326 326 329 338 340 334 335 341 342 342 343 341 341 340 337 336 334 332 331 329 328 326 325 326 326 326 325 323 322 323 324 324 324 324 326 328 328 329 330 330 331 331 330 329 329 329 329 330 330 329 329 330 331 334
332 339 337 333 332 329 331 331 326 324 322 320 334 345 337 334 339 341 339 336 335 336 335 332 331 330 328 328 327 326 325 325 325 326 326 326 324 323 323 323 323 323 324 326 327 327 328 330 331 329 327 325 324 324 324 324 324 324 324 324 325 326 327
330 335 334 335 332 325 330 334 325 322 322 317 326 342 341 334 336 337 334 332 331 331 329 328 327 326 326 328 327 324 324 324 323 323 323 323 323 322 321 322 322 323 324 326 327 328 329 329 328 326 324 323 324 324 323 323 323 322 322 323 324 324 324
329 335 335 333 332 329 332 333 327 324 323 317 322 337 342 336 334 333 330 330 330 328 327 327 327 328 330 331 328 323 322 321 320 319 319 319 319 319 320 321 322 322 323 325 327 329 328 325 325 324 323 323 323 322 322 322 322 322 322 322 323 322 322
331 337 336 330 330 333 333 331 328 324 321 318 323 334 339 335 333 332 329 328 328 327 327 327 328 331 334 332 328 324 320 318 317 318 317 317 318 319 321 321 321 322 323 324 326 327 325 324 323 323 323 323 322 321 321 321 321 321 321 321 322 322 321
335 336 331 326 328 331 330 329 328 323 319 320 328 335 334 331 333 332 329 329 331 330 330 331 333 335 334 330 327 322 318 316 315 316 316 316 317 319 320 320 321 321 322 323 324 324 324 323 323 323 323 322 321 320 320 320 320 320 321 321 321 321 321
333 328 318 317 323 328 326 325 325 323 320 321 331 336 329 326 332 333 330 330 331 330 332 336 338 337 331 326 322 318 315 315 315 315 315 317 318 319 319 320 320 321 321 322 322 322 322 323 322 322 322 321 320 319 319 319 319 320 320 320 320 320 320
321 322 321 320 322 323 323 323 325 325 321 320 327 330 325 325 332 334 331 329 329 330 333 334 333 329 323 320 318 316 315 315 315 315 316 317 318 318 319 319 320 320 320 320 321 320 321 321 321 321 321 320 319 318 318 318 319 319 319 319 319 319 319
319 327 330 326 322 322 323 325 328 326 322 322 327 328 326 329 333 334 333 331 329 331 332 329 326 323 321 320 319 316 316 315 315 316 317 317 318 318 318 319 319 319 320 319 319 319 319 319 319 319 319 318 318 318 318 317 318 318 317 318 317 317 318
326 333 332 328 327 324 322 324 326 325 322 323 327 327 327 330 331 331 334 334 329 330 330 326 324 324 323 322 319 316 316 316 316 316 317 317 317 317 317 318 318 318 319 318 318 318 318 318 318 317 317 317 317 317 317 317 316 316 316 316 316 316 316
323 327 330 330 328 325 322 323 325 327 324 323 324 323 325 331 330 328 332 334 330 328 326 323 323 323 321 319 318 317 317 316 315 316 316 316 317 317 316 317 317 317 318 317 317 317 317 317 316 316 316 315 315 315 315 315 315 315 315 314 314 314 314
319 321 323 324 324 324 325 325 323 322 323 323 322 321 323 327 327 327 331 333 329 326 323 322 322 321 319 319 318 318 317 315 314 315 316 316 316 316 316 316 316 317 316 316 316 315 315 315 315 315 315 314 314 314 313 314 314 314 314 314 314 313 313
322 323 323 323 324 324 325 326 325 323 322 322 322 322 322 321 321 324 328 329 327 325 323 324 325 322 320 320 321 320 318 316 315 315 315 316 315 315 315 315 315 316 315 315 315 314 314 314 314 314 314 313 313 313 313 313 313 313 313 313 313 313 313
324 323 322 324 325 324 322 324 326 325 324 323 322 322 321 320 318 319 319 321 324 324 322 323 323 321 319 319 320 320 318 316 314 314 314 314 315 315 315 315 315 315 314 314 314 314 313 313 313 313 313 313 313 313 313 312 312 312 313 312 312 312 311
327 324 322 322 322 322 321 321 322 323 323 324 325 325 324 322 320 318 316 316 319 320 319 318 319 319 318 316 317 318 317 314 313 314 314 315 315 314 314 314 314 313 313 314 314 313 313 313 313 313 312 312 311 311 311 311 311 312 312 311 311 311 310
329 328 326 323 322 325 325 321 320 321 322 325 329 328 326 326 323 321 319 316 315 316 317 316 317 319 319 316 315 315 315 314 313 314 314 314 315 314 314 313 312 312 313 313 313 313 313 312 312 312 311 310 310 309 310 311 311 311 311 311 310 310 310
332 332 333 329 327 331 330 324 324 325 323 326 330 327 326 327 322 318 319 318 317 317 317 315 316 318 316 315 314 314 314 314 314 314 314 314 314 314 313 311 312 312 313 313 312 312 312 312 311 311 310 309 309 310 310 311 310 310 310 310 310 310 309
328 329 334 331 325 324 323 323 328 327 320 321 326 326 325 324 318 313 316 317 315 316 316 314 315 316 314 314 314 314 313 314 313 313 314 314 314 313 312 311 311 312 312 312 312 311 311 311 310 309 309 310 310 311 311 311 310 310 310 309 310 309 309
322 326 333 330 325 325 324 321 322 320 316 318 323 323 321 320 316 313 315 315 313 314 315 313 314 314 314 314 314 314 314 314 313 313 313 313 313 313 311 311 311 312 312 312 311 311 310 309 309 309 310 310 310 311 311 310 310 310 310 309 309 309 309

ECMWFFLT2_925_thetae_093.txt.gz
Theta_e
320 320 320 320 319 317 319 324 325 326 334 334 327 327 330 329 330 335 336 333 336 339 343 352 354 349 349 350 352 355 355 356 358 358 356 353 352 353 351 347 345 347 348 347 347 348 348 349 350 350 350 349 349 349 349 349 350 350 350 351 351 351 351
319 320 320 319 319 321 319 318 324 330 332 332 329 327 331 330 328 331 333 331 332 332 336 352 359 353 352 353 353 356 356 355 356 357 357 356 355 354 353 349 346 346 347 347 347 347 348 348 349 349 349 349 349 350 350 350 351 351 351 351 351 351 351
319 319 319 318 319 321 319 320 327 329 323 324 326 326 328 329 329 330 332 334 333 330 333 348 358 356 356 355 355 356 356 355 354 355 358 358 357 357 355 352 349 347 346 347 347 347 347 348 349 349 349 350 350 350 351 351 352 351 351 352 352 350 350
319 320 319 316 316 319 320 323 326 325 322 322 323 324 324 325 328 328 330 334 334 334 340 352 358 358 357 356 357 356 356 355 353 354 356 357 357 358 358 355 353 351 349 347 346 347 347 346 347 348 348 349 350 350 350 350 351 352 351 351 351 350 350
317 318 320 318 319 319 318 320 320 319 321 323 323 325 324 325 328 328 327 328 331 338 347 354 357 357 356 356 357 357 355 354 353 353 354 356 355 354 355 355 354 353 352 351 348 347 345 344 344 345 346 348 349 350 350 349 350 351 351 350 350 349 349
315 317 320 320 322 322 320 320 320 318 320 320 318 322 327 328 328 329 326 323 329 341 346 349 353 355 355 356 355 356 356 354 353 352 352 354 354 353 354 354 353 353 353 353 352 348 346 345 343 343 344 346 347 348 349 350 350 351 351 350 349 349 348
318 320 320 318 317 320 321 320 321 322 323 320 314 316 326 329 329 331 328 323 332 344 345 347 352 354 354 355 355 355 356 354 353 352 350 352 353 354 356 356 355 355 355 354 352 348 348 347 344 342 344 345 345 346 347 348 350 350 349 349 348 348 349
320 320 319 319 317 319 319 318 320 321 319 320 319 322 328 328 327 331 326 324 336 346 346 348 350 351 353 354 355 355 354 354 353 352 351 352 352 353 355 355 356 356 356 355 352 349 349 349 346 345 346 345 345 345 346 346 347 347 347 348 348 348 348
317 317 316 317 319 320 320 320 321 320 322 327 328 332 334 328 329 332 324 322 336 346 346 348 349 350 352 352 352 352 352 352 351 351 351 352 352 353 353 353 354 355 354 354 353 351 351 350 349 348 347 345 344 345 345 345 346 346 347 348 348 347 346
316 318 318 317 319 321 320 323 325 323 326 330 329 331 329 326 334 337 324 323 340 348 347 348 350 351 352 350 349 348 348 348 348 349 350 351 351 351 351 351 351 351 352 352 352 351 351 351 350 349 348 345 344 344 345 345 346 346 347 348 348 348 346
318 320 321 319 322 324 322 324 328 328 329 330 332 330 324 326 335 335 331 336 346 350 349 349 350 350 349 349 347 346 346 345 345 346 346 347 346 345 346 346 346 348 349 351 351 351 352 352 351 350 349 348 348 347 347 347 347 347 347 346 346 347 346
318 320 321 321 323 326 326 327 329 332 334 333 331 327 327 334 332 328 339 348 346 347 349 349 350 348 346 347 345 345 344 342 343 343 343 344 343 342 343 344 345 347 347 348 348 348 350 352 352 351 351 351 350 350 350 349 349 349 348 346 346 348 348
320 320 319 321 325 326 328 330 330 333 336 336 334 331 335 341 331 327 343 351 346 347 349 347 349 347 345 345 343 342 342 341 341 342 343 343 342 342 343 344 344 344 343 343 343 344 347 349 350 351 350 351 351 351 351 351 351 351 351 350 349 350 349
321 322 320 321 325 325 327 331 331 333 336 337 338 339 341 343 340 338 345 350 348 348 346 346 347 345 343 342 341 340 341 342 342 342 343 342 342 342 342 342 341 340 341 341 342 343 345 346 347 348 349 350 350 349 350 350 351 352 352 351 350 351 351
318 322 322 321 324 325 324 326 329 333 336 337 339 341 342 343 345 345 345 348 349 347 345 345 344 342 341 340 340 341 341 342 342 341 341 340 340 340 339 338 339 339 341 342 342 343 344 344 345 346 348 349 348 347 348 349 350 351 350 350 350 349 350
320 321 322 322 324 325 322 322 325 329 334 337 338 339 341 342 345 347 345 345 346 345 344 344 341 340 341 340 340 341 340 341 341 341 340 339 338 337 336 337 338 339 340 340 340 341 341 341 342 343 343 344 345 346 346 347 349 349 349 350 349 349 349
325 322 322 325 324 323 323 321 321 325 330 336 339 339 339 339 341 344 342 341 343 345 343 343 342 340 340 340 339 338 338 339 339 339 339 338 337 337 336 336 336 336 338 339 338 338 338 338 338 338 339 340 341 342 343 344 345 346 347 347 347 347 348
330 326 325 326 325 324 324 320 319 322 324 330 339 339 337 337 339 340 341 340 342 344 343 343 343 340 338 336 335 334 335 335 335 335 335 335 335 335 334 333 333 334 337 337 336 335 335 335 334 334 335 335 335 337 338 339 341 341 341 341 342 343 344
334 335 329 324 326 327 323 319 321 322 319 321 333 337 335 336 338 339 340 341 341 343 343 341 340 337 333 331 330 329 330 332 333 332 331 332 333 333 332 331 332 334 334 335 334 333 332 331 329 329 330 330 330 330 331 333 334 335 335 335 335 336 337
329 334 330 325 327 327 323 322 323 322 318 320 329 336 335 334 335 337 340 341 341 341 339 337 335 332 329 328 327 326 327 329 330 330 329 329 330 331 331 330 331 333 332 332 332 331 329 327 326 326 326 326 326 326 326 327 328 329 329 329 328 328 328
324 328 327 325 326 324 324 325 323 321 321 320 324 332 335 332 331 334 338 340 339 337 335 333 330 329 329 330 327 325 324 326 326 327 328 327 328 329 329 329 330 330 330 330 329 328 326 325 324 324 324 323 323 323 323 324 324 325 325 325 324 323 323
323 325 323 324 324 323 324 324 322 322 322 319 319 326 332 333 330 331 336 339 337 335 333 331 330 332 335 335 330 325 323 324 324 325 325 325 326 326 326 328 329 328 329 329 327 325 324 323 323 323 323 323 322 322 321 321 321 322 323 324 323 322 322
322 324 322 323 325 326 326 324 322 322 320 318 320 322 326 330 330 329 333 337 336 334 333 331 333 337 340 338 331 324 322 323 322 323 323 324 325 325 326 327 328 328 329 328 326 325 324 323 323 323 323 322 322 321 321 321 320 320 321 321 322 322 322
322 322 321 322 324 325 325 323 322 321 319 320 322 321 321 325 328 328 330 334 335 334 333 333 336 340 342 340 331 323 322 323 323 323 324 324 325 325 325 327 327 328 327 327 326 326 324 324 323 322 321 321 321 321 322 322 322 322 320 319 319 321 321
318 318 319 321 322 322 322 322 322 321 320 321 324 324 323 324 326 328 329 331 333 333 332 334 337 338 339 336 328 322 323 324 323 323 323 324 324 324 325 326 326 326 326 325 325 324 323 322 321 320 320 320 320 320 321 321 321 321 320 319 318 319 320
316 316 317 318 319 320 320 321 323 323 322 321 323 324 323 322 325 328 328 327 329 331 331 331 332 331 331 328 323 321 323 323 322 321 322 323 324 324 325 325 325 324 324 324 323 323 322 321 320 320 319 319 319 319 318 319 319 318 319 319 319 319 319
316 316 315 315 319 321 319 321 325 325 324 323 322 323 323 322 322 326 329 327 327 329 328 327 327 327 327 324 322 321 322 321 321 322 323 324 324 324 324 324 323 323 323 322 322 322 321 321 321 320 319 319 319 318 317 317 317 317 318 318 318 318 318
317 316 316 318 320 321 319 321 324 324 322 322 321 322 323 323 322 324 328 328 327 328 327 325 324 326 325 322 321 320 319 320 321 322 322 323 323 323 323 323 323 322 321 320 320 319 319 319 320 320 319 319 319 317 316 316 316 316 316 316 316 317 317
318 318 319 320 320 319 318 320 321 321 319 319 319 320 321 321 320 322 327 329 327 327 326 324 324 324 323 320 319 319 319 320 321 322 322 322 322 322 322 321 321 321 320 319 318 317 317 317 317 318 318 318 318 316 315 315 314 314 314 314 315 317 317
319 319 319 319 320 321 320 319 319 319 319 318 317 319 320 319 319 320 325 328 327 326 325 324 324 323 320 318 318 318 319 320 321 321 321 321 321 321 320 320 320 319 319 319 317 317 316 315 315 316 315 316 316 315 314 314 314 314 313 314 315 317 317
320 320 320 321 321 321 320 320 320 319 318 317 317 318 319 318 319 321 324 326 326 325 324 324 323 321 319 320 319 319 319 320 320 321 321 320 320 320 319 318 318 318 319 319 318 317 316 315 315 314 314 314 314 314 314 315 314 313 313 314 315 316 317
320 321 321 320 320 320 319 319 320 319 318 318 318 317 317 317 319 321 322 323 324 324 324 323 322 320 319 320 320 319 320 321 321 321 321 321 320 319 318 317 317 318 319 319 318 317 316 315 314 314 314 314 313 313 314 315 314 313 313 314 314 315 316
321 321 320 319 320 320 319 319 320 319 319 320 320 319 317 317 318 319 320 321 323 323 323 323 322 320 319 320 320 319 321 322 322 321 321 320 319 318 317 316 316 317 317 317 317 316 315 314 314 313 313 312 313 313 314 314 314 314 314 314 314 314 315
322 321 322 322 322 322 320 319 319 319 319 320 321 321 319 318 317 318 319 319 320 322 322 322 322 321 320 321 321 321 321 321 321 320 320 320 319 317 316 315 315 315 315 315 315 315 313 313 313 312 311 311 312 313 314 314 314 314 314 314 313 314 314
321 321 322 323 322 322 321 320 319 319 319 319 321 321 321 319 318 318 319 319 319 320 320 320 321 322 321 320 321 321 321 320 320 320 320 320 319 317 315 314 314 314 313 313 314 313 313 313 313 312 310 310 311 312 312 313 313 313 313 313 313 313 314
320 321 323 323 322 321 321 319 320 320 320 320 320 320 320 320 319 319 319 319 319 319 320 319 319 320 321 320 320 320 320 319 319 320 320 319 318 317 315 314 314 313 313 313 313 313 313 313 312 311 310 309 310 310 311 311 312 312 312 312 312 312 313
321 322 322 321 321 321 320 319 320 320 321 321 321 321 321 321 320 318 319 319 319 319 320 320 319 319 319 319 319 320 320 319 319 319 319 319 318 316 315 314 314 313 312 312 313 312 312 311 311 310 310 309 309 310 310 310 311 312 312 311 312 312 313

ECMWFFLT2_925_thetae_096.txt.gz
Theta_e
323 322 322 325 321 318 321 321 320 325 330 329 323 321 323 324 323 326 326 324 328 337 343 349 351 349 350 350 350 353 356 358 356 357 361 360 355 354 354 352 352 353 352 351 351 351 352 352 353 353 355 357 359 360 360 360 360 359 357 357 357 357 358
322 322 321 323 323 322 320 316 319 329 333 330 325 321 323 324 323 323 323 322 323 323 332 351 356 351 351 350 350 353 356 356 355 356 358 359 357 354 354 354 353 353 353 352 352 351 352 352 352 355 357 358 360 360 360 360 360 359 357 356 354 355 358
320 322 320 319 321 323 321 319 323 326 323 322 322 322 323 323 322 322 322 322 319 318 327 344 353 353 353 352 352 355 357 356 355 355 356 356 355 354 355 355 352 353 353 353 352 352 353 353 353 355 357 359 360 360 360 360 360 360 357 353 352 354 356
321 320 318 314 316 321 322 322 324 324 322 320 320 320 321 320 321 320 321 320 318 323 337 348 354 357 356 355 356 356 357 357 355 355 355 355 356 356 356 355 353 353 353 353 353 353 354 355 354 355 357 358 359 359 359 360 359 359 357 352 351 353 353
318 316 317 316 316 319 318 317 318 320 322 321 321 321 317 318 319 319 320 317 318 334 356 361 360 360 357 356 356 355 356 356 354 354 355 356 360 361 358 355 353 353 352 351 353 353 354 355 354 356 357 357 357 357 358 359 359 358 357 353 353 354 352
314 315 320 320 320 321 319 316 316 318 319 317 318 320 318 318 318 318 318 316 323 343 356 357 358 357 355 355 355 355 355 354 354 353 353 355 358 362 362 357 354 356 354 352 352 353 353 354 355 356 356 355 355 354 355 357 358 358 358 356 356 357 355
317 320 322 322 322 323 322 321 320 322 321 315 314 315 317 318 317 318 318 316 328 349 351 351 357 354 353 354 353 355 354 353 352 352 352 352 354 358 360 356 353 353 353 353 353 352 351 351 353 354 354 353 353 354 355 356 356 357 358 358 359 360 359
321 322 323 322 324 323 321 321 321 323 321 318 318 317 318 318 315 318 319 315 329 350 351 350 354 353 354 353 352 354 354 353 353 351 352 353 352 354 355 354 352 351 351 351 351 352 352 352 352 351 351 351 352 354 355 356 356 357 357 359 361 361 361
317 318 319 319 320 321 320 321 322 325 324 323 322 320 321 319 315 318 317 314 328 350 352 350 352 353 355 355 352 354 354 354 354 352 351 352 352 353 353 354 355 355 355 353 353 354 354 353 352 351 351 352 353 354 356 356 356 356 358 359 360 361 361
314 315 316 316 317 319 321 323 325 325 324 323 321 318 317 316 316 318 316 316 333 352 352 350 353 354 356 357 355 354 355 354 354 354 352 352 352 352 353 354 355 356 356 355 355 356 354 350 348 349 352 354 355 355 356 356 355 356 358 357 358 358 357
318 320 322 323 323 319 318 321 324 324 325 326 324 317 313 315 317 318 319 321 334 347 352 352 353 355 356 356 354 353 354 354 353 355 354 353 353 352 352 353 354 355 355 354 355 355 355 353 350 351 352 352 352 350 350 353 355 357 357 356 357 355 352
323 326 328 329 327 323 320 322 324 325 327 328 323 317 318 322 317 315 324 326 326 338 354 353 352 356 356 354 353 352 351 351 352 354 353 353 353 353 352 352 353 354 353 353 354 353 353 354 353 353 351 351 351 349 348 351 354 356 354 352 355 354 349
325 328 329 330 331 329 329 329 327 328 329 328 323 322 331 336 323 321 335 339 331 341 354 352 351 354 352 352 352 349 348 349 350 350 351 351 351 351 351 350 349 349 349 350 352 352 352 353 352 352 350 350 351 351 351 351 353 354 352 350 353 354 349
324 327 329 331 331 329 330 332 333 334 334 333 333 334 340 343 337 336 346 350 346 350 351 349 350 350 348 349 348 347 348 349 349 350 351 351 350 350 348 346 346 347 348 349 349 350 351 351 350 350 350 350 351 351 352 353 353 354 353 351 352 351 348
320 325 327 329 330 328 327 329 333 336 337 337 339 341 343 343 344 347 349 349 350 350 348 349 349 348 348 348 347 347 348 348 349 351 351 350 349 348 346 345 345 345 346 347 347 348 349 348 347 348 349 350 350 350 352 353 353 353 353 353 352 350 349
316 321 323 324 326 326 324 324 328 333 336 338 339 341 343 343 345 346 342 341 344 347 348 348 348 348 348 348 348 348 347 348 349 349 349 349 347 346 346 346 345 344 345 346 347 346 346 345 345 346 348 349 349 349 350 350 352 352 352 353 353 352 351
316 319 322 322 321 321 321 322 325 330 337 340 340 340 342 342 344 344 339 339 346 348 347 347 349 348 348 349 349 347 347 348 348 347 348 347 346 346 346 345 344 344 344 344 344 343 343 343 343 344 345 346 346 347 348 349 350 350 351 351 352 352 352
317 321 323 321 319 319 321 323 324 327 334 339 338 338 341 342 342 343 342 344 347 346 345 347 348 347 348 348 347 346 347 347 347 346 346 345 344 344 343 343 344 343 342 341 340 340 340 340 338 338 339 339 340 341 343 343 344 345 345 346 346 347 348
321 322 321 318 319 322 323 324 325 324 328 336 337 336 339 341 340 340 343 344 344 344 345 345 345 346 344 342 343 344 344 344 345 345 345 344 343 341 341 342 343 342 341 339 337 336 336 336 334 333 333 333 335 336 336 336 337 337 338 338 339 340 341
322 320 318 319 324 326 324 325 327 324 326 333 334 333 335 339 338 340 343 344 345 345 344 342 341 340 336 336 338 339 340 340 341 342 342 342 340 339 340 342 342 342 341 338 336 333 332 332 332 331 330 330 331 331 331 332 331 331 332 333 333 334 335
322 319 319 323 325 326 327 328 327 326 326 329 330 330 332 336 338 339 343 344 344 343 342 340 338 336 336 338 337 335 334 336 336 337 338 339 339 338 340 341 340 340 338 336 334 332 330 329 329 329 329 329 328 327 328 328 328 328 328 328 328 329 330
323 320 321 323 323 324 328 328 325 325 324 324 327 329 329 332 335 338 341 343 343 342 341 339 338 340 344 344 338 332 330 332 332 333 335 336 337 337 337 338 338 336 334 333 332 330 329 328 327 327 327 327 326 325 325 325 326 326 327 326 326 326 327
322 320 319 320 322 325 328 328 325 324 323 323 326 327 326 328 333 336 339 341 342 341 340 340 341 345 349 346 336 328 328 330 329 330 331 331 333 334 335 336 335 334 333 331 329 328 327 327 326 326 326 326 325 324 324 324 324 325 325 325 324 323 323
320 320 318 319 324 327 328 326 325 323 322 323 323 323 323 326 330 333 337 339 341 341 341 341 342 344 346 343 334 327 328 329 329 330 330 329 330 332 333 334 333 332 331 329 328 327 326 326 326 326 325 325 325 325 324 324 323 324 324 324 324 323 322
317 318 318 320 324 326 325 325 325 325 324 323 322 323 324 325 328 331 335 337 339 340 340 341 342 341 340 337 331 329 329 330 329 329 328 328 330 331 332 331 330 329 329 328 327 327 326 326 325 325 325 326 326 326 325 324 324 322 322 323 325 326 325
316 317 317 319 323 325 325 325 328 328 327 325 323 326 327 326 327 330 332 334 337 338 338 338 338 336 334 331 330 329 329 329 329 328 328 328 329 331 332 331 329 328 327 327 326 326 326 325 324 325 326 326 325 325 324 324 325 324 322 322 323 324 326
317 315 315 318 323 325 326 328 329 329 328 326 325 327 328 327 328 329 331 332 334 336 337 335 334 333 332 330 330 329 328 329 329 328 328 329 328 330 331 331 329 328 327 326 326 325 324 324 323 324 325 325 324 324 324 323 324 324 324 324 322 322 323
317 315 316 321 323 324 325 327 328 326 326 325 326 327 327 327 328 329 331 332 332 333 335 334 333 333 331 329 329 328 328 328 328 328 328 328 328 328 330 330 329 328 328 327 326 325 325 325 324 324 324 324 324 323 323 322 322 323 324 324 323 322 322
321 320 322 324 324 324 324 325 326 326 324 324 325 326 325 326 327 329 331 333 332 331 332 332 333 333 332 330 329 328 326 327 328 328 328 328 327 328 327 328 328 327 327 326 325 324 324 324 325 324 324 324 324 323 322 322 322 322 322 322 322 322 322
323 324 325 325 325 325 324 323 324 325 324 323 323 325 325 326 328 329 331 332 331 330 331 332 332 333 332 330 329 327 326 327 328 328 329 328 328 328 327 327 326 325 324 324 323 323 322 322 323 323 323 323 323 322 321 321 321 321 321 321 322 321 321
322 324 326 326 326 326 325 324 324 325 324 323 323 324 324 326 328 329 330 332 331 331 330 331 331 332 331 330 329 327 326 327 328 328 329 329 328 327 327 326 325 324 323 323 322 321 321 321 321 322 322 322 322 321 321 321 321 321 321 321 321 321 321
324 325 326 326 326 325 325 325 324 324 324 324 323 323 323 325 328 329 330 331 331 331 330 330 331 329 328 328 329 328 328 329 328 327 328 329 328 328 327 326 325 324 323 322 322 321 321 320 320 320 321 322 321 321 321 320 320 321 320 320 320 320 320
324 325 324 324 325 325 325 324 324 324 324 324 324 323 322 322 324 326 328 329 329 330 330 329 329 328 327 328 329 328 329 330 329 328 328 329 329 328 327 326 325 325 324 323 322 322 321 320 320 320 320 320 320 320 319 319 319 319 318 318 318 318 319
323 324 324 324 323 324 325 324 323 323 323 324 324 323 322 322 322 324 325 325 327 328 329 329 329 327 327 328 328 329 329 330 330 329 328 328 328 327 326 325 325 325 324 323 322 321 321 321 320 320 319 319 318 318 318 318 319 318 318 318 318 318 319
324 325 325 323 322 323 325 324 323 323 323 323 324 324 323 322 322 323 324 324 325 326 326 327 328 328 328 328 327 328 329 329 329 329 328 327 326 325 324 325 325 323 322 321 321 321 321 320 319 319 318 318 317 317 317 318 318 318 318 318 317 318 319
323 322 323 322 322 323 324 323 323 323 323 323 323 323 323 323 323 323 324 323 323 324 325 326 326 327 328 327 327 327 327 328 328 328 327 325 324 324 324 324 324 323 322 321 321 321 320 319 318 318 318 317 317 317 316 316 317 317 316 317 316 317 317
323 322 322 322 322 323 323 323 323 323 324 324 323 323 324 324 323 323 324 324 323 323 324 325 325 325 325 326 326 326 326 327 327 327 326 325 323 323 323 323 324 324 323 322 322 321 319 319 318 317 317 317 317 316 316 316 316 316 315 316 316 316 317

ECMWFFLT2_925_thetae_099.txt.gz
Theta_e
325 324 324 326 325 321 326 326 321 325 333 330 321 321 323 322 327 331 329 329 337 343 345 347 346 349 349 348 352 355 356 358 357 357 356 357 356 356 354 353 352 352 353 353 352 352 352 352 351 352 351 351 351 353 354 353 354 355 355 357 357 358 359
324 324 324 325 326 325 323 320 322 329 335 331 325 322 322 324 330 332 324 325 332 331 334 347 348 348 348 348 352 357 357 357 357 356 357 359 359 358 356 353 352 354 352 353 352 352 352 352 352 351 352 353 354 355 354 353 353 353 353 354 354 355 358
324 325 323 321 324 326 323 322 327 329 324 322 323 323 323 325 328 328 322 324 329 328 333 344 347 348 350 348 352 357 358 357 355 356 358 358 358 359 359 355 354 354 352 353 353 352 353 352 352 353 353 353 355 355 356 354 352 352 352 351 351 352 355
323 323 321 316 317 323 325 324 327 327 323 321 322 323 324 324 325 327 325 323 327 333 341 345 348 352 352 348 352 356 357 356 356 356 358 358 359 361 362 359 353 354 352 352 354 352 353 352 352 354 354 354 355 355 357 357 354 352 351 348 348 351 352
319 317 319 317 317 320 320 318 319 320 321 322 324 323 322 322 323 326 326 327 332 344 352 352 352 354 352 349 353 356 355 356 355 356 357 359 360 360 361 360 355 354 353 351 352 353 353 353 352 354 356 355 355 357 358 359 356 354 352 349 348 349 350
313 315 321 321 322 322 321 318 316 319 319 317 319 320 320 319 320 320 320 326 335 349 355 356 352 352 353 350 352 356 355 355 354 355 356 357 358 358 358 359 356 356 356 354 355 353 353 354 352 352 354 355 356 356 358 358 358 356 353 350 349 349 349
317 321 322 321 321 323 324 322 321 323 321 316 313 314 316 316 316 318 316 320 334 350 354 355 352 351 352 351 353 355 355 356 354 354 354 353 356 358 358 357 357 358 357 357 354 354 356 355 353 353 352 351 354 357 359 360 359 358 357 353 351 350 350
322 323 323 321 322 321 321 321 323 322 320 320 319 318 319 317 315 318 316 318 334 352 354 354 354 351 350 352 354 354 355 356 353 354 355 354 356 359 358 357 358 358 356 354 353 353 355 356 356 355 353 352 355 358 358 359 359 359 359 358 356 355 354
318 319 318 317 319 320 319 321 323 323 321 323 323 320 320 316 313 317 316 317 333 352 354 354 354 352 352 353 352 352 354 354 352 353 354 354 357 358 356 355 354 353 352 352 355 354 355 356 357 355 353 353 355 356 357 359 360 360 361 362 363 363 360
314 315 315 314 315 317 319 322 323 323 322 321 319 316 314 313 314 316 314 318 336 355 356 355 355 353 354 354 352 353 354 354 353 352 353 352 355 355 355 354 352 352 351 351 352 351 351 356 357 355 355 354 355 357 359 359 359 361 361 362 366 367 363
317 317 321 324 322 316 315 318 320 321 323 322 322 315 311 314 315 314 316 324 335 345 353 355 354 354 355 356 355 355 355 354 354 353 353 353 353 352 353 353 352 353 354 354 354 351 351 355 356 355 356 357 358 358 358 358 358 361 362 361 363 364 362
323 324 327 328 325 318 315 315 317 321 323 323 321 314 316 322 316 313 324 330 327 336 353 354 353 355 357 357 357 356 357 355 354 354 353 353 353 351 352 353 354 354 354 355 356 355 355 356 355 354 355 357 359 359 357 356 356 359 360 360 360 361 361
324 326 326 326 325 322 320 319 318 320 324 322 319 317 321 326 318 316 331 337 331 339 351 351 352 355 355 355 355 354 354 355 355 355 355 353 352 351 351 353 354 354 354 355 355 355 355 355 355 354 355 354 355 354 355 354 355 356 358 359 358 358 360
322 324 327 327 325 322 322 323 323 324 325 323 321 321 323 329 325 326 339 345 346 352 352 351 353 353 352 352 352 352 354 355 356 355 355 354 354 352 353 353 353 352 354 355 353 354 354 354 354 355 354 352 351 351 352 352 352 353 354 357 358 356 357
322 323 326 327 326 325 324 325 329 328 324 322 324 328 331 333 331 332 342 346 350 354 353 351 351 351 352 352 351 353 354 354 354 355 354 354 354 352 350 351 350 350 352 353 352 354 354 352 353 353 354 353 352 352 352 351 350 349 350 353 357 355 356
323 324 325 328 327 326 324 325 330 333 329 327 331 335 339 337 333 336 342 342 347 351 351 350 350 352 353 352 352 354 353 353 354 355 355 353 350 347 346 348 349 349 349 350 351 351 351 350 351 351 353 354 353 352 352 351 350 350 350 352 354 355 355
323 321 322 327 327 324 322 324 329 336 337 337 338 339 342 341 340 341 341 342 348 351 349 350 351 351 352 353 353 353 353 354 353 352 351 349 347 346 347 348 348 347 347 348 348 348 348 348 348 348 350 350 350 351 352 351 351 352 353 353 353 354 353
323 326 324 324 326 325 325 327 330 338 340 341 340 340 340 340 344 344 345 347 350 348 347 349 351 350 352 352 351 350 350 350 350 348 346 346 347 347 347 346 346 345 345 345 345 345 344 344 344 344 344 345 344 345 347 349 350 350 350 350 349 349 349
325 330 324 320 325 329 329 329 331 335 337 338 339 340 341 341 343 345 347 348 347 346 346 348 349 349 348 347 347 347 346 345 347 347 344 346 348 347 345 344 344 343 343 344 343 342 340 339 340 340 340 339 338 338 339 342 343 343 343 343 343 343 344
325 326 322 322 328 329 328 330 331 331 335 337 336 337 340 340 342 344 347 347 347 347 346 345 346 346 344 343 343 343 343 344 346 346 345 347 347 345 344 344 343 342 341 341 340 338 337 337 337 336 335 334 333 333 333 334 335 336 338 338 338 339 341
325 322 322 327 329 328 329 332 330 328 332 334 334 336 337 340 341 343 346 347 346 346 345 343 342 341 342 343 341 338 339 341 342 344 345 345 344 344 344 343 342 341 340 338 336 335 335 335 334 333 332 332 332 331 331 330 330 331 333 334 334 335 337
324 319 321 326 329 331 333 331 328 328 327 329 332 332 331 336 340 341 344 346 346 344 344 342 342 343 345 344 339 335 334 336 337 341 342 342 342 342 341 341 340 339 339 337 334 333 333 333 332 332 331 330 330 329 329 328 327 327 328 328 329 331 333
326 323 321 320 325 333 335 330 328 327 324 326 331 330 327 331 336 338 341 345 345 343 343 342 343 347 348 343 337 334 333 332 334 338 340 340 340 339 338 338 338 337 337 335 333 333 332 331 331 331 330 329 328 327 327 326 325 325 325 325 326 328 330
327 327 322 319 323 330 332 329 327 326 325 326 328 326 326 329 333 336 338 342 344 345 345 344 345 347 347 343 337 333 333 333 334 335 338 339 339 338 337 336 335 335 334 334 332 331 331 329 328 328 327 328 328 327 327 326 326 327 327 325 325 326 327
324 323 323 326 327 328 329 329 327 328 329 327 323 324 329 331 332 336 337 338 341 344 344 344 343 344 342 338 334 334 334 334 334 334 336 337 337 337 335 334 334 332 331 330 329 328 328 327 326 327 327 328 328 327 326 324 324 326 327 325 324 325 326
322 320 324 330 329 327 328 329 329 330 331 328 326 327 331 330 332 334 336 336 339 341 341 342 342 340 337 334 333 333 332 332 333 334 335 335 334 334 334 333 332 330 330 329 328 327 327 326 326 327 328 328 327 327 326 324 323 324 326 326 325 326 327
322 318 323 328 327 328 330 330 331 332 331 331 331 330 329 330 331 334 335 336 337 338 338 339 338 337 335 334 334 333 331 331 332 334 334 334 334 333 333 332 330 329 329 329 328 327 326 325 325 326 326 327 327 327 327 326 326 325 325 325 324 325 326
322 317 322 327 327 328 329 329 330 330 328 330 331 329 328 329 331 334 334 334 336 337 337 338 337 336 336 335 334 332 331 331 332 333 333 333 333 334 333 331 329 329 329 328 328 327 326 326 325 325 325 326 326 326 326 326 326 326 326 325 325 324 324
325 324 326 328 326 326 327 327 327 326 325 327 327 327 327 328 330 333 334 334 335 335 336 337 337 337 336 334 333 332 331 331 332 333 332 331 333 333 331 330 329 329 329 328 327 327 328 327 326 325 325 325 325 325 325 324 324 325 325 325 326 325 324
325 326 327 327 325 326 325 325 326 326 325 325 325 326 327 328 329 331 332 333 334 334 334 336 337 337 336 335 332 331 330 331 332 332 332 331 331 331 330 330 329 328 327 326 326 326 326 326 326 326 325 325 325 325 324 324 324 324 324 324 324 324 324
322 325 327 327 326 326 325 325 325 326 325 325 325 325 326 327 327 328 331 333 333 332 334 335 336 337 336 335 334 332 330 332 333 332 332 332 330 330 330 329 328 327 325 324 324 325 325 325 325 325 325 324 324 324 324 323 323 324 324 324 324 324 324
325 328 328 327 326 325 326 326 326 325 325 325 325 324 326 327 327 327 329 330 330 331 332 333 334 334 334 334 335 332 331 332 333 333 332 332 330 330 330 328 327 326 325 324 323 324 324 325 325 325 325 325 324 325 324 323 323 324 324 324 324 324 323
327 327 325 325 325 324 325 325 326 326 325 326 325 324 324 325 326 326 327 328 328 329 331 332 332 332 332 334 335 333 332 333 333 332 333 332 331 331 329 328 327 327 325 324 324 324 324 324 323 324 324 324 323 324 323 322 323 322 321 321 322 322 322
325 326 325 324 326 327 326 326 325 325 325 326 326 325 325 324 325 325 326 327 327 329 329 330 331 331 332 333 334 334 333 333 332 332 331 332 332 331 330 329 328 328 326 325 325 325 324 324 323 322 322 322 322 322 321 322 322 322 321 322 321 321 321
326 327 326 324 324 326 328 327 325 324 324 325 326 326 325 325 324 324 325 326 327 328 328 328 328 330 332 331 331 333 333 332 332 333 332 332 332 331 330 329 329 327 326 326 326 325 325 324 323 322 322 322 322 321 321 321 321 321 322 322 321 321 322
326 326 325 324 323 326 328 326 325 325 324 325 326 326 325 325 324 325 325 325 326 327 327 327 327 328 330 330 330 330 331 331 332 333 332 331 331 330 329 329 329 328 326 325 326 325 325 324 322 321 321 321 320 320 320 321 321 321 321 321 320 320 321
325 325 325 324 323 326 327 325 324 325 324 323 324 325 325 325 324 324 325 326 326 325 327 327 326 326 327 328 328 328 329 329 331 331 331 331 329 328 328 329 328 327 326 325 326 325 324 323 322 321 321 320 320 320 320 320 320 320 320 321 320 319 321

ECMWFFLT2_925_thetae_102.txt.gz
Theta_e
325 326 325 329 328 323 326 326 320 325 333 329 321 323 329 326 324 335 340 338 345 351 351 355 354 354 356 353 354 356 356 358 359 359 360 357 356 356 356 356 354 354 352 350 350 350 350 349 349 349 350 352 354 356 358 359 360 360 359 358 357 358 359
325 326 325 326 329 327 323 320 322 330 332 331 326 321 323 322 323 331 332 333 340 340 343 352 355 357 359 355 354 357 357 359 359 358 359 359 356 355 357 360 358 355 353 352 351 351 351 350 349 350 351 352 353 356 357 358 359 359 358 358 358 358 359
325 326 324 323 325 328 326 324 328 330 323 322 325 322 323 323 325 329 324 328 342 341 338 348 356 358 360 358 356 357 358 359 359 358 358 358 359 360 362 365 364 357 353 353 353 352 352 350 350 351 352 352 353 355 356 357 358 359 357 356 356 358 358
325 325 322 316 318 324 327 326 328 328 323 323 324 324 323 323 328 334 329 329 339 341 342 353 358 359 358 356 355 357 357 358 358 359 358 360 363 363 362 363 361 357 352 353 353 352 353 352 351 352 352 352 352 353 354 355 356 357 355 355 354 355 357
321 319 320 319 319 321 322 320 320 322 322 325 327 325 321 322 329 336 338 336 336 341 351 359 358 358 358 357 356 358 358 357 358 358 358 360 362 360 362 363 360 358 354 351 352 353 354 353 353 353 353 353 353 353 353 353 354 354 353 352 352 353 355
315 318 323 325 323 323 324 320 319 320 321 321 322 322 320 320 324 327 331 334 336 345 357 358 352 355 357 357 358 358 358 358 357 356 357 360 361 360 360 361 359 357 355 353 353 353 353 354 354 354 353 353 353 353 353 353 351 351 350 349 350 350 352
319 322 325 325 323 325 326 324 325 325 323 319 315 316 317 317 320 321 320 327 339 349 356 356 353 355 355 357 358 356 357 358 355 355 359 361 360 359 358 359 359 356 354 354 353 351 353 354 354 355 355 355 355 355 355 355 353 351 350 349 349 349 350
323 325 326 325 325 325 322 322 327 325 322 323 320 319 321 318 317 319 319 326 340 350 355 356 354 356 356 356 356 354 356 357 355 357 358 358 357 355 354 356 357 357 357 357 355 354 354 351 351 352 351 353 356 356 355 356 355 354 352 350 349 349 349
319 319 320 320 319 321 320 321 325 325 325 326 323 321 323 319 317 319 319 323 335 348 356 355 353 357 359 355 355 355 355 357 356 357 354 353 355 354 355 355 356 357 359 358 357 356 354 351 352 354 351 350 354 354 354 356 355 355 355 353 351 350 350
316 316 317 317 317 317 319 321 322 325 324 323 321 316 316 317 317 317 317 322 336 353 359 355 352 356 357 355 355 355 356 357 356 357 354 351 353 354 354 354 354 356 355 356 357 356 354 352 352 355 355 353 354 355 356 358 357 356 358 358 354 352 351
320 320 323 327 324 317 315 316 318 323 323 324 323 313 313 317 315 317 327 336 341 348 355 355 353 353 353 355 356 354 356 356 355 357 356 353 352 353 353 351 351 352 352 353 355 355 356 354 351 355 357 355 355 357 359 360 360 359 358 359 361 360 357
325 327 327 329 327 320 317 316 317 321 322 324 320 311 317 322 314 322 343 348 337 342 354 357 353 353 353 355 355 354 356 355 354 356 356 354 353 352 353 352 350 350 351 352 352 353 357 357 355 356 357 355 355 357 359 360 361 361 358 358 363 366 363
326 328 326 328 327 323 324 322 318 320 321 322 318 314 322 322 317 330 350 346 340 347 353 354 353 354 354 354 355 354 354 355 353 355 356 355 354 353 353 353 352 351 352 354 353 352 356 358 357 356 357 357 357 357 358 358 359 360 361 360 362 363 362
324 326 326 328 326 323 324 323 321 322 321 322 319 318 324 322 325 343 354 348 350 353 351 354 355 353 353 354 355 355 353 353 355 355 355 355 354 354 354 355 354 353 354 356 355 354 355 356 356 356 357 357 357 357 358 357 357 359 360 360 361 361 362
321 327 327 326 325 323 322 323 329 332 330 333 332 325 324 322 326 343 353 350 354 355 353 356 355 352 355 354 354 355 352 350 353 356 355 354 354 355 354 354 353 352 353 355 355 355 355 354 355 355 355 356 355 356 357 356 357 358 359 359 360 359 360
319 323 327 329 329 324 323 325 333 337 336 338 339 337 336 333 331 337 343 345 351 354 354 355 354 354 354 353 354 355 352 350 351 353 352 351 352 353 353 353 352 352 353 354 354 355 354 353 354 353 353 354 353 354 355 355 355 354 354 355 356 356 356
319 323 327 328 328 327 326 328 333 338 341 342 341 342 343 343 341 339 338 343 351 354 352 353 354 353 353 354 355 354 353 350 349 349 347 346 349 351 351 351 351 350 351 351 351 352 351 350 350 349 349 348 348 350 352 353 353 353 353 353 354 354 353
320 325 325 325 330 332 332 334 336 338 342 343 342 343 344 346 347 345 345 349 352 351 350 352 353 352 353 353 351 350 351 350 348 346 344 345 349 350 348 348 348 348 348 347 346 347 347 346 345 344 343 343 344 346 348 349 350 350 350 350 351 352 352
321 325 325 324 331 334 332 333 336 336 338 339 341 343 344 345 346 346 348 350 350 350 351 351 350 350 350 349 347 347 347 347 346 346 347 348 348 347 346 345 345 346 344 343 342 342 342 342 341 339 339 339 340 342 342 343 343 343 344 344 345 347 348
323 324 327 329 331 332 331 333 334 335 337 338 340 343 343 343 344 345 346 348 348 349 349 349 350 347 345 345 346 346 346 346 346 347 349 350 347 344 344 344 344 344 343 341 341 340 339 339 338 337 337 336 337 337 337 337 337 338 339 339 340 342 343
326 323 328 332 332 331 333 334 332 333 336 336 339 342 342 342 342 342 344 345 347 346 346 347 346 341 341 344 345 344 344 345 345 345 346 346 345 344 344 342 341 341 340 340 339 338 337 337 336 336 336 335 334 333 333 333 334 334 335 336 336 337 338
327 324 326 329 331 333 335 334 331 329 331 332 336 338 337 340 342 341 341 343 344 345 346 346 343 340 342 344 343 342 342 342 343 343 343 343 343 344 343 342 340 339 338 338 336 335 335 335 334 334 334 333 331 330 329 330 330 331 331 332 332 332 334
325 326 328 328 331 335 337 334 331 328 329 331 331 331 331 336 341 340 340 342 342 342 343 345 345 344 343 342 340 338 338 341 341 342 342 342 342 342 341 341 340 338 337 335 334 334 334 333 332 331 331 330 329 329 329 329 329 329 329 328 328 329 331
322 326 329 332 334 336 335 333 330 329 330 329 328 330 331 334 337 339 341 343 343 342 341 340 343 345 344 342 339 336 336 339 340 340 341 341 340 340 339 338 337 337 336 334 332 331 330 330 329 329 329 330 329 329 330 329 328 328 328 327 327 328 329
321 323 327 333 337 334 331 331 331 330 332 330 327 330 334 334 335 338 340 342 343 344 343 342 343 344 343 339 337 335 336 338 339 340 339 338 337 337 337 337 337 336 334 331 328 327 327 328 329 328 329 328 326 326 326 327 326 326 326 327 326 326 326
327 329 330 334 336 332 328 330 332 331 335 333 330 331 333 334 335 336 337 339 341 342 343 343 342 341 338 335 335 335 334 336 337 338 338 337 336 335 335 335 333 331 330 328 326 326 328 327 327 328 329 328 326 324 324 326 327 327 327 328 327 324 323
331 332 331 333 334 333 330 331 334 334 335 335 333 332 332 334 335 334 336 337 338 339 341 340 339 338 336 335 335 333 333 334 336 337 337 336 335 334 333 332 330 330 329 328 326 327 326 326 326 327 328 329 329 327 327 327 326 325 325 326 326 327 326
331 330 329 331 332 331 330 332 334 334 333 333 333 331 332 334 334 334 336 337 338 338 339 338 338 337 336 335 334 334 333 333 334 336 336 335 335 334 332 331 330 330 329 328 327 327 326 325 326 328 329 329 328 328 328 327 326 326 326 325 325 325 327
333 331 330 330 330 329 328 329 331 331 329 330 330 330 331 333 334 334 335 335 336 337 338 337 337 337 336 335 334 333 333 332 333 335 335 335 335 333 331 331 330 329 329 328 328 328 327 325 325 326 327 327 327 326 326 326 327 327 327 327 326 325 324
330 329 329 328 328 328 327 327 328 328 328 328 328 329 330 331 332 333 334 333 334 336 337 339 339 337 336 335 334 333 333 332 333 333 334 334 334 332 331 331 330 328 328 328 327 327 327 326 326 326 326 326 326 326 325 326 326 326 325 325 325 325 324
327 327 328 328 327 327 326 326 326 326 327 327 327 328 328 328 329 331 332 332 332 333 336 339 339 338 336 335 334 334 333 333 333 333 333 333 333 332 331 330 329 327 327 327 326 326 326 327 327 327 326 326 326 326 325 325 325 326 326 325 325 324 324
328 328 328 327 326 326 327 327 326 326 325 326 327 328 327 327 328 328 329 330 331 331 333 335 337 337 336 336 335 334 333 333 333 332 332 332 332 332 330 329 328 326 326 326 327 327 328 327 326 325 325 326 327 326 325 324 325 326 326 325 325 325 324
329 328 327 326 326 326 328 328 327 326 326 325 326 327 326 326 327 327 327 328 328 329 331 332 333 334 335 336 334 333 332 333 334 334 333 332 332 331 329 328 328 326 325 326 327 327 327 327 326 327 326 327 327 326 324 324 324 324 324 324 324 325 323
327 327 326 327 328 328 328 327 326 326 326 326 326 326 326 325 326 327 327 327 327 327 328 330 332 333 334 335 336 335 334 333 334 334 333 333 333 331 329 329 328 327 326 326 326 326 326 326 326 326 325 325 324 323 323 323 323 323 323 323 323 323 322
328 327 326 327 330 330 328 326 326 325 326 327 326 326 326 325 325 326 327 327 327 327 326 327 330 332 332 333 334 335 335 333 333 334 333 333 333 332 330 330 329 328 327 327 327 327 327 326 325 324 324 324 324 323 322 323 323 324 325 325 324 323 321
327 326 326 326 329 330 329 326 326 326 325 327 327 326 325 325 325 326 326 326 326 327 327 326 327 328 330 331 332 333 334 334 335 335 333 333 333 332 331 330 330 329 328 328 328 328 327 326 324 324 324 324 323 323 323 322 322 323 324 324 323 323 322
327 327 326 326 328 330 328 326 326 325 323 325 327 326 325 324 324 325 326 325 325 326 327 327 326 326 327 329 329 330 331 332 333 334 334 333 332 331 331 331 331 330 329 328 328 328 327 326 324 323 323 323 322 322 322 322 322 323 324 323 322 322 323

ECMWFFLT2_925_thetae_105.txt.gz
Theta_e
325 326 325 327 328 326 328 327 323 326 335 338 336 339 341 339 345 352 350 352 361 365 362 360 361 359 355 356 356 355 358 358 358 359 359 358 357 356 355 354 353 350 346 347 349 348 349 348 348 351 354 357 357 358 359 358 359 360 359 359 357 357 358
324 326 326 327 328 329 327 322 324 332 335 334 335 338 341 337 339 349 348 346 353 355 357 364 365 362 358 357 356 356 358 358 357 359 359 359 360 359 359 356 353 350 347 348 349 349 349 348 349 353 355 357 357 358 359 359 360 360 359 359 358 356 356
325 326 325 324 326 329 329 325 329 334 328 329 332 331 335 335 337 347 346 343 347 349 352 358 359 359 361 361 360 358 359 359 357 358 358 359 360 361 361 362 359 351 347 349 350 349 349 348 349 353 354 356 357 358 360 359 360 360 359 359 358 357 357
325 326 323 319 320 325 328 326 329 332 329 331 333 329 332 337 339 346 347 345 347 348 353 355 355 360 363 362 362 360 359 360 358 358 358 359 363 364 361 363 365 359 350 350 351 349 349 349 350 352 353 356 357 358 359 360 359 360 359 359 358 358 358
322 321 321 321 321 322 324 322 321 324 325 330 335 330 329 336 342 344 348 350 347 349 358 359 356 362 363 360 361 361 359 359 359 359 359 359 362 364 361 361 364 359 352 351 351 350 351 352 352 353 354 357 357 358 359 359 359 360 358 358 358 358 358
317 319 323 325 325 324 324 322 320 323 324 326 329 329 325 330 339 341 344 348 348 354 364 363 358 361 360 361 364 365 364 362 359 358 360 361 360 361 364 363 362 358 352 351 351 350 351 352 353 353 354 356 357 357 359 358 359 359 358 357 357 358 358
320 324 327 326 326 326 326 326 326 326 326 324 324 326 325 324 332 338 341 344 350 359 364 362 360 360 359 363 365 363 365 366 361 359 361 362 361 361 363 360 357 355 351 350 351 351 352 352 352 353 354 355 356 357 357 357 358 359 357 356 356 356 357
327 326 326 326 326 325 323 324 327 326 325 327 327 329 330 328 331 335 337 341 350 359 363 361 358 359 361 365 364 362 362 362 359 356 357 360 359 360 360 357 356 355 351 350 351 351 351 352 352 353 355 354 355 356 356 355 357 357 355 354 354 354 355
327 329 331 330 328 325 322 323 325 325 325 327 328 329 330 330 328 325 326 336 346 356 361 359 358 362 364 362 363 366 365 360 357 355 354 356 357 358 359 358 358 357 354 353 352 351 350 352 352 351 353 353 354 355 355 354 355 355 354 353 353 352 353
326 330 334 332 328 327 326 325 324 324 325 323 322 322 321 324 328 327 331 342 351 356 359 358 360 365 365 362 362 364 363 359 356 356 354 354 356 357 357 358 359 359 356 354 353 352 352 353 353 351 352 354 354 354 355 354 353 353 353 354 353 351 351
328 329 333 334 329 325 322 322 322 321 322 323 322 319 317 324 334 337 343 352 354 354 358 359 360 363 365 364 362 361 361 358 356 355 353 353 355 355 356 357 358 358 356 354 354 354 354 355 354 352 352 353 354 354 354 354 354 353 352 353 354 351 350
329 328 329 329 328 324 320 321 327 329 329 328 320 316 320 334 341 340 349 355 351 354 361 361 359 360 360 360 359 358 358 357 356 354 351 352 353 352 353 355 356 356 356 356 354 352 353 354 354 353 351 352 354 355 356 355 354 353 352 352 355 354 351
326 327 327 327 327 326 324 328 335 338 340 338 331 327 332 338 340 342 352 355 352 356 360 359 359 359 356 356 355 354 354 356 356 354 351 351 352 350 351 352 353 354 354 353 353 351 351 353 355 357 356 355 357 359 358 358 357 355 355 355 357 358 356
324 325 327 328 329 329 332 337 341 342 342 345 344 345 348 346 343 348 356 356 355 357 357 358 359 358 355 353 351 352 354 356 355 354 352 351 350 350 352 352 353 354 352 350 351 352 353 354 356 359 357 357 358 358 355 354 355 356 357 358 359 359 357
325 325 326 328 330 333 333 336 342 343 343 347 349 349 352 355 354 355 357 357 360 361 359 359 358 357 355 351 349 352 355 355 355 355 354 353 352 352 352 353 353 354 353 351 350 350 351 351 352 353 352 352 353 353 352 351 352 354 354 353 354 355 355
326 325 326 329 330 332 332 334 340 344 344 347 348 349 351 351 352 355 357 357 360 363 361 358 358 357 355 351 350 352 352 353 353 353 354 354 353 353 353 352 352 352 351 350 349 348 347 348 349 349 349 349 350 351 353 352 351 352 352 352 351 350 353
327 326 327 329 331 336 336 336 339 344 346 347 347 349 349 347 349 354 355 355 357 358 358 357 356 355 354 353 351 350 350 349 348 349 351 352 351 351 351 351 350 349 348 348 348 346 345 345 346 347 348 348 349 350 352 352 351 351 351 350 349 348 350
327 328 329 331 337 341 339 337 338 342 345 347 347 347 347 346 348 350 352 353 353 354 355 355 353 352 352 351 348 347 347 345 344 346 348 349 350 350 348 347 347 346 345 345 345 343 342 342 342 344 346 346 347 349 350 351 351 350 349 349 349 349 350
328 332 333 335 339 341 337 336 338 339 341 345 346 345 345 345 345 346 349 350 349 349 350 350 350 348 347 347 346 345 343 342 344 347 348 348 349 348 346 345 343 343 342 341 340 339 338 339 339 340 342 344 345 346 347 348 348 348 348 347 347 348 349
335 338 337 336 339 339 335 337 338 335 339 344 344 344 345 344 344 345 346 348 347 347 347 347 347 346 346 347 347 345 344 343 345 349 350 348 346 345 344 343 341 341 340 339 338 338 337 337 338 338 339 341 342 341 342 343 343 344 345 344 344 345 345
339 343 341 336 337 339 340 341 338 333 337 342 344 346 346 344 344 345 346 346 346 345 345 346 344 342 343 345 345 345 345 344 345 347 348 346 344 343 342 340 340 340 339 338 338 337 337 337 336 336 337 339 340 339 338 339 339 339 340 339 339 340 341
339 345 345 340 338 341 343 343 338 333 334 336 336 342 346 345 344 345 345 346 346 345 345 346 345 344 346 346 344 342 342 342 343 344 344 341 341 341 340 340 339 338 337 337 337 336 336 335 334 334 335 336 336 336 335 335 335 335 335 335 335 337 337
336 341 344 342 340 342 345 344 338 332 333 334 332 339 344 345 344 344 344 345 346 346 346 346 348 351 351 347 344 343 342 342 342 343 343 341 339 339 338 338 337 336 336 335 335 334 333 332 332 331 331 332 332 331 331 331 331 331 331 331 332 333 334
333 335 339 340 338 340 345 343 338 336 337 336 338 342 343 342 342 345 345 344 344 345 346 346 348 352 350 345 342 342 342 341 342 342 341 340 338 338 337 337 335 334 334 333 332 332 331 331 330 330 330 330 330 329 329 328 329 329 329 329 330 331 332
337 335 336 338 337 340 342 338 336 341 343 340 340 345 345 341 342 345 344 344 343 344 345 346 346 347 345 342 340 339 340 340 340 340 339 338 337 336 336 335 332 329 329 330 330 330 330 329 329 329 329 328 327 327 327 326 327 327 326 326 328 329 332
338 337 336 337 337 339 340 337 336 340 343 340 339 343 344 342 342 342 342 343 344 344 345 345 345 343 340 338 338 338 339 339 338 337 336 336 336 336 336 332 328 326 327 328 327 327 328 328 326 325 325 326 326 326 326 326 327 326 324 323 323 324 326
338 335 334 337 338 338 339 340 340 340 340 340 339 339 341 340 340 341 342 343 343 342 342 342 341 341 339 338 339 338 338 338 337 335 335 334 334 334 332 329 327 326 326 327 326 326 327 328 328 326 325 327 327 326 325 326 327 327 327 327 326 325 324
339 336 335 338 338 337 338 341 342 340 339 342 340 338 340 341 340 341 343 345 343 341 340 339 338 339 340 339 339 338 337 338 337 334 334 333 332 331 329 328 328 327 326 325 325 327 328 329 329 329 328 328 327 326 325 325 325 325 326 326 327 327 327
338 339 339 338 335 334 335 337 339 337 336 337 337 336 339 341 341 341 341 342 343 342 341 341 340 340 340 338 337 338 337 337 337 336 334 333 332 331 330 329 328 327 326 325 325 326 327 328 327 327 327 326 326 326 326 327 327 326 326 325 325 324 324
336 337 337 335 334 333 331 332 335 335 333 333 334 336 339 341 340 341 340 339 343 346 346 346 346 344 343 341 338 338 337 336 336 336 335 333 331 330 329 328 328 327 327 326 325 325 325 326 326 326 325 324 325 326 326 326 326 324 323 324 324 324 323
335 335 334 333 333 333 330 329 332 333 333 333 334 335 337 338 338 340 340 340 342 345 344 345 346 345 345 345 343 341 341 339 336 335 335 334 331 330 329 328 327 327 326 326 326 326 326 326 326 325 325 324 324 324 323 323 323 322 321 321 322 322 321
336 335 333 332 331 331 332 331 331 333 334 334 334 334 334 334 334 335 336 338 340 342 342 343 344 342 342 342 343 343 342 339 336 335 335 333 331 329 328 327 327 326 326 326 327 327 326 326 325 324 325 325 325 324 324 324 325 325 325 325 325 324 322
335 334 332 332 332 332 332 332 332 334 334 333 334 334 332 332 333 333 331 331 333 337 338 340 341 342 342 341 339 341 341 338 335 334 333 332 331 329 328 327 327 326 327 327 327 326 326 325 325 325 327 327 326 324 324 324 325 325 324 325 325 324 323
334 334 334 336 336 334 332 332 332 334 333 332 333 333 332 332 334 335 332 330 329 331 333 336 340 343 343 340 337 338 339 336 335 334 332 330 329 328 326 325 325 326 327 327 327 327 326 326 326 327 327 326 324 323 322 323 322 322 323 323 322 321 321
334 336 338 338 336 334 333 333 333 333 333 333 333 334 333 332 331 332 334 334 333 332 330 330 335 340 340 336 335 336 336 334 333 333 333 331 330 329 327 326 326 326 326 326 326 327 326 326 326 325 324 324 323 322 322 322 322 323 325 324 322 321 319
332 335 338 336 332 332 333 333 333 333 332 331 332 333 333 332 328 328 331 334 334 334 331 327 328 333 335 334 333 335 334 334 334 333 333 332 331 329 328 327 326 326 326 326 326 326 325 325 325 324 323 324 323 322 321 322 322 323 324 324 324 323 319
332 334 336 334 332 333 333 331 331 330 329 328 329 329 328 327 326 326 328 329 328 330 331 328 326 328 330 330 332 333 334 334 334 333 333 333 332 331 330 329 327 327 327 327 327 326 325 325 323 323 324 325 323 322 321 322 322 322 324 324 323 323 322

ECMWFFLT2_925_thetae_108.txt.gz
Theta_e
326 326 327 325 329 334 335 330 328 332 340 345 343 343 342 344 350 351 350 353 358 364 367 360 353 354 355 354 353 353 355 358 358 357 356 355 354 356 355 350 347 343 340 344 345 345 347 348 351 355 355 355 355 355 355 356 357 356 357 356 357 359 360
325 325 327 325 327 335 332 323 326 333 335 339 346 346 343 343 346 348 349 351 352 353 359 363 360 359 357 355 355 354 354 357 358 357 356 355 354 356 357 353 348 344 343 343 344 345 347 347 351 355 355 355 356 356 356 356 357 358 357 356 357 358 360
324 325 323 322 327 331 328 326 331 336 333 332 334 337 341 342 343 349 350 348 349 349 356 363 361 359 358 358 358 356 355 357 357 356 355 355 354 356 357 356 351 345 343 344 344 345 346 347 352 354 355 356 356 356 356 355 356 357 356 356 356 357 359
325 327 323 321 326 327 326 327 328 337 342 338 332 331 337 340 343 349 348 346 349 351 359 367 363 358 359 359 361 359 356 357 357 355 356 355 356 360 363 364 362 352 345 345 345 346 347 348 351 355 356 356 357 356 356 356 356 357 357 357 356 356 358
323 325 323 322 324 323 324 322 320 326 333 333 334 332 333 339 345 347 347 347 350 354 361 365 360 359 362 360 362 363 358 358 358 356 356 356 359 366 366 366 367 358 349 347 347 346 347 349 351 355 356 356 357 357 357 356 357 358 357 357 357 356 357
320 323 325 325 326 323 326 325 321 328 331 328 332 332 330 338 342 342 344 346 351 360 364 361 356 358 362 362 363 363 361 361 361 362 362 359 358 361 359 361 364 358 350 349 350 348 348 350 352 354 356 357 357 357 358 357 357 359 359 358 357 357 356
323 325 325 325 327 326 326 325 323 332 334 330 331 330 328 332 337 340 342 342 352 368 370 366 362 359 362 365 365 364 362 362 362 363 362 361 360 358 355 357 360 355 350 350 351 350 350 351 354 355 355 356 357 358 358 357 358 358 359 358 358 357 357
336 333 334 330 328 329 328 327 328 329 331 332 336 336 335 336 336 338 340 340 352 365 368 366 362 359 363 364 363 365 364 361 359 358 357 360 364 363 358 355 353 350 350 351 352 352 352 352 354 355 356 356 357 358 358 358 358 358 358 359 358 358 357
337 340 342 334 328 329 329 329 332 335 338 336 332 334 339 339 333 332 334 336 346 358 363 362 358 358 362 360 359 364 366 361 357 355 356 357 358 360 358 355 352 351 350 350 351 352 352 353 354 355 356 356 357 358 359 358 358 358 358 358 358 358 358
330 332 333 330 329 329 328 331 336 343 347 338 326 326 330 331 330 331 334 339 350 362 363 361 360 360 361 360 358 360 361 358 355 355 356 356 355 355 354 354 355 353 351 349 350 351 352 352 354 355 356 356 357 358 358 358 358 358 358 358 358 357 357
331 333 333 334 333 328 328 335 341 347 350 345 334 325 323 328 331 335 345 353 357 362 362 361 363 363 362 361 359 358 358 356 355 355 354 355 355 354 353 354 354 354 353 351 350 350 352 352 353 355 356 357 357 357 357 358 357 358 358 357 356 357 357
330 332 332 331 331 332 335 341 343 346 349 351 347 335 329 335 334 336 356 363 353 356 362 361 361 360 358 358 357 358 357 355 354 355 355 355 354 354 354 354 353 353 354 353 350 350 351 351 350 351 352 354 355 355 356 355 354 356 357 354 352 354 356
328 330 332 331 334 340 343 343 344 347 348 349 350 347 346 346 338 339 357 362 354 357 360 357 357 357 355 355 355 355 355 354 354 354 355 355 355 354 354 354 353 353 353 352 350 350 351 351 350 349 348 349 350 350 351 350 350 351 354 354 352 352 353
328 329 335 336 337 342 344 345 346 347 348 348 348 349 351 351 349 352 358 360 359 358 356 356 356 352 351 352 353 354 354 354 354 354 354 354 353 353 353 352 352 352 351 351 350 350 350 350 351 350 349 350 351 350 350 351 351 350 352 354 354 353 352
329 330 335 335 336 341 342 345 348 347 349 351 349 348 351 354 357 358 358 358 359 356 354 356 353 349 350 352 353 355 355 353 353 353 353 353 352 351 352 351 351 351 351 351 349 349 349 348 350 351 350 349 349 349 350 351 351 352 352 352 352 353 353
329 329 331 332 335 338 338 340 346 349 351 351 348 346 347 351 355 356 355 356 358 356 355 356 353 350 350 351 353 354 353 352 353 353 353 353 352 351 351 351 351 351 350 349 349 349 348 348 349 349 348 348 348 348 349 350 351 352 354 353 351 353 355
332 331 332 335 338 343 343 341 342 346 350 349 348 347 345 346 351 355 356 355 355 355 355 355 355 352 350 351 351 350 349 350 351 351 352 352 351 351 351 350 350 349 348 347 346 346 346 346 347 348 348 348 348 349 350 350 350 351 352 351 350 352 354
333 336 339 341 344 347 346 343 342 346 347 347 349 348 343 344 348 351 353 353 352 352 352 353 353 352 350 349 346 344 345 346 349 351 351 350 350 350 348 347 347 346 344 343 343 343 343 344 346 348 348 348 348 349 349 349 349 349 348 347 347 349 352
334 341 345 342 344 347 344 340 342 343 342 342 346 346 343 344 347 347 347 348 348 348 348 349 349 347 346 345 344 344 344 345 349 350 349 347 347 346 345 343 342 341 340 340 340 340 340 342 343 344 344 346 347 347 348 348 348 348 347 347 347 348 349
335 344 345 339 342 347 343 338 337 338 340 344 348 348 345 343 345 345 346 346 345 345 346 346 345 343 343 343 344 344 344 345 346 346 345 344 343 342 342 340 339 339 338 337 337 337 337 338 338 338 338 342 345 346 347 347 347 347 347 346 346 347 348
338 346 345 340 340 341 342 342 338 336 338 342 346 349 346 343 344 345 344 345 345 343 344 344 343 341 342 344 345 344 344 342 341 342 342 341 340 340 340 339 338 338 337 336 336 336 335 335 335 336 336 338 340 341 343 344 344 345 345 343 343 345 346
343 348 346 344 343 341 344 347 342 336 335 337 342 346 344 342 344 343 342 344 345 344 344 344 343 344 345 346 346 344 342 341 340 340 340 339 338 338 338 337 337 336 335 335 334 334 334 333 334 335 336 336 336 336 337 339 340 340 340 340 340 342 343
342 347 347 347 343 345 352 352 342 336 335 335 339 344 341 341 343 342 341 343 344 344 344 345 346 348 348 347 345 342 341 341 340 340 339 338 337 336 335 335 334 334 333 333 332 332 331 331 332 333 334 334 333 332 332 334 335 335 335 337 338 340 341
341 344 347 345 340 343 351 351 343 338 336 336 341 345 342 341 342 343 341 342 343 342 342 344 347 348 347 346 343 342 341 340 340 339 338 337 336 335 335 333 332 332 331 330 329 330 330 330 331 331 331 331 330 329 330 330 331 331 332 335 337 338 339
342 342 342 341 343 346 348 349 347 340 339 343 346 346 345 344 343 343 341 341 342 341 341 344 346 345 343 342 341 340 340 339 339 338 337 336 335 333 331 331 330 330 329 329 329 330 330 330 329 329 330 329 327 327 328 327 328 329 331 333 334 335 335
341 345 344 340 342 346 345 345 343 337 341 348 346 343 346 347 344 343 341 339 340 340 341 342 342 340 339 338 339 340 339 338 337 336 335 335 333 330 328 328 329 329 328 329 329 329 329 328 327 326 327 326 325 325 324 323 323 324 326 328 331 333 333
339 342 342 339 341 345 342 339 340 339 344 348 343 340 344 345 344 344 342 340 340 340 340 338 337 338 337 337 339 339 337 336 336 334 335 335 332 328 327 327 328 327 327 327 326 326 325 325 326 327 327 327 327 326 326 326 325 324 324 324 326 329 330
341 340 338 340 346 349 343 340 343 343 341 341 340 340 342 342 342 344 343 341 340 339 338 339 338 338 337 338 340 338 336 335 334 333 334 334 331 327 326 326 326 326 326 327 328 327 325 324 326 327 326 326 326 326 327 327 327 326 326 325 324 325 324
339 342 341 338 339 338 336 338 341 340 337 337 337 338 341 341 341 342 343 342 341 339 338 339 339 338 338 338 339 337 335 335 333 332 332 332 329 327 326 326 326 326 327 328 328 328 328 327 327 326 325 325 325 325 325 326 325 326 325 324 323 322 322
335 340 337 333 332 332 331 333 335 335 336 337 337 338 341 341 341 342 342 343 343 343 342 341 342 343 341 339 337 337 336 334 332 331 330 330 328 327 326 325 325 326 327 328 328 328 327 328 327 326 326 326 326 326 326 326 326 325 324 322 323 323 323
338 338 332 330 332 331 330 331 330 331 333 334 335 338 339 340 341 343 343 343 344 344 344 344 345 345 343 341 339 338 337 336 333 331 330 329 328 327 326 325 325 324 325 326 326 326 326 326 325 325 324 324 324 325 325 324 324 323 322 321 322 323 322
341 337 332 332 332 330 332 332 330 331 332 331 332 333 333 334 336 337 338 341 343 344 344 343 342 340 340 341 341 341 339 335 331 330 329 328 327 327 327 326 325 325 324 325 325 326 325 324 323 323 323 323 322 323 324 324 324 324 324 323 322 321 321
336 332 330 333 333 331 333 333 332 333 333 332 333 332 329 330 331 331 333 335 337 340 342 341 341 340 338 337 338 341 340 334 330 330 329 328 328 327 326 326 325 325 326 326 326 326 325 324 323 324 324 324 323 323 324 325 325 325 324 324 324 324 323
335 334 333 333 332 331 331 331 332 332 330 330 332 332 332 332 331 331 331 330 330 333 334 335 339 342 340 335 334 336 336 332 329 329 329 328 328 327 325 326 326 326 327 326 326 325 324 323 324 326 326 325 324 323 323 323 324 323 323 322 322 323 323
335 335 334 334 334 332 330 331 332 331 330 331 332 331 332 333 331 329 330 330 330 330 330 330 334 338 337 333 333 333 332 331 329 329 328 327 327 327 326 326 326 327 326 326 325 325 324 324 326 327 326 324 323 322 321 320 321 324 324 322 321 320 320
335 333 333 333 332 331 330 331 332 330 328 330 332 331 332 331 328 326 328 329 329 329 329 329 330 333 333 331 332 333 332 332 331 330 328 326 325 325 326 326 327 327 326 326 326 326 325 326 326 325 324 323 323 322 320 318 320 323 324 323 323 320 317
334 332 331 330 330 333 332 330 330 328 324 325 330 331 330 328 325 325 326 326 325 326 327 327 327 330 332 332 332 333 333 333 333 332 331 329 326 325 325 325 326 326 326 325 326 325 325 325 324 322 323 324 323 323 321 318 319 322 324 323 323 321 318

ECMWFFLT2_925_thetae_111.txt.gz
Theta_e
325 332 343 345 345 346 342 338 338 339 344 348 347 347 348 346 346 348 349 353 358 359 361 364 360 355 354 355 354 354 354 353 354 355 354 354 354 350 344 342 344 344 345 347 347 347 348 348 349 349 350 352 353 353 353 353 354 354 354 355 355 355 356
325 324 334 344 343 342 340 337 340 342 340 343 347 348 348 344 343 345 348 352 353 350 355 364 361 354 354 354 354 353 353 353 353 354 354 353 354 353 348 343 342 342 343 346 347 347 348 348 349 350 350 351 352 352 354 354 354 354 354 355 356 356 356
324 324 329 339 340 334 335 337 340 342 339 336 336 340 344 344 344 347 348 350 351 349 352 362 362 355 353 353 354 354 353 353 354 354 354 353 353 354 351 346 343 341 341 345 347 347 348 348 349 350 350 351 352 352 353 354 354 354 354 355 356 356 356
323 325 326 326 326 326 329 330 330 337 341 337 333 335 339 343 346 346 344 345 349 351 356 366 365 356 352 353 354 355 353 351 352 353 355 354 353 354 354 350 346 341 339 343 346 347 348 348 348 350 351 351 352 352 353 354 354 354 354 355 356 356 356
322 324 325 322 321 324 324 322 321 326 333 334 334 334 336 343 348 345 343 344 348 353 357 366 368 359 353 353 355 355 352 353 357 360 360 358 355 356 357 354 349 342 338 341 345 346 347 348 348 350 352 352 353 353 353 354 354 355 355 355 356 356 356
321 323 325 324 325 324 322 324 322 323 328 330 333 333 332 341 347 344 344 344 347 353 356 360 366 362 356 355 358 357 355 358 362 364 364 363 361 361 360 357 352 346 342 341 343 344 345 347 348 351 352 352 353 354 354 354 355 355 355 355 356 356 355
324 325 326 326 327 326 326 330 328 330 335 333 333 333 331 335 341 342 342 340 342 353 358 359 359 359 357 358 361 360 357 360 363 365 364 362 362 361 358 357 354 348 346 346 345 345 345 346 348 351 353 353 354 354 354 354 355 355 355 355 356 356 356
335 329 329 327 327 331 332 332 333 337 340 336 334 336 338 340 340 339 338 336 340 352 359 359 357 357 358 358 359 359 356 358 362 363 362 360 360 357 354 355 354 348 347 349 348 347 347 347 349 351 353 353 354 354 355 354 355 355 355 355 356 356 356
338 334 334 329 327 330 331 330 334 342 349 349 338 334 340 343 338 336 335 334 340 352 357 358 358 358 359 359 359 358 356 356 357 357 358 359 358 355 353 355 357 355 352 350 349 348 348 348 348 350 351 353 354 355 355 355 355 356 356 356 356 356 355
334 333 333 330 328 329 331 336 342 346 352 354 339 328 333 337 336 334 334 336 344 356 358 357 357 359 359 361 360 359 358 356 355 356 357 357 357 354 353 355 357 359 356 350 348 348 348 348 348 348 349 351 352 354 355 356 356 356 356 356 356 356 356
335 335 334 334 333 332 335 343 347 347 349 351 345 333 329 335 338 335 339 347 352 358 361 358 358 359 359 360 360 359 358 356 356 357 356 356 356 353 352 353 355 357 355 351 348 349 348 348 348 348 349 349 349 351 354 355 355 356 357 357 357 356 357
332 337 338 338 339 340 341 344 346 347 348 352 355 345 336 338 335 330 343 360 359 357 360 358 356 357 357 358 359 358 357 356 356 357 356 357 356 353 352 353 353 354 354 352 349 349 349 348 348 349 350 350 349 351 354 354 355 355 356 356 357 357 357
332 337 338 340 344 344 344 344 345 347 348 350 354 352 349 349 339 333 348 363 361 358 359 357 354 355 356 357 356 354 354 355 356 356 357 357 355 354 353 353 352 352 353 352 350 349 349 348 349 350 350 350 351 352 354 355 355 355 355 356 357 356 356
333 336 337 341 344 344 344 342 340 344 347 348 350 352 353 355 352 351 357 360 360 359 357 355 353 351 353 354 353 353 355 356 356 356 357 356 355 354 354 353 352 352 352 350 349 350 349 348 349 350 350 351 351 352 353 354 354 355 355 356 356 355 356
329 335 338 337 341 344 346 342 338 343 347 347 349 350 351 355 356 357 359 359 360 358 352 352 351 349 352 355 354 355 355 354 355 356 356 356 355 354 353 353 353 352 352 350 348 349 349 347 348 349 350 351 351 351 352 353 354 354 353 355 354 354 355
326 332 334 335 339 341 344 344 340 343 349 348 347 348 349 352 355 355 355 357 360 357 351 351 351 350 353 355 354 355 354 353 354 354 354 355 354 354 353 352 352 352 351 349 348 348 347 346 347 348 349 350 350 350 350 350 353 353 353 354 353 353 353
330 335 337 339 340 336 341 345 340 343 350 348 346 348 346 347 351 355 355 354 356 356 353 352 352 351 352 352 350 350 352 353 353 353 353 353 352 352 352 351 351 350 347 346 345 345 346 346 347 347 348 349 348 348 349 349 351 352 352 354 353 352 352
331 340 345 343 339 337 341 344 342 344 348 346 347 349 346 344 346 348 348 348 349 351 351 351 352 350 348 347 346 347 350 352 352 352 352 350 348 347 346 347 347 344 342 342 342 343 344 345 346 347 347 348 347 348 348 348 349 350 351 352 352 352 352
332 343 348 340 339 343 343 342 342 343 343 345 347 345 343 343 343 342 342 343 343 345 345 346 347 347 347 346 346 347 348 348 349 349 349 346 344 343 341 342 341 340 339 339 339 340 342 344 346 347 347 347 347 347 348 348 348 348 349 349 350 350 352
328 337 341 336 338 343 342 340 342 341 341 344 346 346 344 342 342 342 342 341 342 342 342 343 345 345 345 345 345 345 345 345 345 346 346 344 342 341 339 338 338 338 337 336 337 337 339 342 345 346 347 347 346 346 347 347 347 347 347 347 347 348 349
333 340 341 339 339 339 340 343 344 342 341 340 344 350 348 342 342 344 342 341 344 344 343 344 345 343 343 346 346 343 341 341 341 341 342 340 339 339 337 336 336 335 334 335 336 336 336 338 340 341 343 344 344 343 344 345 345 345 345 344 345 346 346
339 347 345 342 343 343 343 344 342 341 339 336 341 349 348 342 344 345 342 343 345 343 342 343 344 345 347 349 347 342 340 339 338 338 339 338 337 337 335 335 334 333 333 335 336 338 337 337 338 339 340 341 341 340 341 342 343 343 342 342 343 345 345
339 345 345 345 345 346 346 346 343 340 337 335 340 347 348 344 345 345 344 343 343 344 345 345 347 350 351 349 346 342 340 339 338 338 337 336 336 335 334 334 333 331 332 333 335 337 337 335 337 340 341 341 340 338 338 340 340 340 341 341 342 343 343
341 342 343 344 342 339 341 347 348 341 336 337 341 346 346 344 344 345 345 344 344 343 344 347 351 352 349 347 344 341 340 339 338 337 336 335 334 334 333 332 331 330 331 331 331 332 332 332 334 336 338 339 337 336 337 338 338 338 338 339 340 340 339
345 341 338 339 341 341 343 350 351 342 336 337 342 346 347 344 344 344 344 345 344 341 342 348 350 347 344 343 342 340 339 338 337 336 335 334 333 332 331 330 329 330 330 330 330 330 331 331 332 333 335 334 333 333 336 336 336 336 337 338 338 337 336
341 343 342 339 339 339 340 344 343 337 336 340 344 345 345 346 346 344 342 344 344 341 343 345 343 341 341 341 340 339 338 337 336 335 333 331 330 330 329 329 329 329 328 328 328 328 329 330 330 331 332 330 328 330 331 332 333 334 335 335 335 335 334
337 341 342 337 336 337 336 335 336 338 341 346 346 343 341 344 344 343 342 343 342 341 341 340 339 340 341 340 339 338 336 336 335 333 331 329 328 328 327 327 327 326 326 325 325 326 327 327 327 327 327 325 324 324 324 324 326 329 331 331 332 332 331
340 342 342 340 341 343 339 336 341 347 346 343 343 344 343 342 341 341 343 342 340 339 340 339 339 340 340 340 339 337 336 336 334 332 330 327 326 326 326 326 326 325 325 325 325 326 326 326 326 326 326 325 326 325 325 325 325 326 327 327 328 327 326
338 343 343 342 340 338 336 337 344 346 340 337 341 344 344 342 340 340 341 341 339 338 337 338 339 340 340 340 338 336 337 336 334 332 329 326 325 326 326 327 328 327 326 326 326 326 326 325 325 325 324 325 325 326 326 326 325 324 324 324 323 322 322
334 338 337 336 337 335 333 334 338 340 337 336 339 342 343 342 340 340 340 340 339 338 337 338 339 340 340 340 338 336 336 335 333 331 328 325 325 325 326 327 328 328 327 327 327 326 325 325 325 325 324 324 324 325 325 325 324 322 322 322 322 322 321
338 341 336 333 335 339 336 331 331 334 336 335 336 340 342 341 339 340 340 340 341 340 339 339 339 338 340 340 338 336 336 336 332 328 326 326 325 325 326 327 327 327 327 327 326 326 325 326 326 325 325 325 325 325 325 325 323 321 320 322 323 322 321
340 340 334 328 330 337 339 332 329 330 332 332 332 334 337 337 338 338 338 338 341 342 340 339 338 337 338 340 338 337 336 334 330 327 326 326 325 325 325 325 324 325 325 324 325 325 325 324 324 323 323 324 324 324 324 324 324 323 322 323 322 320 319
334 332 329 328 331 334 333 331 330 329 330 333 332 331 332 334 336 337 336 335 336 337 336 336 336 336 337 337 336 337 337 333 328 327 326 325 325 324 324 323 322 322 323 323 324 323 323 323 323 323 323 323 323 324 325 325 325 324 324 324 323 322 321
335 334 332 331 334 334 330 329 331 329 328 333 335 332 332 333 333 335 335 333 331 332 332 332 334 338 338 334 332 334 334 331 328 327 326 325 325 325 324 323 323 323 324 325 324 322 322 324 324 325 324 323 323 324 323 324 324 323 322 322 323 323 322
336 336 333 331 334 334 329 329 330 328 327 330 332 331 330 330 330 332 335 336 335 334 331 329 332 335 335 331 330 330 329 328 327 327 326 326 325 325 324 324 325 325 325 325 323 322 323 325 326 326 324 323 322 321 320 320 322 323 322 321 322 322 321
331 331 332 332 332 331 329 329 330 328 326 327 329 329 328 328 327 327 330 333 334 334 332 329 329 331 330 329 330 330 328 327 327 326 326 326 325 325 325 325 326 326 325 325 324 323 323 325 326 326 324 323 322 322 320 319 320 323 323 323 322 321 320
329 330 332 330 331 333 331 329 329 327 324 325 328 328 327 326 325 324 325 326 326 329 331 329 328 329 331 330 330 331 330 329 328 326 326 326 325 325 325 326 326 326 325 324 324 324 323 325 325 324 323 323 323 322 321 320 319 320 322 323 323 320 318

ECMWFFLT2_925_thetae_114.txt.gz
Theta_e
321 329 345 348 344 349 348 340 339 339 345 355 348 345 350 347 345 348 349 353 358 358 360 364 362 357 355 355 357 355 352 351 352 353 353 350 344 340 342 345 347 345 344 345 345 345 346 347 348 349 349 350 350 351 351 351 352 351 351 350 350 351 352
323 325 340 349 341 348 352 342 342 347 347 351 351 348 349 346 343 346 349 354 353 347 352 362 363 360 359 357 356 353 351 351 351 351 352 352 347 342 341 344 345 344 344 344 345 346 346 346 348 348 349 350 350 351 351 351 352 352 351 350 350 351 352
325 328 342 352 342 341 352 351 350 349 345 343 341 342 346 346 345 348 348 351 352 348 354 364 364 361 360 359 357 355 352 351 350 350 351 352 350 345 341 343 345 344 344 344 345 346 346 346 347 348 349 350 350 351 351 351 351 351 350 350 351 352 353
324 327 339 343 335 330 337 342 345 345 342 340 337 337 341 340 342 347 343 344 352 353 357 369 370 363 359 358 358 357 354 352 350 349 351 351 351 349 343 342 344 344 343 344 345 345 346 346 347 348 348 349 351 351 351 351 351 351 351 351 352 353 353
324 323 326 326 324 325 327 326 331 333 333 336 336 335 338 339 342 346 342 343 352 353 353 364 368 362 359 357 355 355 352 351 350 349 351 351 351 350 346 342 343 343 342 344 345 345 346 346 346 347 348 348 350 351 351 352 352 351 352 352 353 353 353
324 326 325 322 322 323 325 329 331 327 324 329 331 332 337 340 341 343 341 342 350 352 352 359 360 358 358 353 351 353 352 351 352 351 351 351 351 351 347 343 341 341 341 343 345 346 346 346 347 347 348 348 349 351 351 352 352 352 352 353 353 353 354
326 327 326 325 325 324 327 334 337 335 335 336 333 332 337 336 336 341 341 337 343 349 353 359 359 359 358 352 348 350 352 352 353 355 355 353 351 351 349 346 342 339 339 341 344 345 346 346 347 347 348 348 349 350 351 352 352 352 352 353 353 353 354
342 334 332 330 328 331 332 332 338 342 346 346 337 334 339 338 337 341 338 335 342 351 355 358 359 360 362 359 355 353 354 355 354 357 360 358 355 353 352 350 345 340 338 341 343 344 345 346 346 347 348 349 350 350 351 351 352 352 353 353 353 354 354
340 333 337 337 333 335 332 331 340 345 348 350 341 332 336 338 338 341 337 336 343 351 355 357 358 360 362 363 361 358 358 359 357 358 360 359 358 357 355 354 351 347 344 343 343 344 345 345 346 347 348 349 350 351 351 352 352 353 353 353 354 354 354
330 331 340 339 335 338 338 339 345 345 346 351 343 331 330 334 337 338 337 339 346 353 357 358 359 360 363 363 359 355 356 357 356 358 358 357 357 356 355 354 351 350 348 345 344 344 345 345 347 348 349 350 351 351 352 352 352 353 354 354 354 354 354
329 336 346 342 337 342 345 346 349 347 346 349 345 333 330 334 336 339 342 347 353 358 360 359 359 359 361 362 358 354 356 355 354 356 357 355 354 353 353 353 351 350 350 347 345 345 346 346 346 348 349 350 351 351 352 353 353 353 354 354 354 354 355
332 338 345 342 343 347 346 344 349 349 346 349 349 344 341 338 329 330 344 353 355 357 357 355 356 357 357 359 358 355 356 356 354 355 356 355 354 352 352 353 352 352 351 349 346 346 347 347 347 348 349 350 351 352 353 353 353 353 354 354 355 355 355
337 338 338 341 347 348 343 341 347 351 349 349 352 351 351 346 332 331 347 355 357 357 356 353 354 354 355 356 356 355 354 354 353 353 354 355 354 353 353 353 353 354 354 351 348 347 347 347 347 348 349 350 351 352 352 353 353 354 354 354 355 355 355
335 336 337 341 346 347 343 339 342 349 350 348 350 349 351 351 347 348 354 357 358 358 355 354 352 351 353 353 353 354 355 354 354 352 352 353 352 352 353 353 353 355 355 351 348 348 348 347 348 349 349 350 351 352 353 353 354 354 354 355 355 355 355
327 335 338 339 343 346 346 344 344 349 352 351 350 348 349 353 354 355 356 357 359 356 352 352 352 351 353 353 354 356 355 355 355 351 350 352 353 353 353 353 353 353 353 350 348 348 348 348 348 349 349 350 351 352 353 353 354 354 355 355 355 355 355
324 332 338 342 345 340 339 345 348 350 355 354 350 347 347 350 353 355 355 355 357 356 352 352 351 350 351 352 354 356 355 354 354 353 353 354 354 354 353 352 353 353 353 350 348 348 348 348 349 349 349 350 350 352 352 353 354 354 354 355 355 355 354
323 330 340 346 345 336 335 342 342 345 353 352 349 349 347 345 348 354 354 351 351 353 352 351 351 350 350 351 352 353 354 354 353 354 354 354 354 354 353 352 352 351 350 349 348 347 348 348 349 349 350 350 350 351 351 352 352 352 352 353 353 353 352
322 335 345 342 338 337 339 340 339 345 351 350 348 349 346 344 345 347 347 345 345 348 350 350 349 348 349 351 350 350 352 353 353 352 351 350 350 349 348 348 348 346 345 346 346 347 347 347 348 348 349 349 349 349 350 349 350 350 351 351 350 349 350
326 342 346 335 335 342 340 337 340 344 346 346 347 345 343 343 343 343 343 342 341 344 347 348 346 345 346 347 347 347 348 349 349 349 347 345 344 343 343 343 343 342 341 343 344 345 346 346 346 347 347 348 348 348 347 347 348 348 349 349 348 348 349
325 336 336 329 333 340 336 335 339 341 341 342 343 345 346 345 343 344 345 342 341 342 343 344 344 344 343 343 343 344 343 344 345 344 343 341 340 340 340 339 339 339 339 340 341 342 344 345 346 346 347 347 346 347 347 347 347 347 347 347 347 347 348
329 338 338 336 336 336 336 338 339 341 345 344 344 348 352 348 345 345 344 342 343 343 343 343 343 343 344 344 344 342 340 340 340 339 339 338 337 337 337 336 336 336 337 338 338 339 341 342 344 345 346 346 346 346 346 346 346 347 346 346 346 346 347
335 345 344 341 341 342 343 343 339 339 343 343 341 344 348 348 345 343 341 342 344 344 345 345 343 344 349 348 345 342 340 339 338 337 337 336 335 335 334 334 334 334 335 335 336 337 338 338 340 342 342 343 344 344 344 345 345 345 344 344 345 346 347
337 344 344 341 342 345 348 346 340 336 338 339 336 337 344 348 344 342 342 343 343 344 345 344 343 348 352 349 344 342 339 337 337 336 335 334 333 332 332 331 331 332 333 333 334 335 335 335 337 339 339 339 339 338 338 340 342 342 342 343 344 345 345
339 340 341 342 340 338 340 343 342 338 336 335 335 338 345 346 341 341 345 344 343 344 343 342 343 348 350 348 343 340 337 336 336 334 333 333 332 331 331 330 330 331 332 332 332 332 332 333 336 336 337 336 334 333 334 335 335 335 335 337 340 341 341
343 337 334 337 339 338 339 344 346 340 334 333 338 343 346 345 341 341 344 343 344 345 344 343 342 342 343 343 339 336 335 335 334 332 331 331 330 330 330 329 328 329 329 329 329 329 330 333 334 335 335 333 331 331 332 332 331 331 332 334 335 336 336
340 340 337 335 335 335 337 340 341 336 333 337 344 344 342 343 343 341 341 343 344 344 343 342 341 340 340 338 336 334 333 332 331 330 330 329 329 328 328 327 326 326 326 326 327 327 328 330 332 334 334 331 328 329 329 328 328 330 331 331 331 332 333
335 339 338 335 332 330 332 334 335 335 337 343 347 343 339 340 341 339 342 344 342 341 341 340 340 341 339 336 335 334 332 330 329 328 328 328 327 327 327 326 325 325 325 326 326 325 326 327 327 330 330 327 326 326 326 325 327 329 328 327 328 329 330
339 342 341 338 336 332 331 332 337 342 342 340 344 346 343 341 339 339 342 343 341 339 340 339 339 339 336 335 335 334 332 331 329 326 325 326 326 326 326 325 325 326 326 326 326 326 325 325 325 326 327 325 325 325 324 325 326 326 325 324 325 325 326
338 342 340 337 333 330 330 330 333 340 340 337 340 347 347 343 340 341 342 341 339 337 337 338 338 337 336 336 334 333 334 332 328 325 324 325 325 326 325 325 326 326 325 325 325 325 325 325 325 325 325 325 325 325 324 324 323 323 323 322 321 321 322
333 334 333 333 332 331 331 330 329 331 334 334 335 340 344 343 341 341 341 339 337 336 337 338 338 337 336 336 334 333 334 331 327 324 323 325 326 326 325 325 326 326 325 324 325 325 325 325 325 325 325 325 325 324 323 322 322 322 322 321 321 321 321
334 336 334 334 333 331 331 333 333 332 332 332 329 331 337 340 339 337 337 337 337 337 337 338 338 337 337 336 335 335 335 332 327 323 323 324 325 326 326 326 326 326 325 325 325 325 325 325 325 325 325 324 324 324 323 322 322 322 321 320 320 320 320
335 335 333 331 330 330 330 334 338 337 336 334 330 327 330 335 336 335 334 334 336 337 337 338 338 337 337 337 337 337 336 331 325 323 323 323 325 326 326 326 326 326 325 325 325 324 324 324 324 324 324 324 324 324 324 323 322 321 320 320 320 320 320
332 330 330 330 332 332 331 332 334 333 333 335 332 327 327 330 332 333 333 333 334 334 335 337 338 338 337 335 336 338 337 330 324 323 323 323 324 324 324 325 325 324 324 324 323 323 323 323 322 323 324 324 324 324 323 323 323 322 321 322 322 320 320
337 336 335 334 335 336 335 334 332 329 330 332 330 327 328 330 330 330 331 332 331 331 331 333 337 340 338 332 331 334 332 327 324 324 324 324 323 323 323 324 324 323 322 322 323 324 324 323 323 323 323 322 321 320 319 321 323 322 321 322 322 321 319
344 339 335 333 335 336 334 331 331 330 331 332 330 328 329 331 329 328 329 331 331 331 331 330 333 337 335 331 330 330 327 325 325 325 324 324 323 323 324 324 324 323 322 322 323 325 326 324 323 323 322 321 321 319 318 319 321 322 322 322 321 320 320
336 331 331 332 333 332 329 329 333 334 332 330 330 329 328 328 328 328 329 329 329 330 331 330 329 331 330 328 329 328 325 325 325 325 324 325 324 324 324 325 325 324 322 321 322 324 325 325 324 323 322 322 321 321 320 319 319 320 322 322 322 320 319
329 328 330 330 330 330 328 326 328 328 326 326 327 327 326 326 326 326 327 327 327 329 331 330 328 329 329 328 328 327 326 326 326 325 325 325 324 324 325 325 324 324 323 322 322 323 324 325 324 323 323 323 322 322 322 321 320 319 319 320 321 320 319

ECMWFFLT2_925_thetae_117.txt.gz
Theta_e
323 328 337 345 341 340 341 335 332 333 334 335 333 333 338 337 335 339 341 340 344 346 347 353 355 351 351 351 353 355 356 353 349 349 348 342 340 341 343 345 346 348 350 349 349 350 350 350 351 351 352 352 352 353 353 353 353 353 351 350 350 351 351
326 324 331 341 338 338 339 334 333 335 335 335 333 333 336 335 331 334 338 338 340 341 343 353 358 353 352 352 351 352 355 354 350 349 350 346 342 342 344 346 347 348 349 349 350 350 350 350 351 351 352 351 351 352 353 353 354 354 354 352 352 352 351
327 329 337 340 336 334 335 335 335 334 335 334 332 333 334 334 332 331 334 338 338 337 341 351 356 355 354 353 352 352 352 352 350 348 351 349 344 342 344 346 347 348 349 349 350 350 350 350 351 352 351 351 352 353 353 354 354 354 354 355 355 353 352
323 327 335 335 333 332 332 335 334 333 338 338 334 333 330 331 333 331 332 334 332 335 345 352 355 356 356 353 353 353 351 350 350 348 350 351 347 344 344 345 347 348 349 349 349 350 350 351 351 352 352 352 353 353 354 354 354 354 355 355 355 354 353
322 322 326 326 327 328 326 329 329 329 334 335 334 334 328 326 330 331 332 329 325 337 354 355 355 356 354 353 352 352 351 350 350 349 348 350 351 347 344 345 346 348 348 348 349 350 350 350 351 352 352 352 352 353 353 354 354 355 355 356 355 354 354
318 322 324 322 323 326 327 331 333 331 330 326 327 331 329 325 326 329 331 325 325 342 356 354 355 355 352 353 351 349 350 350 350 350 348 349 352 348 344 343 344 347 349 348 349 350 350 350 351 351 352 352 353 354 354 354 354 354 355 356 354 353 353
321 323 324 322 322 328 335 339 341 339 332 325 324 326 327 326 327 330 330 326 330 349 356 352 354 354 353 353 351 350 350 349 350 351 349 350 351 350 346 343 344 348 349 349 350 350 349 350 351 351 352 352 353 354 354 354 355 354 354 354 352 351 351
325 323 325 326 325 329 334 338 343 343 340 337 334 332 330 327 326 331 330 326 332 349 356 352 353 354 354 353 350 350 350 351 352 352 352 352 352 352 349 345 345 347 348 350 351 351 351 351 351 351 352 352 353 354 354 354 354 353 353 353 352 351 351
320 321 322 325 328 332 333 336 342 344 345 345 342 339 335 328 326 331 328 323 331 350 356 352 352 354 355 355 353 353 356 357 357 355 355 354 352 352 351 348 346 345 347 350 352 351 352 352 351 352 351 352 352 352 353 352 352 353 353 353 353 352 353
315 318 320 322 328 333 333 337 343 344 345 344 337 333 329 326 329 332 328 325 335 353 356 352 353 355 355 355 354 355 357 357 357 358 356 355 353 352 353 351 348 346 347 349 351 352 352 352 352 352 352 352 352 352 352 351 351 352 353 353 353 354 355
317 320 326 329 332 332 330 334 340 344 346 344 336 328 326 333 336 331 333 338 342 351 356 353 353 355 356 357 354 353 354 353 355 357 355 354 353 352 352 352 350 348 347 348 349 351 352 352 352 352 352 352 352 352 351 351 351 351 351 352 352 353 354
323 326 331 333 336 334 332 334 338 343 346 345 341 337 338 344 338 327 338 349 346 349 356 354 353 354 355 357 356 354 353 352 353 354 353 354 354 352 351 351 351 350 348 348 349 350 351 352 352 352 352 353 353 352 352 352 352 351 351 351 352 352 353
326 329 329 333 338 338 338 339 340 344 346 344 344 344 345 345 338 334 345 352 349 353 356 353 353 354 354 355 355 354 352 351 352 353 353 354 354 354 352 351 351 351 349 350 350 350 351 352 352 353 353 354 354 354 354 353 352 351 352 352 353 354 354
327 328 329 334 338 337 337 340 342 344 346 344 344 346 348 347 345 346 351 352 353 355 355 353 353 352 352 354 353 353 354 352 353 354 354 353 353 354 354 353 353 351 350 352 352 352 352 352 352 353 353 354 355 355 356 355 353 352 353 353 354 356 356
324 327 329 332 334 335 334 335 340 344 345 344 345 346 347 349 350 351 351 351 353 353 352 352 353 351 352 354 354 354 354 352 351 351 351 351 352 353 353 353 354 353 352 353 354 353 353 352 352 352 352 352 353 354 355 354 354 353 352 352 354 356 357
321 326 329 330 332 332 329 328 335 342 343 342 344 346 347 348 350 351 349 347 350 353 352 351 351 351 352 353 353 354 353 352 351 350 350 351 352 352 351 351 352 353 352 352 353 353 353 352 352 351 350 350 350 351 353 353 353 352 352 353 354 356 357
319 324 328 331 331 327 325 327 333 341 344 343 345 347 347 347 348 348 347 346 348 351 352 351 350 349 349 349 350 350 351 352 352 352 352 352 352 352 352 351 350 350 350 350 351 352 351 351 351 350 349 348 349 350 352 352 353 353 353 354 354 355 355
318 325 329 330 326 322 326 333 336 340 343 344 345 348 346 346 347 347 347 347 345 346 348 349 348 347 346 346 346 346 347 350 352 351 350 349 349 349 349 350 349 348 349 349 350 350 350 350 350 349 349 350 350 350 351 352 353 353 353 353 353 353 353
319 325 326 323 320 323 331 335 335 339 342 341 342 345 345 345 346 346 347 345 343 343 344 345 345 344 343 342 342 342 343 345 347 346 345 344 344 345 344 345 344 344 346 346 347 347 348 349 349 349 349 350 350 350 350 351 351 351 352 351 352 353 352
321 322 322 320 321 327 331 331 332 336 339 339 339 341 343 344 345 347 347 345 343 343 343 343 343 342 341 341 341 341 340 340 341 341 341 341 341 340 340 339 340 340 341 341 342 343 345 347 347 348 349 349 350 350 350 350 350 350 350 349 349 350 350
325 325 324 323 324 327 330 332 333 334 337 338 338 339 340 342 343 345 345 344 342 343 344 344 342 341 342 343 342 340 339 339 338 337 337 337 337 337 336 336 337 338 338 339 340 340 341 343 343 344 346 347 348 348 347 348 348 348 348 347 347 347 347
327 330 327 326 323 321 327 334 333 332 333 334 335 336 338 340 342 342 343 343 343 343 344 343 341 342 346 347 343 340 338 337 336 335 335 335 335 335 335 335 336 336 336 337 338 338 337 338 339 341 343 344 344 343 343 343 343 342 342 343 344 345 346
327 327 326 327 323 321 329 334 331 330 331 331 334 334 333 338 342 341 341 342 343 344 344 342 342 345 350 348 344 340 338 336 335 334 334 334 334 333 333 334 333 333 334 335 336 336 335 335 337 339 340 340 339 338 337 338 338 337 337 338 340 342 344
327 325 324 326 325 326 333 333 329 329 330 331 334 333 330 336 341 340 340 342 342 343 343 341 342 346 349 347 342 338 336 335 334 334 334 334 334 333 332 331 330 330 331 332 333 333 334 334 334 335 336 336 334 332 332 333 332 331 332 334 336 338 340
329 327 324 323 324 327 332 331 329 330 330 331 334 333 331 336 340 340 340 341 341 341 341 340 341 343 343 341 338 335 333 333 333 332 332 332 332 332 331 330 329 328 328 328 329 330 330 332 332 332 333 332 329 328 329 328 327 328 331 333 335 337 338
328 329 326 323 323 326 328 329 330 329 330 332 333 333 333 336 339 340 340 340 340 340 339 339 340 340 338 336 335 333 331 330 330 331 330 330 330 331 330 330 329 328 327 327 327 327 328 329 329 331 331 329 327 327 326 324 325 329 333 334 334 335 335
328 329 327 324 324 326 328 330 331 331 332 332 331 334 336 337 339 339 339 339 339 338 338 339 339 339 337 334 332 330 329 329 329 329 329 328 329 330 330 329 328 327 327 326 326 326 327 328 327 328 329 328 326 325 324 324 327 330 332 332 332 332 331
327 327 327 325 326 328 328 330 332 332 332 332 331 335 339 338 337 339 339 339 338 336 338 340 339 338 336 333 331 329 328 328 328 328 328 328 328 329 329 328 328 327 327 326 325 325 326 326 326 327 327 327 326 324 323 324 326 327 327 327 327 327 326
326 327 328 327 328 328 327 328 330 330 331 331 331 335 338 337 337 338 339 338 337 336 337 338 338 337 335 332 329 329 328 327 327 328 328 328 329 328 327 327 327 327 327 326 326 325 325 324 324 324 325 325 325 323 322 321 322 322 322 321 322 321 321
326 328 329 328 329 330 329 328 329 329 331 331 331 334 336 335 335 336 337 337 336 337 337 338 337 336 334 331 329 328 327 327 328 329 329 328 329 328 327 327 327 326 326 326 326 326 326 324 323 323 323 324 324 322 321 320 321 321 321 321 321 321 321
326 329 331 330 330 331 330 329 329 329 330 331 331 332 333 332 332 333 333 335 336 337 337 336 336 335 333 331 330 328 327 327 328 330 329 329 329 328 328 328 328 327 327 327 326 326 326 325 324 323 323 323 323 321 320 320 320 320 320 320 321 322 322
328 330 331 330 329 329 329 330 331 331 330 331 331 331 329 329 330 330 330 332 335 336 337 335 334 333 332 330 330 328 328 329 330 330 330 330 329 328 326 327 327 328 327 326 326 326 325 324 322 321 321 322 322 321 321 320 320 320 319 320 320 320 321
330 331 330 329 330 330 330 330 331 331 331 331 331 331 329 329 331 332 331 332 332 333 335 335 334 332 331 330 329 328 327 329 330 330 330 330 329 328 326 325 324 326 327 326 326 326 325 322 320 319 320 321 321 322 321 321 321 320 319 319 319 319 319
331 332 332 332 333 333 331 331 331 330 330 331 331 332 331 331 332 333 333 332 332 331 332 332 333 333 331 330 330 329 328 330 330 329 329 328 328 327 326 324 323 324 326 327 327 326 324 322 320 320 320 320 321 321 321 321 322 321 320 321 321 321 321
329 331 332 332 333 333 331 331 331 330 331 332 332 331 331 330 331 332 333 333 333 332 331 330 331 333 334 332 331 330 330 330 329 328 327 327 326 326 326 325 325 325 325 326 325 325 324 323 322 322 321 320 320 320 319 320 320 321 321 322 323 324 324
328 328 330 331 331 332 330 330 331 331 332 333 331 330 331 330 330 332 333 331 330 331 331 330 330 331 333 332 331 330 329 329 328 328 328 327 327 326 326 326 327 327 327 326 325 324 323 323 324 324 323 321 321 320 320 319 319 319 320 320 322 324 324
328 327 329 329 330 331 328 328 328 329 332 333 331 330 331 330 329 330 330 329 328 329 330 330 329 329 331 331 331 330 330 330 330 329 329 328 327 327 327 326 326 325 325 326 325 323 322 322 323 324 323 322 321 321 321 320 320 319 319 319 321 323 323